# Wetter Temperatur Luftdruck Luftfeuchtigkeit Sichtweite Windgeschwindigkeit Windrichtung Zeit
1 Clouds 12 1028 40 10000 1.54 0 13:25 22.04.2021
2 Clouds 13 1028 46 10000 1.54 0 12:56 22.04.2021
3 Clouds 13 1028 46 10000 1.54 0 12:56 22.04.2021
4 Clouds 12 1028 46 10000 1.54 0 12:37 22.04.2021
5 Clouds 11 1028 53 10000 1.54 0 12:18 22.04.2021
6 Clouds 9 1028 57 10000 2.06 250 11:42 22.04.2021
7 Clouds 8 1028 57 10000 1.54 0 11:21 22.04.2021
8 Clouds 7 1028 65 10000 0.51 0 10:42 22.04.2021
9 Clouds 6 1028 61 10000 1.54 0 10:20 22.04.2021
10 Clouds 5 1028 70 10000 0.51 0 09:39 22.04.2021
11 Clouds 4 1028 75 10000 1.03 50 08:57 22.04.2021
12 Clouds 3 1028 75 10000 1.03 50 08:38 22.04.2021
13 Clouds 1 1028 86 10000 1.03 0 08:18 22.04.2021
14 Clouds 1 1027 93 10000 2.57 40 07:36 22.04.2021
15 Clouds 0 1027 93 10000 0.51 40 07:18 22.04.2021
16 Clear 0 1027 86 10000 0.95 80 06:21 22.04.2021
17 Clear 1 1027 86 10000 0.51 0 05:24 22.04.2021
18 Clouds 5 1026 70 10000 1.54 0 02:29 22.04.2021
19 Clouds 6 1026 61 10000 2.06 100 00:25 22.04.2021
20 Clouds 7 1025 57 10000 2.06 90 23:41 21.04.2021
21 Clouds 7 1025 61 10000 2.57 100 23:21 21.04.2021
22 Clouds 8 1025 57 10000 2.57 90 22:41 21.04.2021
23 Clouds 9 1025 53 10000 2.06 90 22:21 21.04.2021
24 Clouds 8 1025 50 10000 2.06 90 21:41 21.04.2021
25 Clouds 10 1024 53 10000 2.57 90 21:23 21.04.2021
26 Clouds 11 1024 53 10000 2.57 0 20:32 21.04.2021
27 Clouds 12 1024 54 10000 2.57 100 19:58 21.04.2021
28 Clouds 12 1024 54 10000 2.57 100 19:38 21.04.2021
29 Clouds 12 1024 54 10000 3.09 90 19:18 21.04.2021
30 Clouds 12 1024 50 10000 2.57 80 18:42 21.04.2021
31 Clouds 13 1023 50 10000 4.12 80 18:22 21.04.2021
32 Clouds 13 1023 54 10000 2.57 80 17:45 21.04.2021
33 Clouds 13 1023 54 10000 2.06 90 17:23 21.04.2021
34 Clouds 13 1023 54 10000 2.57 110 16:41 21.04.2021
35 Clouds 13 1024 58 10000 3.6 90 15:52 21.04.2021
36 Clouds 13 1024 58 10000 3.09 100 15:28 21.04.2021
37 Clouds 12 1024 62 10000 3.6 100 14:46 21.04.2021
38 Clouds 11 1024 62 10000 4.12 90 14:27 21.04.2021
39 Clouds 11 1024 62 10000 4.12 90 14:27 21.04.2021
40 Clouds 11 1024 62 10000 4.12 90 13:50 21.04.2021
41 Clouds 11 1023 62 10000 4.63 60 13:23 21.04.2021
42 Clouds 11 1023 58 10000 3.09 100 12:48 21.04.2021
43 Clouds 11 1023 58 10000 3.6 0 12:25 21.04.2021
44 Clouds 11 1023 58 10000 3.6 0 11:46 21.04.2021
45 Clouds 10 1022 57 10000 3.6 80 11:25 21.04.2021
46 Clouds 9 1022 62 10000 4.63 70 10:40 21.04.2021
47 Clouds 9 1022 62 10000 2.57 80 09:57 21.04.2021
48 Clouds 9 1021 61 10000 5.14 70 09:31 21.04.2021
49 Clouds 9 1021 71 10000 4.12 70 08:51 21.04.2021
50 Clouds 8 1021 71 10000 5.14 60 08:24 21.04.2021
51 Clouds 8 1021 76 10000 4.12 60 07:57 21.04.2021
52 Clouds 8 1020 76 10000 5.14 60 07:29 21.04.2021
53 Clouds 8 1020 81 10000 5.14 60 06:23 21.04.2021
54 Clouds 10 1019 71 10000 1.54 10 02:56 21.04.2021
55 Clouds 11 1019 58 10000 1.03 0 00:28 21.04.2021
56 Clouds 11 1019 58 10000 1.54 290 23:41 20.04.2021
57 Clouds 12 1019 54 10000 2.06 290 22:50 20.04.2021
58 Clouds 12 1018 54 10000 2.57 300 22:24 20.04.2021
59 Clouds 12 1018 54 10000 2.57 300 21:59 20.04.2021
60 Clouds 12 1018 54 10000 2.57 300 21:40 20.04.2021
61 Clouds 13 1018 54 10000 3.09 290 21:22 20.04.2021
62 Clouds 13 1018 47 10000 3.6 300 20:40 20.04.2021
63 Clouds 14 1018 47 10000 3.6 300 20:20 20.04.2021
64 Clouds 15 1018 44 10000 3.6 300 19:47 20.04.2021
65 Clouds 15 1018 47 10000 4.63 320 19:29 20.04.2021
66 Clouds 15 1018 51 10000 4.63 320 18:46 20.04.2021
67 Clouds 16 1017 51 10000 5.14 330 18:28 20.04.2021
68 Clouds 16 1017 48 10000 5.14 300 17:41 20.04.2021
69 Clouds 17 1017 39 10000 1.54 0 16:51 20.04.2021
70 Clouds 17 1017 42 10000 1.54 0 16:28 20.04.2021
71 Clouds 16 1018 48 10000 1.03 0 15:40 20.04.2021
72 Clouds 16 1018 44 10000 1.54 0 15:19 20.04.2021
73 Clouds 15 1018 47 10000 1.54 0 14:45 20.04.2021
74 Clouds 16 1018 48 10000 1.03 0 14:22 20.04.2021
75 Clouds 15 1018 55 9000 1.54 0 13:28 20.04.2021
76 Clouds 14 1019 58 10000 1.03 0 12:55 20.04.2021
77 Clouds 13 1019 58 10000 1.54 0 12:24 20.04.2021
78 Clouds 13 1019 62 10000 1.03 0 11:46 20.04.2021
79 Haze 12 1019 66 5000 1.03 0 11:25 20.04.2021
80 Clouds 12 1019 71 10000 0.51 0 10:47 20.04.2021
81 Clouds 11 1018 76 10000 1.03 0 10:24 20.04.2021
82 Clouds 9 1018 81 10000 1.03 250 09:45 20.04.2021
83 Clouds 7 1018 81 10000 1.03 0 08:59 20.04.2021
84 Clouds 7 1018 81 10000 1.03 0 08:35 20.04.2021
85 Clouds 5 1018 93 10000 0.51 0 07:52 20.04.2021
86 Clouds 5 1018 93 10000 1.03 90 07:21 20.04.2021
87 Clouds 6 1018 87 10000 1.54 120 05:42 20.04.2021
88 Clouds 7 1018 81 10000 1.54 120 04:43 20.04.2021
89 Clouds 8 1018 70 10000 1.54 310 02:58 20.04.2021
90 Clouds 9 1018 61 10000 1.54 100 00:50 20.04.2021
91 Clouds 10 1018 53 10000 1.54 120 23:52 19.04.2021
92 Clouds 10 1018 57 10000 1.54 100 23:29 19.04.2021
93 Clouds 12 1018 54 10000 1.54 100 22:37 19.04.2021
94 Clouds 13 1018 44 10000 1.03 120 21:59 19.04.2021
95 Clouds 12 1018 44 10000 1.03 120 21:37 19.04.2021
96 Clouds 13 1018 41 10000 1.03 0 21:19 19.04.2021
97 Clouds 13 1018 38 10000 1.03 0 20:40 19.04.2021
98 Clear 16 1018 36 10000 1.54 0 20:20 19.04.2021
99 Clear 15 1018 36 10000 2.57 190 19:43 19.04.2021
100 Clear 16 1019 36 10000 2.57 200 19:24 19.04.2021
101 Clear 16 1019 36 10000 2.57 180 18:47 19.04.2021
102 Clear 16 1019 36 10000 2.57 190 18:24 19.04.2021
103 Clear 16 1019 33 10000 3.09 0 17:56 19.04.2021
104 Clear 16 1019 33 10000 2.06 200 17:30 19.04.2021
105 Clear 16 1019 33 10000 2.06 0 16:58 19.04.2021
106 Clear 16 1019 33 10000 2.06 0 16:39 19.04.2021
107 Clear 16 1020 33 10000 2.06 200 16:20 19.04.2021
108 Clear 16 1020 31 10000 2.57 200 15:40 19.04.2021
109 Clear 15 1020 33 10000 1.54 0 15:20 19.04.2021
110 Clear 16 1021 31 10000 1.54 0 14:37 19.04.2021
111 Clear 16 1021 33 10000 2.06 0 14:19 19.04.2021
112 Clear 15 1021 35 10000 2.06 0 13:36 19.04.2021
113 Clear 15 1021 30 10000 1.54 0 13:18 19.04.2021
114 Clear 14 1022 35 10000 2.57 220 12:42 19.04.2021
115 Clear 13 1022 41 10000 1.54 0 12:22 19.04.2021
116 Clear 13 1022 43 10000 2.06 230 11:53 19.04.2021
117 Clear 12 1022 43 10000 1.03 0 11:21 19.04.2021
118 Clear 11 1022 50 10000 1.03 0 10:45 19.04.2021
119 Clouds 10 1022 50 10000 0.51 0 10:21 19.04.2021
120 Clouds 8 1022 61 10000 1.03 0 09:49 19.04.2021
121 Clear 7 1022 70 10000 0.51 0 09:27 19.04.2021
122 Clear 6 1022 65 10000 1.03 80 08:58 19.04.2021
123 Clouds 5 1022 70 10000 1.03 80 08:25 19.04.2021
124 Clouds 4 1022 75 10000 1.03 70 07:48 19.04.2021
125 Clouds 3 1022 75 9000 1.03 80 07:19 19.04.2021
126 Clouds 5 1023 81 10000 1.03 90 05:44 19.04.2021
127 Clouds 7 1023 70 10000 0.51 0 02:34 19.04.2021
128 Clouds 8 1024 71 10000 0.51 0 00:45 19.04.2021
129 Clouds 11 1024 62 10000 0.51 0 23:38 18.04.2021
130 Clouds 11 1024 62 10000 1.54 0 23:18 18.04.2021
131 Clouds 12 1024 58 10000 0.51 0 22:43 18.04.2021
132 Clouds 12 1024 54 10000 0.51 0 22:23 18.04.2021
133 Clouds 13 1023 44 10000 2.06 280 21:29 18.04.2021
134 Clouds 13 1023 44 10000 2.06 280 21:29 18.04.2021
135 Clouds 13 1023 44 10000 2.06 260 20:56 18.04.2021
136 Clouds 13 1023 44 10000 2.06 260 20:37 18.04.2021
137 Clouds 15 1023 41 10000 2.57 260 20:19 18.04.2021
138 Clouds 15 1023 41 10000 3.09 280 19:44 18.04.2021
139 Clouds 16 1023 41 10000 3.6 250 19:21 18.04.2021
140 Clouds 15 1023 38 10000 1.54 0 18:46 18.04.2021
141 Clouds 15 1023 38 10000 2.57 240 18:26 18.04.2021
142 Clouds 15 1023 38 10000 2.06 210 17:47 18.04.2021
143 Clouds 15 1024 41 10000 1.54 0 17:28 18.04.2021
144 Clouds 15 1024 44 10000 2.06 0 16:52 18.04.2021
145 Clouds 16 1024 44 10000 2.06 0 16:34 18.04.2021
146 Clouds 15 1024 44 10000 1.54 0 15:49 18.04.2021
147 Clouds 15 1024 47 10000 1.03 0 15:28 18.04.2021
148 Clouds 15 1024 44 10000 2.06 0 14:53 18.04.2021
149 Clouds 15 1025 44 10000 2.06 200 14:28 18.04.2021
150 Clouds 14 1025 44 10000 1.03 0 13:56 18.04.2021
151 Clouds 14 1025 44 10000 1.03 0 13:38 18.04.2021
152 Clouds 13 1025 47 10000 1.54 0 13:18 18.04.2021
153 Clouds 12 1025 50 10000 1.03 0 12:33 18.04.2021
154 Clouds 11 1025 53 10000 1.03 0 11:45 18.04.2021
155 Clouds 10 1025 57 10000 1.03 0 11:22 18.04.2021
156 Clouds 9 1026 57 10000 1.03 0 10:48 18.04.2021
157 Clouds 9 1026 61 10000 1.03 0 10:28 18.04.2021
158 Clouds 8 1026 70 10000 1.03 0 09:54 18.04.2021
159 Clouds 7 1026 70 10000 1.03 0 09:36 18.04.2021
160 Clouds 6 1026 75 10000 1.03 0 08:58 18.04.2021
161 Clouds 6 1026 75 10000 1.03 0 08:37 18.04.2021
162 Clouds 5 1025 75 10000 1.02 187 08:18 18.04.2021
163 Clouds 5 1025 75 10000 0.51 0 07:38 18.04.2021
164 Clouds 5 1026 75 10000 0.51 0 05:43 18.04.2021
165 Clouds 5 1026 65 10000 1.54 160 05:24 18.04.2021
166 Clouds 6 1027 70 10000 1.54 240 02:56 18.04.2021
167 Clouds 6 1027 65 10000 1.03 210 02:22 18.04.2021
168 Clouds 8 1026 53 10000 2.06 260 00:38 18.04.2021
169 Clouds 9 1026 49 10000 1.03 0 23:38 17.04.2021
170 Clouds 10 1026 50 10000 1.03 0 22:52 17.04.2021
171 Clouds 11 1026 53 10000 1.54 120 22:31 17.04.2021
172 Clouds 12 1026 53 10000 1.03 230 21:50 17.04.2021
173 Clouds 12 1026 57 10000 1.03 220 21:30 17.04.2021
174 Clouds 12 1026 50 10000 2.06 230 20:48 17.04.2021
175 Clouds 13 1026 44 10000 2.57 230 20:27 17.04.2021
176 Clouds 14 1026 41 10000 2.06 200 19:45 17.04.2021
177 Clouds 14 1026 41 10000 1.54 0 19:21 17.04.2021
178 Clouds 14 1026 41 10000 1.54 0 18:55 17.04.2021
179 Clouds 14 1026 41 10000 1.54 0 18:35 17.04.2021
180 Clouds 14 1027 41 10000 1.54 0 17:56 17.04.2021
181 Clouds 14 1027 41 10000 1.54 0 17:56 17.04.2021
182 Clouds 14 1027 41 10000 1.54 0 17:38 17.04.2021
183 Clouds 15 1027 41 10000 1.03 0 16:52 17.04.2021
184 Clouds 15 1028 44 10000 1.03 0 16:27 17.04.2021
185 Clouds 15 1028 41 10000 2.06 30 15:39 17.04.2021
186 Clouds 14 1029 47 10000 2.06 30 14:50 17.04.2021
187 Clouds 12 1029 47 10000 1.54 0 14:29 17.04.2021
188 Clouds 13 1029 50 10000 2.06 270 13:46 17.04.2021
189 Clouds 13 1029 50 10000 1.54 0 13:19 17.04.2021
190 Clouds 12 1030 50 10000 2.57 260 12:36 17.04.2021
191 Clouds 12 1030 53 10000 1.54 0 12:18 17.04.2021
192 Clouds 10 1030 61 10000 1.54 0 11:39 17.04.2021
193 Clouds 9 1030 61 10000 1.54 0 11:20 17.04.2021
194 Clouds 8 1030 65 10000 1.03 0 10:41 17.04.2021
195 Clouds 7 1030 61 10000 1.54 0 10:22 17.04.2021
196 Clouds 4 1030 81 10000 1.03 0 09:19 17.04.2021
197 Clouds 3 1030 75 10000 0.51 20 08:34 17.04.2021
198 Clouds 2 1030 80 10000 1.54 120 07:59 17.04.2021
199 Clouds 2 1030 80 10000 1.54 100 06:41 17.04.2021
200 Clouds 3 1030 75 10000 1.54 130 03:49 17.04.2021
201 Clouds 4 1031 70 10000 1.03 120 02:26 17.04.2021
202 Clouds 6 1031 61 10000 0.51 0 00:42 17.04.2021
203 Clouds 6 1031 61 10000 1.03 0 00:20 17.04.2021
204 Clouds 7 1031 57 10000 0.51 0 23:43 16.04.2021
205 Clouds 8 1030 53 10000 1.03 0 22:59 16.04.2021
206 Clouds 9 1030 53 10000 1.03 0 22:41 16.04.2021
207 Clouds 9 1030 53 10000 1.03 0 22:20 16.04.2021
208 Clouds 10 1030 50 10000 1.03 0 21:45 16.04.2021
209 Clouds 11 1030 50 10000 1.03 0 21:27 16.04.2021
210 Clouds 11 1029 46 10000 1.03 0 20:46 16.04.2021
211 Clouds 12 1029 46 10000 1.54 0 20:20 16.04.2021
212 Clouds 12 1029 40 10000 1.03 0 19:49 16.04.2021
213 Clouds 13 1029 38 10000 1.54 0 19:21 16.04.2021
214 Clouds 13 1029 37 10000 1.03 0 18:28 16.04.2021
215 Clouds 14 1030 37 10000 2.06 250 17:53 16.04.2021
216 Clouds 13 1030 37 10000 1.54 0 17:20 16.04.2021
217 Clouds 13 1030 37 10000 2.06 0 16:56 16.04.2021
218 Clouds 14 1030 37 10000 2.06 0 16:38 16.04.2021
219 Clouds 14 1030 35 10000 2.06 220 16:19 16.04.2021
220 Clouds 14 1031 37 10000 1.03 0 15:39 16.04.2021
221 Clear 13 1031 43 10000 2.06 330 14:47 16.04.2021
222 Clouds 12 1031 43 10000 1.03 0 14:28 16.04.2021
223 Clouds 13 1032 43 10000 2.57 30 13:58 16.04.2021
224 Clear 11 1032 46 10000 1.54 0 13:23 16.04.2021
225 Clear 10 1032 49 10000 2.06 310 12:58 16.04.2021
226 Clear 11 1032 49 10000 2.06 310 12:39 16.04.2021
227 Clear 11 1032 46 10000 1.54 0 12:21 16.04.2021
228 Clear 10 1032 46 10000 2.06 210 11:42 16.04.2021
229 Clear 9 1032 49 10000 2.06 180 11:21 16.04.2021
230 Clear 7 1032 61 10000 2.06 180 10:42 16.04.2021
231 Clear 7 1032 61 10000 2.06 180 10:21 16.04.2021
232 Clear 5 1032 61 10000 1.03 0 09:44 16.04.2021
233 Clear 4 1032 70 10000 1.03 0 09:22 16.04.2021
234 Clear 3 1032 75 10000 1.03 0 08:45 16.04.2021
235 Clear 1 1032 80 10000 1.54 0 08:19 16.04.2021
236 Clear 0 1032 86 10000 1.54 100 07:43 16.04.2021
237 Clear 0 1032 86 10000 2.06 90 07:25 16.04.2021
238 Clear 0 1032 86 10000 1.54 70 06:39 16.04.2021
239 Clear 1 1032 80 10000 0.51 0 05:32 16.04.2021
240 Clouds 4 1032 75 10000 0.51 0 01:41 16.04.2021
241 Clouds 5 1032 70 10000 1.03 90 00:44 16.04.2021
242 Clouds 5 1033 65 10000 0.51 0 00:21 16.04.2021
243 Clouds 6 1033 61 10000 1.54 110 23:52 15.04.2021
244 Clouds 6 1033 61 10000 1.03 0 23:32 15.04.2021
245 Clouds 7 1033 61 10000 1.54 110 22:49 15.04.2021
246 Clouds 8 1033 53 10000 1.03 0 22:23 15.04.2021
247 Clouds 8 1032 53 10000 1.03 0 21:43 15.04.2021
248 Clouds 9 1032 49 10000 2.06 100 21:24 15.04.2021
249 Clouds 10 1032 43 10000 2.06 120 20:48 15.04.2021
250 Clouds 11 1032 43 10000 1.03 0 20:25 15.04.2021
251 Clouds 11 1032 43 10000 2.06 0 19:47 15.04.2021
252 Clouds 12 1032 37 10000 1.54 0 19:28 15.04.2021
253 Clouds 12 1032 37 10000 1.54 0 18:59 15.04.2021
254 Clouds 12 1032 37 10000 1.54 0 18:37 15.04.2021
255 Clouds 12 1032 37 10000 1.54 0 18:18 15.04.2021
256 Clouds 13 1033 35 10000 1.03 0 17:44 15.04.2021
257 Clouds 13 1033 37 10000 2.57 60 17:24 15.04.2021
258 Clouds 13 1033 37 10000 2.06 0 16:43 15.04.2021
259 Clear 12 1033 37 10000 2.06 70 16:24 15.04.2021
260 Clear 12 1034 37 10000 2.06 0 15:47 15.04.2021
261 Clear 12 1034 40 10000 3.09 50 15:27 15.04.2021
262 Clouds 12 1034 50 10000 1.54 0 14:43 15.04.2021
263 Clouds 12 1034 46 10000 2.06 0 14:25 15.04.2021
264 Clear 11 1034 49 10000 1.03 0 13:48 15.04.2021
265 Clear 10 1035 49 10000 1.54 0 13:23 15.04.2021
266 Clear 10 1035 49 10000 2.06 160 12:47 15.04.2021
267 Clear 9 1035 53 10000 2.06 0 12:26 15.04.2021
268 Clear 8 1035 57 10000 1.54 0 11:47 15.04.2021
269 Clear 8 1035 53 10000 1.54 0 11:26 15.04.2021
270 Clear 7 1035 65 10000 1.54 0 10:57 15.04.2021
271 Clear 6 1035 65 10000 1.54 0 10:34 15.04.2021
272 Clear 4 1035 75 10000 1.54 70 09:56 15.04.2021
273 Clear 3 1035 80 10000 1.03 0 09:29 15.04.2021
274 Clear 2 1035 86 10000 2.06 80 08:52 15.04.2021
275 Clear 0 1035 93 10000 2.06 80 08:24 15.04.2021
276 Clear 0 1035 93 10000 1.54 90 07:30 15.04.2021
277 Clear 0 1035 93 10000 1.03 70 06:55 15.04.2021
278 Clear 0 1035 93 10000 1.03 70 06:33 15.04.2021
279 Clear 1 1035 80 10000 1.03 110 04:53 15.04.2021
280 Clear 2 1035 80 10000 1.03 120 02:51 15.04.2021
281 Clouds 6 1034 65 10000 1.54 0 23:47 14.04.2021
282 Clouds 6 1034 61 10000 1.54 0 23:28 14.04.2021
283 Clouds 7 1034 61 10000 1.54 0 22:47 14.04.2021
284 Clouds 8 1033 53 10000 2.06 100 22:27 14.04.2021
285 Clouds 8 1033 53 10000 1.54 90 21:53 14.04.2021
286 Clouds 9 1033 53 10000 1.54 90 21:32 14.04.2021
287 Clouds 8 1032 43 10000 3.09 80 20:58 14.04.2021
288 Clouds 10 1032 43 10000 3.09 80 20:35 14.04.2021
289 Clouds 11 1032 43 10000 3.09 60 19:55 14.04.2021
290 Clouds 11 1032 43 10000 3.09 60 19:55 14.04.2021
291 Clouds 11 1032 43 10000 3.09 60 19:36 14.04.2021
292 Clouds 11 1032 37 10000 1.03 0 19:18 14.04.2021
293 Clouds 12 1032 37 10000 1.54 0 18:46 14.04.2021
294 Clouds 12 1033 40 10000 2.06 60 18:18 14.04.2021
295 Clouds 12 1033 40 10000 2.06 30 17:46 14.04.2021
296 Clouds 12 1033 43 10000 1.54 0 17:23 14.04.2021
297 Clouds 12 1033 40 10000 1.54 0 16:39 14.04.2021
298 Clouds 12 1033 43 10000 1.54 0 16:19 14.04.2021
299 Clouds 12 1033 50 10000 1.03 0 15:39 14.04.2021
300 Clouds 12 1034 53 10000 1.03 0 15:18 14.04.2021
301 Clouds 11 1034 53 10000 1.03 0 14:40 14.04.2021
302 Clouds 11 1034 53 10000 1.03 0 14:20 14.04.2021
303 Clouds 11 1034 57 10000 1.03 0 13:46 14.04.2021
304 Clouds 11 1034 57 10000 1.03 0 12:45 14.04.2021
305 Clouds 10 1034 66 10000 1.54 0 12:18 14.04.2021
306 Clouds 10 1034 66 10000 1.03 0 11:41 14.04.2021
307 Clouds 9 1034 81 10000 1.03 0 11:22 14.04.2021
308 Clouds 7 1034 81 10000 0.51 0 10:34 14.04.2021
309 Fog 5 1034 100 7000 0.51 0 09:43 14.04.2021
310 Fog 5 1034 93 800 1.54 230 09:25 14.04.2021
311 Clouds 4 1033 100 8000 1.03 0 08:52 14.04.2021
312 Clouds 4 1033 93 9000 0.51 0 08:29 14.04.2021
313 Clouds 3 1033 93 7000 0.51 0 07:36 14.04.2021
314 Mist 3 1033 93 4900 0.51 0 06:34 14.04.2021
315 Clouds 3 1033 93 10000 1.03 180 05:31 14.04.2021
316 Clouds 3 1033 87 10000 0.51 0 02:31 14.04.2021
317 Clouds 5 1033 75 10000 0.51 270 00:50 14.04.2021
318 Clouds 5 1033 75 10000 0.51 270 00:50 14.04.2021
319 Clouds 6 1033 70 10000 1.03 330 00:32 14.04.2021
320 Clouds 6 1033 70 10000 0.51 0 23:34 13.04.2021
321 Clouds 7 1032 70 10000 2.06 330 22:44 13.04.2021
322 Clouds 7 1032 66 10000 2.06 330 22:22 13.04.2021
323 Clouds 7 1032 61 10000 3.09 300 21:49 13.04.2021
324 Clouds 9 1031 50 10000 1.54 290 21:30 13.04.2021
325 Clouds 9 1031 50 10000 2.06 290 20:51 13.04.2021
326 Clouds 10 1031 50 10000 2.06 280 20:25 13.04.2021
327 Clouds 11 1031 50 10000 2.57 270 19:58 13.04.2021
328 Clouds 11 1031 46 10000 2.57 260 19:26 13.04.2021
329 Clouds 11 1031 46 10000 2.06 260 18:51 13.04.2021
330 Clouds 11 1032 46 10000 2.57 280 18:30 13.04.2021
331 Clouds 11 1032 50 10000 1.03 0 17:40 13.04.2021
332 Clouds 11 1032 46 10000 2.06 230 17:21 13.04.2021
333 Clouds 11 1032 50 10000 0.51 0 16:45 13.04.2021
334 Clouds 11 1032 50 10000 1.03 0 16:27 13.04.2021
335 Clouds 11 1032 50 10000 2.57 320 15:55 13.04.2021
336 Clouds 11 1032 50 10000 2.57 320 15:37 13.04.2021
337 Clouds 11 1033 50 10000 1.54 0 14:58 13.04.2021
338 Clouds 10 1033 53 10000 1.03 0 14:24 13.04.2021
339 Clouds 10 1033 53 10000 1.54 0 13:53 13.04.2021
340 Clouds 10 1033 53 10000 1.54 0 13:27 13.04.2021
341 Clouds 9 1033 61 10000 1.54 0 12:59 13.04.2021
342 Clouds 9 1033 61 10000 1.54 0 12:41 13.04.2021
343 Clouds 9 1033 57 10000 1.03 0 12:22 13.04.2021
344 Clouds 7 1033 61 10000 1.54 0 11:36 13.04.2021
345 Clouds 6 1033 65 10000 1.03 0 10:56 13.04.2021
346 Clouds 6 1033 65 10000 1.03 0 10:56 13.04.2021
347 Clouds 5 1033 65 10000 1.03 0 10:37 13.04.2021
348 Clouds 4 1033 70 10000 1.03 0 10:18 13.04.2021
349 Clouds 3 1033 70 10000 0.51 190 09:40 13.04.2021
350 Clouds 2 1033 75 10000 1.03 140 09:18 13.04.2021
351 Clouds 0 1033 86 10000 1.54 110 08:41 13.04.2021
352 Clouds -1 1032 93 10000 1.03 150 08:20 13.04.2021
353 Clouds -1 1032 86 10000 1.03 0 07:36 13.04.2021
354 Clouds -1 1032 93 10000 1.54 120 06:59 13.04.2021
355 Clouds -1 1032 86 10000 1.03 90 05:53 13.04.2021
356 Clouds 0 1032 80 10000 1.54 140 02:47 13.04.2021
357 Clear 2 1031 65 10000 0.51 0 00:39 13.04.2021
358 Clear 3 1031 56 10000 0.51 270 23:49 12.04.2021
359 Clear 4 1031 52 10000 1.03 0 23:27 12.04.2021
360 Clear 4 1031 42 10000 2.06 300 22:43 12.04.2021
361 Clear 5 1031 39 10000 2.06 320 22:23 12.04.2021
362 Clear 5 1030 39 10000 3.09 300 21:46 12.04.2021
363 Clear 6 1030 36 10000 3.09 300 21:20 12.04.2021
364 Clear 6 1030 39 10000 3.6 280 20:41 12.04.2021
365 Clouds 8 1030 36 10000 4.12 290 20:22 12.04.2021
366 Clouds 8 1029 36 10000 3.09 270 19:55 12.04.2021
367 Clouds 8 1029 36 10000 3.09 270 19:37 12.04.2021
368 Clouds 8 1029 39 10000 3.6 280 19:18 12.04.2021
369 Clouds 9 1029 36 10000 3.6 290 18:44 12.04.2021
370 Clouds 9 1029 34 10000 4.12 290 18:25 12.04.2021
371 Clouds 9 1029 34 10000 4.63 240 17:44 12.04.2021
372 Clouds 9 1029 37 10000 2.06 270 17:23 12.04.2021
373 Clouds 9 1029 36 10000 3.6 0 16:47 12.04.2021
374 Clouds 9 1029 36 10000 2.06 0 16:27 12.04.2021
375 Clouds 9 1029 37 10000 4.12 260 15:49 12.04.2021
376 Clouds 9 1029 34 10000 1.54 0 15:27 12.04.2021
377 Clouds 9 1029 36 10000 3.09 340 14:50 12.04.2021
378 Clouds 9 1029 42 10000 2.57 330 14:30 12.04.2021
379 Clouds 8 1029 49 10000 3.09 340 13:49 12.04.2021
380 Clouds 8 1029 49 10000 2.57 350 13:28 12.04.2021
381 Clouds 7 1028 60 10000 3.09 320 12:49 12.04.2021
382 Clouds 6 1028 65 10000 2.06 260 12:27 12.04.2021
383 Clouds 6 1028 70 10000 1.54 0 11:59 12.04.2021
384 Clouds 4 1028 87 10000 1.03 0 11:24 12.04.2021
385 Clouds 4 1028 93 10000 1.03 0 10:46 12.04.2021
386 Clouds 4 1027 87 10000 1.03 0 10:26 12.04.2021
387 Clouds 3 1027 93 10000 0.51 0 09:49 12.04.2021
388 Clouds 1 1027 93 10000 1.03 100 09:18 12.04.2021
389 Clouds 0 1027 100 10000 1.54 100 08:36 12.04.2021
390 Clouds -1 1026 93 10000 1.54 140 07:40 12.04.2021
391 Clouds -1 1025 93 10000 1.03 150 07:20 12.04.2021
392 Clouds -1 1025 93 10000 1.54 150 05:53 12.04.2021
393 Clouds -1 1024 93 10000 1.03 130 04:48 12.04.2021
394 Clouds 1 1024 80 10000 1.03 0 01:31 12.04.2021
395 Snow 2 1024 75 10000 1.03 160 00:25 12.04.2021
396 Clouds 2 1024 70 10000 1.54 350 23:48 11.04.2021
397 Clear 2 1024 70 10000 1.03 330 23:29 11.04.2021
398 Clouds 3 1024 60 10000 2.06 300 22:46 11.04.2021
399 Clouds 3 1023 65 10000 3.09 290 22:25 11.04.2021
400 Clouds 4 1023 56 10000 4.12 300 21:50 11.04.2021
401 Clouds 4 1023 56 10000 4.12 310 21:30 11.04.2021
402 Clouds 3 1022 52 10000 5.66 300 20:58 11.04.2021
403 Clear 6 1022 45 10000 6.17 300 20:31 11.04.2021
404 Clouds 6 1022 42 10000 5.66 310 19:58 11.04.2021
405 Clouds 6 1022 42 10000 5.66 310 19:38 11.04.2021
406 Clouds 7 1022 42 10000 6.69 290 19:19 11.04.2021
407 Clouds 7 1022 42 10000 6.69 290 19:19 11.04.2021
408 Clouds 7 1022 42 10000 6.69 290 19:19 11.04.2021
409 Clouds 7 1022 42 10000 6.69 290 19:19 11.04.2021
410 Clouds 7 1021 36 10000 6.69 290 18:45 11.04.2021
411 Clouds 8 1021 36 10000 6.17 300 18:26 11.04.2021
412 Clouds 8 1021 39 10000 5.14 290 17:48 11.04.2021
413 Clouds 7 1021 45 10000 2.57 40 17:28 11.04.2021
414 Clouds 6 1021 56 10000 2.06 80 16:52 11.04.2021
415 Clouds 6 1021 56 10000 2.06 80 16:52 11.04.2021
416 Clouds 6 1021 52 10000 6.69 30 16:25 11.04.2021
417 Clouds 7 1021 49 10000 3.6 350 15:57 11.04.2021
418 Clouds 7 1021 49 10000 3.6 350 15:38 11.04.2021
419 Clouds 7 1021 49 10000 1.54 0 15:19 11.04.2021
420 Clouds 6 1021 52 10000 2.06 0 14:46 11.04.2021
421 Clouds 7 1021 49 10000 2.57 330 14:18 11.04.2021
422 Clouds 6 1020 56 10000 3.09 340 13:36 11.04.2021
423 Clouds 6 1020 60 10000 3.6 340 13:18 11.04.2021
424 Clouds 5 1020 65 10000 3.09 330 12:22 11.04.2021
425 Clouds 5 1020 65 10000 2.57 340 11:53 11.04.2021
426 Clouds 5 1020 65 10000 2.57 340 11:53 11.04.2021
427 Clouds 4 1020 75 10000 2.57 330 11:29 11.04.2021
428 Clear 4 1020 75 10000 1.54 0 10:50 11.04.2021
429 Clear 3 1020 75 10000 1.54 0 10:32 11.04.2021
430 Clear 2 1019 80 10000 1.03 0 09:59 11.04.2021
431 Clear 2 1019 80 10000 1.03 0 09:37 11.04.2021
432 Clouds 1 1019 86 10000 2.06 340 09:19 11.04.2021
433 Clouds 0 1019 100 10000 2.06 340 08:30 11.04.2021
434 Clouds 0 1019 100 10000 2.06 340 08:30 11.04.2021
435 Clouds 0 1018 93 10000 1.54 320 07:24 11.04.2021
436 Clouds 1 1018 93 10000 1.54 340 06:56 11.04.2021
437 Clouds 1 1018 93 10000 1.03 10 05:44 11.04.2021
438 Clouds 1 1018 93 10000 1.54 0 05:21 11.04.2021
439 Clouds 1 1017 93 7000 1.03 280 04:35 11.04.2021
440 Rain 2 1017 93 10000 4.12 360 02:45 11.04.2021
441 Rain 2 1017 87 10000 1.54 290 00:40 11.04.2021
442 Rain 3 1017 93 10000 1.03 0 23:49 10.04.2021
443 Rain 3 1017 93 10000 1.03 0 23:26 10.04.2021
444 Rain 3 1016 93 8000 0.51 0 22:43 10.04.2021
445 Clouds 3 1016 93 9000 1.03 0 22:21 10.04.2021
446 Clouds 3 1016 93 10000 1.03 0 21:41 10.04.2021
447 Clouds 3 1016 93 10000 1.03 0 21:22 10.04.2021
448 Clouds 3 1016 93 8000 0.51 0 20:46 10.04.2021
449 Rain 3 1016 100 6000 1.03 0 20:24 10.04.2021
450 Clouds 3 1016 93 2900 1.54 50 19:45 10.04.2021
451 Snow 4 1015 87 6000 3.09 280 19:26 10.04.2021
452 Rain 5 1015 81 10000 4.63 240 18:52 10.04.2021
453 Rain 6 1015 70 10000 3.09 210 18:31 10.04.2021
454 Rain 6 1015 70 10000 3.09 210 18:30 10.04.2021
455 Clouds 7 1015 70 10000 1.54 0 17:40 10.04.2021
456 Clouds 7 1015 65 10000 2.06 120 17:20 10.04.2021
457 Clouds 7 1015 70 10000 2.57 80 16:30 10.04.2021
458 Clouds 7 1015 75 10000 3.09 70 15:55 10.04.2021
459 Clouds 7 1015 75 10000 3.09 70 15:32 10.04.2021
460 Clouds 6 1016 81 10000 2.57 80 14:47 10.04.2021
461 Clouds 6 1016 87 10000 2.57 70 14:21 10.04.2021
462 Clouds 6 1016 87 10000 5.14 40 13:43 10.04.2021
463 Clouds 4 1016 93 4900 5.14 50 12:55 10.04.2021
464 Snow 4 1016 93 4900 5.14 50 12:34 10.04.2021
465 Snow 3 1016 100 1400 4.12 30 11:50 10.04.2021
466 Snow 2 1016 93 1200 3.09 40 11:26 10.04.2021
467 Snow 3 1016 93 1300 2.57 360 10:52 10.04.2021
468 Snow 3 1016 87 2200 2.57 360 10:31 10.04.2021
469 Clouds 3 1016 87 3200 2.57 10 09:52 10.04.2021
470 Clouds 2 1016 87 5000 1.03 0 09:23 10.04.2021
471 Clouds 2 1015 93 10000 1.03 0 08:49 10.04.2021
472 Clouds 1 1015 86 10000 1.03 0 08:29 10.04.2021
473 Clouds 1 1015 86 10000 1.03 0 08:29 10.04.2021
474 Clouds 1 1015 86 10000 1.03 270 07:40 10.04.2021
475 Clouds 1 1015 86 10000 1.54 0 07:21 10.04.2021
476 Clouds 1 1015 86 10000 1.03 70 06:24 10.04.2021
477 Clouds 1 1015 86 10000 1.54 30 04:25 10.04.2021
478 Clouds 2 1015 75 10000 0.51 0 02:51 10.04.2021
479 Clouds 2 1015 70 10000 1.03 0 02:33 10.04.2021
480 Clear 4 1014 65 10000 1.54 290 00:44 10.04.2021
481 Clear 4 1014 65 10000 2.57 310 00:25 10.04.2021
482 Clear 4 1014 65 10000 3.09 320 23:41 09.04.2021
483 Clear 5 1014 60 10000 3.09 310 22:59 09.04.2021
484 Clear 5 1014 60 10000 3.09 310 22:38 09.04.2021
485 Clear 5 1013 56 10000 4.63 310 21:56 09.04.2021
486 Clear 6 1013 56 10000 4.63 310 21:38 09.04.2021
487 Clear 6 1013 45 10000 5.14 310 21:18 09.04.2021
488 Clear 7 1013 42 10000 4.12 320 20:42 09.04.2021
489 Clouds 8 1013 39 10000 5.14 290 20:22 09.04.2021
490 Clouds 9 1012 31 10000 5.14 290 19:44 09.04.2021
491 Clouds 9 1012 37 10000 5.66 300 19:23 09.04.2021
492 Clouds 9 1012 40 10000 6.17 290 18:54 09.04.2021
493 Clouds 10 1012 40 10000 5.14 290 18:32 09.04.2021
494 Clouds 10 1012 40 10000 5.14 300 17:54 09.04.2021
495 Clouds 10 1012 40 10000 5.14 300 17:36 09.04.2021
496 Clouds 10 1012 46 10000 6.17 280 16:56 09.04.2021
497 Clouds 10 1012 46 10000 6.17 280 16:34 09.04.2021
498 Clouds 10 1012 49 10000 4.63 290 15:51 09.04.2021
499 Clouds 10 1012 49 10000 4.63 290 15:33 09.04.2021
500 Clouds 10 1012 53 10000 4.63 260 14:57 09.04.2021
501 Clouds 10 1012 53 10000 4.63 260 14:33 09.04.2021
502 Clouds 9 1012 57 10000 3.09 270 13:52 09.04.2021
503 Clouds 9 1012 70 10000 3.09 340 13:24 09.04.2021
504 Clouds 8 1012 76 10000 2.57 250 12:51 09.04.2021
505 Clouds 8 1012 76 10000 2.57 250 12:32 09.04.2021
506 Clouds 7 1012 87 10000 3.6 250 11:45 09.04.2021
507 Clouds 7 1012 87 10000 3.6 250 11:45 09.04.2021
508 Clouds 7 1012 87 10000 3.09 240 11:22 09.04.2021
509 Clouds 7 1012 81 10000 4.12 240 10:46 09.04.2021
510 Clouds 6 1012 87 10000 2.57 230 10:20 09.04.2021
511 Clouds 5 1011 93 10000 2.06 210 09:30 09.04.2021
512 Clouds 5 1011 93 10000 2.06 220 08:57 09.04.2021
513 Clouds 5 1011 93 10000 2.06 220 08:37 09.04.2021
514 Clouds 4 1011 87 10000 2.57 220 07:35 09.04.2021
515 Rain 5 1011 81 10000 3.09 240 06:34 09.04.2021
516 Clouds 5 1011 93 10000 5.14 290 05:47 09.04.2021
517 Rain 6 1011 71 10000 5.66 240 03:50 09.04.2021
518 Clouds 8 1011 76 10000 6.69 230 01:27 09.04.2021
519 Clouds 8 1011 76 10000 6.69 230 00:36 09.04.2021
520 Clouds 8 1012 76 10000 6.17 230 00:18 09.04.2021
521 Clouds 8 1012 71 10000 7.72 230 22:58 08.04.2021
522 Clouds 8 1012 71 10000 7.72 230 22:40 08.04.2021
523 Clouds 8 1012 71 10000 7.72 230 22:40 08.04.2021
524 Clouds 8 1013 71 10000 8.23 230 22:20 08.04.2021
525 Clouds 8 1013 66 10000 7.72 230 21:54 08.04.2021
526 Clouds 8 1013 66 10000 7.72 230 21:54 08.04.2021
527 Clouds 8 1013 66 10000 7.72 230 21:36 08.04.2021
528 Clouds 8 1013 66 10000 9.26 240 21:18 08.04.2021
529 Clouds 9 1013 61 10000 9.26 240 20:42 08.04.2021
530 Clouds 10 1014 61 10000 9.77 240 20:20 08.04.2021
531 Clouds 10 1014 53 10000 8.75 240 19:41 08.04.2021
532 Clouds 10 1014 53 10000 9.77 240 19:19 08.04.2021
533 Clouds 10 1014 53 10000 8.75 250 18:44 08.04.2021
534 Clouds 10 1015 53 10000 8.75 250 18:20 08.04.2021
535 Clouds 10 1015 53 10000 9.77 240 17:48 08.04.2021
536 Clouds 10 1016 53 10000 10.29 240 17:21 08.04.2021
537 Clouds 10 1016 50 10000 11.32 250 16:45 08.04.2021
538 Clouds 10 1016 57 10000 8.23 230 16:25 08.04.2021
539 Clouds 11 1017 50 10000 10.8 240 15:47 08.04.2021
540 Clouds 10 1017 50 10000 9.26 230 15:28 08.04.2021
541 Clouds 10 1017 54 10000 9.26 240 14:44 08.04.2021
542 Clouds 11 1017 54 10000 9.26 240 14:23 08.04.2021
543 Clouds 11 1018 62 10000 8.23 240 13:54 08.04.2021
544 Clouds 10 1018 62 10000 8.23 240 13:36 08.04.2021
545 Clouds 10 1018 57 10000 7.72 230 13:18 08.04.2021
546 Clouds 10 1018 57 10000 8.23 240 12:38 08.04.2021
547 Clouds 10 1019 71 10000 7.2 250 11:59 08.04.2021
548 Clouds 10 1019 71 10000 7.2 250 11:37 08.04.2021
549 Clouds 9 1019 81 10000 4.12 230 10:56 08.04.2021
550 Clouds 8 1019 87 10000 3.09 210 10:26 08.04.2021
551 Clouds 7 1019 87 10000 3.09 200 09:51 08.04.2021
552 Clouds 7 1019 87 10000 3.09 200 09:33 08.04.2021
553 Clouds 6 1019 93 10000 3.09 200 08:45 08.04.2021
554 Clouds 6 1019 93 10000 3.09 200 08:45 08.04.2021
555 Clouds 6 1019 93 10000 3.09 200 08:45 08.04.2021
556 Clouds 6 1019 93 10000 2.57 200 08:24 08.04.2021
557 Clouds 5 1019 93 10000 2.57 190 07:53 08.04.2021
558 Clouds 5 1020 93 10000 3.09 190 06:48 08.04.2021
559 Clouds 5 1022 75 10000 2.06 200 02:26 08.04.2021
560 Clouds 4 1022 75 10000 2.06 190 00:33 08.04.2021
561 Clouds 4 1023 75 10000 1.54 210 23:55 07.04.2021
562 Clouds 4 1023 75 10000 1.54 210 23:37 07.04.2021
563 Clouds 4 1023 70 10000 1.54 220 23:18 07.04.2021
564 Clouds 4 1023 65 10000 2.06 250 22:43 07.04.2021
565 Clouds 4 1023 65 10000 2.57 270 22:21 07.04.2021
566 Clouds 4 1023 65 10000 2.06 270 21:41 07.04.2021
567 Clouds 5 1023 65 10000 2.57 270 21:20 07.04.2021
568 Clouds 5 1023 60 10000 3.09 300 20:41 07.04.2021
569 Clouds 5 1023 60 10000 5.66 280 20:19 07.04.2021
570 Clouds 6 1023 52 10000 4.63 300 19:41 07.04.2021
571 Clouds 6 1023 52 10000 5.66 280 19:22 07.04.2021
572 Clouds 6 1023 56 10000 6.17 280 18:42 07.04.2021
573 Clouds 6 1023 52 10000 6.17 280 18:18 07.04.2021
574 Clouds 7 1023 49 10000 6.69 310 17:48 07.04.2021
575 Clouds 7 1023 42 10000 6.69 310 17:30 07.04.2021
576 Clouds 7 1023 42 10000 7.2 290 16:47 07.04.2021
577 Clouds 7 1023 45 10000 7.2 290 16:21 07.04.2021
578 Clouds 7 1023 42 10000 7.2 300 15:56 07.04.2021
579 Clouds 7 1023 42 10000 7.2 300 15:38 07.04.2021
580 Clouds 7 1023 48 10000 6.17 320 14:48 07.04.2021
581 Clouds 6 1023 42 10000 6.69 300 14:25 07.04.2021
582 Clouds 7 1023 39 10000 6.17 330 13:45 07.04.2021
583 Clouds 6 1023 42 10000 5.66 320 13:20 07.04.2021
584 Clouds 6 1023 38 10000 5.66 330 12:47 07.04.2021
585 Clouds 6 1024 42 10000 5.66 330 12:21 07.04.2021
586 Clouds 5 1023 45 10000 5.66 310 11:45 07.04.2021
587 Clouds 5 1023 48 10000 6.17 320 11:24 07.04.2021
588 Clouds 4 1023 52 10000 4.12 310 10:50 07.04.2021
589 Clouds 2 1023 64 10000 2.57 330 09:51 07.04.2021
590 Clouds 1 1023 69 10000 2.06 330 09:28 07.04.2021
591 Clouds 0 1023 69 10000 2.06 330 08:53 07.04.2021
592 Clear 0 1023 69 10000 2.06 330 08:33 07.04.2021
593 Clouds -1 1022 80 10000 0.51 0 07:54 07.04.2021
594 Clouds -1 1022 86 10000 0.51 0 07:29 07.04.2021
595 Clouds -1 1022 80 10000 0.51 0 06:44 07.04.2021
596 Clouds -1 1022 86 10000 0.51 190 05:43 07.04.2021
597 Clear -2 1022 93 10000 0.51 0 03:18 07.04.2021
598 Clear 1 1021 69 10000 1.54 260 23:50 06.04.2021
599 Clear 1 1021 69 10000 1.54 260 23:23 06.04.2021
600 Clear 2 1021 69 10000 2.06 270 22:57 06.04.2021
601 Clear 2 1021 69 10000 2.06 270 22:57 06.04.2021
602 Clear 2 1021 60 10000 2.06 260 22:21 06.04.2021
603 Clear 3 1021 52 10000 2.06 310 21:55 06.04.2021
604 Clear 3 1021 52 10000 2.06 310 21:37 06.04.2021
605 Clouds 3 1020 52 10000 3.09 330 21:18 06.04.2021
606 Clouds 4 1020 56 10000 5.66 340 20:41 06.04.2021
607 Clouds 4 1020 48 10000 6.69 360 20:20 06.04.2021
608 Clouds 5 1020 52 10000 4.63 320 19:44 06.04.2021
609 Clouds 5 1019 52 10000 4.12 320 19:25 06.04.2021
610 Clouds 5 1020 65 10000 5.14 350 18:45 06.04.2021
611 Clouds 5 1020 70 10000 6.17 310 18:22 06.04.2021
612 Rain 3 1020 75 10000 4.63 320 17:45 06.04.2021
613 Clouds 4 1020 75 10000 6.17 320 17:20 06.04.2021
614 Snow 3 1020 65 10000 8.23 330 16:49 06.04.2021
615 Clouds 4 1019 42 10000 9.77 300 16:30 06.04.2021
616 Clouds 6 1020 42 10000 8.75 310 15:28 06.04.2021
617 Clouds 6 1020 45 10000 7.72 320 14:51 06.04.2021
618 Clouds 6 1020 42 10000 6.69 320 14:32 06.04.2021
619 Clouds 5 1020 42 10000 6.17 310 13:59 06.04.2021
620 Clouds 6 1020 42 10000 6.17 310 13:39 06.04.2021
621 Clouds 6 1021 45 10000 6.69 330 13:20 06.04.2021
622 Clouds 6 1021 45 10000 7.72 320 12:38 06.04.2021
623 Clear 5 1021 42 10000 7.2 320 12:19 06.04.2021
624 Clear 5 1021 45 10000 7.72 330 11:48 06.04.2021
625 Clear 4 1021 48 10000 5.14 320 11:20 06.04.2021
626 Clear 4 1021 56 10000 5.66 320 10:46 06.04.2021
627 Clear 3 1021 60 10000 6.17 330 10:24 06.04.2021
628 Clear 3 1021 60 10000 4.63 330 09:47 06.04.2021
629 Clear 2 1021 69 10000 3.09 320 09:29 06.04.2021
630 Clear 1 1021 74 10000 3.6 310 08:38 06.04.2021
631 Clouds 0 1021 74 10000 3.6 310 07:47 06.04.2021
632 Clouds 0 1021 74 10000 3.6 340 06:55 06.04.2021
633 Clouds 0 1021 74 10000 3.6 340 06:55 06.04.2021
634 Clouds 1 1021 69 10000 4.12 310 05:18 06.04.2021
635 Clouds 3 1022 60 10000 3.09 300 01:54 06.04.2021
636 Clouds 3 1022 60 10000 3.09 280 00:43 06.04.2021
637 Clouds 3 1022 56 10000 3.09 300 00:20 06.04.2021
638 Clouds 4 1022 52 10000 4.12 300 23:42 05.04.2021
639 Clouds 4 1022 52 10000 3.09 280 23:19 05.04.2021
640 Clouds 4 1022 52 10000 4.63 290 22:43 05.04.2021
641 Clouds 4 1022 52 10000 3.6 290 22:24 05.04.2021
642 Clouds 5 1022 52 10000 4.63 290 21:39 05.04.2021
643 Clouds 5 1022 45 10000 5.14 300 21:20 05.04.2021
644 Clouds 5 1022 42 10000 5.66 310 20:42 05.04.2021
645 Clouds 6 1022 42 10000 7.2 310 20:23 05.04.2021
646 Clouds 6 1022 42 10000 7.2 300 19:39 05.04.2021
647 Clouds 6 1022 36 10000 8.23 310 19:19 05.04.2021
648 Clouds 6 1022 36 10000 8.23 310 19:19 05.04.2021
649 Clouds 6 1021 39 10000 8.75 290 18:42 05.04.2021
650 Clouds 7 1021 39 10000 7.2 290 18:23 05.04.2021
651 Clouds 6 1022 36 10000 6.17 300 17:47 05.04.2021
652 Clouds 6 1022 38 10000 6.69 290 17:24 05.04.2021
653 Clouds 6 1022 38 10000 7.72 310 16:57 05.04.2021
654 Clouds 6 1022 38 10000 7.72 310 16:38 05.04.2021
655 Clouds 6 1022 33 10000 8.23 320 16:18 05.04.2021
656 Clouds 7 1021 33 10000 7.72 310 15:40 05.04.2021
657 Clouds 7 1021 33 10000 7.72 330 15:21 05.04.2021
658 Clouds 6 1021 30 10000 7.72 310 14:36 05.04.2021
659 Clouds 6 1021 30 10000 7.72 310 14:36 05.04.2021
660 Clouds 6 1021 26 10000 8.23 350 13:54 05.04.2021
661 Clouds 5 1021 30 10000 8.75 360 13:29 05.04.2021
662 Clouds 5 1021 30 10000 8.75 350 12:47 05.04.2021
663 Clouds 5 1021 30 10000 8.75 350 12:47 05.04.2021
664 Clouds 5 1020 35 10000 8.23 350 12:26 05.04.2021
665 Clouds 4 1020 38 10000 9.77 350 11:52 05.04.2021
666 Clouds 4 1020 48 10000 8.23 340 11:30 05.04.2021
667 Clouds 3 1019 69 10000 5.66 10 10:56 05.04.2021
668 Clouds 3 1019 69 10000 5.66 10 10:56 05.04.2021
669 Clouds 3 1019 69 10000 5.66 10 10:35 05.04.2021
670 Clouds 2 1018 80 10000 6.17 30 09:49 05.04.2021
671 Snow 2 1018 80 8000 10.29 30 09:26 05.04.2021
672 Rain 2 1017 60 10000 5.14 320 08:50 05.04.2021
673 Rain 4 1017 65 10000 5.14 310 08:28 05.04.2021
674 Clouds 4 1016 65 10000 7.2 320 07:58 05.04.2021
675 Clouds 4 1016 65 10000 7.2 320 07:33 05.04.2021
676 Clouds 7 1015 76 10000 8.75 300 03:42 05.04.2021
677 Clouds 9 1017 71 10000 7.2 280 00:56 05.04.2021
678 Clouds 9 1017 71 10000 6.69 280 00:19 05.04.2021
679 Clouds 10 1018 76 10000 7.2 280 23:32 04.04.2021
680 Clouds 9 1019 81 10000 6.69 280 22:58 04.04.2021
681 Clouds 9 1019 81 10000 6.69 280 22:34 04.04.2021
682 Clouds 9 1019 81 10000 6.69 280 22:34 04.04.2021
683 Clouds 9 1019 76 10000 3.09 290 21:57 04.04.2021
684 Clouds 9 1020 76 10000 4.12 280 21:21 04.04.2021
685 Clouds 9 1020 76 10000 5.14 290 20:43 04.04.2021
686 Clouds 9 1021 76 10000 5.66 300 20:23 04.04.2021
687 Clouds 9 1021 76 10000 5.14 290 19:40 04.04.2021
688 Clouds 10 1021 71 10000 7.2 280 19:19 04.04.2021
689 Clouds 11 1021 66 10000 8.23 280 18:51 04.04.2021
690 Clouds 12 1021 62 10000 8.23 270 18:25 04.04.2021
691 Clouds 13 1022 62 10000 8.75 270 17:58 04.04.2021
692 Clouds 13 1022 66 10000 6.69 300 17:25 04.04.2021
693 Clouds 13 1023 62 10000 7.72 290 16:56 04.04.2021
694 Clouds 13 1023 62 10000 7.72 290 16:38 04.04.2021
695 Clouds 13 1024 62 10000 6.69 280 15:52 04.04.2021
696 Clouds 13 1024 58 10000 7.72 280 15:31 04.04.2021
697 Clouds 13 1025 62 10000 4.63 290 14:39 04.04.2021
698 Clouds 12 1025 62 10000 5.14 270 14:19 04.04.2021
699 Clouds 11 1026 71 10000 3.6 280 13:27 04.04.2021
700 Clouds 10 1027 76 10000 2.57 280 12:51 04.04.2021
701 Clouds 10 1027 81 10000 2.06 280 12:28 04.04.2021
702 Clouds 9 1027 87 10000 2.06 250 11:49 04.04.2021
703 Clouds 8 1028 93 9000 1.54 0 11:30 04.04.2021
704 Clouds 7 1028 100 7000 1.03 0 10:47 04.04.2021
705 Fog 6 1028 93 900 2.25 267 10:23 04.04.2021
706 Fog 6 1028 93 400 0.51 0 09:44 04.04.2021
707 Fog 5 1029 100 250 0.51 0 09:20 04.04.2021
708 Fog 5 1029 93 150 1.03 0 08:44 04.04.2021
709 Fog 4 1029 100 150 0.51 0 08:24 04.04.2021
710 Clouds 3 1029 93 10000 1.03 0 06:39 04.04.2021
711 Clouds 2 1030 100 6000 1.54 150 05:44 04.04.2021
712 Clouds 3 1031 93 10000 1.03 0 02:20 04.04.2021
713 Clouds 5 1032 87 10000 1.03 0 00:47 04.04.2021
714 Clouds 5 1032 81 10000 0.51 0 00:18 04.04.2021
715 Clouds 7 1032 76 10000 1.54 310 23:39 03.04.2021
716 Clouds 7 1032 61 10000 1.03 0 22:56 03.04.2021
717 Clouds 8 1032 65 10000 1.03 100 22:25 03.04.2021
718 Clouds 9 1032 57 10000 1.54 90 21:59 03.04.2021
719 Clouds 9 1032 57 10000 1.54 90 21:39 03.04.2021
720 Clear 10 1032 53 10000 2.57 60 21:20 03.04.2021
721 Clear 10 1032 57 10000 3.09 40 20:38 03.04.2021
722 Clear 11 1032 53 10000 3.09 50 20:18 03.04.2021
723 Clear 12 1032 50 10000 3.6 40 19:43 03.04.2021
724 Clear 12 1032 50 10000 2.57 50 19:18 03.04.2021
725 Clear 13 1032 47 10000 3.09 10 18:44 03.04.2021
726 Clear 13 1033 50 10000 3.09 30 17:58 03.04.2021
727 Clear 13 1033 50 10000 3.6 20 17:28 03.04.2021
728 Clouds 13 1034 50 10000 3.09 30 16:59 03.04.2021
729 Clouds 13 1034 50 10000 3.09 30 16:32 03.04.2021
730 Clouds 12 1034 53 10000 4.12 40 15:57 03.04.2021
731 Clouds 12 1034 53 10000 4.12 40 15:39 03.04.2021
732 Clouds 12 1034 53 10000 3.6 20 15:18 03.04.2021
733 Clouds 11 1035 57 10000 4.12 10 14:37 03.04.2021
734 Clouds 11 1035 57 10000 3.09 40 14:18 03.04.2021
735 Clouds 10 1035 61 10000 4.63 30 13:40 03.04.2021
736 Clouds 9 1035 61 10000 4.63 30 13:20 03.04.2021
737 Clouds 8 1035 65 10000 4.63 30 12:40 03.04.2021
738 Clouds 8 1035 65 10000 5.14 40 12:19 03.04.2021
739 Clouds 8 1035 65 10000 5.66 30 11:32 03.04.2021
740 Clouds 7 1035 70 10000 6.69 40 10:49 03.04.2021
741 Clouds 7 1035 65 10000 6.17 30 10:29 03.04.2021
742 Clouds 7 1035 65 10000 5.66 30 09:50 03.04.2021
743 Clouds 6 1035 65 10000 5.66 40 09:27 03.04.2021
744 Clouds 6 1035 65 10000 5.14 30 08:38 03.04.2021
745 Clouds 5 1034 65 10000 6.17 40 08:19 03.04.2021
746 Clouds 5 1034 70 10000 5.14 20 07:27 03.04.2021
747 Clouds 5 1034 75 10000 3.09 320 04:27 03.04.2021
748 Clouds 6 1035 70 10000 4.12 20 02:58 03.04.2021
749 Clouds 6 1035 70 10000 4.12 20 02:34 03.04.2021
750 Clouds 6 1035 75 10000 2.57 20 01:31 03.04.2021
751 Clear 7 1034 70 10000 4.63 30 00:19 03.04.2021
752 Clear 7 1034 65 10000 4.12 30 23:46 02.04.2021
753 Clouds 8 1034 61 10000 3.6 40 23:19 02.04.2021
754 Clouds 8 1034 61 10000 5.66 40 22:45 02.04.2021
755 Clouds 8 1034 61 10000 5.14 50 22:26 02.04.2021
756 Clouds 8 1033 61 10000 5.14 50 21:42 02.04.2021
757 Clouds 9 1033 57 10000 6.17 30 21:19 02.04.2021
758 Clouds 8 1033 57 10000 5.66 30 20:47 02.04.2021
759 Clouds 10 1033 57 10000 6.17 50 20:25 02.04.2021
760 Clouds 11 1032 53 10000 6.17 40 19:43 02.04.2021
761 Clouds 12 1032 54 10000 5.66 50 19:24 02.04.2021
762 Clouds 11 1032 50 10000 5.66 40 18:50 02.04.2021
763 Clear 12 1032 50 10000 4.12 50 18:31 02.04.2021
764 Clear 12 1032 50 10000 3.09 40 17:59 02.04.2021
765 Clear 13 1032 50 10000 3.09 40 17:34 02.04.2021
766 Clear 13 1032 50 10000 4.12 40 16:43 02.04.2021
767 Clouds 12 1033 54 10000 5.14 30 15:50 02.04.2021
768 Clear 12 1033 57 10000 4.12 40 15:28 02.04.2021
769 Clouds 12 1033 57 10000 2.57 40 14:41 02.04.2021
770 Clouds 11 1033 57 10000 2.57 30 14:21 02.04.2021
771 Clear 11 1033 57 10000 3.6 60 13:39 02.04.2021
772 Clouds 9 1033 61 10000 3.09 60 13:19 02.04.2021
773 Clear 9 1033 61 10000 3.09 40 12:38 02.04.2021
774 Clouds 9 1033 61 10000 3.6 60 12:19 02.04.2021
775 Clouds 8 1033 61 10000 4.12 50 11:48 02.04.2021
776 Clouds 7 1033 65 10000 2.57 50 11:19 02.04.2021
777 Clouds 6 1032 70 10000 2.57 80 10:43 02.04.2021
778 Clouds 6 1032 70 10000 2.57 70 10:23 02.04.2021
779 Clouds 5 1032 75 10000 1.54 40 09:51 02.04.2021
780 Clouds 4 1032 80 10000 0.51 0 09:24 02.04.2021
781 Clouds 3 1031 80 10000 0.51 0 08:46 02.04.2021
782 Clouds 3 1031 80 10000 0.51 0 08:46 02.04.2021
783 Clouds 3 1031 80 10000 1.54 70 08:26 02.04.2021
784 Clouds 3 1031 80 10000 1.54 60 07:22 02.04.2021
785 Clouds 2 1031 80 10000 1.54 60 06:34 02.04.2021
786 Clear 3 1031 75 10000 2.06 60 03:40 02.04.2021
787 Clear 5 1031 75 10000 2.06 70 01:40 02.04.2021
788 Clouds 5 1031 70 10000 2.06 70 00:43 02.04.2021
789 Clouds 6 1030 70 10000 1.54 0 23:47 01.04.2021
790 Clouds 6 1030 75 10000 2.06 60 23:27 01.04.2021
791 Clouds 6 1030 75 10000 2.06 60 22:41 01.04.2021
792 Clouds 7 1030 75 10000 1.54 70 22:18 01.04.2021
793 Clear 7 1029 75 10000 2.57 90 21:42 01.04.2021
794 Clear 7 1029 70 10000 3.09 80 21:22 01.04.2021
795 Clear 8 1029 71 10000 3.09 0 20:41 01.04.2021
796 Clear 9 1028 66 10000 2.06 0 20:21 01.04.2021
797 Clear 10 1028 66 10000 2.57 0 19:41 01.04.2021
798 Clouds 10 1028 62 10000 2.57 110 19:20 01.04.2021
799 Clouds 11 1028 62 10000 2.57 0 18:44 01.04.2021
800 Clouds 11 1028 66 10000 3.09 110 18:18 01.04.2021
801 Clouds 11 1028 66 10000 3.09 100 17:41 01.04.2021
802 Clouds 11 1028 71 10000 3.09 100 17:23 01.04.2021
803 Clouds 10 1028 71 10000 3.6 100 16:50 01.04.2021
804 Clouds 10 1028 71 10000 2.57 0 16:18 01.04.2021
805 Clouds 10 1028 71 10000 5.14 60 15:40 01.04.2021
806 Clouds 10 1028 71 10000 4.63 60 15:19 01.04.2021
807 Clouds 10 1028 71 10000 4.12 70 14:39 01.04.2021
808 Clouds 10 1028 71 10000 4.12 70 14:39 01.04.2021
809 Clouds 10 1028 76 10000 3.09 110 14:20 01.04.2021
810 Clouds 10 1028 76 10000 3.09 90 13:49 01.04.2021
811 Clouds 10 1028 81 10000 2.57 0 13:29 01.04.2021
812 Clouds 10 1028 76 10000 2.06 90 12:47 01.04.2021
813 Clouds 9 1028 76 10000 2.06 0 12:29 01.04.2021
814 Clouds 9 1027 76 10000 2.57 70 11:45 01.04.2021
815 Clouds 9 1027 76 10000 3.09 60 11:20 01.04.2021
816 Clouds 8 1027 81 10000 5.14 50 10:50 01.04.2021
817 Clouds 8 1027 81 10000 4.63 60 10:31 01.04.2021
818 Clouds 8 1026 81 10000 4.63 50 09:52 01.04.2021
819 Clouds 7 1026 81 10000 3.6 60 09:23 01.04.2021
820 Clouds 7 1026 81 10000 3.6 60 08:33 01.04.2021
821 Clouds 7 1025 81 10000 4.63 60 07:24 01.04.2021
822 Clouds 8 1024 81 10000 5.14 70 06:58 01.04.2021
823 Clouds 8 1024 87 10000 6.17 60 06:30 01.04.2021
824 Clouds 9 1022 87 10000 7.72 60 03:26 01.04.2021
825 Clouds 11 1021 71 10000 5.66 50 00:38 01.04.2021
826 Clouds 13 1020 67 10000 6.69 50 23:44 31.03.2021
827 Clouds 14 1019 67 10000 5.66 50 22:58 31.03.2021
828 Clouds 15 1019 67 10000 5.66 50 22:39 31.03.2021
829 Clouds 15 1019 77 10000 2.06 70 22:20 31.03.2021
830 Clouds 15 1019 67 10000 1.03 260 21:44 31.03.2021
831 Clouds 16 1019 67 10000 1.54 300 21:20 31.03.2021
832 Clouds 17 1018 63 10000 2.06 310 20:42 31.03.2021
833 Clouds 18 1018 59 10000 3.09 310 20:23 31.03.2021
834 Clouds 18 1018 59 10000 3.6 310 19:46 31.03.2021
835 Clouds 20 1018 55 10000 3.09 290 19:25 31.03.2021
836 Clouds 20 1018 52 10000 2.57 280 18:59 31.03.2021
837 Clouds 20 1018 52 10000 2.57 280 18:41 31.03.2021
838 Clouds 20 1018 49 10000 1.03 0 17:53 31.03.2021
839 Clouds 20 1018 49 10000 1.03 0 17:34 31.03.2021
840 Clear 20 1018 45 10000 1.03 0 16:57 31.03.2021
841 Clear 21 1018 45 10000 1.03 0 16:37 31.03.2021
842 Clouds 20 1018 48 10000 1.54 0 16:19 31.03.2021
843 Clouds 20 1018 48 10000 1.54 0 15:48 31.03.2021
844 Clouds 20 1018 48 10000 1.03 0 15:19 31.03.2021
845 Clouds 19 1019 52 10000 2.06 280 14:42 31.03.2021
846 Clouds 19 1019 52 10000 2.06 280 14:20 31.03.2021
847 Clouds 18 1019 55 10000 2.06 270 13:40 31.03.2021
848 Clouds 18 1019 55 10000 3.09 250 12:42 31.03.2021
849 Clouds 17 1019 55 10000 3.09 240 12:20 31.03.2021
850 Clouds 16 1019 58 10000 3.09 250 11:47 31.03.2021
851 Clouds 16 1019 55 10000 2.57 220 11:20 31.03.2021
852 Clouds 16 1019 55 10000 2.57 220 11:20 31.03.2021
853 Clouds 15 1019 55 10000 2.57 230 10:46 31.03.2021
854 Clouds 15 1019 51 10000 1.54 0 10:24 31.03.2021
855 Clouds 12 1019 58 10000 1.54 0 09:38 31.03.2021
856 Clouds 12 1019 54 10000 1.03 0 08:55 31.03.2021
857 Clouds 11 1019 54 10000 1.03 0 08:34 31.03.2021
858 Clouds 11 1019 58 10000 1.03 0 07:52 31.03.2021
859 Clouds 11 1020 66 10000 1.54 0 06:39 31.03.2021
860 Clouds 12 1021 51 10000 1.54 0 03:51 31.03.2021
861 Clouds 13 1022 51 10000 1.03 0 01:38 31.03.2021
862 Clouds 13 1022 48 10000 1.03 0 00:48 31.03.2021
863 Clouds 14 1022 48 10000 1.03 0 00:19 31.03.2021
864 Clouds 16 1023 48 10000 1.03 0 23:33 30.03.2021
865 Clouds 14 1023 55 10000 0.51 0 22:58 30.03.2021
866 Clouds 14 1023 55 10000 0.51 0 22:39 30.03.2021
867 Clouds 15 1023 55 10000 1.03 0 22:21 30.03.2021
868 Clouds 15 1023 55 10000 1.54 110 21:46 30.03.2021
869 Clouds 16 1023 59 10000 1.03 130 21:20 30.03.2021
870 Clouds 16 1024 55 10000 0.51 0 20:51 30.03.2021
871 Clouds 18 1024 52 10000 1.54 0 20:28 30.03.2021
872 Clouds 18 1024 55 10000 1.54 200 19:50 30.03.2021
873 Clouds 19 1024 52 10000 2.06 190 19:27 30.03.2021
874 Clouds 19 1024 48 10000 2.06 200 18:38 30.03.2021
875 Clouds 20 1025 45 10000 3.09 210 17:52 30.03.2021
876 Clouds 20 1025 45 10000 2.57 200 17:34 30.03.2021
877 Clouds 21 1025 45 10000 3.09 220 16:49 30.03.2021
878 Fog 20 1026 45 350 2.57 210 16:29 30.03.2021
879 Fog 19 1026 48 350 3.6 220 15:43 30.03.2021
880 Clouds 20 1026 48 10000 2.57 200 15:20 30.03.2021
881 Clouds 18 1026 48 10000 2.06 0 14:55 30.03.2021
882 Clear 17 1027 51 10000 2.06 200 14:22 30.03.2021
883 Clear 18 1027 51 10000 2.06 200 13:57 30.03.2021
884 Clear 17 1027 51 10000 2.06 200 13:36 30.03.2021
885 Clear 16 1027 58 10000 1.54 0 12:45 30.03.2021
886 Clear 15 1027 58 10000 2.06 210 12:27 30.03.2021
887 Clear 13 1027 62 10000 1.54 0 11:52 30.03.2021
888 Clear 13 1027 66 10000 2.06 200 11:22 30.03.2021
889 Clear 11 1027 71 10000 1.03 0 10:43 30.03.2021
890 Clear 9 1027 81 10000 0.51 0 10:20 30.03.2021
891 Clear 8 1027 87 10000 1.03 0 09:43 30.03.2021
892 Clear 7 1027 87 10000 1.03 0 09:25 30.03.2021
893 Clear 6 1027 87 10000 1.54 0 08:53 30.03.2021
894 Clear 6 1027 87 10000 1.54 0 08:35 30.03.2021
895 Clear 6 1027 87 10000 0.51 0 07:50 30.03.2021
896 Clear 6 1026 87 10000 1.03 0 07:21 30.03.2021
897 Clear 7 1027 87 10000 2.57 180 05:25 30.03.2021
898 Clear 7 1027 87 10000 2.06 180 04:45 30.03.2021
899 Clear 10 1026 87 10000 2.06 180 00:26 30.03.2021
900 Clear 11 1026 82 10000 4.12 190 23:29 29.03.2021
901 Clear 12 1025 82 10000 4.63 190 22:43 29.03.2021
902 Clear 12 1025 82 10000 4.63 200 21:59 29.03.2021
903 Clear 13 1025 82 10000 4.63 200 21:37 29.03.2021
904 Clouds 13 1024 76 10000 4.63 200 20:59 29.03.2021
905 Clouds 14 1024 76 10000 4.63 200 20:38 29.03.2021
906 Clouds 14 1024 77 10000 4.12 200 20:20 29.03.2021
907 Clouds 16 1024 72 10000 6.17 210 19:45 29.03.2021
908 Clouds 16 1024 67 10000 7.2 220 19:18 29.03.2021
909 Clouds 17 1023 63 10000 7.2 220 18:40 29.03.2021
910 Clouds 17 1023 63 10000 7.72 220 18:20 29.03.2021
911 Clouds 17 1023 63 10000 7.72 220 18:20 29.03.2021
912 Clouds 17 1023 67 10000 6.69 220 17:39 29.03.2021
913 Clouds 18 1023 67 10000 7.2 220 16:59 29.03.2021
914 Clouds 17 1023 67 10000 7.2 220 16:35 29.03.2021
915 Clouds 17 1023 67 10000 5.14 210 15:49 29.03.2021
916 Clouds 16 1023 72 10000 4.63 210 15:31 29.03.2021
917 Clouds 16 1023 67 10000 6.17 210 14:54 29.03.2021
918 Clouds 16 1023 67 10000 6.17 210 14:31 29.03.2021
919 Clouds 16 1022 72 10000 5.66 200 13:47 29.03.2021
920 Clouds 16 1022 67 10000 6.69 210 13:24 29.03.2021
921 Clouds 16 1021 72 10000 8.23 220 12:50 29.03.2021
922 Clouds 14 1021 72 10000 6.17 220 11:49 29.03.2021
923 Clouds 14 1020 76 10000 7.2 220 11:30 29.03.2021
924 Clouds 14 1020 76 10000 8.75 220 10:55 29.03.2021
925 Clouds 14 1020 76 10000 8.75 220 10:34 29.03.2021
926 Clouds 13 1019 76 10000 4.63 210 09:37 29.03.2021
927 Clouds 12 1019 82 10000 4.12 210 08:51 29.03.2021
928 Clouds 12 1018 82 10000 4.12 220 08:28 29.03.2021
929 Clouds 12 1017 82 10000 6.17 210 07:28 29.03.2021
930 Clouds 12 1016 82 10000 8.23 210 06:26 29.03.2021
931 Clouds 12 1016 82 10000 5.66 200 03:43 29.03.2021
932 Rain 12 1016 87 10000 6.69 200 01:41 29.03.2021
933 Rain 12 1016 87 10000 7.72 210 00:21 29.03.2021
934 Rain 11 1015 87 10000 7.72 210 23:36 28.03.2021
935 Clouds 11 1015 87 10000 7.72 210 23:18 28.03.2021
936 Rain 11 1015 87 10000 7.72 210 22:39 28.03.2021
937 Clouds 11 1015 87 8000 7.72 210 22:20 28.03.2021
938 Clouds 11 1015 87 8000 7.72 210 22:20 28.03.2021
939 Rain 11 1015 87 6000 8.23 210 21:40 28.03.2021
940 Rain 11 1015 87 10000 8.75 210 21:22 28.03.2021
941 Rain 11 1015 87 10000 7.2 210 20:47 28.03.2021
942 Rain 12 1014 82 7000 8.23 210 20:29 28.03.2021
943 Rain 13 1014 76 10000 9.77 210 19:43 28.03.2021
944 Rain 13 1014 76 10000 8.23 210 19:22 28.03.2021
945 Rain 13 1014 76 10000 6.69 210 18:58 28.03.2021
946 Clouds 14 1014 76 10000 6.17 200 18:26 28.03.2021
947 Clouds 14 1015 72 10000 7.2 210 17:47 28.03.2021
948 Clouds 14 1015 77 10000 6.69 210 17:23 28.03.2021
949 Clouds 14 1015 77 10000 8.75 210 16:46 28.03.2021
950 Clouds 14 1015 77 10000 8.75 220 16:23 28.03.2021
951 Clouds 14 1015 77 10000 7.2 220 15:26 28.03.2021
952 Clouds 14 1015 76 10000 9.77 240 14:52 28.03.2021
953 Rain 13 1015 77 10000 8.75 230 14:30 28.03.2021
954 Clouds 13 1015 82 10000 8.75 230 13:43 28.03.2021
955 Clouds 13 1015 82 10000 7.72 220 13:20 28.03.2021
956 Rain 12 1015 87 10000 6.17 220 12:49 28.03.2021
957 Rain 11 1014 93 9000 6.17 220 12:29 28.03.2021
958 Rain 11 1014 93 8000 5.66 210 11:41 28.03.2021
959 Rain 11 1014 93 10000 5.14 210 11:21 28.03.2021
960 Rain 10 1014 93 9000 4.63 210 10:43 28.03.2021
961 Rain 10 1014 93 8000 5.14 210 10:23 28.03.2021
962 Rain 10 1014 93 9000 4.12 210 09:44 28.03.2021
963 Rain 10 1013 93 7000 4.63 210 09:24 28.03.2021
964 Rain 9 1013 93 7000 5.14 210 08:45 28.03.2021
965 Rain 9 1012 93 9000 6.17 200 07:46 28.03.2021
966 Rain 9 1013 87 10000 5.66 200 06:23 28.03.2021
967 Rain 9 1014 76 10000 6.17 200 03:51 28.03.2021
968 Clouds 9 1015 71 10000 5.66 200 00:52 28.03.2021
969 Clouds 9 1016 71 10000 5.66 200 00:19 28.03.2021
970 Clouds 9 1016 71 10000 5.14 190 23:40 27.03.2021
971 Clouds 9 1016 76 10000 4.63 200 22:54 27.03.2021
972 Clouds 9 1016 76 10000 4.63 200 22:36 27.03.2021
973 Clouds 9 1017 71 10000 5.66 200 21:48 27.03.2021
974 Clouds 9 1017 66 10000 5.14 200 21:22 27.03.2021
975 Clouds 9 1017 66 10000 5.14 200 20:59 27.03.2021
976 Clouds 10 1017 66 10000 5.14 200 20:38 27.03.2021
977 Clouds 10 1018 66 10000 4.12 200 20:19 27.03.2021
978 Clouds 10 1018 71 10000 4.63 210 19:42 27.03.2021
979 Clouds 10 1018 66 10000 5.66 210 19:23 27.03.2021
980 Clouds 10 1018 66 10000 3.6 200 18:48 27.03.2021
981 Clouds 10 1018 61 10000 4.12 200 18:26 27.03.2021
982 Clouds 10 1018 57 10000 4.63 220 17:40 27.03.2021
983 Clouds 10 1019 57 10000 5.14 220 17:20 27.03.2021
984 Clouds 10 1019 61 10000 4.12 210 16:48 27.03.2021
985 Clouds 10 1019 61 10000 4.63 210 16:27 27.03.2021
986 Clouds 10 1019 57 10000 5.66 220 15:46 27.03.2021
987 Clouds 10 1019 57 10000 6.17 230 15:21 27.03.2021
988 Clouds 10 1019 53 10000 7.2 230 14:45 27.03.2021
989 Clouds 10 1019 49 10000 7.72 240 13:42 27.03.2021
990 Clouds 10 1019 53 10000 6.69 250 13:21 27.03.2021
991 Clouds 9 1019 57 10000 7.2 280 12:50 27.03.2021
992 Clouds 8 1018 57 10000 8.23 260 11:55 27.03.2021
993 Clouds 8 1018 57 10000 8.23 260 11:37 27.03.2021
994 Clouds 8 1018 61 10000 8.75 260 11:19 27.03.2021
995 Clouds 7 1017 65 10000 8.75 260 10:40 27.03.2021
996 Clouds 6 1016 75 10000 7.2 260 09:59 27.03.2021
997 Clouds 6 1016 75 10000 8.23 260 09:21 27.03.2021
998 Clouds 5 1015 75 10000 6.69 250 08:40 27.03.2021
999 Clouds 5 1014 75 10000 7.72 260 07:56 27.03.2021
1000 Clouds 5 1013 75 10000 8.23 260 07:22 27.03.2021
1001 Clouds 5 1013 75 10000 7.72 250 06:43 27.03.2021
1002 Clouds 4 1011 75 10000 8.23 250 04:42 27.03.2021
1003 Clouds 4 1009 75 10000 6.69 250 02:58 27.03.2021
1004 Clouds 4 1008 81 10000 3.6 220 00:45 27.03.2021
1005 Clouds 4 1008 81 10000 5.14 230 00:25 27.03.2021
1006 Clouds 5 1008 75 10000 6.69 260 23:38 26.03.2021
1007 Clouds 5 1006 87 10000 3.09 190 22:45 26.03.2021
1008 Clouds 4 1006 93 10000 4.12 200 22:24 26.03.2021
1009 Clouds 5 1006 81 10000 3.6 200 21:25 26.03.2021
1010 Clouds 6 1005 70 10000 7.2 210 20:58 26.03.2021
1011 Clouds 6 1005 70 10000 7.2 210 20:58 26.03.2021
1012 Clouds 7 1005 56 10000 6.17 220 20:31 26.03.2021
1013 Clear 7 1005 53 10000 7.72 230 19:53 26.03.2021
1014 Clear 7 1005 53 10000 7.72 230 19:34 26.03.2021
1015 Clouds 8 1005 42 10000 8.75 250 18:55 26.03.2021
1016 Clouds 8 1005 42 10000 8.75 250 18:55 26.03.2021
1017 Clouds 7 1005 42 10000 8.75 250 18:36 26.03.2021
1018 Clouds 7 1004 46 10000 8.23 240 18:18 26.03.2021
1019 Clouds 7 1004 49 10000 9.77 240 17:41 26.03.2021
1020 Clouds 9 1004 46 10000 8.23 250 16:50 26.03.2021
1021 Clouds 10 1004 46 10000 8.23 240 16:23 26.03.2021
1022 Clouds 10 1004 46 10000 8.23 240 16:23 26.03.2021
1023 Clouds 10 1004 46 10000 8.23 240 15:43 26.03.2021
1024 Clouds 10 1004 53 10000 7.72 250 14:54 26.03.2021
1025 Clouds 10 1004 66 10000 5.66 260 14:20 26.03.2021
1026 Clouds 9 1004 66 10000 7.72 240 13:33 26.03.2021
1027 Rain 8 1004 71 10000 5.66 280 12:46 26.03.2021
1028 Clouds 7 1004 87 10000 3.6 250 11:50 26.03.2021
1029 Clouds 6 1004 87 10000 5.66 270 11:31 26.03.2021
1030 Rain 6 1003 93 8000 6.69 260 10:44 26.03.2021
1031 Rain 8 1002 87 8000 5.14 200 10:23 26.03.2021
1032 Rain 10 1001 76 10000 6.17 190 09:41 26.03.2021
1033 Clouds 10 1001 81 10000 5.14 180 08:49 26.03.2021
1034 Clouds 9 1002 87 10000 5.14 180 08:31 26.03.2021
1035 Clouds 9 1002 87 10000 3.6 190 07:57 26.03.2021
1036 Clouds 9 1003 81 9000 4.63 190 07:22 26.03.2021
1037 Clouds 9 1003 81 10000 5.66 190 06:57 26.03.2021
1038 Clouds 9 1004 81 10000 4.63 180 05:32 26.03.2021
1039 Clouds 9 1005 87 10000 4.12 190 04:23 26.03.2021
1040 Clouds 10 1008 71 10000 4.63 170 01:18 26.03.2021
1041 Clouds 10 1009 71 10000 4.63 190 00:18 26.03.2021
1042 Clouds 10 1009 66 10000 4.63 180 23:42 25.03.2021
1043 Clouds 9 1010 66 10000 4.12 190 22:41 25.03.2021
1044 Clouds 10 1010 62 10000 3.6 180 22:20 25.03.2021
1045 Clouds 10 1011 62 10000 4.12 200 21:47 25.03.2021
1046 Clouds 10 1011 66 10000 4.63 190 21:29 25.03.2021
1047 Clouds 10 1011 57 10000 3.6 200 20:41 25.03.2021
1048 Clouds 11 1011 54 10000 4.12 200 20:23 25.03.2021
1049 Clouds 11 1011 54 10000 6.17 200 19:40 25.03.2021
1050 Clouds 12 1011 54 10000 3.6 200 19:22 25.03.2021
1051 Clouds 13 1011 58 10000 3.6 220 18:46 25.03.2021
1052 Clouds 13 1011 50 10000 6.17 220 18:26 25.03.2021
1053 Clouds 14 1012 54 10000 6.69 220 17:41 25.03.2021
1054 Clouds 14 1012 54 10000 5.66 210 17:23 25.03.2021
1055 Clouds 14 1012 50 10000 4.12 200 16:38 25.03.2021
1056 Clouds 14 1013 47 10000 6.17 220 16:19 25.03.2021
1057 Clouds 15 1013 44 10000 7.2 220 15:42 25.03.2021
1058 Clouds 14 1014 50 10000 4.63 210 15:19 25.03.2021
1059 Clouds 14 1014 54 10000 4.12 200 14:42 25.03.2021
1060 Clouds 13 1014 58 10000 5.66 220 13:40 25.03.2021
1061 Clouds 13 1014 62 10000 5.14 220 13:22 25.03.2021
1062 Clouds 12 1015 62 10000 5.66 220 12:41 25.03.2021
1063 Clouds 12 1015 71 10000 4.12 210 12:20 25.03.2021
1064 Clouds 12 1015 71 10000 4.12 210 11:48 25.03.2021
1065 Clouds 11 1015 71 10000 4.63 210 11:26 25.03.2021
1066 Clouds 11 1015 76 10000 5.14 220 10:50 25.03.2021
1067 Clouds 10 1015 76 10000 3.6 200 10:24 25.03.2021
1068 Clouds 10 1015 81 10000 3.09 190 09:54 25.03.2021
1069 Clouds 9 1015 81 10000 3.09 190 09:36 25.03.2021
1070 Clouds 8 1015 93 10000 2.57 190 08:42 25.03.2021
1071 Clouds 8 1015 87 10000 3.09 190 07:58 25.03.2021
1072 Clouds 8 1015 81 10000 3.09 190 06:59 25.03.2021
1073 Clouds 7 1015 81 10000 3.09 180 06:25 25.03.2021
1074 Clouds 8 1015 81 10000 2.57 180 05:47 25.03.2021
1075 Clouds 7 1017 81 10000 2.57 180 02:43 25.03.2021
1076 Clouds 8 1017 81 10000 3.6 200 00:21 25.03.2021
1077 Clouds 8 1017 76 10000 3.6 200 23:50 24.03.2021
1078 Clouds 8 1017 76 10000 3.09 190 23:25 24.03.2021
1079 Clouds 8 1018 70 10000 3.09 200 22:43 24.03.2021
1080 Clouds 8 1018 70 10000 2.57 200 22:20 24.03.2021
1081 Clouds 9 1018 70 10000 3.6 210 21:42 24.03.2021
1082 Clouds 9 1018 70 10000 2.57 210 21:21 24.03.2021
1083 Clouds 9 1018 66 10000 2.57 190 20:41 24.03.2021
1084 Clouds 9 1018 66 10000 2.57 190 20:41 24.03.2021
1085 Clouds 9 1018 66 10000 3.09 230 20:20 24.03.2021
1086 Clouds 10 1018 57 10000 4.63 250 19:35 24.03.2021
1087 Clouds 11 1017 54 10000 5.66 240 18:58 24.03.2021
1088 Clouds 12 1017 54 10000 5.66 240 18:39 24.03.2021
1089 Clouds 12 1017 54 10000 6.69 240 18:20 24.03.2021
1090 Clouds 13 1017 50 10000 6.69 240 17:41 24.03.2021
1091 Clouds 13 1017 47 10000 5.66 250 17:23 24.03.2021
1092 Clouds 13 1017 54 10000 5.66 240 16:42 24.03.2021
1093 Clouds 14 1017 54 10000 5.66 240 16:23 24.03.2021
1094 Clouds 13 1017 54 10000 5.14 230 15:43 24.03.2021
1095 Clouds 13 1018 54 10000 5.14 240 15:23 24.03.2021
1096 Clouds 13 1018 54 10000 6.17 250 14:42 24.03.2021
1097 Clouds 12 1018 62 10000 5.14 270 14:23 24.03.2021
1098 Clouds 12 1018 58 10000 5.14 260 13:50 24.03.2021
1099 Clouds 11 1018 58 10000 6.17 230 13:25 24.03.2021
1100 Clouds 11 1018 62 10000 6.17 240 12:41 24.03.2021
1101 Clouds 11 1018 66 10000 5.14 230 12:21 24.03.2021
1102 Clouds 11 1018 71 10000 4.12 230 11:42 24.03.2021
1103 Clouds 10 1018 81 10000 3.09 220 10:53 24.03.2021
1104 Clouds 9 1018 87 10000 2.06 210 10:35 24.03.2021
1105 Clouds 9 1018 93 10000 1.54 0 09:58 24.03.2021
1106 Clouds 9 1018 93 10000 1.54 0 09:37 24.03.2021
1107 Clouds 8 1018 93 10000 1.54 190 09:18 24.03.2021
1108 Clouds 7 1018 93 10000 1.54 0 08:46 24.03.2021
1109 Clouds 7 1017 100 10000 1.03 170 07:50 24.03.2021
1110 Clouds 7 1017 100 10000 1.03 0 07:25 24.03.2021
1111 Rain 7 1017 100 10000 1.03 0 06:46 24.03.2021
1112 Clouds 10 1017 76 10000 3.09 180 03:19 24.03.2021
1113 Clouds 10 1018 76 10000 3.6 200 00:44 24.03.2021
1114 Clouds 10 1018 76 10000 3.09 190 23:52 23.03.2021
1115 Clouds 10 1018 76 10000 2.57 190 23:20 23.03.2021
1116 Clouds 10 1018 76 10000 3.09 190 22:51 23.03.2021
1117 Clouds 10 1018 76 10000 3.6 200 22:25 23.03.2021
1118 Clouds 10 1018 71 10000 4.63 200 21:47 23.03.2021
1119 Clouds 10 1018 71 10000 4.63 200 21:29 23.03.2021
1120 Clouds 11 1018 71 10000 4.63 210 20:47 23.03.2021
1121 Clouds 10 1018 71 10000 3.09 200 20:25 23.03.2021
1122 Clouds 11 1018 66 10000 3.6 200 19:48 23.03.2021
1123 Clouds 11 1018 66 10000 4.12 210 19:26 23.03.2021
1124 Clouds 11 1018 66 10000 4.63 220 18:47 23.03.2021
1125 Clouds 11 1018 66 10000 4.12 220 18:23 23.03.2021
1126 Clouds 11 1018 62 10000 5.66 220 17:49 23.03.2021
1127 Clouds 11 1019 62 10000 5.66 210 17:23 23.03.2021
1128 Clouds 11 1019 62 10000 4.12 210 16:42 23.03.2021
1129 Clouds 11 1019 62 10000 5.14 210 16:24 23.03.2021
1130 Clouds 11 1019 66 10000 3.6 210 15:46 23.03.2021
1131 Clouds 10 1020 66 10000 3.6 200 14:57 23.03.2021
1132 Clouds 10 1020 66 10000 3.6 200 14:37 23.03.2021
1133 Clouds 10 1020 62 10000 4.12 190 14:18 23.03.2021
1134 Clouds 10 1021 66 10000 3.6 190 13:41 23.03.2021
1135 Clouds 10 1021 66 10000 3.6 190 13:20 23.03.2021
1136 Clouds 9 1021 66 10000 4.12 200 12:43 23.03.2021
1137 Clouds 9 1021 66 10000 4.12 200 12:20 23.03.2021
1138 Clouds 9 1022 71 10000 3.09 200 11:45 23.03.2021
1139 Clouds 9 1022 71 10000 2.06 200 10:45 23.03.2021
1140 Clouds 9 1022 66 10000 2.57 200 10:26 23.03.2021
1141 Clouds 9 1022 66 10000 2.57 200 10:26 23.03.2021
1142 Clouds 8 1022 70 10000 3.09 200 09:58 23.03.2021
1143 Clouds 8 1022 70 10000 3.09 200 09:39 23.03.2021
1144 Clouds 8 1022 70 10000 2.57 210 09:19 23.03.2021
1145 Clouds 7 1022 70 10000 2.57 200 08:40 23.03.2021
1146 Clouds 7 1022 70 10000 3.09 210 08:22 23.03.2021
1147 Clouds 7 1022 75 10000 2.57 200 07:28 23.03.2021
1148 Clouds 7 1023 81 10000 1.54 190 06:59 23.03.2021
1149 Clouds 7 1023 81 10000 1.54 210 06:26 23.03.2021
1150 Clouds 8 1024 70 10000 3.09 230 03:22 23.03.2021
1151 Clouds 8 1024 76 10000 3.09 240 02:18 23.03.2021
1152 Clouds 8 1024 76 10000 1.54 310 23:43 22.03.2021
1153 Clouds 9 1025 76 10000 1.54 0 22:54 22.03.2021
1154 Clouds 9 1025 76 10000 1.54 0 22:36 22.03.2021
1155 Clouds 9 1025 76 10000 2.06 290 22:18 22.03.2021
1156 Clouds 9 1025 76 10000 2.06 300 21:40 22.03.2021
1157 Clouds 9 1025 71 10000 2.57 310 21:21 22.03.2021
1158 Clouds 9 1025 71 10000 3.6 310 20:41 22.03.2021
1159 Clouds 9 1025 71 10000 3.6 310 20:21 22.03.2021
1160 Clouds 10 1025 71 10000 3.09 310 19:52 22.03.2021
1161 Clouds 10 1024 71 10000 3.6 300 19:30 22.03.2021
1162 Clouds 10 1024 71 10000 3.6 300 19:30 22.03.2021
1163 Clouds 10 1024 66 10000 2.57 310 18:47 22.03.2021
1164 Clouds 10 1024 66 10000 2.06 320 18:28 22.03.2021
1165 Clouds 11 1024 62 10000 3.09 330 17:57 22.03.2021
1166 Clouds 11 1024 62 10000 3.09 330 17:37 22.03.2021
1167 Clouds 11 1025 62 10000 4.12 300 17:18 22.03.2021
1168 Clouds 11 1025 62 10000 3.6 300 16:43 22.03.2021
1169 Clouds 11 1025 62 10000 4.12 300 15:59 22.03.2021
1170 Clouds 11 1025 62 10000 4.12 300 15:38 22.03.2021
1171 Clouds 11 1025 66 10000 4.12 300 15:18 22.03.2021
1172 Clouds 10 1026 71 10000 3.09 280 14:50 22.03.2021
1173 Clouds 10 1026 71 10000 4.63 290 14:29 22.03.2021
1174 Clouds 10 1026 66 10000 4.63 300 13:43 22.03.2021
1175 Clouds 10 1026 66 10000 4.63 300 13:22 22.03.2021
1176 Clouds 9 1027 71 10000 4.12 300 12:47 22.03.2021
1177 Clouds 9 1027 71 10000 4.12 300 12:23 22.03.2021
1178 Clouds 9 1026 71 10000 3.6 280 11:47 22.03.2021
1179 Clouds 9 1026 71 10000 3.6 280 11:25 22.03.2021
1180 Clouds 8 1026 71 10000 2.57 300 10:44 22.03.2021
1181 Clouds 8 1026 76 10000 3.6 290 10:24 22.03.2021
1182 Clouds 7 1026 76 10000 3.6 290 09:40 22.03.2021
1183 Clouds 7 1026 81 10000 2.57 280 09:21 22.03.2021
1184 Clouds 7 1026 87 10000 3.6 310 08:43 22.03.2021
1185 Clouds 7 1026 87 10000 3.6 290 08:24 22.03.2021
1186 Clouds 6 1026 87 10000 3.09 290 07:44 22.03.2021
1187 Clouds 6 1026 87 10000 1.54 290 06:53 22.03.2021
1188 Clouds 6 1026 87 10000 1.54 280 06:27 22.03.2021
1189 Clouds 6 1027 87 10000 0.51 0 02:32 22.03.2021
1190 Clouds 6 1028 81 10000 1.03 250 00:29 22.03.2021
1191 Clouds 6 1028 87 10000 0.51 0 23:53 21.03.2021
1192 Clouds 6 1028 87 10000 0.51 0 23:53 21.03.2021
1193 Clouds 5 1028 87 10000 0.51 0 23:19 21.03.2021
1194 Clouds 5 1028 87 10000 0.51 240 22:55 21.03.2021
1195 Clouds 5 1028 81 10000 1.54 240 21:58 21.03.2021
1196 Clouds 5 1028 81 10000 1.54 240 21:39 21.03.2021
1197 Clear 6 1029 81 10000 1.54 270 21:21 21.03.2021
1198 Clear 7 1029 75 10000 3.09 300 20:41 21.03.2021
1199 Clear 7 1029 70 10000 3.09 300 20:23 21.03.2021
1200 Clear 8 1029 70 10000 3.6 290 19:52 21.03.2021
1201 Clouds 8 1028 66 10000 3.6 290 19:21 21.03.2021
1202 Clouds 9 1028 66 10000 4.63 280 18:46 21.03.2021
1203 Clouds 10 1028 66 10000 4.12 280 18:27 21.03.2021
1204 Clouds 10 1028 62 10000 4.63 270 17:45 21.03.2021
1205 Clouds 10 1029 66 10000 4.12 290 17:20 21.03.2021
1206 Clouds 10 1029 62 10000 4.63 280 16:54 21.03.2021
1207 Clouds 10 1029 62 10000 3.6 260 16:30 21.03.2021
1208 Clouds 11 1029 62 10000 4.12 280 15:55 21.03.2021
1209 Clouds 11 1029 62 10000 4.12 280 15:36 21.03.2021
1210 Clouds 11 1029 62 10000 4.12 280 15:18 21.03.2021
1211 Clouds 10 1030 66 10000 2.57 280 14:41 21.03.2021
1212 Clouds 10 1030 71 10000 3.09 270 14:23 21.03.2021
1213 Clouds 10 1030 81 10000 2.06 300 13:52 21.03.2021
1214 Haze 10 1030 93 5000 1.03 0 12:46 21.03.2021
1215 Clouds 9 1031 87 4400 1.54 0 12:27 21.03.2021
1216 Clouds 9 1031 87 10000 2.06 250 11:51 21.03.2021
1217 Clouds 9 1031 87 10000 0.51 0 11:27 21.03.2021
1218 Clouds 8 1031 93 10000 1.03 10 10:54 21.03.2021
1219 Clouds 8 1031 93 10000 1.03 0 10:34 21.03.2021
1220 Clouds 8 1031 93 10000 1.54 280 09:57 21.03.2021
1221 Clouds 7 1031 93 10000 1.54 280 09:38 21.03.2021
1222 Clouds 7 1031 93 10000 1.54 280 09:38 21.03.2021
1223 Clouds 7 1031 93 10000 1.54 280 09:38 21.03.2021
1224 Clouds 7 1031 93 10000 1.54 280 09:38 21.03.2021
1225 Clouds 7 1031 93 10000 0.51 230 09:19 21.03.2021
1226 Clouds 7 1030 93 8000 0.51 0 08:38 21.03.2021
1227 Clouds 7 1030 93 10000 0.51 0 08:19 21.03.2021
1228 Clouds 7 1030 100 9000 1.03 280 07:31 21.03.2021
1229 Clouds 7 1029 93 9000 0.51 0 06:30 21.03.2021
1230 Clouds 6 1030 93 10000 1.03 250 04:58 21.03.2021
1231 Clouds 7 1030 93 10000 3.09 320 00:59 21.03.2021
1232 Clouds 7 1030 93 10000 3.09 320 00:39 21.03.2021
1233 Clouds 8 1030 87 10000 3.6 320 00:20 21.03.2021
1234 Clouds 8 1030 81 10000 4.12 310 23:46 20.03.2021
1235 Clouds 8 1030 81 10000 4.12 300 23:20 20.03.2021
1236 Clouds 8 1030 81 10000 6.17 290 22:47 20.03.2021
1237 Clouds 8 1030 76 10000 6.17 310 22:18 20.03.2021
1238 Clouds 8 1030 81 10000 6.69 310 21:44 20.03.2021
1239 Clouds 8 1030 81 10000 7.2 300 21:24 20.03.2021
1240 Clouds 8 1030 87 10000 7.2 300 20:42 20.03.2021
1241 Clouds 8 1030 87 10000 4.12 300 20:22 20.03.2021
1242 Clouds 8 1030 87 10000 3.6 300 19:44 20.03.2021
1243 Clouds 8 1030 87 10000 4.63 300 19:25 20.03.2021
1244 Clouds 8 1030 87 10000 3.6 300 18:46 20.03.2021
1245 Clouds 8 1030 87 10000 4.63 290 18:24 20.03.2021
1246 Clouds 8 1030 87 10000 5.14 290 17:51 20.03.2021
1247 Clouds 8 1030 81 10000 6.17 280 17:27 20.03.2021
1248 Clouds 9 1030 81 10000 4.12 290 16:44 20.03.2021
1249 Clouds 9 1031 81 10000 4.12 300 16:20 20.03.2021
1250 Clouds 9 1031 81 10000 4.63 290 15:56 20.03.2021
1251 Clouds 9 1031 81 10000 4.63 290 15:38 20.03.2021
1252 Clouds 9 1031 81 10000 5.66 290 14:44 20.03.2021
1253 Clouds 10 1031 76 10000 5.66 300 14:22 20.03.2021
1254 Clouds 10 1031 76 10000 5.66 290 13:32 20.03.2021
1255 Clouds 11 1032 76 10000 4.12 290 12:51 20.03.2021
1256 Clouds 11 1032 81 10000 3.09 280 12:26 20.03.2021
1257 Clouds 10 1032 87 10000 2.57 270 11:44 20.03.2021
1258 Clouds 10 1032 87 10000 2.57 260 11:24 20.03.2021
1259 Clouds 10 1032 87 10000 2.57 240 10:47 20.03.2021
1260 Clouds 9 1032 93 10000 2.06 230 10:27 20.03.2021
1261 Clouds 9 1032 93 9000 1.03 220 09:55 20.03.2021
1262 Clouds 8 1032 100 7000 1.03 230 09:27 20.03.2021
1263 Clouds 8 1032 93 7000 1.03 0 08:56 20.03.2021
1264 Clouds 8 1032 87 6000 1.03 220 08:28 20.03.2021
1265 Clouds 8 1032 87 10000 0.51 0 07:50 20.03.2021
1266 Clouds 8 1032 93 9000 1.54 310 07:30 20.03.2021
1267 Clouds 8 1032 93 6000 1.54 290 06:46 20.03.2021
1268 Clouds 8 1032 87 10000 1.54 270 05:30 20.03.2021
1269 Clouds 8 1033 81 10000 1.54 320 03:46 20.03.2021
1270 Clouds 8 1033 81 10000 2.06 30 02:40 20.03.2021
1271 Clouds 8 1033 81 10000 1.54 0 23:48 19.03.2021
1272 Clouds 8 1033 81 10000 1.54 0 23:48 19.03.2021
1273 Clouds 8 1033 81 10000 2.06 50 23:21 19.03.2021
1274 Clouds 8 1033 81 10000 3.09 30 22:45 19.03.2021
1275 Clouds 9 1033 81 10000 3.09 40 22:24 19.03.2021
1276 Clouds 9 1033 81 10000 2.06 70 21:51 19.03.2021
1277 Clouds 9 1033 81 10000 3.6 50 21:21 19.03.2021
1278 Clouds 9 1033 81 10000 2.57 50 20:46 19.03.2021
1279 Clouds 9 1033 76 10000 3.6 50 20:27 19.03.2021
1280 Clouds 9 1033 76 10000 3.09 50 19:52 19.03.2021
1281 Clouds 9 1032 76 10000 3.6 50 19:25 19.03.2021
1282 Clouds 9 1032 76 10000 4.12 50 18:56 19.03.2021
1283 Clouds 9 1032 76 10000 4.12 50 18:36 19.03.2021
1284 Clouds 10 1032 76 10000 3.09 50 18:18 19.03.2021
1285 Clouds 10 1032 76 10000 4.12 60 17:42 19.03.2021
1286 Clouds 10 1031 76 10000 3.6 50 17:22 19.03.2021
1287 Clouds 10 1031 76 10000 4.12 60 16:44 19.03.2021
1288 Clouds 10 1031 71 10000 4.63 50 16:26 19.03.2021
1289 Clouds 10 1031 71 10000 4.63 50 15:34 19.03.2021
1290 Clouds 10 1031 76 10000 4.12 50 14:54 19.03.2021
1291 Clouds 10 1031 76 10000 4.12 50 14:35 19.03.2021
1292 Clouds 10 1031 76 10000 4.63 30 13:54 19.03.2021
1293 Clouds 10 1031 76 10000 5.14 20 13:21 19.03.2021
1294 Clouds 9 1031 76 10000 5.66 30 12:48 19.03.2021
1295 Clouds 9 1031 81 10000 5.66 30 12:24 19.03.2021
1296 Clouds 9 1031 81 10000 4.63 30 11:34 19.03.2021
1297 Clouds 8 1031 81 10000 5.66 20 10:53 19.03.2021
1298 Clouds 8 1030 87 10000 6.17 30 10:25 19.03.2021
1299 Clouds 8 1030 87 10000 5.14 30 09:46 19.03.2021
1300 Clouds 8 1030 93 4300 4.12 30 09:26 19.03.2021
1301 Clouds 8 1029 87 10000 5.14 30 08:52 19.03.2021
1302 Clouds 8 1029 87 10000 5.66 20 08:29 19.03.2021
1303 Clouds 7 1029 87 10000 5.14 30 07:50 19.03.2021
1304 Clouds 7 1029 87 10000 5.14 30 07:32 19.03.2021
1305 Clouds 8 1028 81 10000 4.63 30 05:54 19.03.2021
1306 Clouds 9 1028 81 10000 6.69 20 02:36 19.03.2021
1307 Clouds 8 1028 93 8000 2.57 310 23:57 18.03.2021
1308 Clouds 8 1028 93 8000 2.57 320 23:29 18.03.2021
1309 Clouds 8 1027 93 10000 3.09 330 22:54 18.03.2021
1310 Clouds 8 1027 81 10000 1.65 351 22:26 18.03.2021
1311 Clouds 8 1027 81 10000 1.65 351 22:26 18.03.2021
1312 Clouds 8 1028 93 10000 3.6 300 21:55 18.03.2021
1313 Clouds 8 1028 93 10000 3.6 300 21:36 18.03.2021
1314 Clouds 9 1028 87 10000 2.57 300 20:43 18.03.2021
1315 Clouds 9 1028 87 10000 2.57 300 20:43 18.03.2021
1316 Clouds 9 1028 93 10000 4.63 300 20:22 18.03.2021
1317 Clouds 9 1028 87 10000 3.6 300 19:43 18.03.2021
1318 Clouds 9 1028 87 10000 4.63 300 19:23 18.03.2021
1319 Clouds 9 1028 87 10000 4.63 300 19:23 18.03.2021
1320 Clouds 10 1028 87 10000 4.63 290 18:47 18.03.2021
1321 Clouds 11 1028 81 10000 4.12 310 18:25 18.03.2021
1322 Clouds 11 1028 81 10000 5.14 300 17:43 18.03.2021
1323 Clouds 11 1029 81 10000 5.14 300 17:20 18.03.2021
1324 Clouds 10 1029 87 10000 5.14 310 16:41 18.03.2021
1325 Clouds 10 1029 87 10000 4.12 280 16:23 18.03.2021
1326 Clouds 10 1029 87 10000 4.12 280 16:23 18.03.2021
1327 Clouds 10 1030 87 10000 5.14 290 15:41 18.03.2021
1328 Clouds 10 1030 87 10000 4.63 280 15:21 18.03.2021
1329 Clouds 10 1030 87 10000 4.12 290 14:49 18.03.2021
1330 Clouds 10 1031 87 10000 4.12 280 14:23 18.03.2021
1331 Clouds 10 1031 93 10000 5.14 270 13:40 18.03.2021
1332 Clouds 9 1032 93 10000 3.6 300 13:21 18.03.2021
1333 Clouds 9 1032 93 10000 3.6 290 12:38 18.03.2021
1334 Mist 8 1032 100 1400 2.06 280 12:20 18.03.2021
1335 Mist 8 1032 100 4400 3.09 310 11:45 18.03.2021
1336 Fog 8 1032 93 600 3.6 280 11:22 18.03.2021
1337 Fog 7 1032 93 350 2.57 280 10:41 18.03.2021
1338 Fog 6 1032 100 200 1.54 280 10:23 18.03.2021
1339 Fog 6 1032 93 250 0.51 0 09:52 18.03.2021
1340 Fog 6 1033 93 300 1.54 0 09:27 18.03.2021
1341 Fog 5 1033 100 400 0.51 0 08:45 18.03.2021
1342 Fog 5 1033 100 200 1.03 0 08:25 18.03.2021
1343 Fog 5 1033 93 150 1.54 0 07:47 18.03.2021
1344 Fog 4 1033 100 200 1.54 0 06:49 18.03.2021
1345 Fog 4 1033 100 100 1.54 40 06:26 18.03.2021
1346 Fog 4 1033 100 100 1.54 270 05:27 18.03.2021
1347 Clouds 4 1034 87 10000 0.51 0 00:49 18.03.2021
1348 Clouds 5 1034 93 10000 0.51 220 23:39 17.03.2021
1349 Clouds 5 1034 87 10000 1.03 0 22:43 17.03.2021
1350 Clouds 6 1034 81 10000 1.54 70 22:24 17.03.2021
1351 Clouds 6 1034 81 10000 1.03 0 21:52 17.03.2021
1352 Clouds 7 1034 81 10000 1.03 0 21:32 17.03.2021
1353 Clouds 8 1034 70 10000 2.06 30 20:55 17.03.2021
1354 Clouds 8 1034 70 10000 2.06 30 20:55 17.03.2021
1355 Clouds 8 1034 70 10000 2.06 30 20:37 17.03.2021
1356 Clouds 8 1034 81 10000 2.06 260 20:19 17.03.2021
1357 Clouds 9 1033 71 10000 3.09 290 19:41 17.03.2021
1358 Clouds 10 1033 66 10000 2.57 280 19:20 17.03.2021
1359 Clouds 11 1033 62 10000 2.06 260 18:50 17.03.2021
1360 Clouds 11 1033 62 10000 2.06 260 18:32 17.03.2021
1361 Clouds 12 1033 62 10000 1.54 0 17:42 17.03.2021
1362 Clouds 12 1033 66 10000 1.54 0 17:22 17.03.2021
1363 Clouds 12 1033 66 10000 2.57 300 16:43 17.03.2021
1364 Clouds 12 1033 71 10000 3.09 290 16:21 17.03.2021
1365 Clouds 11 1033 71 10000 2.57 300 15:46 17.03.2021
1366 Clouds 11 1033 71 10000 3.09 300 15:28 17.03.2021
1367 Clouds 10 1034 76 10000 3.09 300 14:40 17.03.2021
1368 Clouds 9 1034 81 10000 1.54 0 14:20 17.03.2021
1369 Clouds 9 1034 81 10000 2.06 300 13:55 17.03.2021
1370 Clouds 8 1035 81 10000 3.6 350 13:25 17.03.2021
1371 Clouds 8 1034 87 10000 2.57 310 12:48 17.03.2021
1372 Clouds 7 1035 87 10000 2.06 350 12:27 17.03.2021
1373 Clouds 7 1034 87 10000 1.54 0 11:41 17.03.2021
1374 Clouds 7 1034 93 10000 1.03 0 11:21 17.03.2021
1375 Clouds 7 1034 93 10000 1.54 0 10:52 17.03.2021
1376 Clouds 6 1035 93 10000 2.57 360 10:23 17.03.2021
1377 Clouds 6 1035 93 10000 2.06 310 09:46 17.03.2021
1378 Clouds 5 1035 93 9000 2.57 280 09:20 17.03.2021
1379 Clouds 5 1035 100 8000 2.06 280 08:47 17.03.2021
1380 Clouds 5 1035 100 6000 3.09 280 08:27 17.03.2021
1381 Fog 3 1035 100 650 0.51 0 07:43 17.03.2021
1382 Mist 3 1034 93 3200 1.54 200 06:57 17.03.2021
1383 Mist 3 1034 93 2900 1.54 160 06:28 17.03.2021
1384 Mist 4 1034 93 1600 1.03 210 03:32 17.03.2021
1385 Clouds 4 1034 93 8000 1.03 0 02:37 17.03.2021
1386 Clouds 6 1034 87 10000 0.51 0 00:38 17.03.2021
1387 Clouds 7 1033 87 10000 1.54 310 23:27 16.03.2021
1388 Clouds 7 1033 87 10000 1.54 310 23:27 16.03.2021
1389 Clouds 7 1033 81 10000 3.09 320 22:45 16.03.2021
1390 Clouds 7 1033 81 10000 3.6 330 22:27 16.03.2021
1391 Clouds 8 1033 81 10000 4.63 320 21:44 16.03.2021
1392 Clouds 9 1032 76 10000 2.57 310 21:26 16.03.2021
1393 Clouds 9 1032 76 10000 2.57 290 20:57 16.03.2021
1394 Clear 9 1031 76 10000 3.09 310 20:20 16.03.2021
1395 Clear 10 1031 76 10000 3.6 300 19:51 16.03.2021
1396 Clouds 10 1031 76 10000 4.12 290 19:29 16.03.2021
1397 Haze 11 1030 71 4700 3.6 290 18:57 16.03.2021
1398 Haze 11 1030 71 4700 3.6 290 18:57 16.03.2021
1399 Haze 11 1030 71 4700 3.6 290 18:39 16.03.2021
1400 Clouds 12 1030 76 10000 5.14 300 17:59 16.03.2021
1401 Clouds 12 1030 76 10000 5.14 300 17:59 16.03.2021
1402 Clouds 12 1030 76 10000 5.14 300 17:40 16.03.2021
1403 Clouds 13 1030 76 10000 6.17 290 17:21 16.03.2021
1404 Clouds 13 1029 76 10000 5.66 300 16:47 16.03.2021
1405 Clouds 13 1029 82 10000 4.12 320 16:25 16.03.2021
1406 Clouds 12 1029 87 10000 6.17 310 15:46 16.03.2021
1407 Clouds 11 1029 87 10000 6.17 300 15:20 16.03.2021
1408 Clouds 11 1028 87 10000 4.63 310 14:57 16.03.2021
1409 Clouds 11 1028 87 10000 4.63 310 14:38 16.03.2021
1410 Clouds 10 1028 93 10000 6.17 310 14:18 16.03.2021
1411 Clouds 10 1028 93 10000 6.69 310 13:44 16.03.2021
1412 Clouds 10 1027 87 10000 6.17 290 13:21 16.03.2021
1413 Clouds 10 1027 93 10000 6.17 300 12:46 16.03.2021
1414 Clouds 10 1027 93 10000 5.14 300 12:27 16.03.2021
1415 Clouds 10 1026 93 10000 6.17 290 11:38 16.03.2021
1416 Clouds 9 1026 100 6000 5.66 290 10:53 16.03.2021
1417 Drizzle 9 1026 100 2900 4.63 280 10:24 16.03.2021
1418 Clouds 9 1026 93 4700 4.12 290 09:47 16.03.2021
1419 Clouds 9 1026 93 7000 3.6 290 09:29 16.03.2021
1420 Rain 9 1026 93 8000 4.12 290 08:57 16.03.2021
1421 Rain 9 1026 93 8000 4.12 290 08:39 16.03.2021
1422 Rain 9 1025 93 10000 5.66 290 07:57 16.03.2021
1423 Clouds 9 1025 93 10000 5.66 290 07:30 16.03.2021
1424 Clouds 9 1025 93 10000 4.12 290 06:38 16.03.2021
1425 Clouds 9 1025 100 10000 5.14 280 05:37 16.03.2021
1426 Rain 8 1025 100 1900 3.09 230 04:28 16.03.2021
1427 Rain 8 1025 93 2800 1.54 0 02:44 16.03.2021
1428 Rain 8 1025 87 10000 1.54 190 01:59 16.03.2021
1429 Clouds 8 1026 87 10000 1.03 0 23:55 15.03.2021
1430 Clouds 8 1026 81 10000 0.51 0 23:28 15.03.2021
1431 Clouds 8 1026 81 10000 0.51 300 22:50 15.03.2021
1432 Clouds 8 1026 81 10000 2.06 300 22:29 15.03.2021
1433 Clouds 8 1026 81 10000 2.06 300 22:29 15.03.2021
1434 Clouds 8 1026 81 10000 2.57 280 21:52 15.03.2021
1435 Clouds 8 1026 81 10000 2.57 280 21:32 15.03.2021
1436 Clouds 8 1025 81 10000 2.06 260 20:57 15.03.2021
1437 Clouds 8 1025 81 10000 2.06 260 20:38 15.03.2021
1438 Clouds 8 1025 81 10000 2.06 260 20:38 15.03.2021
1439 Clouds 8 1025 81 10000 2.57 290 20:20 15.03.2021
1440 Clouds 9 1025 81 10000 2.57 280 19:48 15.03.2021
1441 Clouds 9 1024 76 10000 4.63 290 19:30 15.03.2021
1442 Clouds 10 1024 76 10000 5.66 290 18:48 15.03.2021
1443 Clouds 10 1024 66 10000 5.14 310 18:23 15.03.2021
1444 Clouds 10 1023 66 10000 5.14 300 17:55 15.03.2021
1445 Clouds 11 1023 66 10000 5.66 290 17:29 15.03.2021
1446 Clouds 11 1023 62 10000 6.69 280 16:50 15.03.2021
1447 Clouds 11 1023 66 10000 6.17 290 16:31 15.03.2021
1448 Clouds 11 1022 66 10000 7.72 280 15:45 15.03.2021
1449 Clouds 12 1022 62 10000 7.72 290 15:25 15.03.2021
1450 Clouds 12 1022 66 10000 5.66 310 14:43 15.03.2021
1451 Clouds 11 1022 66 10000 5.66 300 14:22 15.03.2021
1452 Clouds 12 1021 66 10000 6.17 300 13:46 15.03.2021
1453 Clouds 12 1021 66 10000 6.17 300 13:46 15.03.2021
1454 Clouds 11 1021 71 10000 6.17 320 13:24 15.03.2021
1455 Clouds 10 1021 76 10000 5.14 300 12:47 15.03.2021
1456 Clouds 10 1021 81 10000 5.66 320 12:19 15.03.2021
1457 Clouds 10 1021 76 10000 6.17 310 11:48 15.03.2021
1458 Clouds 9 1020 81 10000 7.2 290 11:30 15.03.2021
1459 Clouds 9 1020 81 10000 5.66 320 10:49 15.03.2021
1460 Clouds 9 1020 87 10000 6.17 320 10:30 15.03.2021
1461 Clouds 8 1019 81 10000 5.14 300 09:51 15.03.2021
1462 Clouds 8 1019 81 10000 5.14 300 09:31 15.03.2021
1463 Clouds 8 1018 81 10000 5.14 300 08:49 15.03.2021
1464 Clouds 8 1018 87 10000 4.63 300 08:28 15.03.2021
1465 Clouds 8 1018 87 10000 5.14 300 07:49 15.03.2021
1466 Clouds 8 1017 87 10000 5.66 300 07:30 15.03.2021
1467 Clouds 8 1017 81 10000 5.66 300 06:36 15.03.2021
1468 Clouds 8 1016 81 10000 5.66 300 05:31 15.03.2021
1469 Clouds 8 1014 87 10000 6.17 300 01:26 15.03.2021
1470 Clouds 8 1014 87 10000 7.2 290 23:52 14.03.2021
1471 Clouds 8 1013 93 4200 7.2 280 23:19 14.03.2021
1472 Clouds 8 1013 87 10000 5.66 290 22:42 14.03.2021
1473 Clouds 8 1013 87 10000 7.72 290 22:19 14.03.2021
1474 Clouds 9 1013 81 10000 6.69 290 21:44 14.03.2021
1475 Clouds 9 1012 87 10000 7.2 290 21:18 14.03.2021
1476 Clouds 9 1012 87 10000 6.17 270 20:43 14.03.2021
1477 Clouds 9 1012 87 10000 6.69 270 20:24 14.03.2021
1478 Clouds 9 1012 87 10000 7.2 280 19:42 14.03.2021
1479 Clouds 9 1011 87 10000 8.23 280 19:20 14.03.2021
1480 Clouds 8 1011 93 9000 8.23 270 18:41 14.03.2021
1481 Clouds 7 1011 93 4900 3.6 230 17:58 14.03.2021
1482 Clouds 7 1011 93 4900 3.6 230 17:38 14.03.2021
1483 Rain 6 1011 100 5000 3.09 210 17:19 14.03.2021
1484 Rain 6 1012 93 3700 3.09 200 16:42 14.03.2021
1485 Rain 6 1012 93 3700 3.09 200 16:42 14.03.2021
1486 Rain 6 1012 93 3900 2.57 200 16:23 14.03.2021
1487 Rain 6 1013 87 4000 5.14 240 15:49 14.03.2021
1488 Rain 6 1013 81 10000 8.75 260 15:24 14.03.2021
1489 Rain 7 1013 76 10000 9.77 260 14:40 14.03.2021
1490 Rain 8 1014 76 10000 9.77 260 14:20 14.03.2021
1491 Clouds 8 1014 76 10000 7.72 260 13:45 14.03.2021
1492 Clouds 8 1014 81 10000 9.26 270 13:26 14.03.2021
1493 Clouds 8 1014 81 10000 7.72 270 12:43 14.03.2021
1494 Clouds 8 1013 87 10000 8.75 270 12:23 14.03.2021
1495 Clouds 8 1013 81 10000 7.72 270 11:41 14.03.2021
1496 Clouds 8 1013 81 10000 7.2 270 11:23 14.03.2021
1497 Clouds 7 1013 81 10000 7.2 270 10:38 14.03.2021
1498 Clouds 7 1012 81 10000 6.17 270 10:20 14.03.2021
1499 Clouds 7 1012 81 10000 6.17 270 09:59 14.03.2021
1500 Clouds 7 1012 81 10000 6.17 270 09:40 14.03.2021
1501 Clouds 6 1011 87 10000 5.66 270 09:20 14.03.2021
1502 Clouds 6 1011 87 10000 5.66 270 08:39 14.03.2021
1503 Clouds 5 1010 87 10000 5.66 310 07:58 14.03.2021
1504 Clouds 5 1009 81 10000 5.66 280 07:28 14.03.2021
1505 Clouds 6 1008 81 10000 5.66 280 05:38 14.03.2021
1506 Clouds 6 1003 87 10000 5.66 290 01:29 14.03.2021
1507 Clouds 6 1002 87 4900 5.14 290 00:42 14.03.2021
1508 Clouds 6 1001 87 10000 6.69 290 00:18 14.03.2021
1509 Clouds 6 1001 87 10000 7.72 290 23:40 13.03.2021
1510 Clouds 6 1000 87 10000 6.69 280 23:19 13.03.2021
1511 Clouds 6 999 87 10000 6.17 260 22:46 13.03.2021
1512 Rain 6 999 93 10000 7.2 250 22:21 13.03.2021
1513 Rain 6 999 87 10000 6.69 250 21:35 13.03.2021
1514 Rain 6 998 70 10000 5.66 250 20:59 13.03.2021
1515 Clouds 6 998 70 10000 5.66 250 20:41 13.03.2021
1516 Clouds 6 998 70 10000 7.2 250 20:23 13.03.2021
1517 Rain 6 997 65 10000 7.2 260 19:40 13.03.2021
1518 Clouds 6 997 65 10000 7.2 260 19:22 13.03.2021
1519 Clouds 7 997 61 10000 8.23 260 18:42 13.03.2021
1520 Clouds 7 996 61 10000 10.8 270 18:20 13.03.2021
1521 Clouds 7 996 61 10000 9.77 270 17:49 13.03.2021
1522 Clouds 7 996 61 10000 9.77 270 17:49 13.03.2021
1523 Clouds 7 995 61 10000 9.26 270 17:31 13.03.2021
1524 Clouds 7 995 61 10000 10.29 270 16:52 13.03.2021
1525 Clouds 7 995 61 10000 10.29 270 16:34 13.03.2021
1526 Clouds 7 994 65 10000 9.77 280 15:56 13.03.2021
1527 Clouds 7 994 65 10000 10.8 270 15:18 13.03.2021
1528 Clouds 7 994 65 10000 10.29 280 14:41 13.03.2021
1529 Clouds 7 993 65 10000 10.29 270 14:20 13.03.2021
1530 Clouds 7 993 75 10000 10.29 270 13:27 13.03.2021
1531 Clouds 7 992 70 10000 10.29 270 12:52 13.03.2021
1532 Clouds 6 991 75 10000 9.77 270 12:30 13.03.2021
1533 Clouds 7 990 76 10000 9.77 280 11:53 13.03.2021
1534 Clouds 6 989 81 10000 11.32 280 11:32 13.03.2021
1535 Clouds 6 989 75 10000 10.8 280 10:56 13.03.2021
1536 Clouds 5 988 87 9000 10.29 280 10:31 13.03.2021
1537 Rain 4 987 87 4500 7.72 290 09:57 13.03.2021
1538 Rain 5 985 87 10000 9.26 270 09:31 13.03.2021
1539 Rain 5 985 87 10000 8.75 270 08:53 13.03.2021
1540 Rain 5 984 87 10000 9.26 260 08:20 13.03.2021
1541 Rain 5 984 87 5000 7.72 260 07:56 13.03.2021
1542 Rain 4 983 87 8000 8.23 260 07:20 13.03.2021
1543 Clouds 5 983 93 10000 5.66 240 03:33 13.03.2021
1544 Rain 6 984 93 7000 3.6 180 01:21 13.03.2021
1545 Clouds 6 986 87 10000 4.63 190 00:23 13.03.2021
1546 Clouds 6 987 87 9000 4.63 200 23:33 12.03.2021
1547 Rain 6 989 87 6000 3.6 180 22:56 12.03.2021
1548 Rain 6 990 93 10000 2.06 150 22:29 12.03.2021
1549 Clouds 5 991 87 10000 2.57 190 21:54 12.03.2021
1550 Clouds 6 991 87 10000 2.57 190 21:36 12.03.2021
1551 Clouds 6 991 87 10000 2.57 190 21:36 12.03.2021
1552 Rain 6 992 75 10000 5.14 200 21:18 12.03.2021
1553 Clouds 6 993 75 10000 5.14 200 20:41 12.03.2021
1554 Clouds 7 994 75 10000 3.09 190 20:19 12.03.2021
1555 Clouds 7 994 75 10000 4.12 200 19:43 12.03.2021
1556 Clouds 7 994 70 10000 2.57 190 19:24 12.03.2021
1557 Clouds 8 994 65 10000 7.2 230 18:38 12.03.2021
1558 Clouds 8 995 70 10000 6.69 230 18:19 12.03.2021
1559 Clouds 8 995 65 10000 6.17 230 17:40 12.03.2021
1560 Clouds 8 996 61 10000 7.72 240 17:22 12.03.2021
1561 Clouds 8 996 57 10000 7.72 240 16:42 12.03.2021
1562 Clouds 9 996 61 10000 10.29 250 15:55 12.03.2021
1563 Clouds 9 996 61 10000 10.29 250 15:35 12.03.2021
1564 Clouds 9 997 57 10000 8.75 260 14:49 12.03.2021
1565 Clouds 8 997 61 10000 8.75 260 14:21 12.03.2021
1566 Clouds 9 997 61 10000 7.72 250 13:45 12.03.2021
1567 Clouds 8 997 61 10000 9.26 260 13:24 12.03.2021
1568 Clouds 8 997 66 10000 7.72 250 12:58 12.03.2021
1569 Clouds 8 997 66 10000 7.72 250 12:38 12.03.2021
1570 Clouds 8 997 70 10000 9.26 250 12:20 12.03.2021
1571 Clouds 7 997 75 10000 6.69 250 11:50 12.03.2021
1572 Clouds 6 996 87 10000 7.2 250 11:22 12.03.2021
1573 Clouds 5 996 87 10000 4.12 230 10:50 12.03.2021
1574 Clouds 4 996 93 3700 4.12 250 10:25 12.03.2021
1575 Rain 4 996 93 10000 2.57 210 09:52 12.03.2021
1576 Rain 4 996 93 3300 4.12 220 09:20 12.03.2021
1577 Rain 5 996 93 10000 4.12 200 08:44 12.03.2021
1578 Clouds 5 996 87 10000 3.6 200 07:56 12.03.2021
1579 Rain 5 997 87 10000 4.12 190 07:31 12.03.2021
1580 Clouds 5 996 87 10000 4.12 190 06:49 12.03.2021
1581 Clouds 5 997 87 10000 3.6 200 06:26 12.03.2021
1582 Clouds 5 1000 81 10000 3.09 200 02:20 12.03.2021
1583 Clouds 4 1000 87 10000 3.6 210 00:18 12.03.2021
1584 Clouds 4 1000 87 10000 2.57 180 23:19 11.03.2021
1585 Clouds 4 1000 87 10000 3.09 200 22:42 11.03.2021
1586 Clouds 4 999 81 10000 4.63 230 22:22 11.03.2021
1587 Clouds 5 999 75 10000 5.66 250 21:46 11.03.2021
1588 Clouds 5 998 81 10000 7.2 270 21:26 11.03.2021
1589 Clouds 5 998 75 10000 6.69 260 20:49 11.03.2021
1590 Rain 6 997 75 10000 9.26 260 20:27 11.03.2021
1591 Clouds 6 996 75 10000 9.26 260 19:57 11.03.2021
1592 Clouds 6 996 75 10000 9.26 260 19:38 11.03.2021
1593 Rain 6 995 75 10000 5.66 240 18:55 11.03.2021
1594 Rain 7 995 75 10000 5.66 240 18:35 11.03.2021
1595 Clouds 7 993 61 10000 7.72 270 17:57 11.03.2021
1596 Clouds 7 993 61 10000 7.72 270 17:39 11.03.2021
1597 Clouds 9 992 57 10000 9.26 260 16:42 11.03.2021
1598 Clouds 9 992 57 10000 8.75 240 16:24 11.03.2021
1599 Clouds 10 992 53 10000 10.29 270 15:44 11.03.2021
1600 Clouds 9 992 53 10000 8.75 260 15:21 11.03.2021
1601 Clouds 10 992 57 10000 10.29 260 14:45 11.03.2021
1602 Clouds 9 992 57 10000 10.29 260 14:19 11.03.2021
1603 Clouds 9 991 57 10000 11.32 270 13:46 11.03.2021
1604 Clouds 9 991 61 10000 11.32 260 13:22 11.03.2021
1605 Clouds 9 990 61 10000 11.32 260 12:56 11.03.2021
1606 Clouds 9 990 61 10000 10.8 260 12:30 11.03.2021
1607 Clouds 9 989 66 10000 11.83 250 11:49 11.03.2021
1608 Clouds 8 989 71 10000 13.89 260 11:31 11.03.2021
1609 Clouds 8 988 71 10000 11.83 260 10:57 11.03.2021
1610 Clouds 8 988 81 10000 10.8 260 10:28 11.03.2021
1611 Clouds 7 987 81 10000 11.32 260 09:53 11.03.2021
1612 Clouds 7 986 87 10000 10.29 270 09:33 11.03.2021
1613 Rain 7 984 87 10000 10.8 280 08:51 11.03.2021
1614 Clouds 7 984 87 10000 10.8 280 08:32 11.03.2021
1615 Rain 8 980 93 8000 13.89 260 07:50 11.03.2021
1616 Clouds 8 978 93 3600 11.83 240 07:21 11.03.2021
1617 Rain 8 977 87 6000 7.72 220 06:47 11.03.2021
1618 Rain 8 977 87 8000 8.23 210 06:23 11.03.2021
1619 Clouds 9 982 81 10000 8.75 220 02:31 11.03.2021
1620 -273 0 0 0 0 0 00:31 11.03.2021
1621 Rain 9 985 93 10000 8.23 230 00:31 11.03.2021
1622 Rain 10 985 76 10000 7.72 210 23:23 10.03.2021
1623 Rain 10 986 76 10000 6.69 200 22:42 10.03.2021
1624 Clouds 10 987 76 10000 6.69 200 22:21 10.03.2021
1625 Clouds 11 988 82 10000 6.69 210 21:44 10.03.2021
1626 Clouds 12 988 76 10000 6.69 210 21:22 10.03.2021
1627 Clouds 12 988 76 10000 6.69 210 21:22 10.03.2021
1628 Clouds 12 988 82 10000 6.17 200 20:45 10.03.2021
1629 Clouds 12 989 82 10000 6.69 200 20:27 10.03.2021
1630 Clouds 11 990 87 10000 6.69 210 19:43 10.03.2021
1631 Clouds 11 990 93 10000 5.66 190 19:24 10.03.2021
1632 Clouds 11 990 87 9000 5.66 190 18:44 10.03.2021
1633 Rain 11 991 87 10000 5.66 180 18:24 10.03.2021
1634 Clouds 11 991 93 10000 5.14 180 17:55 10.03.2021
1635 Clouds 11 991 93 10000 5.14 180 17:36 10.03.2021
1636 Clouds 10 993 93 7000 4.63 180 17:18 10.03.2021
1637 Rain 10 993 93 7000 4.12 190 16:41 10.03.2021
1638 Rain 10 994 93 7000 3.6 170 16:22 10.03.2021
1639 Rain 10 995 87 3300 4.63 180 15:44 10.03.2021
1640 Rain 9 996 87 10000 4.63 180 15:22 10.03.2021
1641 Rain 9 996 93 10000 5.14 180 14:46 10.03.2021
1642 Rain 9 997 93 10000 5.14 190 14:19 10.03.2021
1643 Rain 9 998 93 10000 5.66 190 13:50 10.03.2021
1644 Rain 9 998 87 10000 4.63 190 13:27 10.03.2021
1645 Clouds 9 999 87 10000 4.63 190 12:45 10.03.2021
1646 Clouds 8 1000 93 10000 4.63 190 12:19 10.03.2021
1647 Rain 8 1000 93 10000 4.12 190 11:32 10.03.2021
1648 Rain 8 1002 93 10000 5.14 190 10:59 10.03.2021
1649 Rain 7 1002 93 10000 5.14 190 10:38 10.03.2021
1650 Rain 7 1002 93 8000 5.66 180 10:20 10.03.2021
1651 Rain 7 1002 87 10000 5.66 190 09:42 10.03.2021
1652 Rain 7 1002 87 8000 5.14 190 09:22 10.03.2021
1653 Rain 7 1003 93 10000 5.14 190 08:57 10.03.2021
1654 Rain 7 1003 93 10000 5.14 190 08:57 10.03.2021
1655 Rain 7 1003 93 10000 5.14 190 08:38 10.03.2021
1656 Rain 7 1003 93 10000 5.14 190 08:20 10.03.2021
1657 Rain 6 1003 87 10000 6.17 190 07:30 10.03.2021
1658 Rain 6 1003 87 10000 6.17 190 07:30 10.03.2021
1659 Rain 6 1004 87 10000 5.66 190 06:56 10.03.2021
1660 Rain 6 1004 87 7000 5.66 190 06:23 10.03.2021
1661 Rain 6 1008 87 6000 4.12 170 02:27 10.03.2021
1662 Rain 7 1011 70 10000 3.09 180 23:49 09.03.2021
1663 Rain 7 1012 70 10000 3.6 180 23:19 09.03.2021
1664 Rain 8 1012 70 10000 3.09 180 22:39 09.03.2021
1665 Clouds 8 1013 70 10000 3.09 190 22:18 09.03.2021
1666 Clouds 8 1013 70 10000 3.6 190 21:45 09.03.2021
1667 Clouds 8 1013 70 10000 4.63 190 21:24 09.03.2021
1668 Clouds 8 1013 66 10000 4.63 190 20:58 09.03.2021
1669 Clouds 8 1013 66 10000 4.63 190 20:39 09.03.2021
1670 Clouds 9 1013 66 10000 3.09 190 20:20 09.03.2021
1671 Clouds 9 1014 61 10000 2.57 190 19:46 09.03.2021
1672 Clouds 9 1014 61 10000 4.12 190 19:25 09.03.2021
1673 Clouds 10 1014 71 10000 4.12 200 18:43 09.03.2021
1674 Clouds 10 1014 71 10000 2.57 190 18:25 09.03.2021
1675 Clouds 10 1015 71 10000 2.06 200 17:50 09.03.2021
1676 Clouds 10 1015 71 10000 3.09 210 17:28 09.03.2021
1677 Clouds 11 1016 71 10000 4.63 210 16:41 09.03.2021
1678 Clouds 11 1016 71 10000 4.63 220 16:23 09.03.2021
1679 Clouds 11 1017 71 10000 4.12 210 15:57 09.03.2021
1680 Clouds 11 1017 66 10000 4.12 210 15:28 09.03.2021
1681 Clouds 11 1017 71 10000 4.12 200 14:55 09.03.2021
1682 Clouds 11 1017 76 10000 3.6 200 14:27 09.03.2021
1683 Clouds 10 1018 76 10000 3.09 200 13:43 09.03.2021
1684 Clouds 8 1018 81 10000 3.09 200 13:22 09.03.2021
1685 Clouds 8 1018 87 10000 3.6 210 12:55 09.03.2021
1686 Clouds 9 1018 87 10000 3.6 210 12:37 09.03.2021
1687 Clouds 8 1018 87 10000 2.57 180 11:58 09.03.2021
1688 Clouds 7 1018 87 10000 2.57 180 11:39 09.03.2021
1689 Clouds 5 1019 93 10000 2.06 160 11:19 09.03.2021
1690 Clouds 5 1020 93 2200 2.06 180 10:40 09.03.2021
1691 Clouds 5 1019 87 10000 2.06 170 10:21 09.03.2021
1692 Clouds 4 1019 93 10000 1.54 0 09:47 09.03.2021
1693 Clouds 4 1019 87 10000 1.54 0 09:27 09.03.2021
1694 Clouds 3 1019 93 10000 1.54 0 08:57 09.03.2021
1695 Clouds 2 1019 93 10000 1.54 0 08:33 09.03.2021
1696 Clouds 1 1019 100 10000 1.54 150 07:47 09.03.2021
1697 Clouds 1 1019 93 10000 1.54 140 07:27 09.03.2021
1698 Clouds 1 1019 93 10000 1.54 150 06:59 09.03.2021
1699 Clouds 1 1019 93 10000 1.54 160 05:53 09.03.2021
1700 Clouds 1 1021 86 10000 2.06 130 01:43 09.03.2021
1701 Clouds 2 1021 86 10000 1.54 180 23:58 08.03.2021
1702 Clouds 2 1021 86 10000 1.54 180 23:39 08.03.2021
1703 Clouds 2 1021 86 10000 1.54 180 23:39 08.03.2021
1704 Clouds 3 1021 87 10000 1.54 0 23:18 08.03.2021
1705 Clouds 3 1021 87 10000 0.51 0 22:40 08.03.2021
1706 Clouds 3 1021 87 10000 2.06 230 22:21 08.03.2021
1707 Clouds 4 1021 75 10000 1.54 240 21:48 08.03.2021
1708 Clouds 5 1021 75 10000 1.54 230 21:29 08.03.2021
1709 Clouds 5 1021 70 10000 0.51 0 20:40 08.03.2021
1710 Clouds 6 1021 70 10000 1.03 0 20:21 08.03.2021
1711 Clouds 7 1021 57 10000 1.54 290 19:45 08.03.2021
1712 Clouds 8 1021 53 10000 2.57 290 19:20 08.03.2021
1713 Clouds 7 1021 53 10000 3.09 290 18:37 08.03.2021
1714 Clouds 9 1021 49 10000 4.12 290 18:19 08.03.2021
1715 Clouds 9 1021 61 10000 4.12 300 17:43 08.03.2021
1716 Clouds 9 1021 61 10000 5.66 290 17:22 08.03.2021
1717 Clouds 9 1021 57 10000 6.17 280 16:42 08.03.2021
1718 Clouds 8 1022 66 10000 4.63 290 16:22 08.03.2021
1719 Clouds 9 1022 61 10000 5.66 290 15:41 08.03.2021
1720 Clouds 9 1022 57 10000 6.17 280 15:22 08.03.2021
1721 Clouds 6 1023 71 10000 3.6 240 14:21 08.03.2021
1722 Rain 7 1023 71 10000 4.12 240 13:54 08.03.2021
1723 Clouds 6 1023 76 10000 3.09 230 13:23 08.03.2021
1724 Clouds 5 1023 76 10000 3.09 220 12:56 08.03.2021
1725 Clouds 5 1023 75 10000 1.54 0 12:29 08.03.2021
1726 Rain 6 1023 81 10000 1.54 0 11:48 08.03.2021
1727 Clouds 5 1024 87 10000 1.03 0 11:29 08.03.2021
1728 Rain 5 1023 87 10000 1.03 0 10:55 08.03.2021
1729 Rain 5 1023 87 10000 1.03 0 10:37 08.03.2021
1730 Rain 4 1024 93 9000 2.06 180 10:18 08.03.2021
1731 Rain 4 1024 93 7000 1.54 0 09:26 08.03.2021
1732 Rain 4 1024 93 7000 1.54 0 09:26 08.03.2021
1733 Rain 3 1023 93 7000 1.03 0 08:50 08.03.2021
1734 Clouds 3 1023 93 7000 0.51 0 08:23 08.03.2021
1735 Clouds 2 1023 100 7000 1.03 0 07:21 08.03.2021
1736 Clouds 2 1024 93 6000 0.51 0 05:23 08.03.2021
1737 Haze 1 1025 100 5000 1.54 160 02:19 08.03.2021
1738 Clouds 2 1025 93 7000 1.03 130 00:42 08.03.2021
1739 Clouds 2 1025 93 10000 0.51 0 23:53 07.03.2021
1740 Clouds 3 1025 93 10000 0.51 0 23:21 07.03.2021
1741 Clouds 3 1025 87 10000 0.51 250 22:47 07.03.2021
1742 Clouds 4 1025 81 10000 1.03 270 22:27 07.03.2021
1743 Clouds 4 1025 81 10000 1.03 270 22:27 07.03.2021
1744 Clouds 4 1025 81 10000 1.03 0 21:53 07.03.2021
1745 Clouds 5 1025 81 10000 1.03 0 21:32 07.03.2021
1746 Clouds 6 1026 75 10000 1.54 270 20:58 07.03.2021
1747 Clouds 6 1026 75 10000 1.54 270 20:40 07.03.2021
1748 Clouds 6 1026 75 10000 2.06 290 20:18 07.03.2021
1749 Clouds 6 1025 70 10000 2.06 300 19:40 07.03.2021
1750 Clouds 6 1025 70 10000 3.09 300 19:22 07.03.2021
1751 Clouds 7 1025 70 10000 3.6 300 18:51 07.03.2021
1752 Clouds 7 1025 65 10000 3.6 300 18:21 07.03.2021
1753 Clouds 7 1025 65 10000 3.6 290 17:57 07.03.2021
1754 Clouds 7 1025 65 10000 3.6 290 17:37 07.03.2021
1755 Clouds 7 1025 65 10000 4.63 290 17:18 07.03.2021
1756 Clouds 7 1025 65 10000 4.12 290 16:42 07.03.2021
1757 Clouds 8 1025 65 10000 4.63 300 16:20 07.03.2021
1758 Clouds 8 1026 65 10000 3.6 280 15:47 07.03.2021
1759 Clouds 8 1026 65 10000 3.09 280 15:29 07.03.2021
1760 Clouds 8 1026 65 10000 3.09 270 14:47 07.03.2021
1761 Clouds 8 1027 70 10000 2.06 270 14:28 07.03.2021
1762 Clouds 8 1027 70 10000 2.06 270 13:44 07.03.2021
1763 Clouds 7 1027 70 10000 2.06 260 13:24 07.03.2021
1764 Clouds 7 1028 65 10000 2.06 250 12:47 07.03.2021
1765 Clouds 6 1028 70 10000 1.03 0 12:29 07.03.2021
1766 Clouds 6 1028 70 10000 1.03 0 12:29 07.03.2021
1767 Clouds 4 1028 75 10000 1.54 0 11:52 07.03.2021
1768 Clouds 4 1028 70 10000 1.54 0 11:23 07.03.2021
1769 Clouds 4 1028 75 10000 2.06 210 10:50 07.03.2021
1770 Clouds 3 1028 75 10000 1.03 0 10:31 07.03.2021
1771 Clouds 2 1028 80 10000 1.03 180 09:51 07.03.2021
1772 Clouds 2 1028 80 10000 1.03 0 09:26 07.03.2021
1773 Clouds 2 1028 75 10000 1.03 0 08:48 07.03.2021
1774 Clouds 1 1028 80 10000 1.03 0 08:25 07.03.2021
1775 Clouds 1 1028 80 10000 1.03 140 07:51 07.03.2021
1776 Clouds 1 1030 74 10000 1.54 160 02:44 07.03.2021
1777 Clouds 1 1031 74 10000 1.54 0 01:45 07.03.2021
1778 Clouds 1 1032 80 10000 0.51 0 23:56 06.03.2021
1779 Clouds 0 1032 80 10000 0.51 0 23:37 06.03.2021
1780 Clear 0 1032 74 10000 1.03 150 22:52 06.03.2021
1781 Clear 1 1032 74 10000 1.03 140 22:30 06.03.2021
1782 Clear 1 1032 69 10000 1.54 150 21:59 06.03.2021
1783 Clear 1 1032 74 10000 1.03 160 21:25 06.03.2021
1784 Clear 2 1032 69 10000 0.51 0 20:55 06.03.2021
1785 Clear 2 1032 69 10000 0.51 0 20:36 06.03.2021
1786 Clear 4 1032 52 10000 1.03 310 19:50 06.03.2021
1787 Clear 4 1032 52 10000 1.54 300 19:23 06.03.2021
1788 Clear 5 1032 48 10000 1.54 300 18:57 06.03.2021
1789 Clear 6 1032 48 10000 1.54 300 18:38 06.03.2021
1790 Clear 6 1032 52 10000 0.51 0 18:18 06.03.2021
1791 Clear 6 1033 45 10000 1.03 300 17:45 06.03.2021
1792 Clear 7 1033 45 10000 2.06 240 17:25 06.03.2021
1793 Clear 7 1033 45 10000 1.54 0 16:52 06.03.2021
1794 Clouds 7 1033 49 10000 1.54 0 16:30 06.03.2021
1795 Clouds 7 1034 45 10000 1.54 0 15:55 06.03.2021
1796 Clouds 7 1034 45 10000 1.54 0 15:34 06.03.2021
1797 Clouds 6 1034 48 10000 1.54 0 14:54 06.03.2021
1798 Clouds 6 1035 48 10000 1.54 0 14:30 06.03.2021
1799 Clouds 6 1035 48 10000 1.54 0 13:44 06.03.2021
1800 Clouds 6 1035 48 10000 1.54 0 13:23 06.03.2021
1801 Clouds 6 1036 48 10000 1.03 0 12:46 06.03.2021
1802 Clouds 6 1036 52 10000 0.51 0 12:20 06.03.2021
1803 Clouds 6 1036 52 10000 0.51 0 12:20 06.03.2021
1804 Clouds 6 1036 48 10000 1.54 0 11:57 06.03.2021
1805 Clouds 5 1036 52 10000 1.54 0 11:22 06.03.2021
1806 Clouds 5 1036 52 10000 1.03 0 10:52 06.03.2021
1807 Clouds 5 1036 56 10000 0.51 0 10:28 06.03.2021
1808 Clouds 4 1036 65 10000 1.03 0 09:50 06.03.2021
1809 Clouds 3 1036 64 10000 1.54 90 09:21 06.03.2021
1810 Clouds 3 1036 69 10000 1.03 0 08:52 06.03.2021
1811 Clouds 3 1036 64 10000 1.03 0 08:22 06.03.2021
1812 Clouds 2 1036 69 10000 1.03 90 07:41 06.03.2021
1813 Clouds 2 1036 69 10000 1.03 80 07:20 06.03.2021
1814 Clouds 3 1035 60 10000 0.22 142 05:38 06.03.2021
1815 Clouds 4 1036 60 10000 0.51 0 02:51 06.03.2021
1816 Clouds 4 1036 60 10000 0.51 0 01:27 06.03.2021
1817 Clouds 4 1036 70 10000 1.54 0 00:39 06.03.2021
1818 Clouds 5 1036 70 10000 1.03 80 23:34 05.03.2021
1819 Clouds 5 1035 70 10000 1.03 0 22:58 05.03.2021
1820 Clouds 5 1035 70 10000 1.03 0 22:39 05.03.2021
1821 Clouds 5 1035 70 10000 1.03 0 22:20 05.03.2021
1822 Clouds 5 1035 70 10000 1.03 80 21:41 05.03.2021
1823 Clouds 5 1035 65 10000 1.54 70 21:22 05.03.2021
1824 Clouds 5 1035 56 10000 1.03 0 20:42 05.03.2021
1825 Clouds 5 1035 56 10000 0.51 0 20:23 05.03.2021
1826 Clouds 6 1035 56 10000 1.03 0 19:44 05.03.2021
1827 Clouds 6 1034 56 10000 2.06 90 19:22 05.03.2021
1828 Clouds 6 1034 56 10000 2.57 60 18:44 05.03.2021
1829 Clouds 6 1034 56 10000 1.54 0 18:25 05.03.2021
1830 Clouds 6 1034 60 10000 2.57 60 17:43 05.03.2021
1831 Clouds 6 1034 56 10000 3.6 50 17:24 05.03.2021
1832 Clouds 6 1034 52 10000 3.09 40 16:41 05.03.2021
1833 Clouds 7 1034 52 10000 3.09 20 16:23 05.03.2021
1834 Clouds 7 1034 56 10000 1.54 0 15:53 05.03.2021
1835 Clouds 6 1034 52 10000 1.54 0 15:26 05.03.2021
1836 Clouds 6 1034 52 10000 2.06 70 14:40 05.03.2021
1837 Clouds 6 1034 56 10000 3.09 60 14:21 05.03.2021
1838 Clouds 6 1034 60 10000 4.12 50 13:42 05.03.2021
1839 Clouds 6 1034 60 10000 3.09 90 13:20 05.03.2021
1840 Clouds 6 1034 60 10000 2.57 70 12:40 05.03.2021
1841 Clouds 5 1034 65 10000 2.57 60 11:39 05.03.2021
1842 Clouds 5 1034 70 10000 3.09 60 11:19 05.03.2021
1843 Clouds 5 1033 70 10000 3.09 30 10:43 05.03.2021
1844 Clouds 5 1033 70 10000 2.57 30 10:24 05.03.2021
1845 Clouds 4 1033 75 10000 3.09 30 09:52 05.03.2021
1846 Clouds 4 1033 75 10000 2.06 40 09:27 05.03.2021
1847 Clouds 3 1032 80 10000 2.57 40 08:46 05.03.2021
1848 Clouds 3 1032 75 10000 3.09 40 08:27 05.03.2021
1849 Clouds 3 1032 75 10000 2.57 10 07:58 05.03.2021
1850 Clouds 3 1032 70 10000 2.06 10 07:29 05.03.2021
1851 Clouds 4 1032 70 10000 2.57 50 06:33 05.03.2021
1852 Clouds 4 1031 70 10000 3.09 20 05:33 05.03.2021
1853 Clouds 4 1030 70 10000 2.57 30 00:53 05.03.2021
1854 Clouds 4 1030 65 10000 4.63 50 23:44 04.03.2021
1855 Clouds 4 1030 65 10000 3.09 60 23:19 04.03.2021
1856 Clouds 4 1029 65 10000 3.6 70 22:28 04.03.2021
1857 Clouds 4 1029 65 10000 4.12 60 21:52 04.03.2021
1858 Clouds 4 1029 65 10000 4.63 60 21:29 04.03.2021
1859 Clouds 5 1029 70 10000 5.14 60 20:42 04.03.2021
1860 Clouds 5 1028 65 10000 5.66 60 20:24 04.03.2021
1861 Clouds 5 1028 70 10000 5.66 60 19:58 04.03.2021
1862 Clouds 5 1028 70 10000 5.66 60 19:39 04.03.2021
1863 Clouds 5 1028 75 10000 4.63 60 19:21 04.03.2021
1864 Clouds 6 1027 75 10000 4.63 60 18:45 04.03.2021
1865 Clouds 6 1027 81 10000 5.14 60 18:25 04.03.2021
1866 Clouds 7 1027 81 10000 3.6 60 17:46 04.03.2021
1867 Clouds 7 1027 81 10000 4.12 60 17:28 04.03.2021
1868 Rain 7 1026 76 10000 3.09 50 16:47 04.03.2021
1869 Clouds 8 1026 66 10000 3.6 30 16:28 04.03.2021
1870 Rain 8 1026 66 10000 2.57 10 15:50 04.03.2021
1871 Clouds 9 1026 65 10000 2.57 70 15:31 04.03.2021
1872 Clouds 8 1026 65 10000 3.09 50 14:49 04.03.2021
1873 Clouds 7 1027 70 10000 3.6 50 14:26 04.03.2021
1874 Clouds 7 1027 70 10000 3.09 60 13:48 04.03.2021
1875 Clouds 7 1027 70 10000 3.6 50 13:30 04.03.2021
1876 Clouds 7 1027 70 10000 1.54 0 12:53 04.03.2021
1877 Clouds 7 1027 70 10000 1.54 0 12:35 04.03.2021
1878 Clouds 6 1027 75 10000 3.09 50 11:47 04.03.2021
1879 Clouds 6 1026 75 10000 4.12 40 11:25 04.03.2021
1880 Clouds 5 1026 75 10000 2.57 50 10:47 04.03.2021
1881 Clouds 5 1026 87 10000 2.57 40 10:26 04.03.2021
1882 Clouds 5 1026 81 10000 2.57 20 09:39 04.03.2021
1883 Clouds 4 1026 87 10000 2.06 20 08:59 04.03.2021
1884 Clouds 4 1026 87 10000 2.06 20 08:34 04.03.2021
1885 Clouds 4 1025 87 10000 1.03 40 07:53 04.03.2021
1886 Clouds 4 1025 87 10000 1.54 40 07:21 04.03.2021
1887 Clouds 4 1025 87 10000 2.06 50 06:24 04.03.2021
1888 Mist 3 1026 100 2800 2.06 60 02:49 04.03.2021
1889 Haze 3 1026 93 2400 3.09 30 01:32 04.03.2021
1890 Haze 4 1026 87 3900 3.09 40 22:43 03.03.2021
1891 Haze 4 1026 87 4500 2.57 50 22:25 03.03.2021
1892 Haze 4 1026 87 5000 3.09 50 21:43 03.03.2021
1893 Haze 4 1026 87 4000 2.06 50 21:24 03.03.2021
1894 Haze 4 1026 87 4300 1.03 0 20:57 03.03.2021
1895 Haze 5 1026 87 4300 1.03 0 20:39 03.03.2021
1896 Haze 5 1026 87 5000 1.54 0 19:59 03.03.2021
1897 Haze 5 1026 87 5000 1.54 0 19:40 03.03.2021
1898 Clouds 5 1026 81 6000 0.51 0 19:19 03.03.2021
1899 Haze 6 1026 81 5000 1.03 0 18:45 03.03.2021
1900 Haze 6 1026 81 5000 1.03 0 18:45 03.03.2021
1901 Haze 6 1026 81 5000 1.03 0 17:59 03.03.2021
1902 Haze 6 1026 81 5000 1.03 0 17:39 03.03.2021
1903 Clouds 7 1026 81 6000 1.54 0 17:18 03.03.2021
1904 Clouds 6 1026 87 6000 2.06 50 16:39 03.03.2021
1905 Clouds 6 1027 87 6000 0.51 0 16:21 03.03.2021
1906 Clouds 6 1027 81 7000 0.51 0 15:33 03.03.2021
1907 Clouds 6 1027 81 7000 1.03 0 14:54 03.03.2021
1908 Clouds 6 1027 75 7000 0.51 0 14:29 03.03.2021
1909 Clouds 7 1028 75 8000 1.03 0 13:52 03.03.2021
1910 Clouds 7 1028 75 8000 1.03 0 13:52 03.03.2021
1911 Clouds 7 1028 75 7000 1.03 0 13:31 03.03.2021
1912 Clouds 6 1028 81 7000 0.51 0 12:44 03.03.2021
1913 Clouds 5 1028 81 6000 0.51 0 12:24 03.03.2021
1914 Haze 5 1028 87 5000 1.03 0 11:47 03.03.2021
1915 Mist 4 1028 93 4100 1.54 0 11:28 03.03.2021
1916 Mist 2 1028 100 2500 1.54 0 10:47 03.03.2021
1917 Mist 2 1029 100 2100 1.03 0 10:25 03.03.2021
1918 Mist 2 1029 93 1300 1.54 0 09:46 03.03.2021
1919 Fog 0 1028 100 350 1.54 0 08:59 03.03.2021
1920 Fog 0 1028 100 350 1.54 0 08:39 03.03.2021
1921 Fog 0 1028 100 300 1.03 0 08:20 03.03.2021
1922 Fog 0 1028 100 450 1.03 0 07:39 03.03.2021
1923 Fog 0 1028 100 100 1.03 0 06:47 03.03.2021
1924 Fog -1 1028 93 250 1.03 0 05:45 03.03.2021
1925 Fog 0 1028 93 800 1.03 70 04:50 03.03.2021
1926 Mist -1 1029 93 2200 1.54 200 04:25 03.03.2021
1927 Mist 1 1029 100 4500 1.03 360 00:44 03.03.2021
1928 Clear 1 1030 93 6000 0.51 0 23:53 02.03.2021
1929 Haze 2 1029 93 4900 1.54 50 22:58 02.03.2021
1930 Haze 2 1029 93 4900 1.54 50 22:40 02.03.2021
1931 Clear 2 1029 93 6000 0.51 0 22:18 02.03.2021
1932 Clear 2 1029 86 7000 1.03 80 21:39 02.03.2021
1933 Clear 3 1029 87 9000 0.51 0 21:18 02.03.2021
1934 Clear 4 1029 87 10000 1.03 0 20:44 02.03.2021
1935 Clear 4 1029 81 10000 1.03 120 20:22 02.03.2021
1936 Clear 5 1029 75 10000 0.51 0 19:50 02.03.2021
1937 Clear 6 1029 75 10000 0.51 0 19:32 02.03.2021
1938 Clear 6 1029 70 10000 1.03 0 18:58 02.03.2021
1939 Clear 7 1029 70 10000 1.03 0 18:39 02.03.2021
1940 Clear 7 1029 66 10000 1.54 0 18:19 02.03.2021
1941 Clear 8 1029 66 10000 1.54 0 17:40 02.03.2021
1942 Clear 8 1029 61 10000 2.06 220 17:20 02.03.2021
1943 Clear 9 1029 61 10000 1.03 0 16:47 02.03.2021
1944 Clear 8 1029 66 10000 1.54 0 15:55 02.03.2021
1945 Clear 8 1030 65 10000 1.03 0 15:27 02.03.2021
1946 Clear 8 1030 65 10000 1.03 0 14:53 02.03.2021
1947 Clear 7 1030 65 10000 1.03 0 14:20 02.03.2021
1948 Clear 8 1031 70 10000 1.03 0 13:47 02.03.2021
1949 Clouds 7 1031 70 10000 1.03 0 13:26 02.03.2021
1950 Clouds 7 1031 81 10000 1.03 0 12:47 02.03.2021
1951 Clouds 6 1031 81 10000 1.03 0 12:25 02.03.2021
1952 Clouds 5 1031 87 10000 1.03 0 11:47 02.03.2021
1953 Clouds 5 1031 87 10000 1.03 0 11:23 02.03.2021
1954 Clear 4 1031 87 10000 2.06 220 10:53 02.03.2021
1955 Clear 3 1031 93 8000 0.51 0 10:29 02.03.2021
1956 Mist 2 1031 93 5000 1.03 110 09:43 02.03.2021
1957 Clouds 1 1031 100 6000 0.51 0 09:24 02.03.2021
1958 Mist 0 1031 93 2800 0.51 0 08:53 02.03.2021
1959 Mist 0 1031 93 2800 0.51 0 08:33 02.03.2021
1960 Haze -1 1030 100 1900 1.87 58 07:46 02.03.2021
1961 Haze 0 1030 93 2000 0.51 0 06:37 02.03.2021
1962 Clouds 1 1031 93 8000 0.51 0 05:49 02.03.2021
1963 Clouds 1 1031 93 10000 0.51 0 05:30 02.03.2021
1964 Haze 1 1031 100 4500 0.51 0 03:29 02.03.2021
1965 Clouds 2 1031 93 9000 0.51 350 01:42 02.03.2021
1966 Clouds 3 1032 93 8000 1.03 0 01:19 02.03.2021
1967 Clear 2 1031 100 6000 0.51 350 23:29 01.03.2021
1968 Clear 2 1031 93 10000 0.51 0 22:43 01.03.2021
1969 Clear 2 1031 93 10000 0.51 0 22:43 01.03.2021
1970 Clear 3 1031 93 10000 0.51 0 22:25 01.03.2021
1971 Clear 3 1031 87 10000 1.03 180 21:52 01.03.2021
1972 Clear 4 1031 87 10000 1.03 70 21:24 01.03.2021
1973 Clear 4 1031 87 10000 0.51 0 20:59 01.03.2021
1974 Clear 4 1031 87 10000 0.51 0 20:39 01.03.2021
1975 Clear 4 1031 81 10000 1.03 0 20:18 01.03.2021
1976 Clear 5 1031 81 10000 1.54 0 19:42 01.03.2021
1977 Clear 5 1031 75 10000 2.06 0 19:18 01.03.2021
1978 Clear 7 1031 70 10000 2.06 100 18:40 01.03.2021
1979 Clear 8 1031 61 10000 2.06 100 18:21 01.03.2021
1980 Clear 9 1031 57 10000 2.57 90 17:42 01.03.2021
1981 Clear 9 1031 50 10000 3.6 80 17:20 01.03.2021
1982 Clear 10 1031 50 10000 2.06 0 16:45 01.03.2021
1983 Clear 11 1031 57 10000 2.06 70 16:26 01.03.2021
1984 Clear 11 1031 57 10000 2.57 110 15:42 01.03.2021
1985 Clear 11 1032 57 10000 2.06 90 15:21 01.03.2021
1986 Clear 11 1032 57 10000 2.06 90 15:21 01.03.2021
1987 Clear 10 1032 57 10000 2.57 80 14:48 01.03.2021
1988 Clear 10 1032 62 10000 2.57 90 14:29 01.03.2021
1989 Clear 10 1033 66 10000 3.09 70 13:43 01.03.2021
1990 Clear 9 1033 66 10000 2.06 0 13:24 01.03.2021
1991 Clear 8 1033 71 10000 2.57 100 12:55 01.03.2021
1992 Clear 8 1033 71 10000 2.57 100 12:36 01.03.2021
1993 Clear 8 1033 71 10000 2.57 0 12:18 01.03.2021
1994 Clear 8 1033 76 10000 2.06 120 11:42 01.03.2021
1995 Clear 6 1033 81 10000 1.03 0 10:45 01.03.2021
1996 Clear 6 1033 81 10000 1.03 0 10:45 01.03.2021
1997 Clear 5 1033 81 10000 2.06 60 10:23 01.03.2021
1998 Clear 4 1033 87 10000 2.06 70 09:58 01.03.2021
1999 Clear 4 1033 87 10000 2.06 70 09:40 01.03.2021
2000 Clear 2 1033 93 10000 3.09 50 09:21 01.03.2021
2001 Clear 1 1033 100 10000 1.54 50 08:48 01.03.2021
2002 Clear 2 1033 93 6000 2.06 70 08:18 01.03.2021
2003 Fog 1 1033 100 200 0.51 0 06:53 01.03.2021
2004 Clear 3 1034 100 10000 0.51 0 04:21 01.03.2021
2005 Clear 4 1035 93 10000 1.03 0 00:44 01.03.2021
2006 Clear 4 1035 87 8000 1.03 70 23:35 28.02.2021
2007 Clear 5 1035 81 10000 1.54 40 22:51 28.02.2021
2008 Clear 5 1035 87 10000 1.03 0 22:22 28.02.2021
2009 Clear 6 1035 87 10000 1.03 130 21:49 28.02.2021
2010 Clear 6 1035 81 8000 1.54 130 21:28 28.02.2021
2011 Clear 6 1035 81 10000 1.03 0 20:56 28.02.2021
2012 Clear 6 1035 81 10000 1.03 0 20:36 28.02.2021
2013 Clear 7 1035 81 10000 0.51 0 19:47 28.02.2021
2014 Clear 7 1035 81 10000 0.51 0 19:47 28.02.2021
2015 Clear 8 1035 76 10000 1.54 300 19:28 28.02.2021
2016 Clear 10 1035 62 10000 1.54 280 18:49 28.02.2021
2017 Clear 11 1035 62 10000 2.06 280 18:28 28.02.2021
2018 Clear 11 1035 62 10000 1.54 260 17:59 28.02.2021
2019 Clear 12 1035 62 10000 1.54 260 17:41 28.02.2021
2020 Clear 12 1035 54 10000 1.54 240 17:21 28.02.2021
2021 Clear 12 1036 58 10000 1.54 0 16:50 28.02.2021
2022 Clear 12 1036 62 10000 1.03 0 16:30 28.02.2021
2023 Clear 12 1036 58 10000 1.03 0 15:52 28.02.2021
2024 Clouds 11 1037 58 10000 1.03 0 15:29 28.02.2021
2025 Clouds 11 1037 58 10000 1.03 0 14:58 28.02.2021
2026 Clouds 11 1037 58 10000 1.03 0 14:39 28.02.2021
2027 Clouds 11 1038 62 10000 1.03 0 14:19 28.02.2021
2028 Clear 10 1038 66 10000 1.03 0 13:39 28.02.2021
2029 Clouds 10 1039 66 10000 1.03 0 13:19 28.02.2021
2030 Clouds 9 1039 71 10000 0.51 0 12:54 28.02.2021
2031 Clouds 9 1039 71 10000 0.51 0 12:35 28.02.2021
2032 Clouds 7 1039 81 10000 1.03 0 11:59 28.02.2021
2033 Clouds 7 1039 81 10000 1.03 0 11:41 28.02.2021
2034 Clouds 6 1039 87 10000 1.03 300 11:22 28.02.2021
2035 Clouds 5 1039 93 10000 0.51 0 10:43 28.02.2021
2036 Clouds 4 1039 93 7000 0.51 0 10:25 28.02.2021
2037 Clouds 2 1039 100 7000 0.51 0 09:40 28.02.2021
2038 Mist 2 1039 100 5000 1.03 0 09:21 28.02.2021
2039 Mist 0 1039 100 4500 1.03 80 08:45 28.02.2021
2040 Mist 0 1039 100 3700 1.03 140 08:26 28.02.2021
2041 Fog 0 1039 100 650 1.03 130 07:46 28.02.2021
2042 Mist 0 1039 100 5000 1.03 140 07:28 28.02.2021
2043 Clouds 1 1039 93 6000 1.03 100 06:24 28.02.2021
2044 Clouds 1 1039 100 6000 0.51 0 05:21 28.02.2021
2045 Mist 2 1040 100 3800 1.54 30 02:29 28.02.2021
2046 Clouds 2 1040 93 7000 0.51 0 01:35 28.02.2021
2047 Clouds 3 1040 100 10000 0.51 0 00:42 28.02.2021
2048 Clouds 3 1040 93 10000 1.54 0 23:58 27.02.2021
2049 Clouds 3 1040 93 10000 1.54 0 23:39 27.02.2021
2050 Clouds 3 1040 93 10000 1.54 40 23:18 27.02.2021
2051 Clouds 3 1040 93 10000 0.51 0 22:42 27.02.2021
2052 Clouds 3 1040 93 10000 0.51 0 22:42 27.02.2021
2053 Clouds 4 1041 87 10000 0.51 0 22:18 27.02.2021
2054 Clouds 5 1041 87 10000 1.03 100 21:38 27.02.2021
2055 Clouds 5 1041 81 10000 2.06 70 21:18 27.02.2021
2056 Clouds 6 1041 81 10000 2.06 50 20:46 27.02.2021
2057 Clouds 6 1040 76 10000 2.06 40 20:25 27.02.2021
2058 Clouds 7 1040 71 10000 2.57 330 19:43 27.02.2021
2059 Clouds 8 1040 66 10000 1.54 320 19:24 27.02.2021
2060 Clouds 9 1040 66 10000 1.54 330 18:42 27.02.2021
2061 Clouds 10 1040 62 10000 1.03 0 18:21 27.02.2021
2062 Clouds 10 1041 62 10000 1.54 260 17:45 27.02.2021
2063 Clouds 11 1041 62 10000 1.54 0 17:21 27.02.2021
2064 Clouds 11 1041 58 10000 2.57 290 16:56 27.02.2021
2065 Clouds 11 1041 58 10000 2.57 290 16:36 27.02.2021
2066 Clear 11 1041 62 10000 2.06 270 16:18 27.02.2021
2067 Clouds 11 1041 62 10000 2.57 270 15:38 27.02.2021
2068 Fog 10 1042 66 650 2.57 300 14:50 27.02.2021
2069 Fog 10 1042 66 650 2.57 300 14:32 27.02.2021
2070 Clouds 10 1042 66 9000 1.54 0 13:56 27.02.2021
2071 Clear 10 1042 66 9000 1.54 0 13:33 27.02.2021
2072 Haze 9 1042 71 2900 1.03 0 12:57 27.02.2021
2073 Clouds 8 1042 76 10000 0.51 0 12:30 27.02.2021
2074 Clouds 7 1042 76 10000 1.03 0 11:58 27.02.2021
2075 Clouds 7 1042 76 10000 1.03 0 11:40 27.02.2021
2076 Clouds 6 1042 81 10000 1.03 0 11:21 27.02.2021
2077 Clouds 5 1042 87 10000 1.03 0 10:44 27.02.2021
2078 Haze 4 1042 93 4100 1.54 0 10:22 27.02.2021
2079 Clouds 3 1041 93 10000 1.03 0 09:46 27.02.2021
2080 Fog 1 1041 100 10000 0.51 0 09:25 27.02.2021
2081 Fog 1 1041 93 10000 1.03 160 08:40 27.02.2021
2082 Fog 1 1041 93 10000 1.03 160 08:21 27.02.2021
2083 Clouds 1 1040 93 7000 1.54 160 07:37 27.02.2021
2084 Clear 2 1040 93 10000 2.06 170 04:26 27.02.2021
2085 Clear 3 1039 93 10000 1.54 160 00:41 27.02.2021
2086 Clear 4 1039 93 10000 1.03 0 23:54 26.02.2021
2087 Clear 4 1039 87 10000 1.03 180 23:26 26.02.2021
2088 Clouds 5 1038 87 10000 1.03 220 22:44 26.02.2021
2089 Clear 5 1038 87 10000 1.03 180 22:23 26.02.2021
2090 Clear 5 1037 79 10000 0.83 214 21:42 26.02.2021
2091 Clear 5 1038 81 10000 0.51 0 21:19 26.02.2021
2092 Clear 6 1037 81 10000 0.51 0 20:44 26.02.2021
2093 Clear 6 1037 81 10000 0.51 0 20:44 26.02.2021
2094 Clouds 6 1037 75 10000 0.51 0 20:21 26.02.2021
2095 Clouds 7 1037 76 10000 1.03 160 19:41 26.02.2021
2096 Clouds 8 1037 70 10000 1.03 230 19:18 26.02.2021
2097 Clear 9 1037 71 10000 1.54 240 18:41 26.02.2021
2098 Clouds 10 1037 62 10000 2.57 250 18:21 26.02.2021
2099 Clouds 10 1037 62 10000 3.09 270 17:39 26.02.2021
2100 Clouds 10 1037 57 10000 3.09 300 17:21 26.02.2021
2101 Clouds 10 1037 62 10000 2.06 320 16:50 26.02.2021
2102 Clouds 11 1037 62 10000 2.57 290 16:31 26.02.2021
2103 Clouds 11 1037 62 10000 2.57 260 15:56 26.02.2021
2104 Clouds 10 1037 62 10000 2.57 260 15:36 26.02.2021
2105 Clouds 10 1037 66 10000 3.6 280 15:18 26.02.2021
2106 Clouds 9 1037 66 10000 3.6 290 14:42 26.02.2021
2107 Clouds 10 1037 66 10000 3.09 280 14:24 26.02.2021
2108 Clouds 10 1037 71 10000 2.57 270 13:39 26.02.2021
2109 Clear 9 1037 71 10000 3.09 260 13:20 26.02.2021
2110 Clear 8 1037 76 10000 2.57 240 12:34 26.02.2021
2111 Clear 6 1036 81 10000 2.06 220 11:50 26.02.2021
2112 Clear 6 1036 81 10000 2.06 200 11:32 26.02.2021
2113 Clear 5 1036 87 10000 1.54 0 10:46 26.02.2021
2114 Clear 3 1036 100 10000 1.03 0 09:50 26.02.2021
2115 Clear 2 1035 93 10000 1.54 0 09:30 26.02.2021
2116 Clear 1 1035 93 10000 2.06 180 08:53 26.02.2021
2117 Clear 1 1035 93 10000 2.06 180 08:25 26.02.2021
2118 Clear 1 1035 93 10000 1.54 180 07:48 26.02.2021
2119 Clear 1 1034 93 10000 2.06 170 06:36 26.02.2021
2120 Clear 1 1034 93 10000 2.06 170 05:27 26.02.2021
2121 Clear 2 1034 93 10000 2.06 170 03:46 26.02.2021
2122 Clear 2 1033 87 10000 2.06 180 01:37 26.02.2021
2123 Clear 3 1032 93 10000 2.06 180 23:49 25.02.2021
2124 Clear 3 1032 87 10000 2.06 180 23:28 25.02.2021
2125 Clear 4 1032 87 10000 2.06 180 22:49 25.02.2021
2126 Clear 4 1031 87 10000 1.54 200 21:59 25.02.2021
2127 Clear 4 1031 87 10000 1.54 200 21:38 25.02.2021
2128 Clear 5 1031 81 10000 1.54 190 21:19 25.02.2021
2129 Clear 5 1031 81 10000 1.54 190 21:19 25.02.2021
2130 Clear 5 1031 87 10000 1.54 230 20:40 25.02.2021
2131 Clear 6 1031 75 10000 1.54 240 20:22 25.02.2021
2132 Clear 6 1030 70 10000 1.54 0 19:51 25.02.2021
2133 Clear 7 1030 70 10000 3.6 280 19:21 25.02.2021
2134 Clouds 8 1029 66 10000 3.6 290 18:56 25.02.2021
2135 Clear 8 1028 66 10000 4.12 280 18:20 25.02.2021
2136 Clear 8 1028 66 10000 4.12 280 18:20 25.02.2021
2137 Clear 9 1028 57 10000 5.14 280 17:46 25.02.2021
2138 Clear 9 1028 61 10000 6.17 290 17:25 25.02.2021
2139 Clouds 9 1027 61 10000 6.17 270 16:42 25.02.2021
2140 Clouds 10 1027 66 10000 5.66 270 16:24 25.02.2021
2141 Clouds 10 1026 62 10000 6.17 270 15:30 25.02.2021
2142 Clouds 10 1026 57 10000 7.2 280 14:41 25.02.2021
2143 Clouds 10 1026 61 10000 5.14 260 14:21 25.02.2021
2144 Clouds 10 1026 62 10000 5.14 250 13:50 25.02.2021
2145 Clouds 10 1026 66 10000 5.14 250 13:25 25.02.2021
2146 Clouds 10 1026 66 10000 5.66 240 12:47 25.02.2021
2147 Clouds 9 1025 71 10000 5.14 250 12:21 25.02.2021
2148 Clouds 9 1025 71 10000 5.14 240 11:43 25.02.2021
2149 Clouds 9 1025 76 10000 3.6 230 11:18 25.02.2021
2150 Clouds 8 1024 81 10000 2.06 200 10:38 25.02.2021
2151 Clouds 7 1023 87 10000 2.06 210 09:56 25.02.2021
2152 Clouds 6 1023 87 10000 2.06 210 09:38 25.02.2021
2153 Clouds 6 1022 100 10000 2.57 200 08:46 25.02.2021
2154 Clouds 6 1022 93 10000 2.06 210 08:22 25.02.2021
2155 Clouds 6 1022 100 10000 1.54 0 07:43 25.02.2021
2156 Clouds 6 1021 93 10000 1.03 180 07:19 25.02.2021
2157 Clouds 7 1020 93 10000 1.54 190 05:57 25.02.2021
2158 Clouds 8 1018 93 10000 2.06 190 01:52 25.02.2021
2159 Clouds 8 1018 93 10000 2.06 190 01:33 25.02.2021
2160 Clouds 8 1017 93 10000 1.03 0 00:37 25.02.2021
2161 Clouds 8 1017 100 7000 1.03 0 23:40 24.02.2021
2162 Rain 9 1016 93 2900 4.63 290 22:56 24.02.2021
2163 Rain 9 1015 93 10000 3.09 200 22:30 24.02.2021
2164 Rain 10 1015 93 4000 3.6 200 21:52 24.02.2021
2165 Rain 11 1015 93 4000 3.6 200 21:33 24.02.2021
2166 Rain 13 1015 76 10000 4.12 190 20:50 24.02.2021
2167 Clouds 13 1015 76 10000 4.63 190 20:28 24.02.2021
2168 Clouds 13 1015 76 10000 4.12 190 19:47 24.02.2021
2169 Clouds 13 1014 76 10000 4.63 190 19:21 24.02.2021
2170 Clouds 13 1014 76 10000 4.63 180 18:54 24.02.2021
2171 Clouds 13 1014 82 10000 4.63 180 18:31 24.02.2021
2172 Clouds 14 1014 77 10000 4.63 190 17:42 24.02.2021
2173 Clouds 13 1014 77 10000 4.63 180 17:23 24.02.2021
2174 Clouds 14 1014 77 10000 4.63 190 16:48 24.02.2021
2175 Rain 14 1014 77 10000 4.63 180 16:21 24.02.2021
2176 Clouds 14 1014 77 10000 5.66 190 15:55 24.02.2021
2177 Clouds 14 1014 77 10000 5.66 190 15:32 24.02.2021
2178 Rain 14 1015 77 10000 5.66 190 14:47 24.02.2021
2179 Rain 14 1015 77 10000 5.14 180 14:28 24.02.2021
2180 Clouds 14 1015 77 10000 5.14 180 13:43 24.02.2021
2181 Clouds 14 1015 82 10000 5.66 180 13:23 24.02.2021
2182 Clouds 13 1015 88 10000 5.14 180 12:57 24.02.2021
2183 Clouds 13 1015 88 10000 5.14 180 12:36 24.02.2021
2184 Clouds 13 1015 88 10000 4.63 180 11:56 24.02.2021
2185 Clouds 13 1015 88 10000 5.14 180 11:31 24.02.2021
2186 Rain 13 1015 88 10000 5.14 180 10:41 24.02.2021
2187 Clouds 13 1015 88 10000 4.63 180 10:22 24.02.2021
2188 Rain 12 1015 94 10000 4.12 180 09:26 24.02.2021
2189 Clouds 12 1014 94 10000 4.63 180 08:48 24.02.2021
2190 Clouds 12 1014 94 10000 5.66 180 08:24 24.02.2021
2191 Clouds 12 1014 94 3900 4.12 190 07:38 24.02.2021
2192 Rain 12 1014 94 8000 4.12 180 07:18 24.02.2021
2193 Clouds 12 1014 87 9000 4.63 190 05:25 24.02.2021
2194 Rain 12 1014 82 8000 4.63 190 01:25 24.02.2021
2195 Rain 12 1014 82 10000 5.14 180 23:38 23.02.2021
2196 Rain 11 1015 87 10000 5.66 180 22:45 23.02.2021
2197 Rain 11 1014 87 10000 4.12 190 22:22 23.02.2021
2198 Rain 12 1014 82 9000 4.63 180 21:47 23.02.2021
2199 Rain 12 1014 82 10000 5.14 190 21:24 23.02.2021
2200 Clouds 12 1014 76 10000 5.14 180 20:52 23.02.2021
2201 Clouds 12 1014 76 10000 4.63 190 20:30 23.02.2021
2202 Clouds 12 1014 76 10000 5.66 180 19:57 23.02.2021
2203 Clouds 12 1014 76 10000 5.66 180 19:38 23.02.2021
2204 Rain 12 1013 76 10000 6.17 180 19:19 23.02.2021
2205 Rain 12 1013 76 10000 6.17 180 18:43 23.02.2021
2206 Rain 12 1013 76 10000 5.66 180 18:21 23.02.2021
2207 Clouds 12 1013 76 10000 6.17 180 17:48 23.02.2021
2208 Clouds 12 1014 71 10000 5.66 180 17:25 23.02.2021
2209 Clouds 12 1014 71 10000 6.17 180 16:43 23.02.2021
2210 Clouds 12 1013 71 10000 6.69 180 16:21 23.02.2021
2211 Clouds 12 1013 71 10000 6.69 180 16:21 23.02.2021
2212 Clouds 12 1013 71 10000 5.66 180 15:44 23.02.2021
2213 Clouds 12 1014 71 10000 7.2 190 15:25 23.02.2021
2214 Clouds 12 1014 66 10000 6.69 190 14:46 23.02.2021
2215 Clouds 12 1013 66 10000 7.2 190 14:27 23.02.2021
2216 Clouds 11 1014 71 10000 5.66 180 13:56 23.02.2021
2217 Clouds 11 1014 71 10000 5.66 180 13:34 23.02.2021
2218 Clouds 11 1014 66 10000 7.2 180 12:56 23.02.2021
2219 Clouds 11 1013 66 10000 6.17 170 12:23 23.02.2021
2220 Clouds 11 1013 66 10000 7.2 170 11:52 23.02.2021
2221 Clouds 10 1014 71 10000 6.17 180 11:25 23.02.2021
2222 Clouds 10 1014 66 10000 5.66 180 10:53 23.02.2021
2223 Clouds 9 1014 66 10000 5.66 180 10:35 23.02.2021
2224 Clouds 9 1015 66 10000 6.17 180 09:45 23.02.2021
2225 Clouds 9 1014 66 10000 6.17 180 09:26 23.02.2021
2226 Clouds 9 1014 61 10000 5.66 170 08:57 23.02.2021
2227 Clouds 9 1014 61 10000 5.66 170 08:39 23.02.2021
2228 Clouds 9 1015 61 10000 6.17 180 08:20 23.02.2021
2229 Clouds 8 1016 76 10000 4.63 180 06:41 23.02.2021
2230 Clouds 8 1017 71 10000 3.09 170 05:22 23.02.2021
2231 Clouds 8 1018 76 10000 2.57 160 02:36 23.02.2021
2232 Clouds 7 1018 81 10000 2.06 0 00:55 23.02.2021
2233 Clouds 7 1018 81 10000 2.57 160 00:18 23.02.2021
2234 Clouds 7 1018 76 10000 2.06 150 23:24 22.02.2021
2235 Clouds 7 1017 76 10000 2.57 140 22:41 22.02.2021
2236 Clouds 7 1018 81 10000 2.06 0 22:21 22.02.2021
2237 Clouds 7 1018 81 10000 1.03 0 21:46 22.02.2021
2238 Clear 7 1017 76 10000 1.54 0 21:23 22.02.2021
2239 Clear 7 1017 76 10000 1.54 0 20:53 22.02.2021
2240 Clear 7 1018 81 10000 1.54 0 20:31 22.02.2021
2241 Clear 8 1018 76 10000 1.03 0 19:54 22.02.2021
2242 Clear 8 1018 76 10000 1.03 0 19:35 22.02.2021
2243 Clouds 9 1017 71 10000 1.54 180 18:58 22.02.2021
2244 Clouds 9 1017 71 10000 1.54 180 18:40 22.02.2021
2245 Clouds 10 1016 66 10000 1.54 0 18:20 22.02.2021
2246 Clouds 11 1015 58 10000 1.03 0 17:27 22.02.2021
2247 Clouds 11 1015 58 10000 2.06 250 16:57 22.02.2021
2248 Clouds 11 1015 58 10000 2.06 250 16:39 22.02.2021
2249 Clouds 11 1015 62 10000 2.57 250 15:52 22.02.2021
2250 Clouds 11 1014 66 10000 2.57 270 15:28 22.02.2021
2251 Clouds 10 1014 76 10000 2.06 260 14:48 22.02.2021
2252 Clouds 10 1014 81 10000 2.06 260 14:29 22.02.2021
2253 Clouds 10 1014 87 10000 2.06 230 13:47 22.02.2021
2254 Clouds 9 1014 93 10000 2.06 210 12:59 22.02.2021
2255 Clouds 8 1014 93 10000 2.06 210 12:40 22.02.2021
2256 Clouds 8 1014 93 10000 1.03 0 12:20 22.02.2021
2257 Clouds 8 1013 93 10000 1.54 0 11:42 22.02.2021
2258 Clouds 8 1013 93 10000 1.54 0 11:24 22.02.2021
2259 Rain 7 1013 93 10000 0.51 0 10:46 22.02.2021
2260 Rain 7 1013 93 10000 1.54 220 10:26 22.02.2021
2261 Rain 7 1012 93 9000 1.03 0 09:43 22.02.2021
2262 Rain 7 1012 100 9000 1.03 0 09:25 22.02.2021
2263 Rain 7 1011 100 10000 0.51 0 08:50 22.02.2021
2264 Rain 7 1010 93 10000 0.51 0 08:29 22.02.2021
2265 Rain 7 1011 93 10000 0.51 0 07:56 22.02.2021
2266 Rain 7 1010 93 10000 2.06 300 07:26 22.02.2021
2267 Rain 7 1010 93 7000 2.06 340 06:32 22.02.2021
2268 Rain 8 1010 93 6000 3.6 290 05:42 22.02.2021
2269 Clouds 9 1009 100 8000 1.03 340 03:27 22.02.2021
2270 Clouds 9 1009 93 10000 1.54 350 02:48 22.02.2021
2271 Clouds 9 1009 93 4000 1.03 0 00:45 22.02.2021
2272 Clouds 9 1009 93 5000 0.51 0 00:20 22.02.2021
2273 Clouds 9 1009 93 7000 1.03 0 23:29 21.02.2021
2274 Clouds 9 1009 93 10000 1.54 0 22:43 21.02.2021
2275 Clouds 9 1008 93 10000 1.54 0 22:22 21.02.2021
2276 Rain 9 1008 93 10000 1.03 0 21:37 21.02.2021
2277 Clouds 9 1009 93 10000 1.03 0 20:59 21.02.2021
2278 Clouds 9 1009 93 10000 1.03 0 20:40 21.02.2021
2279 Clouds 10 1008 93 10000 1.54 0 20:19 21.02.2021
2280 Clouds 10 1008 93 10000 1.54 0 19:50 21.02.2021
2281 Clouds 10 1008 93 10000 1.54 0 19:32 21.02.2021
2282 Clouds 10 1008 87 10000 2.06 160 18:43 21.02.2021
2283 Rain 10 1007 87 10000 1.03 0 18:24 21.02.2021
2284 Rain 11 1007 87 6000 3.09 220 17:29 21.02.2021
2285 Rain 12 1007 71 10000 3.09 180 16:57 21.02.2021
2286 Clouds 12 1007 71 10000 3.09 180 16:34 21.02.2021
2287 Clouds 12 1006 71 10000 2.06 170 15:54 21.02.2021
2288 Clouds 12 1006 71 10000 2.06 160 15:22 21.02.2021
2289 Clouds 12 1007 71 10000 3.09 190 14:49 21.02.2021
2290 Clouds 12 1007 71 10000 2.57 200 14:28 21.02.2021
2291 Clouds 12 1007 76 10000 3.09 190 13:46 21.02.2021
2292 Clouds 12 1007 76 10000 2.06 180 13:23 21.02.2021
2293 Clouds 11 1007 87 10000 2.06 170 12:31 21.02.2021
2294 Clouds 10 1007 81 10000 2.06 170 11:45 21.02.2021
2295 Clouds 10 1006 81 10000 1.54 0 11:20 21.02.2021
2296 Clouds 9 1006 81 10000 1.54 0 10:25 21.02.2021
2297 Clouds 9 1006 81 10000 1.54 0 09:57 21.02.2021
2298 Clouds 9 1006 81 10000 1.54 0 09:35 21.02.2021
2299 Clouds 8 1005 87 10000 1.54 0 08:59 21.02.2021
2300 Clouds 8 1005 81 10000 1.54 0 08:30 21.02.2021
2301 Clouds 8 1004 87 10000 2.57 180 07:37 21.02.2021
2302 Clouds 9 1004 81 10000 2.06 190 06:59 21.02.2021
2303 Clouds 9 1003 81 10000 2.06 170 04:44 21.02.2021
2304 Clouds 9 1000 76 10000 4.12 190 02:31 21.02.2021
2305 Clouds 10 999 81 10000 4.12 210 00:47 21.02.2021
2306 Clouds 11 998 82 10000 4.63 220 00:20 21.02.2021
2307 Clouds 11 997 87 10000 5.66 200 23:25 20.02.2021
2308 Clouds 12 996 82 7000 5.66 200 22:46 20.02.2021
2309 Clouds 12 995 76 10000 5.14 190 22:27 20.02.2021
2310 Clouds 12 995 76 10000 6.69 190 21:45 20.02.2021
2311 Clouds 12 995 76 10000 5.66 180 21:26 20.02.2021
2312 Clouds 13 995 71 10000 5.66 180 20:48 20.02.2021
2313 Clouds 12 994 76 10000 5.66 180 20:24 20.02.2021
2314 Clouds 12 994 76 10000 5.66 170 19:52 20.02.2021
2315 Clouds 13 993 71 10000 5.66 170 19:30 20.02.2021
2316 Clouds 12 993 76 10000 6.17 170 18:41 20.02.2021
2317 Clouds 13 994 71 10000 6.69 170 18:21 20.02.2021
2318 Clouds 13 993 71 10000 6.17 170 17:39 20.02.2021
2319 Rain 13 993 76 10000 5.66 150 16:57 20.02.2021
2320 Rain 13 993 76 10000 5.66 150 16:33 20.02.2021
2321 Rain 13 993 76 10000 5.66 150 16:33 20.02.2021
2322 Clouds 13 994 76 10000 6.69 170 15:55 20.02.2021
2323 Clouds 13 994 76 10000 6.69 170 15:36 20.02.2021
2324 Rain 13 995 76 10000 5.66 170 14:48 20.02.2021
2325 Clouds 13 995 76 10000 5.66 0 14:24 20.02.2021
2326 Clouds 13 996 76 10000 4.63 170 13:48 20.02.2021
2327 Clouds 12 996 82 10000 5.66 170 13:24 20.02.2021
2328 Clouds 12 996 82 10000 5.14 160 12:50 20.02.2021
2329 Rain 12 997 82 10000 5.14 170 12:24 20.02.2021
2330 Rain 12 997 82 10000 4.63 170 11:44 20.02.2021
2331 Rain 12 997 82 10000 4.63 170 11:25 20.02.2021
2332 Rain 12 997 82 10000 5.14 170 10:50 20.02.2021
2333 Clouds 12 997 82 10000 5.14 170 09:55 20.02.2021
2334 Rain 12 997 87 10000 4.63 170 09:30 20.02.2021
2335 Clouds 11 997 87 10000 4.12 160 08:43 20.02.2021
2336 Rain 11 998 87 10000 3.6 160 08:18 20.02.2021
2337 Rain 11 998 87 10000 3.6 180 03:32 20.02.2021
2338 Rain 11 998 82 10000 4.63 170 02:25 20.02.2021
2339 Rain 12 998 82 10000 4.63 170 01:49 20.02.2021
2340 Clouds 11 998 82 9000 4.63 170 00:45 20.02.2021
2341 Clouds 12 998 82 10000 5.14 180 23:55 19.02.2021
2342 Clouds 12 998 82 10000 4.12 180 23:18 19.02.2021
2343 Clouds 12 998 82 10000 4.12 180 22:27 19.02.2021
2344 Clouds 12 998 82 10000 4.63 180 21:54 19.02.2021
2345 Clouds 12 998 82 10000 4.63 170 21:31 19.02.2021
2346 Clouds 12 998 82 10000 5.14 180 20:48 19.02.2021
2347 Clouds 12 998 82 10000 4.63 180 20:28 19.02.2021
2348 Clouds 12 998 82 10000 5.14 170 19:55 19.02.2021
2349 Clouds 12 998 82 10000 5.14 180 19:27 19.02.2021
2350 Clouds 12 998 82 10000 5.14 170 18:56 19.02.2021
2351 Clouds 12 998 82 10000 5.14 170 18:33 19.02.2021
2352 Clouds 12 998 82 10000 5.14 180 17:51 19.02.2021
2353 Clouds 11 998 76 10000 5.66 180 16:53 19.02.2021
2354 Clouds 11 998 82 10000 5.66 180 16:28 19.02.2021
2355 Clouds 12 998 76 10000 6.69 180 15:58 19.02.2021
2356 Clouds 11 998 76 10000 6.69 180 15:31 19.02.2021
2357 Clouds 12 998 76 10000 6.17 180 14:59 19.02.2021
2358 Clouds 11 998 76 10000 6.17 180 14:38 19.02.2021
2359 Clouds 11 999 81 10000 5.14 180 13:58 19.02.2021
2360 Clouds 10 999 81 10000 5.14 180 13:39 19.02.2021
2361 Clouds 10 999 81 10000 5.66 180 13:19 19.02.2021
2362 Clouds 10 999 76 10000 6.69 180 12:41 19.02.2021
2363 Clouds 10 999 81 10000 5.66 170 12:22 19.02.2021
2364 Clouds 9 1000 76 10000 5.66 170 11:48 19.02.2021
2365 Clouds 9 1000 76 10000 5.66 180 11:22 19.02.2021
2366 Clouds 9 1000 81 10000 5.66 180 10:42 19.02.2021
2367 Clouds 9 1000 81 10000 5.66 170 10:20 19.02.2021
2368 Clouds 8 1000 76 10000 6.17 180 09:39 19.02.2021
2369 Clouds 8 1000 76 10000 5.14 170 09:21 19.02.2021
2370 Rain 8 1000 81 10000 4.63 180 08:49 19.02.2021
2371 Clouds 8 1001 81 10000 4.12 170 08:22 19.02.2021
2372 Clouds 7 1001 81 10000 5.14 170 07:48 19.02.2021
2373 Clouds 7 1001 76 10000 3.6 0 07:27 19.02.2021
2374 Clouds 7 1001 81 10000 4.63 170 06:47 19.02.2021
2375 Clouds 6 1003 75 10000 4.12 180 04:44 19.02.2021
2376 Clouds 6 1004 75 10000 3.09 170 04:25 19.02.2021
2377 Clouds 5 1004 75 10000 2.57 150 01:46 19.02.2021
2378 Clouds 6 1004 75 10000 3.09 180 00:36 19.02.2021
2379 Clouds 6 1004 75 10000 3.6 180 23:50 18.02.2021
2380 Clouds 6 1004 75 10000 3.6 180 23:32 18.02.2021
2381 Clouds 7 1004 76 10000 3.09 190 22:44 18.02.2021
2382 Clouds 7 1003 76 10000 2.57 190 22:26 18.02.2021
2383 Clouds 7 1003 76 10000 2.57 180 21:42 18.02.2021
2384 Clouds 8 1002 76 10000 2.57 200 21:24 18.02.2021
2385 Clouds 8 1002 76 10000 4.63 220 20:41 18.02.2021
2386 Clouds 8 1001 76 10000 4.12 220 20:21 18.02.2021
2387 Clouds 8 1001 76 10000 6.69 220 19:46 18.02.2021
2388 Clouds 8 1000 76 10000 5.14 220 19:22 18.02.2021
2389 Clouds 8 1000 71 10000 4.12 220 18:51 18.02.2021
2390 Clouds 8 999 71 10000 6.17 220 18:26 18.02.2021
2391 Clouds 8 998 71 10000 6.69 230 17:52 18.02.2021
2392 Clouds 8 998 71 10000 7.72 230 17:25 18.02.2021
2393 Clouds 8 997 71 10000 5.66 220 16:51 18.02.2021
2394 Clouds 8 997 71 10000 5.66 220 16:32 18.02.2021
2395 Clouds 8 997 71 4900 8.23 230 15:43 18.02.2021
2396 Clouds 8 996 66 10000 7.2 220 15:24 18.02.2021
2397 Rain 9 996 61 10000 8.23 230 14:56 18.02.2021
2398 Clouds 9 996 61 10000 8.23 230 14:34 18.02.2021
2399 Clouds 9 996 71 10000 5.66 210 13:50 18.02.2021
2400 Clouds 9 996 71 10000 4.63 210 13:22 18.02.2021
2401 Clouds 8 996 76 10000 4.63 220 12:56 18.02.2021
2402 Clouds 8 996 76 10000 4.63 220 12:36 18.02.2021
2403 Clouds 6 996 87 10000 4.12 220 11:48 18.02.2021
2404 Clouds 6 995 93 10000 4.63 240 11:28 18.02.2021
2405 Clouds 7 995 87 10000 4.12 230 10:58 18.02.2021
2406 Clouds 7 995 87 10000 4.12 230 10:40 18.02.2021
2407 Clouds 7 994 87 10000 3.6 210 10:20 18.02.2021
2408 Clouds 7 994 93 10000 3.6 200 09:39 18.02.2021
2409 Rain 8 993 87 5000 5.66 210 09:19 18.02.2021
2410 Rain 9 992 81 10000 4.12 170 08:31 18.02.2021
2411 Rain 10 992 71 10000 5.14 160 07:58 18.02.2021
2412 Clouds 10 993 71 10000 5.14 0 07:30 18.02.2021
2413 Clouds 10 994 71 10000 5.14 160 06:20 18.02.2021
2414 Clouds 10 999 87 10000 4.12 170 00:53 18.02.2021
2415 Rain 10 1000 87 10000 3.6 160 23:47 17.02.2021
2416 Clouds 10 1000 87 10000 3.6 170 23:19 17.02.2021
2417 Clouds 10 1000 87 10000 3.6 170 22:44 17.02.2021
2418 Rain 10 1001 93 10000 3.6 170 22:22 17.02.2021
2419 Clouds 9 1001 87 10000 3.6 160 21:46 17.02.2021
2420 Clouds 9 1001 87 10000 3.09 0 21:21 17.02.2021
2421 Clouds 9 1002 87 10000 2.57 150 20:43 17.02.2021
2422 Clouds 9 1002 81 10000 2.57 160 20:24 17.02.2021
2423 Rain 9 1003 81 10000 3.09 170 19:38 17.02.2021
2424 Rain 10 1003 71 10000 2.57 150 19:19 17.02.2021
2425 Rain 10 1003 71 10000 2.57 170 18:40 17.02.2021
2426 Clouds 11 1003 62 10000 4.63 190 17:59 17.02.2021
2427 Clouds 11 1003 62 10000 4.63 190 17:36 17.02.2021
2428 Clouds 11 1004 62 10000 3.6 190 17:18 17.02.2021
2429 Clouds 11 1004 66 10000 4.12 200 16:42 17.02.2021
2430 Clouds 11 1004 66 10000 4.63 200 16:22 17.02.2021
2431 Clouds 11 1004 66 10000 4.63 200 15:43 17.02.2021
2432 Clouds 11 1004 66 10000 5.66 200 15:22 17.02.2021
2433 Clouds 11 1004 66 10000 5.14 190 14:45 17.02.2021
2434 Clouds 11 1004 66 10000 5.14 190 14:45 17.02.2021
2435 Clouds 11 1005 71 10000 5.14 200 14:26 17.02.2021
2436 Clouds 10 1005 71 10000 5.14 200 13:45 17.02.2021
2437 Clouds 10 1005 71 10000 5.14 200 12:59 17.02.2021
2438 Clouds 10 1005 71 10000 4.63 210 12:26 17.02.2021
2439 Clouds 10 1005 76 10000 4.12 200 11:59 17.02.2021
2440 Clouds 9 1005 76 10000 4.12 200 11:36 17.02.2021
2441 Clouds 9 1004 76 10000 3.09 190 11:18 17.02.2021
2442 Clouds 8 1004 81 10000 2.57 190 10:43 17.02.2021
2443 Clouds 8 1004 81 10000 3.09 200 10:21 17.02.2021
2444 Clouds 8 1004 81 10000 3.09 200 09:41 17.02.2021
2445 Clouds 8 1004 81 10000 4.12 200 09:19 17.02.2021
2446 Clouds 8 1003 81 10000 4.12 190 08:42 17.02.2021
2447 Clouds 8 1002 87 10000 4.12 190 08:21 17.02.2021
2448 Clouds 8 1002 87 10000 4.63 170 07:25 17.02.2021
2449 Clouds 7 1003 87 10000 3.6 160 04:54 17.02.2021
2450 Clouds 6 1005 81 10000 2.57 160 02:33 17.02.2021
2451 Clouds 6 1005 87 10000 3.09 180 01:49 17.02.2021
2452 Clouds 6 1005 87 10000 1.03 0 00:32 17.02.2021
2453 Clouds 6 1005 93 10000 3.09 190 23:53 16.02.2021
2454 Clouds 6 1005 93 10000 3.09 190 23:34 16.02.2021
2455 Clouds 6 1005 93 10000 1.54 0 22:42 16.02.2021
2456 Clouds 6 1005 93 10000 2.57 180 22:23 16.02.2021
2457 Clouds 7 1004 93 10000 2.57 180 21:41 16.02.2021
2458 Clouds 7 1004 87 10000 3.09 200 21:22 16.02.2021
2459 Clouds 8 1004 93 10000 3.09 200 20:58 16.02.2021
2460 Clouds 8 1004 93 10000 3.09 200 20:38 16.02.2021
2461 Clouds 8 1004 87 10000 3.6 210 20:20 16.02.2021
2462 Clouds 8 1004 87 10000 3.6 210 19:40 16.02.2021
2463 Clouds 8 1003 87 10000 3.09 210 19:21 16.02.2021
2464 Rain 8 1003 87 10000 3.09 200 18:40 16.02.2021
2465 Rain 9 1003 87 10000 3.09 190 18:21 16.02.2021
2466 Clouds 9 1003 87 10000 1.54 0 17:49 16.02.2021
2467 Clouds 10 1003 87 4200 5.14 200 17:24 16.02.2021
2468 Clouds 10 1003 81 10000 2.57 190 16:51 16.02.2021
2469 Clouds 11 1003 71 10000 4.12 210 16:27 16.02.2021
2470 Clouds 11 1003 76 10000 4.12 200 15:47 16.02.2021
2471 Clouds 11 1003 76 10000 4.12 200 15:47 16.02.2021
2472 Clouds 11 1003 76 10000 3.6 210 15:26 16.02.2021
2473 Clouds 11 1003 71 10000 4.63 210 14:48 16.02.2021
2474 Clouds 11 1004 76 10000 3.6 200 14:30 16.02.2021
2475 Clouds 11 1004 81 10000 4.12 200 13:57 16.02.2021
2476 Clouds 10 1004 81 10000 4.12 200 13:34 16.02.2021
2477 Clouds 10 1004 81 10000 3.09 190 12:46 16.02.2021
2478 Clouds 10 1004 81 10000 3.6 180 12:25 16.02.2021
2479 Clouds 10 1004 81 10000 3.09 180 11:50 16.02.2021
2480 Clouds 9 1004 81 10000 3.09 190 11:24 16.02.2021
2481 Clouds 9 1004 81 10000 3.09 180 10:56 16.02.2021
2482 Clouds 9 1004 81 10000 3.09 180 10:38 16.02.2021
2483 Clouds 9 1004 81 10000 3.09 180 10:20 16.02.2021
2484 Clouds 9 1004 87 10000 2.57 180 09:47 16.02.2021
2485 Clouds 9 1004 87 10000 2.57 180 09:47 16.02.2021
2486 Clouds 9 1004 81 10000 1.03 0 09:26 16.02.2021
2487 Clouds 9 1004 81 10000 2.57 180 08:42 16.02.2021
2488 Clouds 9 1004 81 10000 3.6 190 08:21 16.02.2021
2489 Clouds 9 1004 93 10000 3.09 190 07:25 16.02.2021
2490 Clouds 10 1005 76 10000 3.6 0 05:28 16.02.2021
2491 Clouds 9 1009 81 10000 3.09 170 00:45 16.02.2021
2492 Clouds 9 1011 81 10000 2.06 0 23:39 15.02.2021
2493 Clouds 9 1011 87 10000 2.06 160 23:20 15.02.2021
2494 Clouds 9 1012 87 10000 3.09 160 22:43 15.02.2021
2495 Clouds 10 1012 81 10000 2.57 150 22:20 15.02.2021
2496 Clouds 10 1012 81 10000 2.06 160 21:38 15.02.2021
2497 Clouds 10 1013 81 10000 2.57 170 21:20 15.02.2021
2498 Clouds 9 1013 87 10000 2.57 170 20:45 15.02.2021
2499 Clouds 9 1013 87 10000 2.57 170 20:45 15.02.2021
2500 Clouds 9 1013 81 10000 2.57 160 20:25 15.02.2021
2501 Clouds 9 1014 81 10000 3.09 190 19:44 15.02.2021
2502 Clouds 9 1014 87 10000 2.06 160 19:22 15.02.2021
2503 Clouds 10 1014 87 10000 2.57 170 18:44 15.02.2021
2504 Clouds 10 1014 81 10000 4.12 200 18:26 15.02.2021
2505 Clouds 11 1014 81 10000 3.09 180 17:42 15.02.2021
2506 Clouds 11 1014 76 10000 4.12 200 17:22 15.02.2021
2507 Clouds 11 1014 76 10000 3.6 190 16:55 15.02.2021
2508 Clouds 12 1014 71 10000 4.63 190 16:27 15.02.2021
2509 Clouds 11 1014 76 10000 3.6 190 15:50 15.02.2021
2510 Clouds 12 1014 76 10000 4.63 200 15:23 15.02.2021
2511 Clouds 11 1015 76 10000 5.66 210 14:54 15.02.2021
2512 Clouds 12 1014 71 10000 5.14 200 14:22 15.02.2021
2513 Clouds 12 1014 76 10000 4.12 200 13:58 15.02.2021
2514 Clouds 12 1014 76 10000 4.12 200 13:58 15.02.2021
2515 Clouds 11 1014 76 10000 4.12 200 13:39 15.02.2021
2516 Clouds 11 1014 81 10000 3.09 190 13:18 15.02.2021
2517 Clouds 10 1015 81 10000 3.6 190 12:39 15.02.2021
2518 Clouds 9 1015 87 10000 3.09 190 12:19 15.02.2021
2519 Clouds 8 1014 87 10000 3.09 180 11:41 15.02.2021
2520 Clouds 8 1014 93 10000 2.06 160 11:19 15.02.2021
2521 Clouds 8 1014 93 10000 2.06 160 10:46 15.02.2021
2522 Clouds 7 1014 93 10000 2.06 180 10:22 15.02.2021
2523 Clouds 7 1014 93 10000 3.09 170 09:53 15.02.2021
2524 Clouds 7 1014 87 10000 2.06 0 09:32 15.02.2021
2525 Clouds 7 1014 93 10000 2.06 150 08:41 15.02.2021
2526 Clouds 7 1013 93 10000 2.06 170 07:38 15.02.2021
2527 Clouds 7 1013 93 10000 2.06 170 06:45 15.02.2021
2528 Clouds 7 1014 93 9000 2.57 150 05:37 15.02.2021
2529 Clouds 7 1014 87 10000 2.57 170 02:22 15.02.2021
2530 Clouds 6 1014 93 10000 3.09 170 00:33 15.02.2021
2531 Drizzle 6 1014 93 5000 3.6 180 23:33 14.02.2021
2532 Clouds 6 1013 87 10000 4.63 180 22:52 14.02.2021
2533 Clouds 6 1013 87 10000 4.63 180 22:34 14.02.2021
2534 Clouds 6 1013 87 10000 5.14 180 21:57 14.02.2021
2535 Clouds 6 1013 87 10000 5.14 180 21:37 14.02.2021
2536 Clouds 6 1013 81 10000 4.63 180 20:56 14.02.2021
2537 Clouds 6 1013 81 10000 4.63 180 20:38 14.02.2021
2538 Clouds 6 1013 81 10000 5.14 180 20:20 14.02.2021
2539 Clouds 6 1014 81 10000 5.66 170 19:38 14.02.2021
2540 Clouds 5 1013 87 10000 4.63 170 18:48 14.02.2021
2541 Clouds 6 1013 81 10000 6.17 170 18:29 14.02.2021
2542 Clouds 5 1014 87 10000 5.66 180 17:48 14.02.2021
2543 Clouds 5 1014 87 10000 5.14 170 17:28 14.02.2021
2544 Clouds 5 1014 81 10000 5.14 170 16:42 14.02.2021
2545 Rain 5 1015 81 10000 5.66 160 16:23 14.02.2021
2546 Clouds 4 1015 81 10000 4.63 160 15:45 14.02.2021
2547 Clouds 5 1016 81 10000 4.12 0 15:25 14.02.2021
2548 Rain 4 1016 75 10000 5.66 160 14:33 14.02.2021
2549 Clouds 4 1017 75 10000 6.17 150 13:59 14.02.2021
2550 Clouds 4 1017 75 10000 6.17 150 13:33 14.02.2021
2551 Clouds 4 1018 70 10000 6.17 150 12:58 14.02.2021
2552 Clouds 4 1019 65 10000 6.17 150 12:22 14.02.2021
2553 Clouds 4 1019 65 10000 6.17 150 12:22 14.02.2021
2554 Clouds 4 1019 65 10000 5.14 150 11:52 14.02.2021
2555 Clouds 4 1019 60 10000 4.63 150 11:26 14.02.2021
2556 Clouds 4 1019 60 10000 4.12 150 10:53 14.02.2021
2557 Clouds 3 1020 64 10000 5.14 150 09:58 14.02.2021
2558 Clouds 3 1020 64 10000 5.14 150 09:39 14.02.2021
2559 Clouds 3 1020 64 10000 4.12 150 09:21 14.02.2021
2560 Clouds 3 1020 60 10000 5.14 0 08:43 14.02.2021
2561 Clouds 2 1021 55 10000 5.14 170 07:57 14.02.2021
2562 Clouds 3 1021 55 10000 5.66 150 06:52 14.02.2021
2563 Clouds 3 1022 48 10000 4.63 0 05:43 14.02.2021
2564 Clouds 2 1023 51 10000 4.12 140 03:32 14.02.2021
2565 Clouds 1 1025 51 10000 3.6 0 02:22 14.02.2021
2566 Clouds 1 1026 51 10000 3.6 150 00:48 14.02.2021
2567 Clouds 1 1027 51 10000 2.57 0 00:27 14.02.2021
2568 Clouds 0 1027 51 10000 3.6 150 23:41 13.02.2021
2569 Clouds 0 1027 51 10000 3.09 160 23:21 13.02.2021
2570 Clouds 0 1027 47 10000 3.6 0 22:42 13.02.2021
2571 Clouds 0 1026 47 10000 4.12 140 22:19 13.02.2021
2572 Clouds 0 1027 47 10000 4.63 140 21:42 13.02.2021
2573 Clouds 0 1027 47 10000 3.6 0 20:55 13.02.2021
2574 Clouds 0 1028 47 10000 4.12 140 20:30 13.02.2021
2575 Clouds 0 1028 47 10000 4.12 140 20:30 13.02.2021
2576 Snow 0 1028 47 10000 3.6 140 19:55 13.02.2021
2577 Snow 0 1028 47 10000 3.6 140 19:37 13.02.2021
2578 Snow 0 1029 43 10000 4.12 140 19:18 13.02.2021
2579 Clouds 0 1028 43 10000 4.12 140 18:38 13.02.2021
2580 Snow 1 1028 40 10000 4.63 140 17:55 13.02.2021
2581 Snow 1 1028 40 10000 4.63 140 17:36 13.02.2021
2582 Snow 1 1028 40 10000 4.12 150 17:18 13.02.2021
2583 Snow 1 1028 37 10000 4.63 140 16:42 13.02.2021
2584 Snow 1 1029 37 10000 4.63 140 15:58 13.02.2021
2585 Clouds 1 1029 34 10000 5.14 140 15:27 13.02.2021
2586 Clouds 1 1029 37 10000 5.14 130 14:42 13.02.2021
2587 Clouds 2 1029 34 10000 5.14 140 14:24 13.02.2021
2588 Clouds 1 1029 37 10000 5.14 140 13:44 13.02.2021
2589 Clouds 1 1029 40 10000 6.17 140 13:23 13.02.2021
2590 Clouds 0 1029 40 10000 5.14 130 12:38 13.02.2021
2591 Clouds 0 1030 47 10000 5.66 130 12:18 13.02.2021
2592 Clouds 0 1030 51 10000 5.14 140 11:40 13.02.2021
2593 Clouds -1 1030 59 10000 5.14 130 11:18 13.02.2021
2594 Clouds -1 1030 59 10000 4.63 130 10:44 13.02.2021
2595 Clouds -1 1030 64 10000 4.63 140 10:23 13.02.2021
2596 Clouds -2 1030 64 10000 4.63 120 09:50 13.02.2021
2597 Clouds -2 1030 64 10000 5.14 130 09:29 13.02.2021
2598 Clouds -2 1030 64 10000 4.12 130 08:52 13.02.2021
2599 Clouds -2 1030 64 10000 4.63 130 08:26 13.02.2021
2600 Clouds -2 1030 64 10000 4.12 130 07:43 13.02.2021
2601 Clouds -2 1031 59 10000 3.6 130 06:25 13.02.2021
2602 Clouds -2 1031 63 10000 3.09 130 05:18 13.02.2021
2603 Clouds -2 1032 63 10000 4.12 120 02:44 13.02.2021
2604 Clouds -2 1032 59 10000 4.12 0 00:57 13.02.2021
2605 Clouds -2 1032 59 10000 4.12 0 00:57 13.02.2021
2606 Clouds -2 1032 59 10000 4.63 120 00:18 13.02.2021
2607 Clouds -2 1032 59 10000 3.6 0 23:45 12.02.2021
2608 Clouds -2 1033 59 10000 3.6 0 23:18 12.02.2021
2609 Clouds -2 1032 59 10000 3.6 120 22:32 12.02.2021
2610 Clouds -2 1033 59 10000 4.63 120 21:58 12.02.2021
2611 Clouds -2 1033 59 10000 4.63 120 21:39 12.02.2021
2612 Clouds -2 1033 59 10000 3.6 0 21:21 12.02.2021
2613 Clouds -1 1033 59 10000 5.14 120 20:40 12.02.2021
2614 Clouds -1 1032 64 10000 3.6 120 20:21 12.02.2021
2615 Clouds -1 1032 64 10000 2.57 0 19:49 12.02.2021
2616 Clouds -1 1032 55 10000 3.09 0 19:28 12.02.2021
2617 Clouds -1 1031 55 10000 3.09 100 18:35 12.02.2021
2618 Clouds 0 1031 55 10000 3.6 0 17:54 12.02.2021
2619 Clouds 0 1031 55 10000 3.6 0 17:35 12.02.2021
2620 Clouds 1 1031 51 10000 4.63 120 16:44 12.02.2021
2621 Clouds 2 1031 55 10000 4.12 0 15:49 12.02.2021
2622 Clouds 2 1031 55 10000 5.14 110 15:24 12.02.2021
2623 Clear 2 1031 51 10000 4.63 130 14:59 12.02.2021
2624 Clear 2 1031 51 10000 4.63 130 14:34 12.02.2021
2625 Clear 2 1032 51 10000 5.66 120 13:47 12.02.2021
2626 Clouds 2 1032 64 10000 4.12 120 13:28 12.02.2021
2627 Clouds 2 1031 64 10000 4.12 0 12:53 12.02.2021
2628 Clouds 0 1031 64 10000 4.12 0 12:35 12.02.2021
2629 Clouds 1 1031 64 10000 3.6 100 11:47 12.02.2021
2630 Clouds 1 1030 69 10000 3.6 110 11:20 12.02.2021
2631 Clouds 0 1030 69 10000 3.09 100 10:47 12.02.2021
2632 Clouds 0 1030 64 10000 3.09 100 09:57 12.02.2021
2633 Clouds 0 1030 64 10000 3.09 100 09:39 12.02.2021
2634 Clouds 0 1030 64 10000 2.57 0 09:19 12.02.2021
2635 Clouds -1 1029 69 10000 3.09 0 08:40 12.02.2021
2636 Clouds -1 1028 64 10000 3.09 100 08:20 12.02.2021
2637 Clouds -1 1028 69 10000 3.09 0 07:51 12.02.2021
2638 Clouds -1 1028 69 10000 3.6 100 07:21 12.02.2021
2639 Clouds -1 1028 74 10000 4.12 100 05:51 12.02.2021
2640 Clouds 0 1028 74 10000 4.12 100 05:26 12.02.2021
2641 Clouds -1 1028 69 10000 5.14 90 01:59 12.02.2021
2642 Clouds -2 1028 74 10000 3.09 90 23:58 11.02.2021
2643 Clouds -1 1028 69 10000 3.09 0 23:23 11.02.2021
2644 Clouds -1 1027 69 10000 3.6 90 22:58 11.02.2021
2645 Clouds -1 1027 69 10000 3.6 90 22:40 11.02.2021
2646 Clouds -1 1027 69 10000 4.12 100 22:21 11.02.2021
2647 Clouds -1 1027 69 10000 3.6 0 21:39 11.02.2021
2648 Clouds -1 1027 69 10000 3.6 0 21:20 11.02.2021
2649 Clouds -1 1027 69 10000 4.12 100 20:46 11.02.2021
2650 Clouds -1 1027 69 10000 5.14 90 20:22 11.02.2021
2651 Clouds -1 1027 69 10000 3.6 90 19:49 11.02.2021
2652 Clouds 0 1027 69 10000 2.57 100 19:31 11.02.2021
2653 Clouds 0 1026 59 10000 2.57 100 18:58 11.02.2021
2654 Clouds 0 1026 59 10000 2.57 110 18:30 11.02.2021
2655 Clouds 1 1027 64 10000 2.06 120 17:55 11.02.2021
2656 Clouds 1 1027 59 10000 3.6 120 17:22 11.02.2021
2657 Clouds 1 1026 55 10000 3.6 120 16:59 11.02.2021
2658 Clouds 1 1026 55 10000 3.6 120 16:41 11.02.2021
2659 Clouds 2 1026 55 10000 3.6 130 16:21 11.02.2021
2660 Clouds 2 1027 55 10000 3.09 0 15:43 11.02.2021
2661 Clouds 2 1027 55 10000 4.12 0 15:25 11.02.2021
2662 Clouds 2 1027 51 10000 4.63 120 14:47 11.02.2021
2663 Clouds 2 1028 55 10000 4.12 140 14:28 11.02.2021
2664 Clouds 2 1028 55 10000 4.12 0 13:41 11.02.2021
2665 Clouds 2 1028 55 10000 3.6 120 13:19 11.02.2021
2666 Clouds 2 1027 55 10000 4.12 110 12:51 11.02.2021
2667 Clouds 1 1027 55 10000 3.09 0 12:26 11.02.2021
2668 Clouds 1 1027 59 10000 3.09 110 11:46 11.02.2021
2669 Clouds 0 1027 59 10000 2.57 0 11:22 11.02.2021
2670 Clouds 0 1027 64 10000 3.09 90 10:44 11.02.2021
2671 Clouds -1 1027 69 10000 2.06 0 10:26 11.02.2021
2672 Clouds -1 1027 69 10000 2.57 100 09:53 11.02.2021
2673 Clear -2 1027 74 10000 1.54 0 09:22 11.02.2021
2674 Clear -3 1027 74 10000 1.54 0 08:51 11.02.2021
2675 Clear -3 1027 74 10000 2.57 80 08:23 11.02.2021
2676 Clear -4 1027 74 10000 0.51 0 06:58 11.02.2021
2677 Clear -3 1027 74 10000 0.51 0 06:35 11.02.2021
2678 Clear -3 1026 93 10000 2.06 70 04:55 11.02.2021
2679 Clear -3 1026 86 10000 1.54 80 02:29 11.02.2021
2680 Clouds -2 1025 86 10000 2.06 60 00:47 11.02.2021
2681 Snow -2 1025 86 10000 1.03 110 00:19 11.02.2021
2682 Clouds -2 1025 86 10000 1.54 80 23:39 10.02.2021
2683 Clear -2 1024 86 10000 2.57 50 22:52 10.02.2021
2684 Clear -2 1024 86 10000 3.09 40 22:28 10.02.2021
2685 Clouds -2 1024 93 10000 1.03 70 21:57 10.02.2021
2686 Clouds -2 1024 93 10000 1.03 70 21:38 10.02.2021
2687 Clear -1 1024 93 10000 1.03 50 21:19 10.02.2021
2688 Clear -1 1023 93 10000 1.54 40 20:40 10.02.2021
2689 Clear -1 1023 86 10000 2.57 30 20:22 10.02.2021
2690 Clear -1 1023 93 10000 2.06 60 19:44 10.02.2021
2691 Snow -1 1022 80 4900 3.09 70 19:23 10.02.2021
2692 Snow 0 1022 74 10000 3.09 40 18:40 10.02.2021
2693 Clouds 0 1021 69 10000 3.6 30 18:21 10.02.2021
2694 Clouds 1 1021 60 10000 4.12 50 17:50 10.02.2021
2695 Clouds 1 1021 60 10000 4.12 60 17:22 10.02.2021
2696 Snow 2 1021 64 10000 2.06 80 16:52 10.02.2021
2697 Clouds 2 1020 64 10000 3.6 50 16:29 10.02.2021
2698 Clouds 2 1020 60 10000 5.14 40 15:45 10.02.2021
2699 Clouds 2 1020 55 10000 5.66 20 15:22 10.02.2021
2700 Clouds 3 1020 55 10000 3.6 60 14:42 10.02.2021
2701 Clouds 2 1020 64 10000 4.63 40 14:20 10.02.2021
2702 Clouds 2 1020 64 10000 4.12 40 13:50 10.02.2021
2703 Clouds 2 1019 64 10000 4.12 40 13:27 10.02.2021
2704 Clouds 2 1019 64 10000 4.63 40 12:46 10.02.2021
2705 Clouds 2 1019 64 10000 3.6 30 12:28 10.02.2021
2706 Clouds 0 1018 64 10000 4.63 30 11:47 10.02.2021
2707 Clouds 0 1018 64 10000 4.63 30 11:47 10.02.2021
2708 Clouds 0 1018 69 10000 3.6 40 11:28 10.02.2021
2709 Clouds -1 1017 69 10000 3.6 10 10:47 10.02.2021
2710 Clear -2 1017 69 10000 3.09 360 10:19 10.02.2021
2711 Clear -3 1016 62 10000 3.1 43 09:43 10.02.2021
2712 Clear -3 1016 68 10000 2.57 350 09:21 10.02.2021
2713 Clear -3 1016 68 10000 1.03 10 08:50 10.02.2021
2714 Clear -3 1015 74 10000 3.09 20 07:59 10.02.2021
2715 Clear -2 1015 74 10000 2.57 30 07:18 10.02.2021
2716 Snow -1 1013 80 10000 4.12 60 03:45 10.02.2021
2717 Clouds 0 1012 80 10000 4.63 60 00:51 10.02.2021
2718 Snow 0 1011 93 10000 3.6 50 23:37 09.02.2021
2719 Snow 0 1011 86 3800 4.63 60 22:56 09.02.2021
2720 Snow 0 1011 74 10000 4.12 70 22:25 09.02.2021
2721 Clouds 0 1010 74 10000 4.12 60 21:54 09.02.2021
2722 Clouds 0 1010 74 10000 4.12 60 21:35 09.02.2021
2723 Clouds 0 1010 80 10000 4.63 70 20:59 09.02.2021
2724 Clouds 0 1010 80 10000 4.63 70 20:40 09.02.2021
2725 Clouds 0 1010 80 10000 3.6 70 20:20 09.02.2021
2726 Clouds 0 1010 74 10000 5.14 60 19:39 09.02.2021
2727 Clouds 0 1009 80 10000 3.6 60 19:18 09.02.2021
2728 Snow 0 1009 80 10000 5.14 60 18:41 09.02.2021
2729 Clouds 1 1009 69 10000 5.66 70 17:58 09.02.2021
2730 Clouds 1 1009 69 10000 5.66 70 17:40 09.02.2021
2731 Clouds 1 1009 64 10000 4.63 70 17:22 09.02.2021
2732 Clouds 1 1009 69 10000 5.14 60 16:47 09.02.2021
2733 Clouds 2 1009 55 10000 5.14 80 16:19 09.02.2021
2734 Clouds 2 1009 60 10000 3.6 90 15:50 09.02.2021
2735 Clouds 2 1009 60 10000 4.63 70 15:27 09.02.2021
2736 Rain 2 1010 64 10000 5.14 80 14:56 09.02.2021
2737 Rain 2 1010 60 10000 5.14 80 14:28 09.02.2021
2738 Clouds 2 1010 69 10000 4.12 70 13:53 09.02.2021
2739 Clouds 2 1010 64 10000 4.12 60 13:28 09.02.2021
2740 Clouds 1 1010 69 10000 4.12 60 12:55 09.02.2021
2741 Clouds 2 1010 69 10000 4.12 60 12:36 09.02.2021
2742 Clouds 1 1010 75 10000 4.12 60 11:59 09.02.2021
2743 Clouds 1 1010 75 10000 4.12 60 11:59 09.02.2021
2744 Clouds 1 1010 75 10000 4.12 60 11:40 09.02.2021
2745 Clouds 1 1009 74 10000 4.12 60 11:20 09.02.2021
2746 Clouds 0 1009 86 10000 4.63 60 10:50 09.02.2021
2747 Clouds 0 1009 80 10000 4.63 50 10:19 09.02.2021
2748 Clouds -1 1009 86 10000 3.6 60 09:43 09.02.2021
2749 Clouds -1 1009 86 10000 4.63 50 09:25 09.02.2021
2750 Snow -1 1009 86 10000 4.12 60 08:47 09.02.2021
2751 Clouds -1 1009 86 10000 3.6 50 08:26 09.02.2021
2752 Clouds -1 1009 80 10000 3.6 50 06:55 09.02.2021
2753 Snow -1 1009 86 10000 2.06 60 04:53 09.02.2021
2754 Snow -1 1009 86 10000 3.09 50 03:41 09.02.2021
2755 Clouds 0 1009 74 10000 4.12 50 00:39 09.02.2021
2756 Clouds 0 1009 80 10000 3.6 50 23:57 08.02.2021
2757 Clouds 0 1009 74 10000 4.63 60 23:21 08.02.2021
2758 Rain 0 1009 74 10000 4.12 60 22:44 08.02.2021
2759 Clouds 0 1009 80 10000 5.66 60 22:25 08.02.2021
2760 Rain 0 1009 80 10000 4.63 60 21:57 08.02.2021
2761 Rain 0 1009 80 10000 4.63 60 21:34 08.02.2021
2762 Snow 0 1009 80 10000 5.66 60 20:59 08.02.2021
2763 Snow 0 1009 80 10000 5.66 60 20:40 08.02.2021
2764 Clouds 0 1009 80 8000 6.17 60 20:21 08.02.2021
2765 Snow 0 1008 74 10000 6.69 60 19:44 08.02.2021
2766 Clouds 0 1008 74 10000 6.17 50 19:25 08.02.2021
2767 Snow 1 1008 80 10000 5.66 50 18:49 08.02.2021
2768 Snow 1 1008 80 10000 5.66 60 18:23 08.02.2021
2769 Rain 1 1008 75 10000 6.69 60 17:46 08.02.2021
2770 Clouds 1 1008 69 10000 6.17 60 17:26 08.02.2021
2771 Snow 2 1008 64 10000 5.66 60 16:45 08.02.2021
2772 Rain 2 1007 75 10000 7.72 60 16:21 08.02.2021
2773 Clouds 2 1007 69 10000 7.72 50 15:48 08.02.2021
2774 Clouds 2 1008 80 10000 6.17 50 15:20 08.02.2021
2775 Snow 2 1008 80 10000 6.17 50 14:52 08.02.2021
2776 Snow 2 1008 80 10000 6.17 50 14:32 08.02.2021
2777 Clouds 1 1008 75 10000 6.17 60 13:57 08.02.2021
2778 Clouds 1 1008 75 10000 6.17 60 13:38 08.02.2021
2779 Clouds 1 1008 75 10000 6.69 40 13:20 08.02.2021
2780 Snow 1 1008 75 4000 7.72 50 12:37 08.02.2021
2781 Snow 1 1008 69 10000 6.69 60 11:51 08.02.2021
2782 Snow 1 1009 69 10000 7.2 50 11:23 08.02.2021
2783 Clouds 1 1009 75 10000 7.72 50 10:46 08.02.2021
2784 Clouds 1 1009 80 10000 7.2 50 10:24 08.02.2021
2785 Rain 1 1008 74 10000 5.66 50 09:55 08.02.2021
2786 Rain 1 1008 74 10000 5.66 50 09:36 08.02.2021
2787 Rain 0 1008 74 10000 5.14 50 08:51 08.02.2021
2788 Rain 0 1008 80 10000 6.17 50 08:23 08.02.2021
2789 Snow 0 1008 74 10000 5.66 50 07:36 08.02.2021
2790 Clouds 1 1008 74 10000 6.69 40 06:30 08.02.2021
2791 Clouds 1 1009 69 10000 6.17 50 03:58 08.02.2021
2792 Clouds 1 1009 64 10000 7.2 50 01:50 08.02.2021
2793 Clouds 1 1009 60 10000 6.17 60 00:23 08.02.2021
2794 Clouds 1 1009 60 10000 6.69 60 23:52 07.02.2021
2795 Clouds 1 1010 60 10000 5.14 60 23:27 07.02.2021
2796 Clouds 1 1010 64 10000 5.66 60 22:46 07.02.2021
2797 Clouds 2 1010 64 10000 4.12 60 22:28 07.02.2021
2798 Clouds 2 1010 60 10000 5.66 60 21:57 07.02.2021
2799 Clouds 2 1010 60 10000 5.66 60 21:39 07.02.2021
2800 Clouds 2 1010 64 10000 6.17 60 21:19 07.02.2021
2801 Clouds 2 1010 64 10000 5.66 60 20:44 07.02.2021
2802 Clouds 2 1010 64 10000 6.17 60 20:26 07.02.2021
2803 Clouds 2 1010 64 10000 6.69 60 19:42 07.02.2021
2804 Clouds 1 1010 69 10000 6.17 60 19:22 07.02.2021
2805 Clouds 2 1010 69 10000 7.2 60 18:43 07.02.2021
2806 Clouds 2 1010 69 10000 5.66 50 18:25 07.02.2021
2807 Clouds 2 1010 69 10000 6.17 60 17:44 07.02.2021
2808 Clouds 2 1010 64 10000 6.69 60 17:22 07.02.2021
2809 Clouds 2 1010 64 10000 7.72 60 16:57 07.02.2021
2810 Clouds 2 1010 64 10000 7.72 60 16:36 07.02.2021
2811 Clouds 2 1010 69 10000 7.2 50 16:18 07.02.2021
2812 Clouds 2 1010 69 10000 6.17 50 15:41 07.02.2021
2813 Clouds 2 1010 69 10000 7.2 60 15:21 07.02.2021
2814 Clouds 2 1010 69 10000 6.69 60 14:42 07.02.2021
2815 Clouds 2 1011 75 10000 6.69 50 14:24 07.02.2021
2816 Clouds 2 1011 75 10000 6.69 60 13:40 07.02.2021
2817 Clouds 2 1011 75 10000 6.69 60 13:22 07.02.2021
2818 Clouds 2 1011 75 10000 7.2 60 12:39 07.02.2021
2819 Clouds 2 1011 69 10000 5.66 60 12:20 07.02.2021
2820 Clouds 2 1011 69 10000 5.66 60 12:20 07.02.2021
2821 Clouds 2 1011 75 10000 6.17 50 11:41 07.02.2021
2822 Clouds 2 1011 69 10000 6.69 60 11:23 07.02.2021
2823 Clouds 2 1012 75 10000 5.66 60 10:29 07.02.2021
2824 Clouds 2 1011 75 10000 5.14 60 09:55 07.02.2021
2825 Clouds 2 1011 75 10000 5.14 60 09:37 07.02.2021
2826 Clouds 2 1011 80 10000 6.69 60 09:18 07.02.2021
2827 Clouds 2 1011 93 4000 5.14 60 07:56 07.02.2021
2828 Clouds 3 1011 87 9000 6.17 60 06:21 07.02.2021
2829 Clouds 3 1010 81 10000 5.66 60 04:34 07.02.2021
2830 Clouds 3 1010 93 10000 6.69 70 02:26 07.02.2021
2831 Clouds 3 1010 87 10000 6.17 60 00:37 07.02.2021
2832 Clouds 3 1010 81 10000 7.72 60 23:51 06.02.2021
2833 Clouds 3 1009 87 10000 7.2 50 22:54 06.02.2021
2834 Clouds 3 1009 93 10000 5.14 50 21:57 06.02.2021
2835 Rain 3 1009 93 10000 5.14 50 21:36 06.02.2021
2836 Rain 3 1009 93 10000 6.69 40 21:18 06.02.2021
2837 Rain 3 1009 87 10000 6.69 50 20:43 06.02.2021
2838 Rain 3 1009 87 10000 5.66 60 20:21 06.02.2021
2839 Rain 4 1009 87 10000 6.17 60 19:45 06.02.2021
2840 Rain 4 1008 93 10000 3.6 50 19:22 06.02.2021
2841 Clouds 5 1008 93 10000 4.12 40 18:43 06.02.2021
2842 Clouds 5 1008 87 10000 5.14 40 18:24 06.02.2021
2843 Clouds 5 1008 87 10000 5.14 30 17:41 06.02.2021
2844 Clouds 5 1008 87 10000 5.66 50 17:21 06.02.2021
2845 Clouds 5 1008 93 10000 4.63 50 16:50 06.02.2021
2846 Rain 5 1008 93 10000 5.66 40 16:30 06.02.2021
2847 Rain 6 1008 87 10000 6.69 40 15:52 06.02.2021
2848 Rain 6 1008 87 10000 6.69 40 15:33 06.02.2021
2849 Clouds 5 1008 93 10000 6.17 40 14:57 06.02.2021
2850 Clouds 5 1008 93 10000 6.17 40 14:37 06.02.2021
2851 Rain 6 1008 87 10000 6.17 40 14:18 06.02.2021
2852 Clouds 6 1008 87 10000 4.12 40 13:43 06.02.2021
2853 Clouds 6 1008 87 10000 3.6 30 12:36 06.02.2021
2854 Rain 5 1008 93 10000 3.6 40 12:18 06.02.2021
2855 Clouds 5 1008 93 10000 2.57 60 11:40 06.02.2021
2856 Rain 5 1008 87 10000 4.12 50 11:20 06.02.2021
2857 Rain 5 1008 93 10000 5.14 50 10:52 06.02.2021
2858 Rain 5 1008 93 10000 3.09 60 10:25 06.02.2021
2859 Clouds 5 1008 93 10000 3.09 50 09:38 06.02.2021
2860 Rain 5 1008 100 10000 3.09 60 09:19 06.02.2021
2861 Clouds 5 1008 93 8000 2.57 70 08:58 06.02.2021
2862 Clouds 5 1007 93 10000 2.06 70 08:29 06.02.2021
2863 Clouds 5 1007 100 10000 1.54 0 06:58 06.02.2021
2864 Rain 5 1007 100 10000 1.03 30 05:41 06.02.2021
2865 Clouds 6 1007 100 7000 1.54 80 02:50 06.02.2021
2866 Clouds 7 1007 93 10000 2.06 80 00:58 06.02.2021
2867 Clouds 7 1007 93 10000 2.06 80 00:40 06.02.2021
2868 Clouds 7 1007 93 10000 1.54 0 00:18 06.02.2021
2869 Rain 7 1007 93 10000 2.57 70 23:34 05.02.2021
2870 Clouds 7 1007 87 10000 2.06 80 22:51 05.02.2021
2871 Clouds 7 1007 87 10000 2.06 90 22:25 05.02.2021
2872 Clouds 7 1007 87 10000 2.06 90 21:59 05.02.2021
2873 Clouds 6 1007 87 10000 2.06 90 21:39 05.02.2021
2874 Clouds 7 1007 87 10000 1.54 0 20:58 05.02.2021
2875 Clouds 7 1007 87 10000 1.54 0 20:34 05.02.2021
2876 Clouds 7 1006 87 10000 1.54 0 19:46 05.02.2021
2877 Clouds 7 1006 87 10000 1.54 0 19:18 05.02.2021
2878 Clouds 7 1006 87 10000 1.54 0 18:43 05.02.2021
2879 Clouds 8 1006 81 10000 1.54 0 18:19 05.02.2021
2880 Clouds 8 1006 76 10000 2.06 130 17:38 05.02.2021
2881 Clouds 9 1006 81 10000 1.54 0 17:19 05.02.2021
2882 Clouds 9 1006 76 10000 2.06 130 16:43 05.02.2021
2883 Clouds 9 1006 76 10000 2.57 150 16:21 05.02.2021
2884 Clouds 9 1006 81 10000 2.06 140 15:50 05.02.2021
2885 Clouds 9 1006 81 10000 2.57 0 15:22 05.02.2021
2886 Clouds 9 1006 81 10000 2.06 140 14:38 05.02.2021
2887 Clouds 8 1006 87 10000 2.06 150 14:20 05.02.2021
2888 Clouds 9 1007 87 10000 2.06 0 13:48 05.02.2021
2889 Clouds 9 1007 87 10000 2.57 170 13:30 05.02.2021
2890 Clouds 9 1007 87 10000 2.57 170 13:30 05.02.2021
2891 Clouds 8 1007 87 10000 2.06 170 12:44 05.02.2021
2892 Clouds 8 1007 93 10000 1.54 0 12:21 05.02.2021
2893 Clouds 7 1007 93 10000 1.54 0 11:39 05.02.2021
2894 Rain 7 1007 100 10000 1.03 0 11:20 05.02.2021
2895 Clouds 7 1007 93 9000 1.03 0 10:48 05.02.2021
2896 Clouds 6 1006 100 8000 1.03 0 10:25 05.02.2021
2897 Fog 6 1006 100 7000 1.03 130 09:43 05.02.2021
2898 Mist 6 1006 100 4200 1.54 130 09:24 05.02.2021
2899 Mist 6 1006 100 3400 0.51 140 08:42 05.02.2021
2900 Mist 7 1005 100 5000 1.03 0 07:43 05.02.2021
2901 Clouds 7 1005 100 7000 1.03 0 07:24 05.02.2021
2902 Mist 6 1005 100 5000 1.03 0 06:34 05.02.2021
2903 Clouds 7 1005 100 7000 1.03 0 05:35 05.02.2021
2904 Clouds 7 1005 93 10000 0.51 0 02:26 05.02.2021
2905 Clouds 7 1005 93 10000 1.03 0 01:43 05.02.2021
2906 Clouds 7 1005 93 10000 1.03 0 00:37 05.02.2021
2907 Clouds 7 1005 93 10000 1.03 0 00:19 05.02.2021
2908 Clouds 7 1005 93 10000 1.03 0 23:43 04.02.2021
2909 Clouds 7 1005 93 10000 1.54 0 23:25 04.02.2021
2910 Clouds 7 1005 93 10000 1.54 0 22:55 04.02.2021
2911 Clouds 7 1005 93 10000 1.54 0 22:35 04.02.2021
2912 Clouds 7 1005 93 10000 1.54 0 21:58 04.02.2021
2913 Clouds 7 1005 93 10000 1.54 0 21:39 04.02.2021
2914 Rain 7 1006 93 10000 2.06 80 20:58 04.02.2021
2915 Rain 7 1006 93 10000 2.06 80 20:34 04.02.2021
2916 Rain 7 1006 93 10000 1.54 0 19:53 04.02.2021
2917 Rain 7 1006 87 10000 2.06 0 19:27 04.02.2021
2918 Clouds 7 1006 87 10000 2.06 110 18:46 04.02.2021
2919 Clouds 7 1006 87 10000 2.57 130 18:24 04.02.2021
2920 Clouds 7 1006 87 10000 1.54 0 17:47 04.02.2021
2921 Clouds 8 1006 87 10000 2.57 0 17:22 04.02.2021
2922 Clouds 9 1006 81 10000 3.09 160 16:50 04.02.2021
2923 Clouds 9 1006 81 10000 3.09 160 16:50 04.02.2021
2924 Clouds 10 1006 76 10000 3.09 130 16:21 04.02.2021
2925 Clouds 10 1006 76 10000 3.6 0 15:41 04.02.2021
2926 Clouds 10 1006 81 10000 3.09 150 15:21 04.02.2021
2927 Clouds 10 1007 81 10000 3.09 0 14:57 04.02.2021
2928 Clouds 10 1007 81 10000 3.09 0 14:39 04.02.2021
2929 Clouds 10 1007 81 10000 2.57 150 14:19 04.02.2021
2930 Clouds 9 1007 81 10000 2.06 160 13:43 04.02.2021
2931 Clouds 8 1008 87 10000 2.06 130 12:57 04.02.2021
2932 Clouds 7 1008 87 10000 2.06 130 12:33 04.02.2021
2933 Clouds 7 1007 93 10000 2.57 140 11:53 04.02.2021
2934 Clouds 7 1007 93 10000 2.57 140 11:33 04.02.2021
2935 Clouds 6 1007 93 10000 2.06 150 10:48 04.02.2021
2936 Clouds 5 1007 93 10000 2.06 150 10:18 04.02.2021
2937 Clouds 5 1007 93 10000 2.06 140 09:43 04.02.2021
2938 Clouds 5 1006 93 10000 1.54 0 09:19 04.02.2021
2939 Clouds 5 1006 93 10000 1.54 0 08:46 04.02.2021
2940 Clouds 5 1006 93 10000 1.54 0 08:23 04.02.2021
2941 Clouds 5 1005 93 10000 2.06 160 07:42 04.02.2021
2942 Clouds 5 1005 93 10000 2.06 160 07:20 04.02.2021
2943 Clouds 6 1005 93 10000 2.06 160 06:41 04.02.2021
2944 Clouds 5 1004 100 10000 1.03 0 03:54 04.02.2021
2945 Clouds 5 1003 100 10000 1.03 0 02:26 04.02.2021
2946 Rain 5 1003 100 10000 1.03 0 00:48 04.02.2021
2947 Rain 5 1002 93 4300 1.54 0 23:40 03.02.2021
2948 Rain 5 1001 93 7000 2.06 180 22:44 03.02.2021
2949 Rain 5 1000 93 10000 2.06 160 22:22 03.02.2021
2950 Clouds 5 1000 100 10000 1.54 140 21:58 03.02.2021
2951 Clouds 5 1000 100 10000 1.54 140 21:38 03.02.2021
2952 Clouds 5 1000 100 10000 1.54 150 21:20 03.02.2021
2953 Clouds 6 999 100 10000 1.54 160 20:45 03.02.2021
2954 Clouds 6 999 100 10000 1.54 150 20:24 03.02.2021
2955 Clouds 7 998 100 10000 1.54 150 19:45 03.02.2021
2956 Clouds 7 998 100 10000 1.03 160 19:21 03.02.2021
2957 Clouds 7 997 100 10000 1.54 0 18:48 03.02.2021
2958 Clouds 7 997 87 10000 0.51 270 18:20 03.02.2021
2959 Clouds 8 996 93 2900 2.57 270 17:52 03.02.2021
2960 Rain 8 996 93 10000 2.06 290 17:31 03.02.2021
2961 Rain 8 995 93 6000 1.54 220 16:56 03.02.2021
2962 Clouds 9 995 81 10000 2.06 270 16:30 03.02.2021
2963 Clouds 9 995 81 10000 2.06 270 16:30 03.02.2021
2964 Clouds 9 994 81 10000 3.09 270 15:46 03.02.2021
2965 Clouds 9 994 81 10000 3.6 250 15:25 03.02.2021
2966 Clouds 9 994 81 10000 4.12 240 14:54 03.02.2021
2967 Clouds 9 993 81 10000 2.57 260 14:26 03.02.2021
2968 Clouds 9 993 87 10000 2.57 260 13:54 03.02.2021
2969 Clouds 9 993 87 10000 2.57 230 13:28 03.02.2021
2970 Clouds 9 993 87 10000 2.06 200 12:49 03.02.2021
2971 Clouds 8 992 93 10000 1.54 0 12:27 03.02.2021
2972 Clouds 8 992 93 10000 1.54 200 11:54 03.02.2021
2973 Clouds 7 992 93 10000 1.54 200 11:34 03.02.2021
2974 Clouds 7 992 93 10000 1.54 0 10:54 03.02.2021
2975 Clouds 7 991 93 10000 1.54 180 10:22 03.02.2021
2976 Clouds 6 991 100 10000 1.03 0 09:47 03.02.2021
2977 Clouds 6 990 93 10000 2.06 180 09:28 03.02.2021
2978 Clouds 6 990 100 10000 1.54 0 08:53 03.02.2021
2979 Clouds 6 990 93 10000 1.54 170 08:27 03.02.2021
2980 Clouds 6 990 100 10000 1.54 0 07:39 03.02.2021
2981 Clouds 7 990 93 10000 1.54 160 06:41 03.02.2021
2982 Drizzle 8 990 100 4900 3.6 210 04:54 03.02.2021
2983 Clouds 8 989 100 6000 3.09 210 04:29 03.02.2021
2984 Clouds 8 989 93 10000 3.09 190 03:18 03.02.2021
2985 Clouds 8 989 93 9000 2.57 170 02:26 03.02.2021
2986 Rain 8 988 93 10000 1.54 0 00:30 03.02.2021
2987 Rain 8 988 93 10000 1.54 0 23:48 02.02.2021
2988 Rain 8 988 93 10000 1.03 0 23:28 02.02.2021
2989 Clouds 8 988 87 10000 2.06 190 22:59 02.02.2021
2990 Clouds 8 988 87 10000 2.06 180 22:22 02.02.2021
2991 Clouds 8 988 93 10000 2.06 190 21:55 02.02.2021
2992 Clouds 8 988 100 10000 2.57 170 21:30 02.02.2021
2993 Clouds 7 988 100 10000 2.57 0 20:59 02.02.2021
2994 Clouds 7 988 100 10000 2.57 0 20:41 02.02.2021
2995 Rain 7 988 93 9000 2.57 150 20:18 02.02.2021
2996 Rain 7 988 93 9000 2.57 150 20:18 02.02.2021
2997 Clouds 7 988 93 9000 2.06 160 19:42 02.02.2021
2998 Clouds 7 988 93 10000 2.57 140 19:23 02.02.2021
2999 Clouds 7 988 93 10000 3.09 140 18:44 02.02.2021
3000 Clouds 7 989 93 9000 3.09 140 18:25 02.02.2021
3001 Rain 7 989 93 5000 2.06 0 17:49 02.02.2021
3002 Rain 7 989 93 10000 1.54 0 17:22 02.02.2021
3003 Clouds 7 989 93 10000 1.03 0 16:55 02.02.2021
3004 Clouds 7 989 93 10000 1.03 0 16:36 02.02.2021
3005 Clouds 7 990 100 10000 1.54 0 15:57 02.02.2021
3006 Clouds 7 990 100 10000 1.54 0 15:38 02.02.2021
3007 Clouds 6 990 100 10000 1.03 0 15:18 02.02.2021
3008 Clouds 6 991 100 10000 1.54 30 14:39 02.02.2021
3009 Clouds 6 991 100 10000 1.54 0 14:18 02.02.2021
3010 Clouds 5 991 100 5000 1.54 0 13:44 02.02.2021
3011 Clouds 5 991 100 10000 2.06 40 13:25 02.02.2021
3012 Clouds 4 992 100 10000 2.57 40 12:53 02.02.2021
3013 Clouds 4 992 100 10000 1.54 40 12:23 02.02.2021
3014 Clouds 3 991 93 3700 1.54 60 11:40 02.02.2021
3015 Clouds 3 991 100 4700 1.54 0 11:19 02.02.2021
3016 Clouds 3 991 100 4700 1.54 0 11:19 02.02.2021
3017 Clouds 3 991 93 2300 2.06 80 10:45 02.02.2021
3018 Drizzle 3 991 100 3700 2.06 70 10:26 02.02.2021
3019 Clouds 2 991 100 10000 2.57 50 09:45 02.02.2021
3020 Clouds 2 991 93 4900 2.06 80 09:23 02.02.2021
3021 Clouds 2 991 93 3600 2.06 90 08:43 02.02.2021
3022 Clouds 2 991 93 1900 3.6 90 07:47 02.02.2021
3023 Rain 2 991 93 5000 4.63 90 07:23 02.02.2021
3024 Rain 2 991 93 1800 4.12 90 06:40 02.02.2021
3025 Rain 2 992 93 2600 5.66 100 05:51 02.02.2021
3026 Rain 2 994 87 10000 2.06 100 03:35 02.02.2021
3027 Rain 3 996 81 8000 3.6 120 02:24 02.02.2021
3028 Clouds 4 997 75 10000 3.09 130 00:38 02.02.2021
3029 Clouds 4 998 81 10000 1.03 0 23:56 01.02.2021
3030 Clouds 4 999 75 10000 2.06 120 22:57 01.02.2021
3031 Clouds 4 999 75 10000 2.06 120 22:57 01.02.2021
3032 Clouds 4 999 75 10000 2.06 120 22:57 01.02.2021
3033 Clouds 4 999 75 10000 2.06 120 22:38 01.02.2021
3034 Clouds 3 1000 80 10000 1.03 0 22:19 01.02.2021
3035 Clouds 3 1000 80 10000 1.54 0 21:43 01.02.2021
3036 Clouds 3 999 75 10000 1.54 0 21:22 01.02.2021
3037 Clouds 3 999 80 10000 1.03 190 20:42 01.02.2021
3038 Clear 3 999 80 10000 1.03 0 20:24 01.02.2021
3039 Clear 4 999 75 10000 1.54 0 19:42 01.02.2021
3040 Clouds 4 1000 70 10000 1.54 0 19:21 01.02.2021
3041 Clouds 4 1000 70 10000 2.06 120 18:51 01.02.2021
3042 Clouds 4 1000 65 10000 1.03 0 18:29 01.02.2021
3043 Clouds 5 1000 60 10000 2.06 90 17:48 01.02.2021
3044 Clouds 5 999 60 10000 3.09 90 17:26 01.02.2021
3045 Clouds 6 999 60 10000 2.06 100 16:58 01.02.2021
3046 Clouds 6 999 60 10000 2.06 100 16:32 01.02.2021
3047 Clouds 6 999 60 10000 1.54 0 15:48 01.02.2021
3048 Clouds 6 999 56 10000 2.57 0 15:20 01.02.2021
3049 Clouds 6 999 60 10000 2.57 80 14:53 01.02.2021
3050 Clouds 6 999 60 10000 2.57 80 14:34 01.02.2021
3051 Clear 6 999 56 10000 1.03 0 13:52 01.02.2021
3052 Clouds 5 999 65 10000 1.54 0 13:28 01.02.2021
3053 Clouds 4 999 65 10000 1.03 0 12:58 01.02.2021
3054 Clouds 4 999 65 10000 1.03 0 12:40 01.02.2021
3055 Clouds 4 999 65 10000 1.03 0 12:40 01.02.2021
3056 Clouds 4 999 65 10000 1.03 0 12:40 01.02.2021
3057 Clouds 4 998 70 10000 1.03 290 12:21 01.02.2021
3058 Clouds 2 998 80 10000 1.03 20 11:39 01.02.2021
3059 Clouds 2 997 80 10000 0.51 0 11:19 01.02.2021
3060 Clouds 2 997 93 10000 0.51 0 10:44 01.02.2021
3061 Clouds 0 997 93 10000 0.51 0 10:19 01.02.2021
3062 Clouds -1 996 93 10000 1.03 230 09:43 01.02.2021
3063 Clouds 0 996 93 10000 1.03 360 09:19 01.02.2021
3064 Clouds -1 995 100 10000 0.51 0 08:41 01.02.2021
3065 Clouds -1 995 100 10000 0.51 0 07:37 01.02.2021
3066 Clouds 0 994 86 10000 1.54 0 05:59 01.02.2021
3067 Clouds 1 993 80 10000 2.06 40 02:43 01.02.2021
3068 Clouds 2 993 75 10000 2.57 90 00:31 01.02.2021
3069 Clouds 2 993 69 10000 2.57 90 23:40 31.01.2021
3070 Clouds 2 993 64 10000 3.09 80 22:42 31.01.2021
3071 Clouds 2 993 60 10000 4.12 100 22:23 31.01.2021
3072 Clouds 2 993 60 10000 3.09 0 21:49 31.01.2021
3073 Clouds 2 993 60 10000 2.57 100 21:23 31.01.2021
3074 Clouds 2 993 60 10000 1.03 0 20:46 31.01.2021
3075 Clouds 3 993 60 10000 1.54 0 20:21 31.01.2021
3076 Clouds 3 993 60 10000 3.09 90 19:43 31.01.2021
3077 Clouds 3 993 60 10000 3.09 0 19:24 31.01.2021
3078 Clouds 3 994 64 10000 2.57 0 18:58 31.01.2021
3079 Clouds 3 994 64 10000 2.57 0 18:40 31.01.2021
3080 Clouds 3 994 64 10000 3.09 110 18:20 31.01.2021
3081 Clouds 3 994 64 10000 3.09 0 17:45 31.01.2021
3082 Clouds 3 994 64 10000 3.09 100 17:23 31.01.2021
3083 Clouds 3 995 69 10000 3.09 0 16:47 31.01.2021
3084 Clouds 3 995 60 10000 3.6 0 16:28 31.01.2021
3085 Clouds 4 996 60 10000 3.09 90 15:51 31.01.2021
3086 Clouds 4 996 60 10000 3.09 90 15:32 31.01.2021
3087 Clouds 3 998 52 10000 2.57 0 14:42 31.01.2021
3088 Clouds 3 999 56 10000 3.09 0 14:22 31.01.2021
3089 Clouds 3 999 56 10000 2.57 100 13:52 31.01.2021
3090 Clouds 3 999 56 10000 2.57 100 13:52 31.01.2021
3091 Clouds 3 999 56 10000 2.57 100 13:34 31.01.2021
3092 Clouds 3 1000 56 10000 3.09 110 12:48 31.01.2021
3093 Clouds 3 1001 64 10000 2.57 100 12:22 31.01.2021
3094 Clouds 2 1002 69 10000 2.57 100 11:44 31.01.2021
3095 Clouds 2 1002 69 10000 2.57 100 11:24 31.01.2021
3096 Clouds 2 1002 75 10000 2.57 0 10:54 31.01.2021
3097 Clouds 2 1002 75 10000 2.57 0 10:34 31.01.2021
3098 Clouds 1 1003 80 10000 2.06 90 09:50 31.01.2021
3099 Clouds 1 1003 80 10000 2.06 0 09:23 31.01.2021
3100 Clouds 1 1003 80 10000 2.57 90 08:33 31.01.2021
3101 Clouds 0 1004 86 10000 4.12 90 06:56 31.01.2021
3102 Clouds 0 1005 80 10000 3.09 80 05:31 31.01.2021
3103 Clouds 1 1006 80 10000 3.09 60 00:46 31.01.2021
3104 Clouds 1 1006 80 10000 3.09 60 00:21 31.01.2021
3105 Clouds 2 1006 75 10000 2.57 60 23:30 30.01.2021
3106 Clouds 2 1005 69 10000 3.6 80 22:56 30.01.2021
3107 Clouds 2 1005 75 10000 4.63 80 22:29 30.01.2021
3108 Clouds 2 1005 75 10000 4.12 70 21:40 30.01.2021
3109 Clouds 2 1005 75 10000 4.12 70 21:40 30.01.2021
3110 Clouds 2 1004 75 10000 5.14 70 21:20 30.01.2021
3111 Clouds 3 1004 75 10000 4.63 70 20:44 30.01.2021
3112 Clouds 3 1003 70 10000 5.14 70 20:26 30.01.2021
3113 Clouds 3 1003 70 10000 4.12 70 19:44 30.01.2021
3114 Clouds 3 1002 70 10000 5.66 80 19:25 30.01.2021
3115 Clouds 3 1002 70 10000 4.63 70 18:42 30.01.2021
3116 Clouds 3 1001 70 10000 4.63 70 18:21 30.01.2021
3117 Clouds 3 1001 70 10000 4.63 80 17:57 30.01.2021
3118 Clouds 4 1001 70 10000 6.17 70 17:19 30.01.2021
3119 Clouds 4 1000 70 10000 6.69 80 16:44 30.01.2021
3120 Clouds 4 1000 70 10000 7.2 80 16:24 30.01.2021
3121 Clouds 4 1000 70 10000 6.69 80 15:55 30.01.2021
3122 Clouds 4 1000 70 10000 6.69 80 15:37 30.01.2021
3123 Clouds 4 1000 70 10000 5.66 80 15:19 30.01.2021
3124 Clouds 4 1000 70 10000 6.69 80 14:42 30.01.2021
3125 Clouds 4 999 70 10000 7.2 80 14:19 30.01.2021
3126 Clouds 4 999 75 10000 7.72 80 13:30 30.01.2021
3127 Clouds 4 999 81 10000 7.2 80 12:49 30.01.2021
3128 Clouds 4 998 81 10000 7.2 80 12:28 30.01.2021
3129 Clouds 4 998 81 10000 6.69 80 11:56 30.01.2021
3130 Clouds 4 998 81 10000 7.2 80 11:26 30.01.2021
3131 Clouds 3 998 81 10000 6.17 90 10:47 30.01.2021
3132 Clouds 3 998 81 10000 6.17 90 09:48 30.01.2021
3133 Clouds 3 997 75 10000 6.17 90 09:26 30.01.2021
3134 Clouds 3 997 81 10000 6.17 90 08:47 30.01.2021
3135 Clouds 3 997 81 10000 7.72 80 07:48 30.01.2021
3136 Clouds 3 998 87 10000 6.69 80 06:48 30.01.2021
3137 Clouds 4 999 87 10000 6.17 80 04:29 30.01.2021
3138 Clouds 4 1000 87 10000 5.14 80 03:34 30.01.2021
3139 Clouds 4 1000 87 10000 5.14 80 02:23 30.01.2021
3140 Clouds 4 1001 81 10000 3.6 80 01:28 30.01.2021
3141 Clouds 5 1001 87 10000 3.09 80 00:35 30.01.2021
3142 Clouds 5 1001 87 10000 5.14 70 23:58 29.01.2021
3143 Clouds 5 1001 87 10000 5.14 70 23:40 29.01.2021
3144 Clouds 5 1001 93 10000 3.6 60 23:18 29.01.2021
3145 Clouds 5 1002 93 10000 4.12 60 22:38 29.01.2021
3146 Clouds 6 1001 87 10000 4.63 40 21:59 29.01.2021
3147 Clouds 6 1001 93 10000 4.63 20 21:28 29.01.2021
3148 Clouds 6 1001 100 4900 2.57 330 20:45 29.01.2021
3149 Clouds 7 1001 93 8000 4.63 310 20:24 29.01.2021
3150 Clouds 7 1000 93 10000 2.57 290 19:42 29.01.2021
3151 Clouds 8 1000 87 10000 4.12 290 19:22 29.01.2021
3152 Clouds 8 1000 87 10000 2.57 290 18:57 29.01.2021
3153 Clouds 8 999 93 10000 3.09 290 17:51 29.01.2021
3154 Clouds 8 998 93 10000 3.09 290 17:23 29.01.2021
3155 Clouds 8 998 81 10000 3.6 300 16:58 29.01.2021
3156 Clouds 9 998 81 10000 3.6 300 16:38 29.01.2021
3157 Clouds 9 998 87 10000 4.12 280 16:19 29.01.2021
3158 Clouds 9 998 87 10000 5.14 280 15:41 29.01.2021
3159 Clouds 9 998 87 10000 5.14 280 15:41 29.01.2021
3160 Clouds 9 998 87 10000 4.63 270 15:21 29.01.2021
3161 Clouds 9 997 93 10000 5.66 270 14:23 29.01.2021
3162 Clouds 9 997 93 10000 7.2 280 13:57 29.01.2021
3163 Clouds 9 997 93 10000 7.2 280 13:33 29.01.2021
3164 Clouds 9 996 87 10000 5.66 270 12:43 29.01.2021
3165 Clouds 9 996 87 10000 5.14 270 12:19 29.01.2021
3166 Clouds 9 995 93 10000 3.6 270 11:45 29.01.2021
3167 Clouds 8 995 93 10000 3.09 280 11:18 29.01.2021
3168 Clouds 8 994 100 10000 3.09 280 10:46 29.01.2021
3169 Clouds 8 994 100 9000 3.09 250 10:23 29.01.2021
3170 Clouds 8 993 93 10000 2.06 240 09:39 29.01.2021
3171 Clouds 8 992 93 10000 2.06 200 08:50 29.01.2021
3172 Clouds 8 992 93 10000 1.54 200 08:27 29.01.2021
3173 Clouds 8 992 93 10000 1.54 200 07:48 29.01.2021
3174 Clouds 8 992 93 10000 2.06 200 07:30 29.01.2021
3175 Clouds 8 992 93 10000 2.57 200 06:49 29.01.2021
3176 Clouds 8 992 100 10000 2.57 210 04:53 29.01.2021
3177 Clouds 9 992 93 10000 5.14 240 02:26 29.01.2021
3178 Clouds 10 992 93 10000 3.6 220 00:37 29.01.2021
3179 Clouds 10 992 100 10000 3.09 220 00:19 29.01.2021
3180 Clouds 10 993 93 10000 3.6 230 23:39 28.01.2021
3181 Clouds 10 993 93 10000 4.12 190 23:20 28.01.2021
3182 Clouds 10 993 100 10000 3.6 190 22:42 28.01.2021
3183 Clouds 10 994 100 4900 3.09 180 22:24 28.01.2021
3184 Clouds 9 994 100 3400 2.57 170 21:45 28.01.2021
3185 Rain 10 995 93 4000 2.57 190 21:27 28.01.2021
3186 Rain 10 995 93 10000 2.06 180 20:47 28.01.2021
3187 Clouds 9 996 100 10000 2.06 180 20:20 28.01.2021
3188 Clouds 10 996 93 10000 2.57 190 19:57 28.01.2021
3189 Clouds 10 996 93 10000 2.57 190 19:32 28.01.2021
3190 Clouds 10 997 87 10000 2.06 180 18:54 28.01.2021
3191 Clouds 10 997 87 10000 2.06 180 18:35 28.01.2021
3192 Clouds 10 998 87 10000 1.03 0 17:58 28.01.2021
3193 Clouds 10 998 87 10000 1.03 0 17:40 28.01.2021
3194 Clouds 10 998 87 10000 1.54 0 17:21 28.01.2021
3195 Clouds 10 999 87 10000 2.06 200 16:43 28.01.2021
3196 Clouds 10 999 87 10000 2.06 190 16:21 28.01.2021
3197 Clouds 10 999 87 10000 2.57 240 15:36 28.01.2021
3198 Clouds 10 1000 93 10000 2.57 240 14:55 28.01.2021
3199 Clouds 10 1000 93 10000 2.57 240 14:37 28.01.2021
3200 Clouds 10 1000 93 10000 2.57 240 14:37 28.01.2021
3201 Clouds 10 1000 93 10000 2.06 220 14:18 28.01.2021
3202 Clouds 9 1000 100 4400 2.57 230 13:39 28.01.2021
3203 Clouds 8 1000 100 10000 2.06 220 12:51 28.01.2021
3204 Clouds 8 1000 100 10000 2.06 220 12:33 28.01.2021
3205 Drizzle 8 999 100 3500 1.54 0 11:58 28.01.2021
3206 Drizzle 7 999 100 3500 1.54 0 11:39 28.01.2021
3207 Clouds 7 999 100 4000 1.54 0 11:18 28.01.2021
3208 Rain 7 999 100 7000 0.51 0 10:49 28.01.2021
3209 Rain 6 999 100 3500 1.03 350 10:26 28.01.2021
3210 Drizzle 6 998 100 4000 1.54 0 09:42 28.01.2021
3211 Clouds 6 998 100 4000 1.54 80 09:20 28.01.2021
3212 Rain 6 998 100 2900 2.57 70 08:46 28.01.2021
3213 Rain 6 998 100 6000 2.06 10 07:51 28.01.2021
3214 Rain 7 997 93 2400 1.54 0 07:22 28.01.2021
3215 Rain 7 997 93 4900 1.54 0 06:48 28.01.2021
3216 Rain 7 1000 87 10000 4.63 100 04:31 28.01.2021
3217 Rain 7 1003 93 10000 2.57 120 02:46 28.01.2021
3218 Rain 7 1006 93 6000 2.57 80 00:45 28.01.2021
3219 Rain 7 1007 93 5000 1.54 0 23:26 27.01.2021
3220 Rain 7 1008 93 4600 1.03 0 22:57 27.01.2021
3221 Rain 7 1008 93 4600 1.03 0 22:39 27.01.2021
3222 Rain 7 1008 100 5000 1.03 90 22:18 27.01.2021
3223 Rain 7 1009 100 6000 1.03 80 21:41 27.01.2021
3224 Clouds 7 1009 100 6000 1.54 0 21:22 27.01.2021
3225 Clouds 7 1009 100 6000 1.54 0 21:22 27.01.2021
3226 Clouds 7 1009 93 6000 1.03 0 20:41 27.01.2021
3227 Clouds 7 1010 93 6000 1.03 0 19:59 27.01.2021
3228 Clouds 7 1010 93 6000 1.03 0 19:41 27.01.2021
3229 Mist 7 1010 100 4100 1.54 100 19:21 27.01.2021
3230 Mist 8 1010 100 3900 1.03 120 18:43 27.01.2021
3231 Clouds 8 1010 100 9000 1.03 0 18:23 27.01.2021
3232 Clouds 8 1010 93 10000 1.03 130 17:46 27.01.2021
3233 Clouds 9 1010 93 10000 1.03 0 17:26 27.01.2021
3234 Clouds 9 1010 93 9000 1.03 0 16:49 27.01.2021
3235 Clouds 9 1010 93 9000 1.03 0 16:28 27.01.2021
3236 Clouds 9 1010 93 10000 0.51 0 15:51 27.01.2021
3237 Clouds 9 1010 93 10000 0.51 0 15:32 27.01.2021
3238 Clouds 9 1011 93 6000 0.51 0 14:45 27.01.2021
3239 Clouds 9 1011 100 10000 0.51 0 14:22 27.01.2021
3240 Clouds 8 1011 100 10000 0.51 0 13:45 27.01.2021
3241 Clouds 8 1011 100 10000 0.51 0 13:45 27.01.2021
3242 Clouds 8 1011 93 10000 1.03 250 12:58 27.01.2021
3243 Clouds 8 1011 93 10000 1.03 250 12:39 27.01.2021
3244 Clouds 8 1011 93 9000 1.54 250 12:18 27.01.2021
3245 Clouds 8 1011 93 10000 0.51 0 11:44 27.01.2021
3246 Clouds 8 1010 100 9000 2.06 230 11:21 27.01.2021
3247 Clouds 8 1010 100 8000 1.03 0 10:39 27.01.2021
3248 Clouds 7 1010 100 6000 2.06 230 10:19 27.01.2021
3249 Mist 7 1010 100 4900 1.54 230 09:41 27.01.2021
3250 Clouds 7 1009 100 6000 1.54 210 08:59 27.01.2021
3251 Mist 7 1009 100 4600 1.54 0 08:31 27.01.2021
3252 Mist 7 1009 100 3500 1.03 180 07:43 27.01.2021
3253 Mist 8 1009 100 3800 1.03 0 06:58 27.01.2021
3254 Mist 7 1009 93 3900 1.54 0 06:19 27.01.2021
3255 Clouds 7 1009 100 7000 1.54 0 05:39 27.01.2021
3256 Clouds 6 1009 100 9000 2.06 200 03:29 27.01.2021
3257 Clouds 6 1009 100 10000 1.54 0 02:23 27.01.2021
3258 Clouds 5 1008 100 9000 1.54 0 01:48 27.01.2021
3259 Clouds 5 1008 100 2000 1.03 0 00:33 27.01.2021
3260 Clouds 5 1008 100 2400 2.06 180 23:48 26.01.2021
3261 Clouds 5 1008 100 2100 1.03 0 23:28 26.01.2021
3262 Mist 5 1008 100 5000 1.54 0 22:48 26.01.2021
3263 Mist 5 1008 100 3200 1.54 0 22:23 26.01.2021
3264 Mist 4 1008 100 3600 2.06 190 21:53 26.01.2021
3265 Mist 4 1008 100 3600 2.06 190 21:53 26.01.2021
3266 Mist 4 1008 100 3600 2.06 190 21:32 26.01.2021
3267 Drizzle 4 1008 100 1600 2.57 180 20:58 26.01.2021
3268 Drizzle 4 1008 100 1600 2.57 180 20:39 26.01.2021
3269 Clouds 4 1008 100 6000 1.54 0 20:20 26.01.2021
3270 Clouds 4 1008 100 3700 2.06 0 19:44 26.01.2021
3271 Drizzle 4 1008 93 3400 3.09 180 19:20 26.01.2021
3272 Drizzle 4 1008 100 4400 2.57 170 18:47 26.01.2021
3273 Drizzle 4 1009 100 3800 2.06 160 18:27 26.01.2021
3274 Clouds 4 1009 93 4300 2.06 140 17:51 26.01.2021
3275 Rain 4 1009 93 10000 2.57 170 17:30 26.01.2021
3276 Rain 4 1009 93 10000 3.09 160 16:55 26.01.2021
3277 Rain 4 1009 93 10000 3.09 160 16:37 26.01.2021
3278 Clouds 3 1010 100 2900 3.09 160 16:18 26.01.2021
3279 Rain 4 1011 93 4400 2.57 160 15:40 26.01.2021
3280 Clouds 4 1011 93 8000 3.09 150 15:20 26.01.2021
3281 Rain 3 1012 93 7000 2.57 150 14:37 26.01.2021
3282 Rain 4 1012 87 7000 2.06 0 14:18 26.01.2021
3283 Rain 4 1013 87 10000 2.57 160 13:33 26.01.2021
3284 Rain 4 1013 81 10000 2.06 150 12:57 26.01.2021
3285 Rain 4 1013 81 10000 2.06 150 12:38 26.01.2021
3286 Rain 4 1013 81 10000 1.54 0 12:19 26.01.2021
3287 Rain 3 1013 87 10000 2.06 150 11:49 26.01.2021
3288 Rain 3 1014 87 10000 2.06 160 11:19 26.01.2021
3289 Clouds 2 1014 87 10000 2.57 160 10:34 26.01.2021
3290 Clouds 2 1014 87 10000 2.06 160 09:57 26.01.2021
3291 Clouds 2 1014 87 10000 2.06 160 09:39 26.01.2021
3292 Clouds 1 1014 86 10000 1.54 0 09:21 26.01.2021
3293 Snow 1 1014 86 10000 1.54 0 08:44 26.01.2021
3294 Clouds 1 1014 86 10000 1.54 0 07:56 26.01.2021
3295 Clouds 1 1015 86 10000 2.06 180 06:58 26.01.2021
3296 Clouds 0 1015 86 10000 1.54 0 05:51 26.01.2021
3297 Clouds 0 1015 86 10000 1.54 0 05:32 26.01.2021
3298 Clouds -1 1015 93 10000 2.06 160 03:32 26.01.2021
3299 Clouds -1 1014 93 10000 1.54 0 00:59 26.01.2021
3300 Clouds 0 1014 86 10000 1.54 0 00:24 26.01.2021
3301 Clouds 0 1014 93 10000 2.06 170 23:28 25.01.2021
3302 Clouds 1 1014 86 10000 1.54 0 22:44 25.01.2021
3303 Clouds 1 1014 86 10000 1.54 0 22:44 25.01.2021
3304 Clouds 1 1014 93 10000 3.09 220 22:25 25.01.2021
3305 Clouds 1 1014 86 10000 2.06 180 21:41 25.01.2021
3306 Clouds 2 1014 93 10000 2.06 200 21:18 25.01.2021
3307 Clouds 2 1013 93 10000 2.06 210 20:40 25.01.2021
3308 Clouds 2 1013 93 10000 1.54 150 20:20 25.01.2021
3309 Clouds 2 1012 86 10000 1.54 0 19:47 25.01.2021
3310 Clouds 2 1012 80 10000 2.06 240 19:22 25.01.2021
3311 Clouds 3 1012 87 10000 2.57 250 18:44 25.01.2021
3312 Clouds 3 1011 87 10000 3.09 240 18:24 25.01.2021
3313 Clouds 4 1011 81 10000 3.09 250 17:48 25.01.2021
3314 Clouds 5 1011 81 10000 4.12 280 17:24 25.01.2021
3315 Clouds 5 1011 75 10000 5.66 280 16:49 25.01.2021
3316 Clouds 5 1010 75 10000 6.17 280 16:25 25.01.2021
3317 Clouds 6 1010 75 10000 6.17 270 15:55 25.01.2021
3318 Clouds 6 1010 75 10000 6.17 270 15:34 25.01.2021
3319 Clouds 6 1009 75 10000 2.57 0 14:57 25.01.2021
3320 Clouds 6 1009 75 10000 2.57 0 14:38 25.01.2021
3321 Clouds 6 1009 70 10000 6.17 290 14:18 25.01.2021
3322 Clouds 5 1009 70 10000 5.66 290 13:40 25.01.2021
3323 Clear 5 1009 87 10000 2.06 250 13:19 25.01.2021
3324 Clear 4 1008 87 10000 1.54 0 12:40 25.01.2021
3325 Clouds 3 1008 93 10000 1.54 0 12:18 25.01.2021
3326 Clear 2 1008 93 10000 2.06 160 11:27 25.01.2021
3327 Clear 0 1007 100 10000 2.57 170 10:46 25.01.2021
3328 Clear -1 1007 100 10000 1.54 0 10:22 25.01.2021
3329 Clouds -1 1007 100 10000 2.06 180 09:49 25.01.2021
3330 Clouds -1 1006 100 9000 1.54 190 09:28 25.01.2021
3331 Clouds -2 1006 100 10000 1.54 0 08:34 25.01.2021
3332 Clouds -1 1005 100 10000 1.54 160 07:56 25.01.2021
3333 Clouds -2 1005 93 10000 2.06 190 07:28 25.01.2021
3334 Clouds -2 1005 100 10000 2.06 180 06:27 25.01.2021
3335 Clear -3 1004 100 10000 1.54 180 02:23 25.01.2021
3336 Clouds -2 1003 100 10000 0.51 60 00:37 25.01.2021
3337 Clouds -1 1002 93 10000 0.51 0 23:20 24.01.2021
3338 Clouds -1 1001 93 10000 0.51 0 22:48 24.01.2021
3339 Clouds 0 1001 80 10000 1.03 310 22:28 24.01.2021
3340 Clouds 0 1000 80 10000 2.06 320 21:58 24.01.2021
3341 Clouds 0 1000 86 10000 3.09 350 21:30 24.01.2021
3342 Clouds 1 1000 80 10000 3.6 350 20:47 24.01.2021
3343 Clouds 1 999 80 10000 3.6 10 20:23 24.01.2021
3344 Clouds 1 999 80 10000 3.09 20 19:57 24.01.2021
3345 Clouds 1 999 80 10000 3.09 20 19:38 24.01.2021
3346 Clouds 2 998 80 10000 3.09 20 19:19 24.01.2021
3347 Clouds 2 998 80 10000 3.09 30 18:41 24.01.2021
3348 Clouds 2 998 80 10000 3.09 30 18:21 24.01.2021
3349 Clouds 2 997 80 10000 2.57 40 17:57 24.01.2021
3350 Clouds 2 997 80 10000 2.57 40 17:38 24.01.2021
3351 Clouds 2 997 80 10000 3.09 40 17:18 24.01.2021
3352 Clouds 2 996 75 10000 3.6 50 16:41 24.01.2021
3353 Clouds 2 996 69 10000 4.12 50 16:20 24.01.2021
3354 Clouds 3 996 75 10000 3.6 40 15:45 24.01.2021
3355 Clouds 3 996 75 10000 2.57 50 15:20 24.01.2021
3356 Rain 3 996 75 10000 1.54 0 14:51 24.01.2021
3357 Rain 3 996 75 10000 2.57 50 14:26 24.01.2021
3358 Clouds 2 996 80 10000 3.09 30 13:36 24.01.2021
3359 Clouds 2 996 80 10000 2.06 0 12:52 24.01.2021
3360 Clouds 2 996 80 10000 1.54 0 12:24 24.01.2021
3361 Clouds 2 995 86 10000 2.57 70 11:59 24.01.2021
3362 Clouds 2 995 86 10000 2.57 70 11:41 24.01.2021
3363 Clouds 2 995 86 10000 2.57 80 11:20 24.01.2021
3364 Clouds 1 996 86 10000 2.57 80 10:35 24.01.2021
3365 Clouds 0 995 93 10000 1.03 0 09:47 24.01.2021
3366 Clouds 0 995 93 10000 1.03 0 09:19 24.01.2021
3367 Clouds 0 995 93 10000 1.03 0 08:38 24.01.2021
3368 Clouds -1 997 93 10000 1.03 0 03:51 24.01.2021
3369 Clouds -1 997 100 9000 1.54 130 02:19 24.01.2021
3370 Clear -1 997 100 7000 1.54 0 00:56 24.01.2021
3371 Clear -1 997 100 7000 2.06 170 00:21 24.01.2021
3372 Mist -1 997 100 2900 1.54 0 23:34 23.01.2021
3373 Mist -1 997 100 2900 1.54 0 23:34 23.01.2021
3374 Mist -1 997 100 5000 1.54 150 22:59 23.01.2021
3375 Mist -1 997 100 5000 1.54 150 22:40 23.01.2021
3376 Mist 0 997 100 5000 1.54 170 21:59 23.01.2021
3377 Clear 0 996 100 9000 1.54 160 21:23 23.01.2021
3378 Mist 0 996 100 2900 1.03 200 20:55 23.01.2021
3379 Mist 0 996 100 2900 1.03 200 20:37 23.01.2021
3380 Clouds 0 996 100 9000 1.54 0 20:19 23.01.2021
3381 Clouds 1 996 100 6000 1.03 0 19:43 23.01.2021
3382 Clouds 1 996 93 10000 1.54 210 19:20 23.01.2021
3383 Clouds 2 996 100 10000 1.54 250 18:42 23.01.2021
3384 Snow 2 996 93 9000 2.06 230 18:21 23.01.2021
3385 Clouds 2 995 93 10000 1.54 220 17:36 23.01.2021
3386 Clouds 2 995 93 10000 2.06 230 17:18 23.01.2021
3387 Clouds 2 995 87 10000 1.54 0 16:42 23.01.2021
3388 Clouds 2 995 93 10000 1.54 290 15:56 23.01.2021
3389 Clouds 2 995 93 10000 2.06 230 15:29 23.01.2021
3390 Clouds 2 995 100 10000 2.06 230 14:46 23.01.2021
3391 Clouds 2 995 100 10000 2.57 270 14:25 23.01.2021
3392 Clouds 2 995 100 10000 2.06 250 13:49 23.01.2021
3393 Snow 2 994 100 4200 2.06 280 13:24 23.01.2021
3394 Clouds 1 994 100 10000 1.54 0 12:45 23.01.2021
3395 Snow 1 994 100 3200 2.06 250 12:25 23.01.2021
3396 Snow 1 994 100 7000 1.54 0 11:42 23.01.2021
3397 Snow 1 994 100 1700 5.14 280 10:59 23.01.2021
3398 Snow 1 993 100 7000 4.63 250 10:26 23.01.2021
3399 Clouds 1 993 100 7000 2.06 220 09:53 23.01.2021
3400 Mist 1 993 100 4700 1.54 0 09:28 23.01.2021
3401 Mist 1 993 100 4400 2.06 190 08:43 23.01.2021
3402 Mist 1 993 100 4300 1.03 0 07:48 23.01.2021
3403 Mist 1 993 100 3500 1.03 0 06:55 23.01.2021
3404 Snow 1 993 100 6000 2.06 200 03:24 23.01.2021
3405 Clouds 2 993 93 10000 2.06 170 00:33 23.01.2021
3406 Clouds 2 992 93 10000 1.54 200 23:36 22.01.2021
3407 Clouds 2 992 93 10000 2.06 170 22:45 22.01.2021
3408 Clouds 2 992 93 10000 1.54 0 22:21 22.01.2021
3409 Clouds 2 992 93 10000 2.06 200 21:42 22.01.2021
3410 Clouds 3 992 87 10000 2.57 220 21:23 22.01.2021
3411 Clouds 3 992 93 10000 2.57 220 20:46 22.01.2021
3412 Clouds 3 992 93 10000 2.06 190 20:26 22.01.2021
3413 Clouds 3 992 93 10000 1.54 200 19:47 22.01.2021
3414 Clouds 3 992 93 10000 2.06 210 19:19 22.01.2021
3415 Clouds 3 991 87 10000 1.54 210 18:45 22.01.2021
3416 Clouds 4 991 81 10000 1.54 0 18:26 22.01.2021
3417 Clouds 4 991 81 10000 1.54 0 17:48 22.01.2021
3418 Clouds 4 991 81 10000 3.6 230 17:29 22.01.2021
3419 Clouds 5 991 75 10000 5.14 250 16:54 22.01.2021
3420 Clouds 5 991 70 10000 5.14 260 16:30 22.01.2021
3421 Clouds 5 990 75 10000 5.14 240 15:45 22.01.2021
3422 Rain 6 990 70 10000 6.17 250 15:20 22.01.2021
3423 Clouds 6 990 70 10000 5.66 260 14:32 22.01.2021
3424 Clouds 6 991 75 10000 6.17 250 13:53 22.01.2021
3425 Clouds 6 991 75 10000 6.17 250 13:35 22.01.2021
3426 Clouds 5 991 81 10000 2.57 220 12:55 22.01.2021
3427 Clouds 5 991 87 10000 3.09 220 12:26 22.01.2021
3428 Clouds 4 991 75 10000 2.57 210 11:48 22.01.2021
3429 Clouds 4 990 81 10000 3.09 210 11:30 22.01.2021
3430 Clouds 3 990 87 10000 2.57 200 10:46 22.01.2021
3431 Clouds 3 989 87 10000 3.09 200 10:22 22.01.2021
3432 Clouds 3 989 87 10000 3.09 200 09:39 22.01.2021
3433 Clouds 3 988 93 10000 4.63 220 08:57 22.01.2021
3434 Clouds 3 988 87 10000 3.6 210 08:30 22.01.2021
3435 Clouds 2 987 100 10000 2.57 200 07:41 22.01.2021
3436 Clouds 3 986 87 10000 2.06 250 04:39 22.01.2021
3437 Clouds 3 985 93 10000 3.09 220 00:54 22.01.2021
3438 Clouds 3 984 93 10000 1.54 210 00:25 22.01.2021
3439 Clouds 3 984 93 10000 2.57 200 23:42 21.01.2021
3440 Clouds 3 983 93 10000 3.09 220 22:59 21.01.2021
3441 Clouds 3 983 93 10000 3.09 220 22:41 21.01.2021
3442 Clouds 4 983 93 10000 3.6 250 21:44 21.01.2021
3443 Clouds 3 983 93 10000 3.09 230 21:23 21.01.2021
3444 Clouds 4 983 93 10000 4.63 240 20:57 21.01.2021
3445 Clouds 4 983 93 10000 4.63 240 20:39 21.01.2021
3446 Clouds 4 982 81 10000 4.12 230 20:18 21.01.2021
3447 Clouds 4 982 87 10000 3.09 210 19:46 21.01.2021
3448 Rain 4 982 81 10000 3.6 230 19:24 21.01.2021
3449 Clouds 4 982 87 10000 4.12 240 18:42 21.01.2021
3450 Clouds 5 982 81 10000 3.6 220 18:21 21.01.2021
3451 Clouds 5 982 87 10000 2.57 210 17:57 21.01.2021
3452 Clouds 5 982 81 10000 5.14 240 17:21 21.01.2021
3453 Clouds 5 982 75 10000 6.17 250 16:55 21.01.2021
3454 Clouds 5 982 75 10000 6.17 250 16:37 21.01.2021
3455 Clouds 6 981 81 10000 5.66 240 16:18 21.01.2021
3456 Clouds 5 981 81 10000 6.69 250 15:45 21.01.2021
3457 Clouds 5 981 81 10000 9.26 240 15:22 21.01.2021
3458 Rain 5 981 81 10000 8.23 250 14:39 21.01.2021
3459 Rain 5 980 75 10000 8.23 240 14:21 21.01.2021
3460 Clouds 5 980 81 10000 8.75 240 13:42 21.01.2021
3461 Clouds 5 980 81 10000 8.75 230 13:22 21.01.2021
3462 Clouds 5 980 81 10000 7.72 230 12:42 21.01.2021
3463 Clouds 5 979 75 10000 6.69 220 12:23 21.01.2021
3464 Clouds 4 979 81 10000 8.23 230 11:49 21.01.2021
3465 Clouds 4 979 81 10000 5.66 220 11:27 21.01.2021
3466 Clouds 4 978 81 10000 5.14 200 10:51 21.01.2021
3467 Clouds 3 978 81 10000 4.63 210 10:31 21.01.2021
3468 Clouds 3 978 87 10000 4.63 210 09:44 21.01.2021
3469 Clouds 3 978 87 10000 4.12 200 09:25 21.01.2021
3470 Clouds 3 978 87 10000 4.12 200 08:45 21.01.2021
3471 Clouds 2 978 87 10000 4.12 210 08:24 21.01.2021
3472 Rain 3 978 87 10000 5.14 220 07:28 21.01.2021
3473 Clouds 3 977 87 10000 4.63 220 06:54 21.01.2021
3474 Clouds 3 976 87 10000 7.2 240 05:22 21.01.2021
3475 Clouds 2 974 93 10000 7.72 250 02:40 21.01.2021
3476 Snow 1 973 100 4900 4.63 280 00:54 21.01.2021
3477 Snow 1 973 100 500 3.6 270 23:54 20.01.2021
3478 Snow 1 973 100 500 3.6 270 23:32 20.01.2021
3479 Snow 1 973 100 750 3.09 290 22:58 20.01.2021
3480 Snow 1 973 100 750 3.09 290 22:37 20.01.2021
3481 Snow 2 973 93 6000 5.14 310 21:59 20.01.2021
3482 Snow 2 973 93 6000 5.14 310 21:41 20.01.2021
3483 Rain 4 974 93 6000 4.63 300 21:20 20.01.2021
3484 Rain 4 974 93 3600 4.63 300 20:41 20.01.2021
3485 Rain 5 974 100 3400 3.6 310 20:18 20.01.2021
3486 Rain 5 975 100 3000 3.6 270 19:42 20.01.2021
3487 Rain 5 975 93 4600 2.06 260 19:23 20.01.2021
3488 Rain 6 975 100 5000 4.12 290 18:42 20.01.2021
3489 Rain 6 975 100 3300 1.03 0 17:57 20.01.2021
3490 Rain 6 975 100 3300 1.03 0 17:39 20.01.2021
3491 Rain 9 976 93 7000 4.63 200 16:59 20.01.2021
3492 Rain 10 976 93 7000 4.63 200 16:41 20.01.2021
3493 Rain 11 976 100 5000 5.14 180 15:52 20.01.2021
3494 Rain 10 976 100 5000 5.14 180 15:34 20.01.2021
3495 Rain 11 977 93 7000 5.14 190 14:51 20.01.2021
3496 Rain 11 978 93 5000 5.14 180 14:24 20.01.2021
3497 Rain 11 979 93 4900 4.12 180 13:48 20.01.2021
3498 Rain 11 979 93 9000 4.12 180 13:26 20.01.2021
3499 Rain 11 980 100 1800 3.6 200 12:42 20.01.2021
3500 Rain 11 981 93 10000 4.12 180 11:58 20.01.2021
3501 Rain 11 981 93 10000 4.12 180 11:38 20.01.2021
3502 Rain 11 982 100 8000 3.6 190 10:56 20.01.2021
3503 Rain 11 982 100 8000 4.12 190 10:32 20.01.2021
3504 Rain 11 982 100 10000 4.63 190 09:54 20.01.2021
3505 Rain 11 983 100 10000 4.63 190 09:27 20.01.2021
3506 Rain 11 983 100 7000 4.12 180 08:57 20.01.2021
3507 Rain 11 983 100 8000 4.63 190 08:31 20.01.2021
3508 Rain 11 983 93 10000 4.63 190 07:57 20.01.2021
3509 Rain 11 983 93 10000 4.63 190 07:35 20.01.2021
3510 Rain 11 984 100 4500 4.12 190 06:39 20.01.2021
3511 Rain 11 986 100 5000 4.63 210 03:28 20.01.2021
3512 Rain 11 987 100 10000 4.12 190 01:19 20.01.2021
3513 Rain 10 987 100 9000 4.63 190 00:46 20.01.2021
3514 Rain 10 988 93 10000 5.14 190 23:49 19.01.2021
3515 Rain 10 988 93 5000 5.14 190 23:26 19.01.2021
3516 Rain 10 988 93 5000 5.14 190 23:26 19.01.2021
3517 Rain 10 989 93 10000 4.63 190 22:57 19.01.2021
3518 Rain 10 989 93 10000 4.63 190 22:36 19.01.2021
3519 Rain 10 989 93 6000 5.14 190 22:18 19.01.2021
3520 Rain 10 990 93 10000 4.63 190 21:42 19.01.2021
3521 Rain 10 990 93 10000 4.63 190 21:23 19.01.2021
3522 Rain 10 991 100 10000 4.12 190 20:43 19.01.2021
3523 Rain 10 991 100 5000 5.14 190 20:23 19.01.2021
3524 Rain 10 992 87 10000 3.6 190 19:48 19.01.2021
3525 Clouds 10 992 87 10000 4.63 190 19:27 19.01.2021
3526 Clouds 10 992 93 10000 5.14 190 18:46 19.01.2021
3527 Clouds 10 993 87 10000 4.63 190 18:26 19.01.2021
3528 Clouds 10 993 93 10000 5.66 200 17:45 19.01.2021
3529 Clouds 10 994 93 10000 5.14 190 17:25 19.01.2021
3530 Clouds 10 994 87 10000 4.63 190 16:48 19.01.2021
3531 Rain 10 995 93 10000 4.63 190 16:26 19.01.2021
3532 Rain 10 996 87 8000 4.63 210 15:57 19.01.2021
3533 Rain 10 996 87 8000 4.63 210 15:37 19.01.2021
3534 Rain 10 997 87 10000 6.17 210 14:57 19.01.2021
3535 Rain 10 997 87 10000 6.17 210 14:37 19.01.2021
3536 Clouds 10 998 81 10000 5.66 210 14:18 19.01.2021
3537 Clouds 10 998 87 10000 5.14 220 13:39 19.01.2021
3538 Clouds 10 999 87 10000 5.14 230 13:20 19.01.2021
3539 Clouds 10 999 87 10000 4.12 220 12:38 19.01.2021
3540 Clouds 10 999 87 10000 6.17 230 12:19 19.01.2021
3541 Clouds 10 999 87 10000 5.14 220 11:43 19.01.2021
3542 Clouds 9 999 100 10000 3.09 210 11:22 19.01.2021
3543 Rain 8 1000 100 5000 1.54 0 10:50 19.01.2021
3544 Rain 8 1000 100 4200 2.06 200 10:30 19.01.2021
3545 Rain 8 1000 100 2500 2.57 200 09:52 19.01.2021
3546 Rain 8 1000 100 3700 2.06 210 09:21 19.01.2021
3547 Rain 8 1000 100 4900 2.06 220 08:48 19.01.2021
3548 Rain 8 1001 100 6000 2.06 220 07:58 19.01.2021
3549 Rain 8 1001 100 6000 2.57 230 07:22 19.01.2021
3550 Rain 8 1001 100 6000 2.57 220 04:55 19.01.2021
3551 Rain 9 1003 100 6000 3.6 190 02:24 19.01.2021
3552 Rain 8 1005 93 6000 3.6 200 00:47 19.01.2021
3553 Rain 8 1007 100 8000 3.6 180 23:57 18.01.2021
3554 Rain 7 1007 93 5000 3.09 190 23:29 18.01.2021
3555 Rain 7 1008 93 10000 3.6 190 22:46 18.01.2021
3556 Clouds 7 1008 93 10000 4.12 180 22:24 18.01.2021
3557 Clouds 7 1009 93 10000 3.6 180 21:48 18.01.2021
3558 Clouds 7 1010 100 10000 3.6 180 21:24 18.01.2021
3559 Clouds 6 1010 93 6000 3.09 180 20:57 18.01.2021
3560 Clouds 6 1010 93 6000 3.09 180 20:35 18.01.2021
3561 Drizzle 6 1012 100 4200 3.09 180 19:55 18.01.2021
3562 Rain 6 1012 100 4200 3.09 180 19:36 18.01.2021
3563 Clouds 6 1013 100 10000 2.06 180 18:57 18.01.2021
3564 Clouds 6 1013 100 10000 2.06 180 18:38 18.01.2021
3565 Clouds 6 1014 93 7000 3.09 180 18:19 18.01.2021
3566 Clouds 6 1014 93 10000 2.57 180 17:39 18.01.2021
3567 Clouds 6 1015 81 10000 3.09 190 16:55 18.01.2021
3568 Clouds 6 1015 81 10000 3.09 190 16:35 18.01.2021
3569 Clouds 6 1016 75 10000 3.6 200 15:58 18.01.2021
3570 Clouds 6 1016 75 10000 3.6 200 15:40 18.01.2021
3571 Clouds 6 1016 81 10000 3.6 200 15:19 18.01.2021
3572 Clouds 7 1017 81 10000 3.6 210 14:42 18.01.2021
3573 Clouds 7 1017 81 10000 3.6 220 14:24 18.01.2021
3574 Clouds 7 1018 81 10000 4.63 220 13:45 18.01.2021
3575 Clouds 6 1018 81 10000 3.6 230 13:25 18.01.2021
3576 Clouds 6 1019 87 10000 3.6 210 12:49 18.01.2021
3577 Clouds 6 1019 87 10000 3.6 200 12:19 18.01.2021
3578 Clouds 6 1019 87 10000 2.57 210 11:48 18.01.2021
3579 Rain 5 1019 93 10000 2.57 200 11:27 18.01.2021
3580 Clouds 5 1019 87 10000 4.12 210 10:53 18.01.2021
3581 Rain 5 1019 93 10000 4.12 210 10:34 18.01.2021
3582 Rain 5 1019 93 10000 3.6 210 09:43 18.01.2021
3583 Clouds 5 1020 87 10000 3.6 230 09:19 18.01.2021
3584 Rain 5 1020 93 10000 3.6 220 08:47 18.01.2021
3585 Clouds 5 1020 87 10000 3.6 220 07:55 18.01.2021
3586 Rain 5 1020 93 10000 3.09 220 06:56 18.01.2021
3587 Clouds 4 1021 100 10000 2.06 170 04:57 18.01.2021
3588 Clouds 4 1021 100 10000 2.06 170 04:30 18.01.2021
3589 Clouds 4 1021 93 10000 2.06 170 03:53 18.01.2021
3590 Clouds 4 1021 93 10000 2.57 180 03:31 18.01.2021
3591 Clouds 4 1022 93 10000 2.57 180 02:59 18.01.2021
3592 Clouds 4 1022 93 10000 2.57 180 02:20 18.01.2021
3593 Clouds 4 1023 93 10000 2.57 170 00:42 18.01.2021
3594 Clouds 4 1023 93 10000 2.06 170 00:20 18.01.2021
3595 Clouds 4 1023 93 10000 2.57 190 23:44 17.01.2021
3596 Clouds 4 1023 93 10000 2.57 200 23:19 17.01.2021
3597 Clouds 4 1024 87 10000 2.06 200 22:25 17.01.2021
3598 Clouds 4 1024 93 10000 2.57 190 21:57 17.01.2021
3599 Clouds 4 1024 93 10000 2.57 190 21:37 17.01.2021
3600 Clouds 5 1024 93 10000 2.06 180 21:19 17.01.2021
3601 Clouds 5 1024 87 10000 2.57 220 20:41 17.01.2021
3602 Clouds 5 1024 93 10000 2.57 230 20:19 17.01.2021
3603 Clouds 5 1024 87 10000 3.09 250 19:41 17.01.2021
3604 Clouds 6 1024 93 10000 3.09 240 18:59 17.01.2021
3605 Clouds 6 1025 93 10000 3.6 250 18:31 17.01.2021
3606 Clouds 7 1024 87 10000 3.6 260 17:56 17.01.2021
3607 Clouds 7 1024 87 10000 3.6 260 17:37 17.01.2021
3608 Clouds 7 1024 87 10000 3.6 250 17:19 17.01.2021
3609 Clouds 7 1024 81 10000 4.63 260 16:42 17.01.2021
3610 Clouds 7 1024 81 10000 5.14 270 16:19 17.01.2021
3611 Clouds 7 1024 81 10000 5.14 260 15:38 17.01.2021
3612 Clouds 7 1024 81 10000 5.66 270 15:20 17.01.2021
3613 Clouds 7 1024 81 10000 5.14 280 14:44 17.01.2021
3614 Clouds 7 1024 81 10000 5.14 270 14:25 17.01.2021
3615 Clouds 7 1024 81 10000 5.66 290 13:44 17.01.2021
3616 Clouds 7 1024 81 10000 5.66 290 13:26 17.01.2021
3617 Clouds 7 1024 81 10000 5.66 280 12:47 17.01.2021
3618 Clouds 7 1024 81 10000 4.63 290 12:28 17.01.2021
3619 Clouds 6 1023 87 10000 5.66 290 11:26 17.01.2021
3620 Clouds 5 1023 93 10000 3.09 260 10:57 17.01.2021
3621 Clouds 5 1023 93 10000 3.09 260 10:39 17.01.2021
3622 Clouds 5 1022 87 10000 2.57 280 10:18 17.01.2021
3623 Clouds 5 1021 87 10000 1.54 290 09:18 17.01.2021
3624 Clouds 5 1021 87 10000 3.6 290 08:42 17.01.2021
3625 Clouds 5 1021 87 10000 3.6 290 08:42 17.01.2021
3626 Clouds 5 1018 87 10000 4.63 290 04:45 17.01.2021
3627 Clouds 5 1018 87 10000 4.63 280 04:27 17.01.2021
3628 Clouds 7 1017 81 10000 6.69 270 01:38 17.01.2021
3629 Clouds 6 1017 87 10000 6.17 270 00:37 17.01.2021
3630 Clouds 6 1017 87 10000 5.66 270 00:18 17.01.2021
3631 Clouds 7 1017 87 10000 3.6 250 23:46 16.01.2021
3632 Clouds 6 1017 87 10000 3.09 250 23:18 16.01.2021
3633 Clouds 6 1017 81 10000 3.09 250 22:27 16.01.2021
3634 Clouds 6 1017 81 10000 2.06 260 21:58 16.01.2021
3635 Clouds 7 1016 81 10000 3.6 250 21:24 16.01.2021
3636 Clouds 7 1016 81 10000 5.14 270 20:53 16.01.2021
3637 Clouds 7 1016 81 10000 5.14 260 20:29 16.01.2021
3638 Clouds 7 1016 81 10000 6.17 270 19:50 16.01.2021
3639 Clouds 7 1015 81 10000 5.66 280 19:31 16.01.2021
3640 Clouds 7 1015 87 10000 5.66 280 18:47 16.01.2021
3641 Clouds 7 1015 87 10000 6.17 270 18:28 16.01.2021
3642 Clouds 8 1014 81 10000 6.69 270 17:59 16.01.2021
3643 Clouds 8 1014 81 10000 6.69 270 17:39 16.01.2021
3644 Clouds 8 1014 87 10000 6.69 270 17:21 16.01.2021
3645 Clouds 8 1014 87 10000 6.17 270 16:42 16.01.2021
3646 Clouds 8 1014 81 10000 6.69 260 16:19 16.01.2021
3647 Clouds 8 1014 87 10000 6.69 270 15:42 16.01.2021
3648 Clouds 8 1014 81 10000 7.2 260 14:35 16.01.2021
3649 Clouds 8 1014 87 10000 6.17 260 13:54 16.01.2021
3650 Clouds 8 1014 87 10000 6.17 260 13:32 16.01.2021
3651 Clouds 8 1014 87 10000 5.66 250 12:49 16.01.2021
3652 Clouds 7 1014 93 10000 3.09 220 12:31 16.01.2021
3653 Clouds 6 1014 100 10000 2.06 210 11:56 16.01.2021
3654 Clouds 6 1014 100 10000 3.6 180 11:27 16.01.2021
3655 Clouds 6 1013 93 10000 3.6 200 10:59 16.01.2021
3656 Clouds 5 1013 93 10000 3.6 200 10:41 16.01.2021
3657 Rain 5 1013 100 4100 3.6 200 09:54 16.01.2021
3658 Rain 4 1013 93 2300 4.63 180 09:20 16.01.2021
3659 Rain 4 1013 93 10000 5.14 180 08:19 16.01.2021
3660 Rain 4 1014 93 10000 6.17 180 06:49 16.01.2021
3661 Rain 3 1017 93 5000 4.63 170 04:53 16.01.2021
3662 Rain 3 1020 87 10000 3.6 170 03:18 16.01.2021
3663 Clouds 3 1021 87 10000 4.63 170 02:37 16.01.2021
3664 Clouds 2 1024 86 10000 3.09 160 00:45 16.01.2021
3665 Clouds 2 1025 93 10000 3.09 170 00:21 16.01.2021
3666 Clouds 1 1025 93 10000 2.57 160 23:36 15.01.2021
3667 Clouds 1 1026 93 10000 2.57 170 22:38 15.01.2021
3668 Clouds 0 1026 93 10000 2.57 0 22:18 15.01.2021
3669 Clouds 0 1027 93 9000 1.54 0 21:42 15.01.2021
3670 Clouds 0 1027 100 8000 1.54 0 20:47 15.01.2021
3671 Clouds 0 1027 93 8000 1.03 0 20:23 15.01.2021
3672 Clouds 0 1028 93 7000 2.06 150 19:47 15.01.2021
3673 Clouds 0 1028 100 7000 2.06 140 19:26 15.01.2021
3674 Clouds 0 1028 100 7000 1.54 0 18:45 15.01.2021
3675 Clouds 0 1029 100 7000 1.03 0 18:20 15.01.2021
3676 Clouds 0 1029 100 7000 1.54 0 17:58 15.01.2021
3677 Clouds 0 1029 100 7000 1.54 0 17:58 15.01.2021
3678 Clouds 0 1029 100 7000 1.54 0 17:40 15.01.2021
3679 Clouds 0 1029 100 9000 1.54 0 17:19 15.01.2021
3680 Clouds 0 1029 100 9000 1.54 0 17:19 15.01.2021
3681 Clouds 0 1029 100 10000 2.06 140 16:43 15.01.2021
3682 Clouds 0 1029 100 8000 2.06 150 16:22 15.01.2021
3683 Clouds 0 1030 100 7000 1.54 0 15:40 15.01.2021
3684 Clouds 0 1030 100 6000 2.06 160 15:19 15.01.2021
3685 Mist 0 1030 100 3700 2.06 170 14:39 15.01.2021
3686 Fog 0 1030 100 300 2.57 200 14:20 15.01.2021
3687 Fog -1 1031 100 250 1.03 0 13:40 15.01.2021
3688 Fog -1 1031 100 350 1.54 0 13:19 15.01.2021
3689 Fog -1 1031 100 250 1.03 0 12:46 15.01.2021
3690 Fog -1 1031 93 250 1.03 0 12:25 15.01.2021
3691 Fog -1 1031 100 200 1.03 0 11:42 15.01.2021
3692 Fog -1 1031 100 150 1.03 0 11:20 15.01.2021
3693 Fog -1 1031 93 200 1.54 0 10:51 15.01.2021
3694 Fog -2 1031 100 100 1.03 0 10:21 15.01.2021
3695 Fog -2 1030 100 150 1.03 0 09:48 15.01.2021
3696 Fog -2 1030 100 150 1.54 0 09:29 15.01.2021
3697 Fog -2 1029 100 100 1.03 0 08:28 15.01.2021
3698 Fog -1 1029 100 150 1.54 0 07:44 15.01.2021
3699 Fog -2 1029 100 150 1.54 0 07:23 15.01.2021
3700 Mist -2 1029 100 5000 1.03 0 06:36 15.01.2021
3701 Clouds -1 1027 100 6000 1.03 0 02:44 15.01.2021
3702 Clouds 0 1027 100 10000 2.06 50 00:42 15.01.2021
3703 Clouds 1 1026 87 10000 1.03 0 23:30 14.01.2021
3704 Clouds 2 1025 93 10000 1.54 90 22:57 14.01.2021
3705 Clouds 2 1025 93 10000 1.54 90 22:37 14.01.2021
3706 Clouds 2 1025 100 10000 1.54 70 22:19 14.01.2021
3707 Clouds 2 1025 100 10000 1.54 60 21:39 14.01.2021
3708 Clouds 2 1024 87 10000 2.06 50 21:20 14.01.2021
3709 Clouds 2 1024 87 10000 1.54 50 20:47 14.01.2021
3710 Clouds 2 1023 93 10000 2.57 40 20:18 14.01.2021
3711 Clouds 2 1023 93 10000 2.57 40 20:18 14.01.2021
3712 Clouds 2 1023 87 10000 1.54 70 19:38 14.01.2021
3713 Clouds 2 1022 93 10000 1.54 0 19:18 14.01.2021
3714 Clouds 3 1022 93 10000 2.57 60 18:44 14.01.2021
3715 Clouds 3 1021 93 10000 2.57 80 17:59 14.01.2021
3716 Rain 3 1021 93 10000 2.57 80 17:38 14.01.2021
3717 Rain 3 1020 87 10000 2.06 70 17:19 14.01.2021
3718 Clouds 3 1020 87 10000 2.57 80 16:37 14.01.2021
3719 Rain 3 1019 93 10000 2.57 60 15:55 14.01.2021
3720 Rain 3 1019 93 10000 2.57 60 15:34 14.01.2021
3721 Rain 3 1018 93 10000 2.57 60 14:49 14.01.2021
3722 Rain 3 1017 93 10000 2.06 70 14:31 14.01.2021
3723 Rain 3 1017 93 10000 2.57 80 13:56 14.01.2021
3724 Rain 3 1017 93 10000 3.09 70 13:25 14.01.2021
3725 Rain 3 1017 87 10000 3.6 70 12:58 14.01.2021
3726 Rain 3 1016 93 8000 3.6 50 12:23 14.01.2021
3727 Rain 3 1015 93 9000 4.12 30 11:59 14.01.2021
3728 Rain 3 1015 93 9000 4.12 30 11:41 14.01.2021
3729 Rain 4 1014 93 10000 3.09 30 11:19 14.01.2021
3730 Rain 4 1014 93 10000 2.57 70 10:42 14.01.2021
3731 Rain 4 1013 93 10000 2.06 100 10:19 14.01.2021
3732 Rain 4 1013 100 8000 1.54 0 09:42 14.01.2021
3733 Rain 4 1013 100 7000 1.54 0 09:21 14.01.2021
3734 Rain 4 1012 100 7000 1.03 0 08:34 14.01.2021
3735 Rain 4 1012 93 3500 1.54 0 07:58 14.01.2021
3736 Rain 4 1012 93 3500 1.54 0 07:39 14.01.2021
3737 Rain 4 1012 93 3300 2.06 100 06:37 14.01.2021
3738 Rain 4 1013 93 3700 1.54 0 04:57 14.01.2021
3739 Rain 6 1015 100 2200 1.54 0 00:27 14.01.2021
3740 Rain 6 1015 100 4900 1.54 0 23:31 13.01.2021
3741 Rain 6 1015 100 900 1.03 0 22:49 13.01.2021
3742 Rain 6 1015 100 600 1.03 0 22:21 13.01.2021
3743 Rain 6 1015 100 900 1.03 0 21:43 13.01.2021
3744 Fog 6 1015 100 900 2.06 40 21:22 13.01.2021
3745 Rain 6 1015 100 800 0.51 0 20:51 13.01.2021
3746 Rain 5 1015 100 600 0.51 0 20:23 13.01.2021
3747 Fog 5 1015 100 650 0.51 0 19:48 13.01.2021
3748 Mist 5 1016 100 1000 0.51 0 19:24 13.01.2021
3749 Rain 5 1016 100 1000 0.51 70 18:46 13.01.2021
3750 Rain 5 1016 100 1200 0.51 0 18:25 13.01.2021
3751 Drizzle 5 1016 100 1100 1.03 130 17:42 13.01.2021
3752 Drizzle 5 1016 100 2300 1.03 120 17:18 13.01.2021
3753 Rain 5 1016 100 1700 0.51 0 16:42 13.01.2021
3754 Rain 5 1016 100 1600 1.03 0 16:21 13.01.2021
3755 Rain 5 1016 100 1800 1.03 0 15:41 13.01.2021
3756 Rain 5 1016 100 2200 0.51 60 15:20 13.01.2021
3757 Rain 4 1017 100 1600 1.03 0 14:28 13.01.2021
3758 Rain 4 1017 100 1600 1.03 0 13:46 13.01.2021
3759 Rain 4 1017 100 1100 2.06 30 13:21 13.01.2021
3760 Drizzle 3 1017 100 2400 1.03 80 12:45 13.01.2021
3761 Rain 3 1017 100 1700 2.06 40 12:24 13.01.2021
3762 Rain 3 1017 100 2300 1.03 0 11:50 13.01.2021
3763 Rain 2 1017 100 2300 1.03 0 11:32 13.01.2021
3764 Rain 2 1017 100 2500 0.51 0 10:48 13.01.2021
3765 Rain 2 1017 93 3300 1.03 60 10:27 13.01.2021
3766 Rain 2 1017 93 3700 0.51 70 09:40 13.01.2021
3767 Rain 2 1017 93 5000 0.51 0 08:59 13.01.2021
3768 Rain 2 1017 93 5000 0.51 0 08:40 13.01.2021
3769 Rain 2 1017 93 7000 1.03 0 08:20 13.01.2021
3770 Snow 1 1017 93 6000 1.03 110 07:28 13.01.2021
3771 Rain 1 1018 93 10000 1.03 110 05:52 13.01.2021
3772 Clouds 1 1018 93 9000 1.03 140 04:18 13.01.2021
3773 Clouds 1 1019 93 10000 1.03 120 03:43 13.01.2021
3774 Clouds 1 1019 93 10000 1.03 120 03:21 13.01.2021
3775 Clouds 0 1020 93 10000 1.03 150 00:47 13.01.2021
3776 Clouds 0 1020 100 10000 1.54 0 23:40 12.01.2021
3777 Clouds 0 1019 93 10000 1.54 150 22:57 12.01.2021
3778 Clouds 0 1019 93 10000 1.54 150 22:36 12.01.2021
3779 Clouds 0 1019 100 10000 1.03 0 22:18 12.01.2021
3780 Clouds 0 1019 100 10000 1.03 150 21:42 12.01.2021
3781 Clouds 0 1019 93 10000 1.03 140 21:23 12.01.2021
3782 Clouds 1 1019 100 10000 1.03 170 20:46 12.01.2021
3783 Clouds 1 1019 100 10000 1.03 160 20:26 12.01.2021
3784 Clouds 1 1019 100 10000 1.03 160 20:26 12.01.2021
3785 Clouds 2 1019 86 10000 1.03 190 19:43 12.01.2021
3786 Clouds 2 1018 87 10000 1.03 0 18:54 12.01.2021
3787 Clouds 2 1018 80 10000 1.54 250 18:26 12.01.2021
3788 Clouds 2 1018 87 10000 1.03 0 17:58 12.01.2021
3789 Clouds 3 1018 87 10000 1.03 0 17:33 12.01.2021
3790 Clear 4 1017 65 10000 1.54 330 16:45 12.01.2021
3791 Clear 4 1017 65 10000 2.06 330 16:27 12.01.2021
3792 Clear 5 1016 70 10000 2.06 310 15:50 12.01.2021
3793 Clear 5 1016 60 10000 2.06 330 15:27 12.01.2021
3794 Clear 5 1016 60 10000 2.06 330 14:50 12.01.2021
3795 Clear 5 1016 65 10000 2.06 330 14:30 12.01.2021
3796 Clear 5 1015 60 10000 2.57 320 13:56 12.01.2021
3797 Clear 5 1015 60 10000 2.57 320 13:37 12.01.2021
3798 Clouds 4 1015 70 10000 1.03 0 12:38 12.01.2021
3799 Clouds 3 1014 81 10000 2.06 10 11:45 12.01.2021
3800 Clouds 3 1014 81 10000 2.06 10 11:45 12.01.2021
3801 Clouds 3 1014 93 10000 1.54 10 11:27 12.01.2021
3802 Clouds 3 1013 93 10000 2.06 40 10:44 12.01.2021
3803 Clouds 3 1012 93 10000 3.6 20 10:20 12.01.2021
3804 Clouds 4 1012 93 10000 1.54 30 09:52 12.01.2021
3805 Clouds 4 1011 93 10000 3.6 20 09:23 12.01.2021
3806 Clouds 5 1010 87 10000 4.12 320 08:27 12.01.2021
3807 Clouds 6 1009 93 10000 3.09 310 07:52 12.01.2021
3808 Clouds 6 1009 93 10000 3.09 310 07:33 12.01.2021
3809 Drizzle 7 1008 100 4900 3.6 300 05:45 12.01.2021
3810 Rain 7 1007 100 10000 3.09 270 03:46 12.01.2021
3811 Rain 7 1007 100 9000 3.09 270 03:22 12.01.2021
3812 Rain 7 1007 100 9000 3.09 280 01:51 12.01.2021
3813 Rain 7 1007 100 6000 4.12 280 00:33 12.01.2021
3814 Rain 8 1007 100 2500 3.09 300 23:43 11.01.2021
3815 Rain 8 1007 93 3000 3.6 300 23:20 11.01.2021
3816 Rain 8 1007 100 7000 5.66 260 22:46 11.01.2021
3817 Rain 8 1007 100 6000 3.6 230 22:27 11.01.2021
3818 Rain 9 1008 100 5000 4.63 230 21:46 11.01.2021
3819 Rain 9 1008 93 8000 4.63 220 21:25 11.01.2021
3820 Rain 9 1008 93 10000 4.63 230 20:58 11.01.2021
3821 Rain 8 1008 93 10000 4.63 230 20:37 11.01.2021
3822 Rain 8 1008 93 10000 5.14 230 20:19 11.01.2021
3823 Clouds 8 1009 100 9000 4.63 210 19:42 11.01.2021
3824 Rain 8 1009 100 2900 4.63 220 19:21 11.01.2021
3825 Rain 8 1009 100 9000 5.14 220 18:42 11.01.2021
3826 Clouds 8 1010 100 2400 6.17 230 18:23 11.01.2021
3827 Rain 8 1010 93 3800 5.66 220 17:42 11.01.2021
3828 Rain 8 1010 87 10000 7.2 230 17:24 11.01.2021
3829 Clouds 8 1010 87 10000 6.69 230 16:48 11.01.2021
3830 Clouds 8 1010 93 10000 6.17 230 16:29 11.01.2021
3831 Clouds 8 1011 87 10000 6.17 230 15:54 11.01.2021
3832 Clouds 7 1011 87 10000 6.17 230 15:34 11.01.2021
3833 Rain 7 1012 87 10000 8.23 240 14:51 11.01.2021
3834 Clouds 7 1012 87 10000 8.23 240 14:32 11.01.2021
3835 Rain 7 1012 87 10000 8.23 230 13:46 11.01.2021
3836 Rain 6 1013 93 10000 6.17 220 13:22 11.01.2021
3837 Rain 6 1014 93 10000 4.63 220 12:42 11.01.2021
3838 Clouds 6 1014 87 10000 4.12 210 12:24 11.01.2021
3839 Clouds 6 1014 87 10000 4.12 210 11:45 11.01.2021
3840 Clouds 6 1015 87 10000 5.14 210 10:58 11.01.2021
3841 Clouds 6 1015 87 10000 5.14 210 10:38 11.01.2021
3842 Clouds 6 1015 81 10000 4.12 200 09:54 11.01.2021
3843 Clouds 6 1015 81 10000 4.12 200 09:36 11.01.2021
3844 Clouds 6 1015 87 10000 5.14 220 08:52 11.01.2021
3845 Clouds 5 1015 87 10000 5.14 220 08:33 11.01.2021
3846 Clouds 5 1016 87 10000 3.6 220 07:45 11.01.2021
3847 Clouds 6 1016 87 10000 3.6 220 07:25 11.01.2021
3848 Clouds 6 1016 87 10000 3.09 220 06:49 11.01.2021
3849 Clouds 5 1019 93 10000 3.09 230 02:30 11.01.2021
3850 Clouds 5 1020 93 10000 3.09 220 00:41 11.01.2021
3851 Clouds 5 1021 100 9000 3.09 220 23:48 10.01.2021
3852 Clouds 5 1021 93 10000 3.6 220 22:57 10.01.2021
3853 Clouds 5 1021 93 10000 3.6 220 22:38 10.01.2021
3854 Clouds 5 1021 87 10000 3.09 200 22:18 10.01.2021
3855 Clouds 5 1021 87 10000 3.09 200 21:40 10.01.2021
3856 Clouds 5 1021 87 10000 3.09 210 21:18 10.01.2021
3857 Clouds 5 1022 93 10000 2.57 210 20:47 10.01.2021
3858 Clouds 5 1022 87 10000 2.57 200 20:27 10.01.2021
3859 Clouds 5 1022 87 10000 2.57 200 19:40 10.01.2021
3860 Clouds 5 1022 87 10000 2.06 200 19:22 10.01.2021
3861 Clouds 5 1022 87 10000 2.57 210 18:45 10.01.2021
3862 Clouds 5 1022 87 10000 2.57 200 18:20 10.01.2021
3863 Clouds 5 1023 93 10000 2.57 190 17:26 10.01.2021
3864 Clouds 5 1023 93 10000 2.57 200 16:50 10.01.2021
3865 Clouds 5 1023 93 10000 3.09 210 16:30 10.01.2021
3866 Clouds 5 1023 93 10000 3.09 210 15:41 10.01.2021
3867 Clouds 5 1023 100 10000 3.09 210 15:22 10.01.2021
3868 Clouds 5 1023 100 10000 2.57 190 14:41 10.01.2021
3869 Clouds 5 1024 100 9000 2.57 210 14:22 10.01.2021
3870 Clouds 4 1024 93 9000 1.54 0 13:43 10.01.2021
3871 Clouds 4 1024 100 5000 1.54 0 13:24 10.01.2021
3872 Clouds 4 1025 100 10000 2.06 200 12:56 10.01.2021
3873 Clouds 4 1025 100 10000 2.06 200 12:38 10.01.2021
3874 Clouds 3 1025 100 6000 2.06 190 11:56 10.01.2021
3875 Clouds 3 1025 100 5000 1.54 190 11:21 10.01.2021
3876 Clouds 3 1025 93 10000 1.54 0 10:51 10.01.2021
3877 Clouds 2 1024 93 10000 2.57 170 10:24 10.01.2021
3878 Clouds 2 1024 100 10000 1.54 0 09:45 10.01.2021
3879 Clouds 2 1024 100 9000 1.54 0 08:27 10.01.2021
3880 Clouds 2 1025 93 9000 1.54 0 07:46 10.01.2021
3881 Clouds 2 1025 93 10000 1.54 0 06:22 10.01.2021
3882 Clouds 2 1025 93 10000 1.54 0 05:46 10.01.2021
3883 Clouds 2 1025 93 10000 2.06 200 05:27 10.01.2021
3884 Clouds 1 1025 93 10000 1.54 0 01:42 10.01.2021
3885 Clouds 1 1026 93 10000 1.54 0 00:21 10.01.2021
3886 Clouds 1 1026 93 10000 2.06 180 23:41 09.01.2021
3887 Clouds 1 1026 93 10000 2.06 160 23:20 09.01.2021
3888 Clouds 1 1026 93 10000 1.54 0 22:21 09.01.2021
3889 Clouds 1 1026 100 10000 1.54 0 21:58 09.01.2021
3890 Clouds 1 1026 100 10000 1.54 0 21:39 09.01.2021
3891 Clouds 1 1026 93 10000 2.06 180 21:20 09.01.2021
3892 Clouds 1 1026 93 10000 1.54 0 20:47 09.01.2021
3893 Clouds 1 1026 93 10000 2.06 180 20:28 09.01.2021
3894 Clouds 1 1026 93 10000 2.06 190 19:39 09.01.2021
3895 Clouds 2 1026 93 10000 2.06 190 19:20 09.01.2021
3896 Clouds 2 1026 93 10000 2.57 190 18:37 09.01.2021
3897 Clouds 2 1026 93 10000 1.54 0 17:53 09.01.2021
3898 Clouds 2 1026 93 10000 1.54 0 17:33 09.01.2021
3899 Clouds 2 1026 87 9000 1.54 0 16:56 09.01.2021
3900 Clouds 2 1026 87 10000 1.54 0 16:22 09.01.2021
3901 Clouds 2 1026 87 10000 2.06 220 15:41 09.01.2021
3902 Clouds 2 1026 93 10000 1.54 0 15:19 09.01.2021
3903 Clouds 2 1026 87 10000 2.06 210 14:37 09.01.2021
3904 Clouds 2 1026 87 10000 2.06 210 14:37 09.01.2021
3905 Clouds 2 1026 93 10000 1.54 0 14:18 09.01.2021
3906 Clouds 1 1026 100 6000 1.54 0 13:43 09.01.2021
3907 Mist 1 1027 100 2900 0.51 0 13:24 09.01.2021
3908 Fog 0 1027 100 100 1.03 0 12:28 09.01.2021
3909 Fog 0 1027 100 100 1.03 0 11:58 09.01.2021
3910 Fog 0 1027 100 100 1.03 0 11:38 09.01.2021
3911 Fog -1 1027 100 50 0.51 250 11:18 09.01.2021
3912 Fog -1 1027 100 350 1.03 150 10:42 09.01.2021
3913 Fog -1 1026 100 50 0.51 0 10:22 09.01.2021
3914 Fog -1 1026 100 100 0.51 0 09:43 09.01.2021
3915 Fog -1 1026 100 200 1.54 0 09:20 09.01.2021
3916 Mist 0 1026 100 3700 0.51 100 07:48 09.01.2021
3917 Mist 1 1025 100 4500 0.51 0 06:42 09.01.2021
3918 Mist 1 1025 100 4900 1.03 0 06:23 09.01.2021
3919 Clouds 1 1025 100 7000 0.51 0 03:49 09.01.2021
3920 Clouds 1 1024 100 10000 1.03 0 02:40 09.01.2021
3921 Clouds 1 1024 100 10000 1.54 0 02:22 09.01.2021
3922 Clouds 1 1024 93 10000 1.03 0 01:24 09.01.2021
3923 Clouds 1 1024 93 10000 1.03 0 00:28 09.01.2021
3924 Clouds 1 1024 100 10000 2.06 60 23:41 08.01.2021
3925 Clouds 1 1023 100 10000 2.06 60 22:39 08.01.2021
3926 Clouds 2 1023 93 10000 1.03 20 21:52 08.01.2021
3927 Clouds 2 1022 93 10000 1.54 0 20:59 08.01.2021
3928 Clouds 2 1022 93 10000 1.54 0 20:34 08.01.2021
3929 Clouds 2 1022 93 10000 2.57 40 19:57 08.01.2021
3930 Clouds 2 1021 93 10000 3.6 50 19:24 08.01.2021
3931 Clouds 2 1021 93 10000 3.6 50 18:53 08.01.2021
3932 Clouds 2 1021 93 10000 2.06 70 18:31 08.01.2021
3933 Clouds 2 1020 93 10000 4.12 50 17:50 08.01.2021
3934 Clouds 2 1020 93 10000 4.63 40 17:24 08.01.2021
3935 Clouds 3 1020 93 10000 5.14 30 16:47 08.01.2021
3936 Clouds 3 1019 87 10000 5.66 30 15:45 08.01.2021
3937 Clouds 3 1019 87 10000 5.14 30 15:25 08.01.2021
3938 Rain 3 1018 87 10000 5.66 30 14:36 08.01.2021
3939 Rain 3 1018 93 10000 4.12 50 13:48 08.01.2021
3940 Clouds 3 1018 93 10000 5.14 30 13:21 08.01.2021
3941 Clouds 3 1018 87 10000 6.17 20 12:49 08.01.2021
3942 Clouds 3 1018 93 10000 4.12 20 12:20 08.01.2021
3943 Clouds 2 1018 93 10000 3.6 10 11:46 08.01.2021
3944 Clouds 2 1018 93 10000 3.09 320 11:27 08.01.2021
3945 Clouds 2 1017 93 10000 3.6 320 10:53 08.01.2021
3946 Clouds 2 1017 93 10000 3.6 320 10:34 08.01.2021
3947 Clouds 2 1017 100 10000 3.6 330 09:46 08.01.2021
3948 Clouds 2 1017 100 6000 2.57 310 09:28 08.01.2021
3949 Mist 1 1016 100 4700 2.06 310 08:38 08.01.2021
3950 Snow 1 1016 100 1700 1.54 300 07:27 08.01.2021
3951 Rain 1 1016 100 2000 2.06 290 05:55 08.01.2021
3952 Mist 1 1016 93 4000 1.03 0 23:48 07.01.2021
3953 Rain 2 1016 100 6000 0.51 0 23:30 07.01.2021
3954 Mist 2 1016 93 5000 1.54 30 22:47 07.01.2021
3955 Mist 2 1016 93 4600 0.51 0 22:26 07.01.2021
3956 Mist 2 1016 100 5000 0.51 0 21:45 07.01.2021
3957 Mist 2 1016 93 5000 1.03 0 21:26 07.01.2021
3958 Snow 1 1016 100 1900 0.51 0 20:47 07.01.2021
3959 Snow 1 1016 100 1900 0.51 0 20:47 07.01.2021
3960 Snow 1 1016 100 1900 0.51 0 20:47 07.01.2021
3961 Snow 1 1016 93 5000 1.03 0 20:28 07.01.2021
3962 Rain 1 1016 93 7000 1.03 0 19:44 07.01.2021
3963 Snow 1 1016 93 10000 1.03 0 19:21 07.01.2021
3964 Rain 1 1016 100 10000 1.03 0 18:30 07.01.2021
3965 Rain 1 1016 100 10000 1.03 0 18:30 07.01.2021
3966 Rain 1 1016 100 10000 1.03 0 17:47 07.01.2021
3967 Rain 1 1016 93 4100 1.54 0 17:27 07.01.2021
3968 Snow 1 1016 93 10000 1.03 0 16:53 07.01.2021
3969 Rain 1 1016 100 10000 1.03 0 16:27 07.01.2021
3970 Rain 1 1016 100 10000 1.03 0 15:41 07.01.2021
3971 Clouds 1 1017 100 10000 1.03 0 14:55 07.01.2021
3972 Clouds 1 1017 100 10000 1.03 0 14:27 07.01.2021
3973 Clouds 0 1017 100 10000 0.51 0 13:45 07.01.2021
3974 Clouds 0 1018 100 8000 1.54 0 13:18 07.01.2021
3975 Fog 0 1019 100 300 0.5 0 12:42 07.01.2021
3976 Fog 0 1019 100 300 0.5 0 11:54 07.01.2021
3977 Fog -1 1019 100 250 1.5 0 11:35 07.01.2021
3978 Fog -1 1019 100 200 1 0 10:50 07.01.2021
3979 Clouds -1 1019 100 7000 1 140 10:20 07.01.2021
3980 Mist -1 1019 100 4500 1 0 09:47 07.01.2021
3981 Mist -1 1018 100 2700 1.5 310 09:19 07.01.2021
3982 Mist -1 1018 100 2500 1.5 0 08:29 07.01.2021
3983 Mist -1 1019 100 3200 0.5 0 07:48 07.01.2021
3984 Clouds -1 1019 92 8000 0.5 0 07:22 07.01.2021
3985 Mist -4 1019 100 4100 0.5 0 04:30 07.01.2021
3986 Mist -2 1021 100 3000 0.5 0 00:29 07.01.2021
3987 Mist -2 1021 92 1500 0.5 270 23:45 06.01.2021
3988 Mist -1 1021 100 2900 1 140 22:39 06.01.2021
3989 Clouds -1 1021 100 7000 1 50 21:44 06.01.2021
3990 Clouds -1 1021 100 7000 1 50 21:23 06.01.2021
3991 Clouds -1 1021 100 8000 0.5 0 20:51 06.01.2021
3992 Clouds 0 1021 92 6000 0.5 0 20:24 06.01.2021
3993 Clouds 0 1021 92 6000 0.5 0 19:49 06.01.2021
3994 Clouds 0 1021 92 10000 0.5 0 19:30 06.01.2021
3995 Clouds 1 1021 92 10000 1 0 18:59 06.01.2021
3996 Clouds 1 1021 92 10000 1 0 18:36 06.01.2021
3997 Clouds 1 1021 90 10000 0.5 0 18:18 06.01.2021
3998 Clouds 2 1021 90 10000 1.5 320 17:41 06.01.2021
3999 Clear 2 1021 88 10000 1.5 320 17:21 06.01.2021
4000 Clear 4 1021 80 10000 1.5 300 16:39 06.01.2021
4001 Clear 4 1021 80 10000 1.5 310 16:18 06.01.2021
4002 Clear 4 1021 80 10000 1.5 310 15:49 06.01.2021
4003 Clear 4 1021 80 10000 2.1 320 15:24 06.01.2021
4004 Clear 3 1022 86 10000 2.1 280 14:41 06.01.2021
4005 Clouds 4 1022 86 10000 2.6 270 13:56 06.01.2021
4006 Clouds 3 1022 78 10000 2.1 330 13:36 06.01.2021
4007 Clouds 2 1023 80 10000 3.1 330 13:18 06.01.2021
4008 Clear 3 1023 81 10000 3.1 330 12:42 06.01.2021
4009 Clear 2 1023 85 10000 2.6 360 11:46 06.01.2021
4010 Clear 2 1023 90 10000 2.6 360 11:23 06.01.2021
4011 Clear 1 1023 90 10000 2.1 350 10:44 06.01.2021
4012 Clear 1 1023 94 10000 4.1 10 09:52 06.01.2021
4013 Clear 1 1023 86 10000 4.1 10 09:32 06.01.2021
4014 Clouds 1 1023 94 10000 3.6 350 08:52 06.01.2021
4015 Clouds 0 1023 92 10000 2.6 350 08:19 06.01.2021
4016 Clouds 0 1023 100 10000 1 0 07:52 06.01.2021
4017 Clear 1 1023 92 10000 1 0 06:44 06.01.2021
4018 Clouds 0 1023 92 10000 2.1 340 05:29 06.01.2021
4019 Clouds 1 1024 91 10000 3.1 330 03:21 06.01.2021
4020 Clouds 1 1024 91 10000 2.6 320 02:42 06.01.2021
4021 Clouds 1 1024 91 10000 2.6 320 02:20 06.01.2021
4022 Clouds 2 1025 93 8000 3.1 10 23:51 05.01.2021
4023 Clouds 2 1025 93 10000 3.6 20 22:57 05.01.2021
4024 Clouds 2 1025 93 10000 3.6 20 22:38 05.01.2021
4025 Clouds 3 1025 93 10000 4.1 10 22:19 05.01.2021
4026 Clouds 3 1025 87 10000 3.1 20 21:21 05.01.2021
4027 Clouds 2 1025 87 10000 4.1 20 20:30 05.01.2021
4028 Clouds 3 1025 86 10000 5.1 30 19:46 05.01.2021
4029 Clouds 3 1025 86 10000 5.1 30 19:27 05.01.2021
4030 Clouds 3 1024 88 10000 4.6 10 18:50 05.01.2021
4031 Clouds 3 1024 86 10000 4.6 10 18:28 05.01.2021
4032 Clouds 3 1024 86 10000 4.6 30 17:54 05.01.2021
4033 Rain 4 1024 86 10000 3.6 40 17:32 05.01.2021
4034 Clouds 4 1024 89 10000 5.1 40 16:54 05.01.2021
4035 Clouds 4 1024 84 10000 5.7 30 16:24 05.01.2021
4036 Clouds 5 1024 84 10000 6.2 40 15:59 05.01.2021
4037 Clouds 5 1024 84 10000 5.1 30 15:35 05.01.2021
4038 Clouds 5 1024 84 10000 5.1 30 15:35 05.01.2021
4039 Clouds 5 1025 83 10000 5.1 30 14:48 05.01.2021
4040 Clouds 4 1025 76 10000 5.7 30 13:57 05.01.2021
4041 Clouds 4 1025 76 10000 4.6 20 13:36 05.01.2021
4042 Clouds 4 1025 75 10000 4.6 10 13:18 05.01.2021
4043 Clouds 4 1025 75 10000 4.6 20 12:46 05.01.2021
4044 Clear 4 1025 83 10000 4.1 10 12:18 05.01.2021
4045 Clear 3 1025 83 10000 3.6 20 11:31 05.01.2021
4046 Clear 3 1025 87 10000 3.6 20 11:29 05.01.2021
4047 Clouds 3 1025 87 10000 4.1 340 10:44 05.01.2021
4048 Clouds 2 1025 92 10000 3.6 340 10:18 05.01.2021
4049 Clouds 2 1025 92 10000 4.1 350 09:41 05.01.2021
4050 Clouds 2 1025 91 10000 4.1 10 08:45 05.01.2021
4051 Clouds 2 1024 89 10000 4.6 10 08:19 05.01.2021
4052 Clouds 2 1025 89 10000 3.1 340 05:32 05.01.2021
4053 Clouds 3 1025 80 10000 6.7 40 02:58 05.01.2021
4054 Clouds 3 1025 93 10000 5.7 40 00:23 05.01.2021
4055 Clouds 3 1025 93 10000 5.7 30 23:41 04.01.2021
4056 Clouds 3 1025 93 10000 5.7 30 23:21 04.01.2021
4057 Clouds 3 1025 93 10000 5.1 30 22:45 04.01.2021
4058 Clouds 3 1025 93 10000 5.7 40 21:58 04.01.2021
4059 Rain 3 1025 86 10000 5.1 40 21:39 04.01.2021
4060 Rain 3 1025 93 10000 4.6 40 20:58 04.01.2021
4061 Rain 3 1025 93 10000 5.7 30 20:34 04.01.2021
4062 Clouds 3 1025 86 10000 4.6 50 19:59 04.01.2021
4063 Clouds 3 1025 86 10000 6.2 40 19:40 04.01.2021
4064 Clouds 3 1025 86 10000 7.2 40 19:19 04.01.2021
4065 Clouds 3 1025 86 10000 7.2 40 18:40 04.01.2021
4066 Clouds 4 1025 80 10000 5.1 30 17:48 04.01.2021
4067 Clouds 4 1025 80 10000 5.1 30 17:28 04.01.2021
4068 Clouds 4 1025 80 10000 4.6 30 16:57 04.01.2021
4069 Clouds 4 1025 80 10000 4.6 30 16:38 04.01.2021
4070 Clouds 4 1024 80 10000 5.7 30 16:20 04.01.2021
4071 Rain 4 1024 80 10000 5.7 30 15:41 04.01.2021
4072 Clouds 5 1025 80 10000 5.7 50 14:54 04.01.2021
4073 Clouds 5 1025 72 10000 5.1 50 13:56 04.01.2021
4074 Clouds 5 1025 72 10000 5.1 50 13:35 04.01.2021
4075 Clouds 5 1026 80 10000 4.6 40 12:51 04.01.2021
4076 Clouds 4 1026 78 10000 4.6 40 12:25 04.01.2021
4077 Clouds 4 1025 78 10000 4.1 10 11:39 04.01.2021
4078 Clouds 3 1025 82 10000 5.1 20 10:56 04.01.2021
4079 Clouds 3 1025 82 10000 4.6 20 10:38 04.01.2021
4080 Clouds 3 1025 86 10000 4.6 20 10:19 04.01.2021
4081 Clouds 2 1025 86 10000 4.1 30 09:24 04.01.2021
4082 Clouds 3 1025 86 10000 4.6 20 08:50 04.01.2021
4083 Clouds 2 1024 86 10000 4.1 20 08:21 04.01.2021
4084 Clouds 2 1024 86 10000 4.6 40 07:45 04.01.2021
4085 Clouds 2 1024 86 10000 2.6 350 05:35 04.01.2021
4086 Clouds 2 1024 88 10000 4.1 10 04:50 04.01.2021
4087 Clouds 2 1024 84 10000 2.6 350 01:30 04.01.2021
4088 Clouds 2 1024 83 10000 4.1 50 23:55 03.01.2021
4089 Clouds 3 1023 81 10000 4.6 50 23:26 03.01.2021
4090 Clouds 3 1023 81 10000 4.6 60 22:57 03.01.2021
4091 Clouds 3 1023 81 10000 4.6 50 22:38 03.01.2021
4092 Clouds 3 1023 80 10000 4.1 60 22:18 03.01.2021
4093 Clouds 3 1023 80 10000 3.6 50 21:34 03.01.2021
4094 Clouds 3 1023 86 10000 4.6 50 20:53 03.01.2021
4095 Clouds 3 1023 93 10000 4.1 40 20:34 03.01.2021
4096 Clouds 3 1022 86 10000 3.1 40 19:58 03.01.2021
4097 Clouds 3 1022 81 10000 3.6 40 19:37 03.01.2021
4098 Rain 3 1022 92 10000 3.6 40 19:18 03.01.2021
4099 Clouds 4 1021 86 10000 4.1 50 18:41 03.01.2021
4100 Clouds 4 1021 80 10000 4.6 50 18:20 03.01.2021
4101 Clouds 4 1021 86 10000 4.1 30 17:48 03.01.2021
4102 Clouds 4 1021 86 10000 4.1 30 17:23 03.01.2021
4103 Clouds 4 1021 80 10000 6.2 40 16:44 03.01.2021
4104 Clear 4 1021 80 10000 6.2 40 16:20 03.01.2021
4105 Clouds 5 1021 80 10000 5.1 40 15:47 03.01.2021
4106 Clouds 5 1021 80 10000 5.1 40 15:47 03.01.2021
4107 Clouds 5 1021 80 10000 5.1 40 15:28 03.01.2021
4108 Clouds 5 1021 86 10000 4.6 50 14:57 03.01.2021
4109 Clouds 5 1021 86 10000 3.6 50 14:29 03.01.2021
4110 Clouds 4 1021 93 10000 4.1 40 13:42 03.01.2021
4111 Clouds 4 1021 93 10000 4.1 40 13:23 03.01.2021
4112 Rain 4 1021 86 10000 4.6 20 12:33 03.01.2021
4113 Clouds 3 1021 93 10000 2.1 310 11:42 03.01.2021
4114 Clouds 3 1021 93 10000 2.1 310 11:24 03.01.2021
4115 Clouds 2 1020 100 10000 2.6 340 10:36 03.01.2021
4116 Clouds 2 1020 100 10000 2.6 340 10:36 03.01.2021
4117 Clouds 2 1020 100 10000 2.6 340 10:36 03.01.2021
4118 Clouds 2 1020 89 10000 1.5 0 10:18 03.01.2021
4119 Clouds 2 1020 89 10000 2.1 290 09:40 03.01.2021
4120 Clouds 2 1020 90 10000 2.1 290 09:21 03.01.2021
4121 Clouds 2 1019 90 10000 2.6 330 07:38 03.01.2021
4122 Clouds 2 1019 86 10000 3.1 330 05:58 03.01.2021
4123 Clouds 1 1019 87 10000 2.6 300 02:27 03.01.2021
4124 Clouds 1 1019 87 10000 0.5 0 01:44 03.01.2021
4125 Clouds 1 1019 87 10000 0.5 0 01:44 03.01.2021
4126 Clouds 1 1019 89 10000 1 0 00:18 03.01.2021
4127 Clouds 1 1019 91 10000 2.6 320 23:27 02.01.2021
4128 Clouds 1 1019 91 10000 2.6 320 23:27 02.01.2021
4129 Clouds 1 1018 91 10000 2.1 290 22:51 02.01.2021
4130 Clouds 1 1018 91 10000 2.6 300 22:32 02.01.2021
4131 Clouds 1 1018 92 10000 3.6 320 21:49 02.01.2021
4132 Clouds 1 1018 92 10000 3.6 320 21:30 02.01.2021
4133 Rain 2 1018 92 10000 2.6 330 20:49 02.01.2021
4134 Rain 2 1018 90 10000 2.6 330 20:28 02.01.2021
4135 Clouds 2 1018 90 10000 2.1 330 19:50 02.01.2021
4136 Snow 2 1017 89 10000 2.6 330 19:20 02.01.2021
4137 Snow 2 1017 89 10000 2.6 310 18:53 02.01.2021
4138 Snow 2 1017 91 10000 2.6 310 18:33 02.01.2021
4139 Mist 1 1017 89 4900 2.1 300 17:56 02.01.2021
4140 Rain 1 1017 89 3700 1.5 320 17:37 02.01.2021
4141 Snow 1 1017 91 1400 2.1 330 16:48 02.01.2021
4142 Snow 1 1017 91 1400 2.1 330 16:22 02.01.2021
4143 Snow 2 1016 86 5000 2.6 330 15:50 02.01.2021
4144 Rain 2 1016 86 10000 2.1 10 15:28 02.01.2021
4145 Rain 2 1016 80 8000 0.5 0 14:47 02.01.2021
4146 Clouds 1 1016 78 8000 0.5 0 14:26 02.01.2021
4147 Clouds 0 1016 100 9000 0.5 0 13:44 02.01.2021
4148 Clouds 0 1016 81 10000 0.5 0 12:59 02.01.2021
4149 Clouds 0 1017 100 10000 1 130 12:40 02.01.2021
4150 Clear 0 1017 100 10000 1 0 12:19 02.01.2021
4151 Clouds -1 1017 92 10000 0.5 0 11:38 02.01.2021
4152 Clouds -1 1017 100 10000 1 0 11:20 02.01.2021
4153 Clouds -1 1016 100 10000 0.5 0 10:40 02.01.2021
4154 Clouds -2 1016 100 10000 0.5 0 10:21 02.01.2021
4155 Clear -3 1016 100 8000 1.5 0 09:39 02.01.2021
4156 Mist -2 1016 92 5000 1.5 0 09:19 02.01.2021
4157 Clear -3 1017 100 8000 1.5 160 08:46 02.01.2021
4158 Clear -2 1017 100 7000 1.5 180 08:19 02.01.2021
4159 Clouds -2 1017 100 8000 1 160 07:24 02.01.2021
4160 Clouds -2 1017 100 6000 1.5 150 06:57 02.01.2021
4161 Clouds -2 1017 100 6000 1.5 150 06:57 02.01.2021
4162 Fog -2 1017 100 10000 1 140 05:57 02.01.2021
4163 Clouds 0 1017 89 10000 1.5 310 01:59 02.01.2021
4164 Clouds 1 1017 86 10000 0.5 0 00:39 02.01.2021
4165 Clouds 0 1016 91 10000 2.1 300 23:59 01.01.2021
4166 Clouds 0 1016 92 10000 1.5 300 23:24 01.01.2021
4167 Clouds 1 1016 92 10000 2.1 300 22:57 01.01.2021
4168 Clouds 1 1016 92 10000 2.1 300 22:57 01.01.2021
4169 Clouds 0 1016 92 10000 2.1 300 22:37 01.01.2021
4170 Clear 0 1016 91 10000 1.5 280 22:18 01.01.2021
4171 Clear 0 1015 91 10000 1 260 21:42 01.01.2021
4172 Clear 1 1015 90 10000 1 0 21:20 01.01.2021
4173 Clear 1 1015 90 10000 1 0 20:50 01.01.2021
4174 Clear 1 1015 93 10000 3.1 320 20:18 01.01.2021
4175 Clear 2 1014 93 10000 3.1 310 19:42 01.01.2021
4176 Clouds 2 1014 86 10000 2.6 310 19:22 01.01.2021
4177 Clouds 3 1014 86 10000 1 0 18:46 01.01.2021
4178 Clouds 3 1014 86 10000 1 0 18:27 01.01.2021
4179 Clouds 4 1014 93 10000 3.6 320 17:48 01.01.2021
4180 Clouds 4 1014 93 10000 3.6 320 17:23 01.01.2021
4181 Clouds 4 1013 93 10000 3.1 310 16:51 01.01.2021
4182 Clouds 4 1013 93 10000 3.1 320 16:26 01.01.2021
4183 Clouds 4 1013 93 10000 3.1 320 15:42 01.01.2021
4184 Clouds 4 1013 93 10000 3.6 320 14:49 01.01.2021
4185 Clouds 4 1013 93 10000 3.6 320 14:28 01.01.2021
4186 Clouds 3 1013 86 10000 3.1 310 13:40 01.01.2021
4187 Clouds 3 1013 93 10000 0.5 0 12:57 01.01.2021
4188 Clouds 3 1013 100 10000 2.6 310 12:36 01.01.2021
4189 Clouds 2 1013 100 10000 2.1 310 12:18 01.01.2021
4190 Mist 2 1012 100 5000 2.1 310 11:38 01.01.2021
4191 Mist 1 1012 89 2900 1 0 11:18 01.01.2021
4192 Fog 1 1012 89 300 1 250 10:33 01.01.2021
4193 Mist 1 1012 93 1400 0.5 0 09:39 01.01.2021
4194 Fog 1 1011 93 800 0.5 0 08:52 01.01.2021
4195 Fog 1 1011 94 400 0.5 0 08:25 01.01.2021
4196 Fog 1 1010 89 550 1.5 300 04:52 01.01.2021
4197 Rain 1 1009 93 1400 1.5 270 02:25 01.01.2021
4198 Snow 1 1009 89 7000 1.5 340 00:37 01.01.2021
4199 Mist 1 1009 90 4000 1.5 0 23:56 31.12.2020
4200 Mist 1 1008 91 3000 2.6 320 23:22 31.12.2020
4201 Mist 1 1008 91 3000 2.6 320 22:56 31.12.2020
4202 Mist 1 1008 100 3400 2.1 320 22:37 31.12.2020
4203 Mist 1 1008 100 4500 1.5 340 22:19 31.12.2020
4204 Clouds 2 1007 100 6000 2.1 340 21:44 31.12.2020
4205 Clouds 2 1007 100 6000 2.1 340 21:21 31.12.2020
4206 Clouds 2 1007 100 6000 0.5 0 20:31 31.12.2020
4207 Clouds 2 1006 100 6000 1.5 60 19:59 31.12.2020
4208 Clouds 2 1006 100 8000 1.5 70 19:36 31.12.2020
4209 Clouds 2 1006 100 6000 1 0 19:18 31.12.2020
4210 Clouds 2 1006 100 7000 1.5 70 18:41 31.12.2020
4211 Clouds 2 1006 100 7000 1.5 70 18:23 31.12.2020
4212 Clouds 2 1005 100 9000 1 0 17:41 31.12.2020
4213 Clouds 2 1005 100 9000 1 0 17:21 31.12.2020
4214 Clouds 2 1005 100 8000 1 0 16:39 31.12.2020
4215 Clouds 2 1005 100 10000 0.5 0 16:20 31.12.2020
4216 Clouds 2 1004 100 10000 1 0 15:45 31.12.2020
4217 Clouds 2 1004 100 10000 1 0 15:20 31.12.2020
4218 Clouds 2 1004 100 10000 1.5 0 14:44 31.12.2020
4219 Clouds 2 1004 100 10000 1.5 0 14:24 31.12.2020
4220 Fog 2 1005 83 550 1 0 13:59 31.12.2020
4221 Fog 1 1005 83 250 1 0 13:38 31.12.2020
4222 Fog 1 1005 83 150 1 0 13:19 31.12.2020
4223 Fog 1 1005 83 150 1 0 12:50 31.12.2020
4224 Fog 1 1004 100 150 1 0 12:32 31.12.2020
4225 Mist 1 1004 87 3500 1 0 11:47 31.12.2020
4226 Mist 1 1004 90 3500 1 0 11:29 31.12.2020
4227 Snow 1 1004 100 900 1 0 10:45 31.12.2020
4228 Snow 0 1004 100 900 1 0 10:27 31.12.2020
4229 Mist 0 1004 100 3000 0.5 0 09:49 31.12.2020
4230 Rain 0 1004 95 3400 2.1 160 09:24 31.12.2020
4231 Snow 0 1004 100 2000 0.5 0 08:49 31.12.2020
4232 Snow 0 1003 100 4000 1 0 08:31 31.12.2020
4233 Snow 0 1003 100 5000 1 0 07:56 31.12.2020
4234 Mist 0 1003 100 3200 1 0 07:25 31.12.2020
4235 Mist 1 1003 96 3300 1.5 0 05:30 31.12.2020
4236 Fog 0 1003 93 200 1 0 03:37 31.12.2020
4237 Fog 0 1003 92 150 1 0 02:37 31.12.2020
4238 Fog 0 1003 92 200 1.5 0 01:58 31.12.2020
4239 Fog 0 1003 92 200 1 0 01:39 31.12.2020
4240 Fog 0 1004 92 250 0.5 0 01:19 31.12.2020
4241 Fog 0 1004 89 300 1 0 00:39 31.12.2020
4242 Fog 0 1003 89 200 0.5 0 23:41 30.12.2020
4243 Fog 0 1003 89 250 0.5 0 23:18 30.12.2020
4244 Fog 1 1003 89 200 0.5 0 22:36 30.12.2020
4245 Fog 1 1003 90 200 0.5 0 21:54 30.12.2020
4246 Fog 1 1003 89 100 1 230 21:28 30.12.2020
4247 Fog 1 1003 89 100 1 230 21:28 30.12.2020
4248 Fog 1 1003 89 250 1.5 260 20:54 30.12.2020
4249 Mist 2 1003 100 4200 1 0 20:29 30.12.2020
4250 Clouds 1 1003 88 6000 1 0 20:00 30.12.2020
4251 Clouds 1 1003 88 6000 0.5 0 19:37 30.12.2020
4252 Mist 1 1002 85 4100 1 100 19:18 30.12.2020
4253 Mist 1 1002 84 1500 1.5 140 18:40 30.12.2020
4254 Mist 1 1002 82 1500 1.5 140 18:22 30.12.2020
4255 Mist 1 1002 82 3500 1 100 17:48 30.12.2020
4256 Clouds 1 1002 81 10000 1.5 210 17:29 30.12.2020
4257 Clouds 1 1002 81 10000 1.5 210 16:45 30.12.2020
4258 Clouds 2 1002 100 10000 1 0 16:20 30.12.2020
4259 Clouds 2 1002 100 10000 1 0 15:42 30.12.2020
4260 Clouds 2 1001 100 10000 0.5 0 15:24 30.12.2020
4261 Clouds 2 1002 100 10000 1.5 220 14:42 30.12.2020
4262 Clouds 2 1002 100 10000 1.5 200 14:19 30.12.2020
4263 Mist 2 1002 100 5000 0.5 170 13:19 30.12.2020
4264 Clouds 1 1002 100 7000 1 170 12:27 30.12.2020
4265 Clouds 1 1002 84 10000 1 0 11:48 30.12.2020
4266 Clouds 1 1002 89 10000 2.1 270 11:23 30.12.2020
4267 Clouds 0 1002 100 6000 1.5 240 10:58 30.12.2020
4268 Clouds 0 1001 100 6000 1.5 180 10:38 30.12.2020
4269 Fog 0 1001 100 200 0.5 0 10:18 30.12.2020
4270 Fog 0 1001 100 200 0.5 0 10:18 30.12.2020
4271 Mist 0 1001 100 1400 1 0 09:42 30.12.2020
4272 Mist 0 1000 100 3800 1.5 150 08:49 30.12.2020
4273 Clouds 0 1000 92 8000 1 150 07:51 30.12.2020
4274 Clouds 0 1000 92 6000 0.5 0 07:24 30.12.2020
4275 Mist -1 1000 100 1800 1.5 0 06:40 30.12.2020
4276 Mist -1 1000 100 3700 1 0 05:48 30.12.2020
4277 Mist -1 1000 92 3400 1.5 150 05:29 30.12.2020
4278 Mist -2 999 100 3300 1.5 150 03:41 30.12.2020
4279 Mist -2 999 100 3300 1.5 150 03:23 30.12.2020
4280 Mist -2 999 92 3300 1 0 02:32 30.12.2020
4281 Fog -2 999 100 300 1 0 01:46 30.12.2020
4282 Fog -2 999 100 300 1 0 01:28 30.12.2020
4283 Fog -2 999 100 300 1 0 00:41 30.12.2020
4284 Fog -2 999 100 300 1 0 00:22 30.12.2020
4285 Mist -1 998 100 2700 2.1 140 23:43 29.12.2020
4286 Mist -1 998 100 2700 2.1 140 23:24 29.12.2020
4287 Fog -1 998 100 400 1.5 130 22:49 29.12.2020
4288 Fog -1 998 100 400 1.5 130 22:31 29.12.2020
4289 Fog 0 998 100 900 1 0 21:56 29.12.2020
4290 Fog 0 998 92 400 1 0 21:36 29.12.2020
4291 Mist 0 997 92 1100 1 0 20:57 29.12.2020
4292 Mist 0 997 100 1400 1.5 260 20:39 29.12.2020
4293 Clear 0 997 87 10000 0.5 0 20:20 29.12.2020
4294 Clear 1 997 93 10000 0.5 0 19:42 29.12.2020
4295 Clouds 1 997 93 10000 0.5 0 19:21 29.12.2020
4296 Clouds 1 996 93 10000 4.1 310 18:49 29.12.2020
4297 Clouds 2 996 93 10000 4.1 310 18:28 29.12.2020
4298 Clouds 2 995 93 10000 1 0 17:45 29.12.2020
4299 Clouds 2 995 93 10000 1.5 280 17:21 29.12.2020
4300 Clouds 3 994 93 10000 3.6 300 16:52 29.12.2020
4301 Clouds 3 994 93 10000 3.6 300 16:25 29.12.2020
4302 Clouds 3 993 93 10000 1.5 0 15:38 29.12.2020
4303 Clouds 3 993 93 10000 2.1 330 15:19 29.12.2020
4304 Clouds 3 992 93 10000 2.6 310 14:40 29.12.2020
4305 Clouds 3 992 93 10000 2.6 310 14:20 29.12.2020
4306 Clouds 3 992 100 10000 1.5 280 13:48 29.12.2020
4307 Clouds 2 991 100 10000 2.6 310 13:23 29.12.2020
4308 Clouds 2 991 100 10000 2.6 330 12:42 29.12.2020
4309 Clouds 2 991 100 10000 2.6 330 12:23 29.12.2020
4310 Clouds 2 990 100 10000 2.1 330 11:56 29.12.2020
4311 Rain 2 989 100 9000 3.1 330 11:31 29.12.2020
4312 Snow 1 988 93 650 2.6 300 10:37 29.12.2020
4313 Snow 1 988 89 800 2.1 290 09:50 29.12.2020
4314 Rain 1 987 88 1200 1.5 280 09:28 29.12.2020
4315 Snow 1 987 88 3600 0.5 280 08:55 29.12.2020
4316 Mist 0 986 100 3700 0.5 0 08:33 29.12.2020
4317 Mist 0 986 100 1900 0.5 0 07:27 29.12.2020
4318 Mist 0 985 100 2100 2.1 290 06:46 29.12.2020
4319 Fog -1 985 100 1500 0.5 0 05:27 29.12.2020
4320 Clouds 1 982 88 10000 1.5 70 00:55 29.12.2020
4321 Clouds 1 982 86 10000 0.5 0 00:22 29.12.2020
4322 Clouds 2 982 86 10000 1 330 23:36 28.12.2020
4323 Clouds 2 981 100 10000 1.5 270 22:28 28.12.2020
4324 Clouds 2 980 100 10000 1 0 21:46 28.12.2020
4325 Clouds 2 980 100 10000 1 0 21:28 28.12.2020
4326 Clouds 2 980 100 10000 1 0 20:44 28.12.2020
4327 Clouds 2 980 100 10000 1 0 20:44 28.12.2020
4328 Clouds 2 980 100 10000 1 0 20:24 28.12.2020
4329 Clouds 2 979 100 10000 1.5 280 19:50 28.12.2020
4330 Clouds 2 979 100 10000 1.5 0 19:26 28.12.2020
4331 Clouds 2 979 100 9000 2.1 280 18:59 28.12.2020
4332 Clouds 2 979 100 9000 2.1 290 18:30 28.12.2020
4333 Clouds 2 978 93 10000 2.6 290 17:49 28.12.2020
4334 Clouds 2 978 93 10000 2.6 290 17:31 28.12.2020
4335 Clouds 2 978 93 10000 2.1 300 16:59 28.12.2020
4336 Clouds 2 977 80 10000 2.1 350 16:29 28.12.2020
4337 Clouds 3 977 80 10000 2.1 10 15:54 28.12.2020
4338 Clouds 3 977 82 10000 2.1 10 15:33 28.12.2020
4339 Clouds 2 976 84 10000 4.1 40 14:29 28.12.2020
4340 Clouds 2 975 100 10000 3.6 350 13:39 28.12.2020
4341 Clouds 2 975 85 10000 3.1 20 13:19 28.12.2020
4342 Clouds 2 974 85 10000 3.6 40 12:26 28.12.2020
4343 Clouds 2 974 85 10000 3.1 20 11:49 28.12.2020
4344 Clouds 2 974 93 10000 4.1 30 11:30 28.12.2020
4345 Clouds 2 973 100 10000 4.1 30 10:56 28.12.2020
4346 Clouds 2 973 87 10000 3.1 70 10:29 28.12.2020
4347 Rain 2 972 100 10000 2.6 70 09:53 28.12.2020
4348 Rain 2 971 100 10000 2.1 60 09:25 28.12.2020
4349 Rain 2 971 100 7000 2.1 60 08:58 28.12.2020
4350 Snow 1 968 83 1000 2.1 90 06:52 28.12.2020
4351 Rain 2 968 85 10000 2.6 170 05:18 28.12.2020
4352 Clouds 2 968 86 10000 1.5 0 03:34 28.12.2020
4353 Clouds 2 969 100 10000 1 0 01:54 28.12.2020
4354 Clouds 2 969 93 10000 2.1 170 23:52 27.12.2020
4355 Clouds 3 969 93 10000 1.5 0 23:27 27.12.2020
4356 Clouds 3 969 93 10000 2.6 190 22:28 27.12.2020
4357 Clouds 3 969 86 10000 2.1 180 21:47 27.12.2020
4358 Clouds 3 969 86 10000 2.1 200 21:20 27.12.2020
4359 Clouds 3 969 86 10000 2.6 180 19:59 27.12.2020
4360 Clouds 3 969 86 10000 3.1 200 19:24 27.12.2020
4361 Clouds 4 969 73 10000 2.1 180 18:49 27.12.2020
4362 Clouds 4 969 71 10000 4.1 210 18:20 27.12.2020
4363 Clouds 4 969 71 10000 4.1 210 17:55 27.12.2020
4364 Clouds 4 969 71 10000 3.6 220 17:34 27.12.2020
4365 Clouds 5 969 69 10000 4.6 220 16:55 27.12.2020
4366 Clouds 5 969 66 10000 5.1 220 16:21 27.12.2020
4367 Clouds 5 970 75 10000 4.6 220 15:30 27.12.2020
4368 Clouds 5 970 75 10000 6.2 230 14:49 27.12.2020
4369 Clouds 5 970 75 10000 5.7 220 14:31 27.12.2020
4370 Clouds 5 971 80 10000 8.2 230 13:30 27.12.2020
4371 Clouds 5 972 80 10000 6.7 230 12:52 27.12.2020
4372 Clouds 5 972 80 10000 5.1 230 12:22 27.12.2020
4373 Clouds 4 973 86 10000 4.1 220 11:40 27.12.2020
4374 Clouds 3 973 86 10000 3.6 220 10:53 27.12.2020
4375 Rain 3 973 86 10000 3.6 230 10:26 27.12.2020
4376 Clouds 3 973 86 10000 5.7 230 09:58 27.12.2020
4377 Clouds 3 973 86 10000 5.7 250 08:50 27.12.2020
4378 Clouds 3 973 86 10000 6.7 250 08:26 27.12.2020
4379 Clouds 4 973 86 10000 5.7 260 07:28 27.12.2020
4380 Clouds 5 973 87 10000 5.1 230 05:46 27.12.2020
4381 Clouds 6 973 87 10000 4.1 220 04:58 27.12.2020
4382 Clouds 7 975 100 8000 6.7 210 03:22 27.12.2020
4383 Rain 8 980 87 10000 6.2 210 01:46 27.12.2020
4384 Rain 8 983 87 5000 7.7 200 00:25 27.12.2020
4385 Rain 8 986 87 4200 7.2 210 23:41 26.12.2020
4386 Rain 8 987 87 10000 7.7 200 23:21 26.12.2020
4387 Rain 8 989 87 10000 8.2 200 22:38 26.12.2020
4388 Rain 8 989 87 10000 8.2 200 22:18 26.12.2020
4389 Rain 8 990 87 10000 7.2 210 21:52 26.12.2020
4390 Rain 8 992 87 3200 9.8 210 21:24 26.12.2020
4391 Rain 9 995 76 10000 7.7 210 20:43 26.12.2020
4392 Rain 9 995 76 10000 7.7 210 20:19 26.12.2020
4393 Rain 9 998 70 10000 5.1 200 19:29 26.12.2020
4394 Clouds 9 1000 76 10000 5.7 210 18:53 26.12.2020
4395 Clouds 9 1001 70 10000 4.6 210 18:32 26.12.2020
4396 Clouds 9 1002 70 10000 8.2 220 17:44 26.12.2020
4397 Clouds 9 1002 70 10000 8.2 220 17:26 26.12.2020
4398 Clouds 9 1004 70 10000 5.7 220 16:37 26.12.2020
4399 Clouds 9 1006 70 10000 5.7 230 15:52 26.12.2020
4400 Clouds 8 1007 75 10000 4.1 210 15:19 26.12.2020
4401 Clouds 8 1009 75 10000 6.2 220 14:29 26.12.2020
4402 Clouds 8 1010 75 10000 5.7 220 13:54 26.12.2020
4403 Clouds 8 1011 81 10000 4.1 220 13:32 26.12.2020
4404 Clouds 7 1012 87 10000 4.1 220 12:50 26.12.2020
4405 Clouds 7 1013 100 10000 1.5 0 12:30 26.12.2020
4406 Clouds 7 1014 93 10000 2.1 230 11:51 26.12.2020
4407 Clouds 6 1014 93 10000 2.1 210 11:24 26.12.2020
4408 Clouds 6 1015 93 10000 3.1 230 10:55 26.12.2020
4409 Clouds 6 1016 93 9000 5.7 260 10:28 26.12.2020
4410 Clouds 7 1015 91 10000 0.45 360 09:52 26.12.2020
4411 Clouds 7 1015 91 10000 0.89 169 09:31 26.12.2020
4412 Clouds 7 1015 90 10000 0.45 338 08:39 26.12.2020
4413 Clouds 7 1016 90 10000 0.89 174 07:55 26.12.2020
4414 Clouds 6 1019 93 10000 4.6 210 06:47 26.12.2020
4415 Clouds 5 1022 86 10000 3.1 200 03:46 26.12.2020
4416 Clouds 4 1024 86 10000 2.6 180 01:44 26.12.2020
4417 Clouds 4 1025 86 10000 2.1 180 00:27 26.12.2020
4418 Clouds 4 1025 93 10000 3.1 210 23:41 25.12.2020
4419 Clouds 4 1026 93 10000 3.1 200 23:23 25.12.2020
4420 Clouds 3 1026 93 10000 2.6 190 22:48 25.12.2020
4421 Clouds 3 1026 93 10000 2.6 190 22:23 25.12.2020
4422 Clouds 3 1026 86 10000 3.1 190 21:35 25.12.2020
4423 Rain 3 1027 86 10000 2.6 200 20:57 25.12.2020
4424 Clouds 3 1027 86 10000 2.6 200 20:37 25.12.2020
4425 Clouds 3 1028 93 10000 2.1 180 19:49 25.12.2020
4426 Rain 2 1028 93 10000 2.1 180 19:26 25.12.2020
4427 Clouds 2 1029 84 10000 2.1 170 18:39 25.12.2020
4428 Clouds 2 1029 82 10000 2.1 170 17:53 25.12.2020
4429 Clouds 2 1030 86 10000 1 0 17:34 25.12.2020
4430 Clouds 2 1030 86 10000 1 0 16:33 25.12.2020
4431 Rain 1 1031 80 10000 1.5 0 15:59 25.12.2020
4432 Clouds 2 1031 80 10000 1.5 0 15:36 25.12.2020
4433 Snow 1 1031 80 10000 1 0 14:58 25.12.2020
4434 Snow 1 1032 76 10000 1 0 14:29 25.12.2020
4435 Clouds 1 1032 76 10000 1.5 0 13:45 25.12.2020
4436 Clouds 0 1032 76 10000 1.5 0 13:26 25.12.2020
4437 Clouds 0 1032 86 10000 1 0 12:46 25.12.2020
4438 Clouds 0 1032 86 10000 1 0 12:46 25.12.2020
4439 Clouds -1 1032 86 10000 1 0 12:23 25.12.2020
4440 Clouds 0 1032 92 10000 1.5 0 11:44 25.12.2020
4441 Clear -3 1033 92 10000 1.5 170 11:20 25.12.2020
4442 Clear -3 1033 92 10000 1.5 160 10:27 25.12.2020
4443 Clear -3 1033 92 10000 1 0 09:43 25.12.2020
4444 Clear -3 1033 100 10000 1 360 08:48 25.12.2020
4445 Clear -2 1033 100 10000 1 360 08:25 25.12.2020
4446 Clear -3 1033 92 10000 1 150 06:47 25.12.2020
4447 Clear -2 1033 86 10000 0.5 0 04:44 25.12.2020
4448 Clear 0 1032 89 10000 1.5 0 01:50 25.12.2020
4449 Clear 0 1032 86 10000 2.6 310 00:18 25.12.2020
4450 Clear 0 1032 86 10000 4.1 310 23:26 24.12.2020
4451 Clear 1 1032 74 10000 4.1 310 22:51 24.12.2020
4452 Clear 1 1032 74 10000 4.1 300 22:22 24.12.2020
4453 Clear 1 1031 84 10000 3.6 300 21:36 24.12.2020
4454 Clear 1 1031 83 10000 2.1 290 20:42 24.12.2020
4455 Clouds 2 1030 69 10000 3.1 310 18:52 24.12.2020
4456 Clouds 2 1029 74 10000 4.6 330 18:19 24.12.2020
4457 Clouds 3 1029 69 10000 6.7 330 17:37 24.12.2020
4458 Clouds 3 1028 69 10000 4.6 330 16:49 24.12.2020
4459 Clouds 4 1028 69 10000 4.6 330 16:22 24.12.2020
4460 Clouds 4 1027 71 10000 6.7 350 15:42 24.12.2020
4461 Clouds 4 1027 69 10000 5.7 340 15:19 24.12.2020
4462 Clouds 4 1027 69 10000 5.7 340 14:50 24.12.2020
4463 Clouds 4 1026 69 10000 6.2 350 14:24 24.12.2020
4464 Clouds 4 1026 69 10000 4.6 350 13:43 24.12.2020
4465 Clouds 4 1026 69 10000 4.6 350 13:25 24.12.2020
4466 Clear 4 1026 69 10000 3.6 320 12:44 24.12.2020
4467 Clouds 3 1025 74 10000 2.6 320 12:21 24.12.2020
4468 Clear 3 1025 80 10000 2.6 340 11:47 24.12.2020
4469 Clear 2 1025 80 10000 2.6 340 11:20 24.12.2020
4470 Clear 2 1024 86 10000 2.1 300 10:52 24.12.2020
4471 Clear 2 1023 72 10000 2.85 357 10:34 24.12.2020
4472 Clear 1 1023 86 10000 3.1 300 09:52 24.12.2020
4473 Clear 1 1022 86 10000 3.1 320 09:24 24.12.2020
4474 Clear 1 1022 86 10000 2.1 340 08:20 24.12.2020
4475 Clear 1 1021 86 10000 3.1 330 07:39 24.12.2020
4476 Clear 2 1021 86 10000 3.1 330 07:18 24.12.2020
4477 Clear 3 1019 76 10000 3.6 340 04:28 24.12.2020
4478 Clouds 5 1016 75 10000 8.2 10 01:54 24.12.2020
4479 Clouds 6 1016 81 10000 7.2 10 01:32 24.12.2020
4480 Clouds 6 1015 81 10000 8.2 10 00:56 24.12.2020
4481 Clouds 6 1013 75 10000 7.7 10 00:21 24.12.2020
4482 Clouds 7 1013 75 10000 7.2 360 23:44 23.12.2020
4483 Clouds 7 1013 75 10000 7.2 360 23:23 23.12.2020
4484 Clouds 7 1012 75 10000 6.2 360 22:53 23.12.2020
4485 Clouds 7 1012 81 10000 6.7 360 22:29 23.12.2020
4486 Clouds 6 1011 81 10000 6.7 10 21:49 23.12.2020
4487 Rain 6 1010 75 10000 9.3 30 21:25 23.12.2020
4488 Clouds 6 1010 81 10000 9.3 20 20:49 23.12.2020
4489 Clouds 6 1010 81 10000 9.3 20 20:49 23.12.2020
4490 Clouds 6 1009 81 10000 8.2 30 20:31 23.12.2020
4491 Clouds 6 1008 81 10000 9.3 30 19:59 23.12.2020
4492 Clouds 6 1008 75 10000 9.3 30 19:38 23.12.2020
4493 Clouds 6 1007 81 10000 10.8 40 19:19 23.12.2020
4494 Clouds 6 1006 81 10000 10.3 40 18:46 23.12.2020
4495 Clouds 6 1006 81 10000 10.3 40 18:21 23.12.2020
4496 Clouds 6 1006 81 10000 10.3 40 17:37 23.12.2020
4497 Clouds 6 1005 81 10000 10.8 50 17:19 23.12.2020
4498 Clouds 6 1005 87 10000 11.8 50 16:42 23.12.2020
4499 Rain 6 1005 87 10000 11.8 50 16:24 23.12.2020
4500 Clouds 6 1004 87 10000 9.3 50 15:50 23.12.2020
4501 Clouds 6 1004 87 10000 9.3 50 15:27 23.12.2020
4502 Clouds 6 1004 87 10000 7.2 60 14:58 23.12.2020
4503 Clouds 6 1004 87 10000 6.7 50 14:38 23.12.2020
4504 Clouds 6 1004 87 10000 6.7 50 14:20 23.12.2020
4505 Clouds 6 1004 87 10000 6.7 50 14:20 23.12.2020
4506 Clouds 6 1005 87 10000 7.2 50 13:43 23.12.2020
4507 Clouds 6 1005 87 10000 4.6 70 13:19 23.12.2020
4508 Clouds 6 1005 87 10000 4.6 70 12:49 23.12.2020
4509 Clouds 6 1005 87 5000 5.7 70 12:24 23.12.2020
4510 Clouds 6 1005 87 10000 4.6 60 11:46 23.12.2020
4511 Clouds 6 1005 87 10000 3.6 60 11:19 23.12.2020
4512 Clouds 6 1005 87 10000 5.1 70 10:43 23.12.2020
4513 Clouds 6 1005 87 10000 5.1 70 10:25 23.12.2020
4514 Clouds 5 1006 93 10000 3.1 70 09:35 23.12.2020
4515 Clouds 5 1006 100 10000 3.6 70 08:48 23.12.2020
4516 Clouds 5 1006 93 4900 4.1 70 08:21 23.12.2020
4517 Rain 5 1007 93 9000 3.6 70 07:27 23.12.2020
4518 Rain 5 1007 86 10000 4.6 80 06:41 23.12.2020
4519 Clouds 5 1007 93 4900 4.1 80 05:39 23.12.2020
4520 Clouds 5 1008 93 5000 4.1 60 04:58 23.12.2020
4521 Rain 5 1010 100 5000 3.6 70 00:48 23.12.2020
4522 Rain 5 1011 93 6000 3.1 60 00:21 23.12.2020
4523 Rain 5 1011 93 6000 3.1 60 00:21 23.12.2020
4524 Rain 5 1011 93 6000 3.1 60 00:21 23.12.2020
4525 Rain 5 1011 93 10000 2.6 30 23:35 22.12.2020
4526 Rain 5 1011 93 8000 2.6 70 22:58 22.12.2020
4527 Rain 5 1011 93 5000 2.1 50 22:40 22.12.2020
4528 Rain 5 1011 93 5000 2.1 50 22:20 22.12.2020
4529 Rain 5 1011 93 10000 0.5 0 21:44 22.12.2020
4530 Rain 5 1011 93 10000 2.1 80 21:20 22.12.2020
4531 Clouds 5 1011 93 10000 2.1 80 20:49 22.12.2020
4532 Clouds 5 1011 93 10000 1 0 20:22 22.12.2020
4533 Clouds 4 1012 100 10000 1 0 19:44 22.12.2020
4534 Clouds 4 1012 100 10000 1 0 19:25 22.12.2020
4535 Clouds 5 1012 100 10000 1 0 18:55 22.12.2020
4536 Clouds 5 1012 100 10000 1 80 18:30 22.12.2020
4537 Clouds 5 1012 93 10000 1 80 17:59 22.12.2020
4538 Clouds 5 1012 93 10000 0.5 0 17:36 22.12.2020
4539 Clouds 5 1012 93 10000 0.5 0 17:18 22.12.2020
4540 Clouds 5 1012 93 10000 0.5 150 16:42 22.12.2020
4541 Clouds 5 1012 93 10000 1 0 16:19 22.12.2020
4542 Clouds 5 1012 93 10000 1 0 16:19 22.12.2020
4543 Clouds 5 1012 93 10000 0.5 0 15:43 22.12.2020
4544 Clouds 5 1012 93 10000 0.5 0 15:23 22.12.2020
4545 Clouds 5 1012 93 10000 1 0 14:45 22.12.2020
4546 Clouds 5 1012 93 10000 1 0 14:27 22.12.2020
4547 Clouds 5 1013 93 10000 1 0 13:50 22.12.2020
4548 Clouds 5 1013 93 10000 1.5 0 13:20 22.12.2020
4549 Clouds 5 1012 88 10000 0.92 197 12:58 22.12.2020
4550 Clouds 4 1012 100 10000 1 0 12:39 22.12.2020
4551 Clouds 4 1012 93 10000 1 0 12:19 22.12.2020
4552 Clouds 4 1012 100 10000 1 0 11:42 22.12.2020
4553 Clouds 4 1012 100 10000 1 0 11:22 22.12.2020
4554 Clouds 3 1011 100 10000 1 0 10:55 22.12.2020
4555 Clouds 3 1011 93 10000 1 0 10:27 22.12.2020
4556 Clouds 3 1011 100 10000 1.5 0 09:58 22.12.2020
4557 Clouds 3 1011 93 10000 1.5 150 09:30 22.12.2020
4558 Clouds 3 1011 93 10000 2.1 150 08:58 22.12.2020
4559 Clear 3 1010 100 10000 2.1 170 08:39 22.12.2020
4560 Clear 3 1010 100 10000 2.1 180 08:19 22.12.2020
4561 Clouds 3 1009 100 10000 1.5 230 07:27 22.12.2020
4562 Clouds 4 1008 86 10000 1 0 06:32 22.12.2020
4563 Clouds 5 1007 86 10000 3.6 280 05:30 22.12.2020
4564 Clouds 8 1003 93 10000 4.1 310 02:24 22.12.2020
4565 Rain 9 1000 100 10000 4.6 310 00:25 22.12.2020
4566 Clouds 9 999 100 8000 3.1 290 23:46 21.12.2020
4567 Rain 9 999 100 4500 4.1 270 23:21 21.12.2020
4568 Clouds 10 999 100 2900 3.1 260 22:37 21.12.2020
4569 Clouds 10 999 100 2600 3.6 270 22:18 21.12.2020
4570 Clouds 10 999 93 3600 3.6 270 21:47 21.12.2020
4571 Clouds 10 999 93 3600 3.6 270 21:28 21.12.2020
4572 Clouds 11 998 100 10000 2.1 210 20:45 21.12.2020
4573 Clouds 11 998 100 10000 2.1 210 20:21 21.12.2020
4574 Clouds 11 998 100 10000 2.6 210 19:47 21.12.2020
4575 Clouds 11 998 100 10000 2.6 210 19:47 21.12.2020
4576 Clouds 11 998 100 10000 2.6 210 19:22 21.12.2020
4577 Clouds 10 998 100 7000 2.6 190 18:58 21.12.2020
4578 Clouds 10 998 100 4100 2.1 180 18:40 21.12.2020
4579 Clouds 10 998 100 4100 2.1 180 18:40 21.12.2020
4580 Clouds 10 998 100 3900 2.1 180 18:21 21.12.2020
4581 Clouds 10 998 100 3600 2.6 190 17:42 21.12.2020
4582 Clouds 10 998 100 3600 2.6 190 17:23 21.12.2020
4583 Drizzle 10 998 100 4300 2.6 190 16:42 21.12.2020
4584 Clouds 10 998 93 10000 3.1 190 16:20 21.12.2020
4585 Clouds 10 998 93 10000 2.1 190 15:42 21.12.2020
4586 Clouds 10 998 93 10000 2.6 180 14:58 21.12.2020
4587 Clouds 9 999 87 10000 2.6 190 14:23 21.12.2020
4588 Clouds 8 999 93 10000 2.1 170 13:54 21.12.2020
4589 Clouds 9 1000 93 10000 1.5 0 13:35 21.12.2020
4590 Clouds 8 1000 93 6000 2.6 120 12:59 21.12.2020
4591 Clouds 8 1001 87 10000 1.5 0 12:39 21.12.2020
4592 Clouds 8 1001 93 10000 1.5 0 12:19 21.12.2020
4593 Clouds 8 1002 93 10000 2.1 0 11:43 21.12.2020
4594 Clouds 8 1002 93 10000 2.1 0 11:22 21.12.2020
4595 Clouds 8 1002 93 10000 2.1 110 10:57 21.12.2020
4596 Clouds 8 1003 87 10000 2.6 120 10:38 21.12.2020
4597 Rain 8 1003 87 10000 2.1 0 09:55 21.12.2020
4598 Rain 8 1003 87 10000 2.1 0 09:55 21.12.2020
4599 Rain 7 1004 87 10000 2.6 130 09:37 21.12.2020
4600 Rain 7 1005 87 10000 2.6 140 09:18 21.12.2020
4601 Rain 7 1005 93 10000 2.6 140 08:25 21.12.2020
4602 Clouds 6 1008 87 10000 1.5 0 06:48 21.12.2020
4603 Clouds 5 1009 93 10000 2.1 160 04:59 21.12.2020
4604 Clouds 5 1009 86 10000 1.5 0 04:27 21.12.2020
4605 Clouds 5 1011 86 10000 2.6 190 00:36 21.12.2020
4606 Clouds 5 1011 86 10000 3.6 190 23:39 20.12.2020
4607 Clouds 5 1011 86 10000 3.6 190 23:20 20.12.2020
4608 Clouds 5 1011 86 10000 3.6 190 22:43 20.12.2020
4609 Clear 5 1011 86 10000 3.6 190 22:22 20.12.2020
4610 Clear 5 1011 86 10000 3.1 190 21:42 20.12.2020
4611 Clear 5 1011 86 10000 3.1 190 21:22 20.12.2020
4612 Clear 5 1011 86 10000 2.1 160 20:57 20.12.2020
4613 Clear 5 1010 86 10000 2.6 180 20:37 20.12.2020
4614 Clear 5 1010 86 10000 3.1 190 20:18 20.12.2020
4615 Clouds 6 1010 81 10000 3.1 200 19:41 20.12.2020
4616 Clouds 6 1010 81 10000 3.1 200 19:20 20.12.2020
4617 Clouds 6 1009 87 10000 4.1 210 18:45 20.12.2020
4618 Clouds 6 1009 87 10000 4.1 210 18:27 20.12.2020
4619 Clouds 6 1009 87 10000 4.1 210 17:46 20.12.2020
4620 Clouds 7 1009 87 10000 4.1 210 17:28 20.12.2020
4621 Clouds 7 1009 87 10000 4.1 210 17:28 20.12.2020
4622 Clouds 7 1008 87 10000 3.6 200 16:47 20.12.2020
4623 Clouds 7 1008 87 10000 3.6 200 16:28 20.12.2020
4624 Clouds 7 1008 87 10000 3.1 190 15:50 20.12.2020
4625 Clouds 7 1008 87 10000 3.1 190 15:26 20.12.2020
4626 Clouds 7 1008 87 10000 2.6 190 14:56 20.12.2020
4627 Clouds 7 1008 87 6000 5.1 210 14:34 20.12.2020
4628 Rain 7 1007 87 10000 2.6 190 13:48 20.12.2020
4629 Clouds 7 1007 87 10000 2.6 190 13:29 20.12.2020
4630 Clouds 7 1007 93 10000 2.6 190 12:59 20.12.2020
4631 Clouds 7 1007 93 10000 2.6 190 12:39 20.12.2020
4632 Clouds 7 1007 93 10000 2.6 190 12:21 20.12.2020
4633 Rain 6 1007 93 10000 3.1 180 11:44 20.12.2020
4634 Rain 7 1007 93 10000 3.1 180 11:25 20.12.2020
4635 Rain 6 1006 87 10000 3.6 190 10:48 20.12.2020
4636 Clear 6 1006 87 10000 3.6 190 10:20 20.12.2020
4637 Rain 6 1006 87 10000 4.1 200 09:46 20.12.2020
4638 Clear 6 1006 87 10000 4.1 200 09:27 20.12.2020
4639 Clear 6 1005 87 10000 3.1 200 08:58 20.12.2020
4640 Clear 6 1005 87 10000 3.1 190 08:39 20.12.2020
4641 Clouds 6 1005 87 10000 3.6 190 07:27 20.12.2020
4642 Clouds 6 1004 87 10000 4.1 200 05:48 20.12.2020
4643 Rain 7 1003 81 10000 3.6 190 02:20 20.12.2020
4644 Clouds 7 1002 81 10000 3.6 180 00:39 20.12.2020
4645 Clouds 7 1002 87 10000 3.6 190 23:21 19.12.2020
4646 Clouds 7 1002 87 10000 3.6 190 22:57 19.12.2020
4647 Clouds 7 1001 87 10000 3.6 180 22:38 19.12.2020
4648 Clouds 7 1001 87 10000 2.6 180 22:19 19.12.2020
4649 Clouds 7 1001 87 10000 3.1 180 21:42 19.12.2020
4650 Clouds 7 1001 87 10000 3.1 180 21:24 19.12.2020
4651 Clouds 7 1001 87 10000 4.1 180 20:45 19.12.2020
4652 Clouds 7 1001 87 10000 4.1 180 20:21 19.12.2020
4653 Clouds 7 1000 87 10000 3.1 180 19:54 19.12.2020
4654 Clouds 7 1000 87 10000 3.6 190 19:36 19.12.2020
4655 Clouds 7 1000 93 10000 3.6 200 18:43 19.12.2020
4656 Clouds 8 1000 93 10000 3.6 200 18:25 19.12.2020
4657 Clouds 8 999 81 9000 3.6 200 17:49 19.12.2020
4658 Rain 9 999 81 9000 3.6 200 17:28 19.12.2020
4659 Rain 9 999 76 10000 3.1 180 16:55 19.12.2020
4660 Clouds 9 999 76 10000 3.6 180 16:36 19.12.2020
4661 Clouds 9 999 76 10000 3.6 180 16:36 19.12.2020
4662 Clouds 9 998 76 10000 4.1 190 16:18 19.12.2020
4663 Clouds 10 998 76 10000 4.6 190 15:47 19.12.2020
4664 Clouds 10 998 66 10000 5.7 210 14:49 19.12.2020
4665 Clouds 10 998 71 10000 5.7 200 14:24 19.12.2020
4666 Clouds 10 998 76 10000 5.1 200 13:42 19.12.2020
4667 Clouds 10 998 76 10000 5.1 190 13:21 19.12.2020
4668 Clouds 10 998 76 10000 5.1 190 12:54 19.12.2020
4669 Clouds 10 998 87 10000 4.1 180 12:36 19.12.2020
4670 Clouds 10 998 81 10000 3.1 180 12:18 19.12.2020
4671 Clouds 10 997 76 10000 3.6 180 11:40 19.12.2020
4672 Clouds 9 997 87 10000 3.1 190 10:47 19.12.2020
4673 Clouds 9 997 87 10000 3.1 190 10:27 19.12.2020
4674 Clouds 9 997 87 10000 3.6 190 09:59 19.12.2020
4675 Clouds 10 996 87 10000 3.6 180 09:39 19.12.2020
4676 Clouds 10 996 87 10000 2.6 170 08:56 19.12.2020
4677 Clouds 10 996 87 10000 3.1 180 07:56 19.12.2020
4678 Clouds 10 996 87 10000 2.6 180 07:19 19.12.2020
4679 Clouds 10 996 87 10000 2.1 160 06:39 19.12.2020
4680 Rain 10 997 87 10000 3.1 180 05:19 19.12.2020
4681 Clouds 11 997 87 10000 5.7 190 03:29 19.12.2020
4682 Clouds 13 997 82 10000 5.7 170 00:41 19.12.2020
4683 Clouds 13 997 82 10000 4.6 170 00:19 19.12.2020
4684 Clouds 13 998 82 10000 5.1 170 23:48 18.12.2020
4685 Clouds 13 998 82 10000 5.1 170 23:24 18.12.2020
4686 Clouds 13 998 82 10000 4.6 180 22:48 18.12.2020
4687 Clouds 13 998 82 10000 4.6 180 22:24 18.12.2020
4688 Clouds 13 999 87 10000 4.6 170 21:51 18.12.2020
4689 Rain 13 999 87 10000 4.6 170 21:31 18.12.2020
4690 Clouds 12 1000 93 10000 3.1 160 20:43 18.12.2020
4691 Clouds 12 1000 93 10000 3.1 160 20:22 18.12.2020
4692 Clouds 12 1000 87 10000 3.6 160 19:46 18.12.2020
4693 Clouds 13 1000 87 10000 3.6 160 19:22 18.12.2020
4694 Clouds 13 1001 87 10000 3.6 170 18:45 18.12.2020
4695 Clouds 13 1001 87 10000 3.6 170 18:24 18.12.2020
4696 Clouds 13 1001 87 10000 4.6 180 17:30 18.12.2020
4697 Clouds 13 1001 87 10000 5.7 180 16:57 18.12.2020
4698 Clouds 13 1000 87 10000 6.2 170 16:38 18.12.2020
4699 Clouds 13 1001 87 10000 5.7 180 16:20 18.12.2020
4700 Rain 13 1001 87 10000 5.1 170 15:43 18.12.2020
4701 Clouds 13 1000 87 10000 4.1 160 15:24 18.12.2020
4702 Clouds 13 1000 87 10000 4.1 160 14:55 18.12.2020
4703 Clouds 13 1002 87 10000 5.1 180 14:23 18.12.2020
4704 Rain 13 1002 87 10000 5.1 180 13:51 18.12.2020
4705 Rain 13 1002 87 10000 5.1 180 13:31 18.12.2020
4706 Clouds 13 1002 87 10000 5.1 180 12:50 18.12.2020
4707 Clouds 13 1002 87 10000 4.1 160 12:27 18.12.2020
4708 Clouds 13 1004 82 10000 4.1 170 11:26 18.12.2020
4709 Rain 12 1004 93 10000 4.1 170 10:40 18.12.2020
4710 Clouds 12 1004 93 10000 4.6 170 10:21 18.12.2020
4711 Clouds 12 1004 93 10000 4.1 170 09:40 18.12.2020
4712 Clouds 12 1004 93 10000 4.1 170 09:22 18.12.2020
4713 Clouds 12 1004 93 10000 4.1 170 08:57 18.12.2020
4714 Clouds 12 1004 87 10000 3.6 170 08:36 18.12.2020
4715 Clouds 12 1005 87 10000 4.1 180 07:47 18.12.2020
4716 Clouds 12 1005 93 10000 4.1 180 07:19 18.12.2020
4717 Clouds 12 1005 93 10000 4.1 180 06:58 18.12.2020
4718 Clouds 11 1005 93 10000 4.1 180 05:43 18.12.2020
4719 Clouds 11 1005 93 10000 4.1 180 04:51 18.12.2020
4720 Rain 11 1005 87 10000 5.1 180 02:31 18.12.2020
4721 Clouds 10 1006 93 10000 4.6 180 01:41 18.12.2020
4722 Rain 11 1006 87 10000 5.1 180 00:28 18.12.2020
4723 Rain 11 1007 81 10000 4.1 180 23:50 17.12.2020
4724 Rain 11 1008 81 10000 5.1 190 23:19 17.12.2020
4725 Rain 10 1008 87 10000 5.1 180 22:47 17.12.2020
4726 Clouds 10 1008 87 10000 5.1 180 22:27 17.12.2020
4727 Clouds 10 1008 87 10000 4.6 180 21:44 17.12.2020
4728 Clouds 10 1009 81 10000 3.6 170 21:20 17.12.2020
4729 Clouds 10 1009 81 10000 3.6 170 20:43 17.12.2020
4730 Clouds 10 1009 87 10000 4.1 160 20:19 17.12.2020
4731 Clouds 9 1009 87 10000 3.6 180 19:49 17.12.2020
4732 Clouds 9 1009 87 10000 3.6 170 19:25 17.12.2020
4733 Clouds 9 1010 87 10000 3.6 180 18:47 17.12.2020
4734 Clouds 9 1010 87 10000 3.6 180 18:27 17.12.2020
4735 Clouds 9 1010 87 10000 3.6 180 17:58 17.12.2020
4736 Clouds 9 1010 87 10000 3.1 180 17:36 17.12.2020
4737 Clouds 9 1010 93 10000 3.1 180 17:18 17.12.2020
4738 Clouds 9 1010 81 10000 4.6 180 16:37 17.12.2020
4739 Clouds 9 1010 87 10000 3.1 180 16:18 17.12.2020
4740 Clouds 8 1010 87 10000 2.6 170 15:41 17.12.2020
4741 Rain 8 1010 87 5000 3.6 190 15:20 17.12.2020
4742 Clear 8 1010 87 5000 3.6 190 14:47 17.12.2020
4743 Rain 9 1011 81 10000 3.6 200 14:19 17.12.2020
4744 Clear 9 1011 87 10000 3.6 190 13:42 17.12.2020
4745 Clouds 8 1011 87 10000 3.1 190 12:58 17.12.2020
4746 Clouds 8 1011 87 10000 2.6 180 12:38 17.12.2020
4747 Clouds 8 1011 87 10000 3.1 180 12:20 17.12.2020
4748 Clouds 7 1010 93 10000 3.1 180 11:40 17.12.2020
4749 Clouds 6 1010 93 10000 3.1 180 11:20 17.12.2020
4750 Clear 6 1009 93 10000 2.6 180 10:33 17.12.2020
4751 Clear 5 1009 93 10000 3.1 180 09:36 17.12.2020
4752 Clear 5 1008 93 10000 2.6 180 08:40 17.12.2020
4753 Clouds 5 1007 93 10000 2.1 180 07:41 17.12.2020
4754 Clouds 5 1007 93 10000 2.1 180 07:20 17.12.2020
4755 Clouds 6 1007 93 10000 2.1 180 06:45 17.12.2020
4756 Clouds 6 1007 93 10000 2.1 180 06:27 17.12.2020
4757 Clouds 6 1005 87 10000 2.1 170 01:57 17.12.2020
4758 Clouds 6 1004 87 10000 2.1 170 00:19 17.12.2020
4759 Clouds 6 1004 87 10000 2.1 170 23:38 16.12.2020
4760 Clouds 6 1004 93 10000 2.6 190 23:18 16.12.2020
4761 Clouds 6 1004 93 10000 3.1 190 22:47 16.12.2020
4762 Clouds 6 1004 93 10000 3.1 190 22:27 16.12.2020
4763 Clouds 7 1004 93 10000 2.6 180 21:41 16.12.2020
4764 Clouds 7 1003 87 10000 2.6 170 21:21 16.12.2020
4765 Clouds 7 1003 87 10000 2.6 180 20:46 16.12.2020
4766 Clouds 7 1003 87 10000 2.6 190 20:20 16.12.2020
4767 Clouds 8 1002 81 10000 2.1 180 19:37 16.12.2020
4768 Clouds 8 1002 81 10000 2.1 180 19:18 16.12.2020
4769 Clouds 8 1002 81 10000 2.1 180 18:42 16.12.2020
4770 Clouds 8 1002 81 10000 2.1 180 18:22 16.12.2020
4771 Clouds 8 1002 87 10000 3.1 180 17:35 16.12.2020
4772 Clouds 8 1001 87 10000 2.6 190 16:43 16.12.2020
4773 Clouds 8 1000 87 10000 1.5 0 16:24 16.12.2020
4774 Clouds 8 1000 87 10000 1.5 0 15:54 16.12.2020
4775 Clouds 8 1001 93 9000 1.5 0 15:36 16.12.2020
4776 Rain 8 1001 93 7000 2.1 180 14:56 16.12.2020
4777 Rain 8 1001 100 4900 2.6 220 14:37 16.12.2020
4778 Rain 8 1001 100 5000 2.6 210 14:19 16.12.2020
4779 Rain 8 1001 100 1700 4.6 230 13:39 16.12.2020
4780 Rain 9 1000 87 10000 4.6 160 13:19 16.12.2020
4781 Rain 10 1001 81 10000 5.1 160 12:42 16.12.2020
4782 Rain 10 1000 87 10000 4.1 160 11:49 16.12.2020
4783 Clouds 10 1000 87 10000 4.1 160 11:23 16.12.2020
4784 Rain 9 1000 87 10000 5.7 160 10:53 16.12.2020
4785 Rain 9 1000 87 10000 4.6 160 10:27 16.12.2020
4786 Rain 9 1000 87 10000 4.6 160 10:27 16.12.2020
4787 Rain 9 1000 87 10000 5.1 150 09:54 16.12.2020
4788 Rain 9 1000 87 10000 5.1 150 09:24 16.12.2020
4789 Rain 9 1000 87 10000 5.1 150 08:22 16.12.2020
4790 Rain 10 1000 87 10000 5.1 150 07:42 16.12.2020
4791 Clouds 10 1000 87 10000 5.1 150 07:19 16.12.2020
4792 Clouds 9 1003 87 10000 4.1 140 03:35 16.12.2020
4793 Clouds 8 1004 81 10000 3.6 0 01:34 16.12.2020
4794 Clouds 7 1005 87 10000 1.5 0 23:46 15.12.2020
4795 Clouds 7 1005 87 10000 2.1 160 22:59 15.12.2020
4796 Clouds 7 1005 87 10000 2.1 0 22:38 15.12.2020
4797 Clouds 7 1005 87 10000 2.6 170 22:19 15.12.2020
4798 Clouds 7 1004 87 10000 2.1 180 21:43 15.12.2020
4799 Clouds 7 1004 87 10000 2.1 180 21:21 15.12.2020
4800 Clouds 8 1004 81 10000 1.5 0 20:45 15.12.2020
4801 Clear 8 1004 81 10000 1.5 0 20:26 15.12.2020
4802 Clouds 8 1004 81 10000 2.6 180 19:53 15.12.2020
4803 Clouds 8 1003 81 10000 3.1 0 19:30 15.12.2020
4804 Clouds 8 1003 81 10000 1.5 0 18:39 15.12.2020
4805 Clouds 8 1003 81 10000 1.5 0 18:21 15.12.2020
4806 Clouds 9 1002 76 10000 2.6 170 17:46 15.12.2020
4807 Clouds 9 1002 76 10000 2.6 170 17:28 15.12.2020
4808 Clouds 9 1002 76 10000 2.1 170 16:58 15.12.2020
4809 Clouds 9 1002 76 10000 2.6 160 16:31 15.12.2020
4810 Clouds 10 1002 76 10000 3.1 170 15:44 15.12.2020
4811 Clouds 10 1002 76 10000 3.1 170 15:25 15.12.2020
4812 Clouds 10 1002 81 10000 3.6 190 14:43 15.12.2020
4813 Clouds 10 1002 81 10000 3.1 190 14:20 15.12.2020
4814 Clouds 9 1002 76 10000 3.1 180 13:51 15.12.2020
4815 Clouds 9 1002 76 10000 3.1 180 13:26 15.12.2020
4816 Clouds 9 1002 81 10000 3.1 180 12:46 15.12.2020
4817 Clouds 9 1002 81 10000 3.1 180 12:20 15.12.2020
4818 Clouds 8 1001 87 10000 3.1 180 11:52 15.12.2020
4819 Clear 8 1001 87 10000 2.6 170 11:25 15.12.2020
4820 Clouds 7 1001 87 10000 3.1 180 10:52 15.12.2020
4821 Clear 7 1000 81 10000 2.6 170 10:21 15.12.2020
4822 Clear 7 1000 81 10000 2.6 170 09:45 15.12.2020
4823 Clear 7 1000 81 10000 2.6 170 09:27 15.12.2020
4824 Clear 7 999 87 10000 2.6 170 08:47 15.12.2020
4825 Clouds 7 999 87 10000 2.6 170 08:24 15.12.2020
4826 Clouds 7 999 93 10000 2.1 0 07:49 15.12.2020
4827 Clouds 7 999 93 10000 2.6 160 07:23 15.12.2020
4828 Clouds 7 998 93 10000 2.6 170 06:26 15.12.2020
4829 Clouds 8 997 81 10000 2.6 170 00:54 15.12.2020
4830 Clouds 8 997 81 10000 2.1 180 00:34 15.12.2020
4831 Clouds 8 997 81 10000 2.6 180 23:23 14.12.2020
4832 Clouds 8 997 81 10000 3.1 180 22:47 14.12.2020
4833 Clouds 8 997 81 10000 3.1 180 22:26 14.12.2020
4834 Clouds 8 996 87 10000 2.6 190 21:42 14.12.2020
4835 Clouds 8 996 87 10000 2.1 170 21:20 14.12.2020
4836 Clouds 8 996 87 10000 2.6 180 20:48 14.12.2020
4837 Clouds 8 996 87 10000 2.6 180 20:28 14.12.2020
4838 Clouds 8 996 87 10000 2.6 170 19:49 14.12.2020
4839 Rain 8 996 87 10000 2.6 170 19:28 14.12.2020
4840 Clouds 9 995 81 10000 3.1 180 18:44 14.12.2020
4841 Clouds 9 995 81 10000 3.1 180 18:24 14.12.2020
4842 Clouds 9 995 76 10000 3.1 180 17:45 14.12.2020
4843 Clouds 9 995 76 10000 3.1 180 17:22 14.12.2020
4844 Clouds 9 995 76 10000 3.6 190 16:49 14.12.2020
4845 Clouds 9 995 76 10000 3.6 190 16:27 14.12.2020
4846 Clouds 10 994 81 10000 5.1 200 15:33 14.12.2020
4847 Clouds 10 994 76 10000 5.1 200 14:52 14.12.2020
4848 Clouds 10 993 76 10000 4.1 190 14:34 14.12.2020
4849 Clouds 10 994 81 10000 4.6 190 13:58 14.12.2020
4850 Clouds 10 994 81 10000 5.1 190 13:37 14.12.2020
4851 Clouds 10 993 81 10000 4.6 190 12:58 14.12.2020
4852 Clouds 10 993 81 10000 4.1 180 12:40 14.12.2020
4853 Clouds 9 993 81 10000 4.1 0 12:20 14.12.2020
4854 Clouds 10 993 81 10000 4.6 180 11:30 14.12.2020
4855 Clouds 9 992 87 10000 3.6 190 10:29 14.12.2020
4856 Clouds 9 992 87 10000 3.6 180 09:53 14.12.2020
4857 Clouds 9 991 81 10000 4.6 190 09:25 14.12.2020
4858 Clouds 9 991 87 10000 3.6 190 08:45 14.12.2020
4859 Clouds 9 991 87 10000 3.6 190 08:26 14.12.2020
4860 Clouds 9 990 81 10000 4.6 190 07:26 14.12.2020
4861 Clouds 9 990 81 10000 4.6 180 06:44 14.12.2020
4862 Clouds 9 990 81 10000 4.6 180 06:44 14.12.2020
4863 Clouds 10 989 87 10000 3.6 180 04:27 14.12.2020
4864 Clouds 10 990 87 10000 4.1 170 02:25 14.12.2020
4865 Clouds 10 990 87 10000 3.1 170 00:52 14.12.2020
4866 Clouds 10 991 87 10000 3.6 180 00:30 14.12.2020
4867 Clouds 10 991 93 10000 3.6 170 23:46 13.12.2020
4868 Clouds 10 990 87 10000 4.1 180 23:20 13.12.2020
4869 Rain 10 990 87 10000 2.6 170 22:43 13.12.2020
4870 Clouds 10 990 87 10000 3.1 170 22:18 13.12.2020
4871 Clouds 10 991 93 10000 3.6 180 21:42 13.12.2020
4872 Clouds 10 991 93 10000 2.6 160 21:19 13.12.2020
4873 Clouds 10 991 93 10000 2.1 170 20:33 13.12.2020
4874 Clouds 10 991 93 10000 2.1 170 19:50 13.12.2020
4875 Clouds 10 991 93 10000 2.1 170 19:27 13.12.2020
4876 Clouds 10 991 93 10000 3.1 170 18:57 13.12.2020
4877 Clouds 10 991 93 5000 3.6 160 18:39 13.12.2020
4878 Clouds 10 991 93 10000 4.6 160 18:19 13.12.2020
4879 Clouds 10 991 93 10000 4.1 170 17:45 13.12.2020
4880 Clouds 10 991 93 10000 4.1 170 17:18 13.12.2020
4881 Clouds 10 991 93 10000 3.6 160 16:53 13.12.2020
4882 Rain 9 992 93 5000 4.1 160 16:34 13.12.2020
4883 Clouds 9 992 93 10000 5.1 160 15:48 13.12.2020
4884 Rain 9 992 93 10000 5.1 160 15:27 13.12.2020
4885 Rain 8 993 87 8000 5.1 150 14:50 13.12.2020
4886 Rain 8 993 87 10000 5.1 150 14:29 13.12.2020
4887 Clouds 8 994 93 10000 5.1 150 13:58 13.12.2020
4888 Clouds 7 995 87 10000 4.6 0 13:36 13.12.2020
4889 Clouds 7 995 87 10000 5.7 150 13:18 13.12.2020
4890 Rain 7 996 93 6000 5.7 150 12:36 13.12.2020
4891 Rain 7 997 93 8000 5.7 150 12:18 13.12.2020
4892 Rain 7 998 87 10000 4.6 150 11:34 13.12.2020
4893 Clouds 6 999 87 10000 4.1 150 10:46 13.12.2020
4894 Clouds 6 999 87 10000 4.1 150 10:24 13.12.2020
4895 Clouds 5 999 93 9000 4.1 140 09:51 13.12.2020
4896 Rain 5 1001 86 6000 3.1 0 08:53 13.12.2020
4897 Rain 5 1001 86 10000 2.6 130 08:31 13.12.2020
4898 Rain 5 1002 93 10000 2.6 140 07:26 13.12.2020
4899 Clouds 3 1004 93 10000 1.5 0 03:26 13.12.2020
4900 Clouds 4 1005 93 10000 1.5 0 02:32 13.12.2020
4901 Clouds 3 1005 93 10000 1.5 0 01:37 13.12.2020
4902 Clouds 4 1005 100 10000 1.5 0 00:45 13.12.2020
4903 Clouds 4 1005 100 9000 1.5 140 23:45 12.12.2020
4904 Clear 4 1005 100 9000 1.5 140 23:26 12.12.2020
4905 Clouds 5 1005 100 10000 1 0 22:37 12.12.2020
4906 Clouds 5 1004 100 10000 2.1 180 21:47 12.12.2020
4907 Clouds 5 1004 100 10000 2.1 180 21:23 12.12.2020
4908 Clouds 5 1004 93 10000 1 0 20:46 12.12.2020
4909 Clouds 5 1004 93 10000 1 0 20:21 12.12.2020
4910 Clouds 5 1004 100 10000 1 230 19:54 12.12.2020
4911 Clouds 6 1004 100 10000 1 230 19:34 12.12.2020
4912 Clouds 6 1003 93 10000 1 240 18:58 12.12.2020
4913 Clouds 7 1003 87 10000 2.1 270 18:38 12.12.2020
4914 Clouds 7 1003 87 10000 2.1 270 18:38 12.12.2020
4915 Clouds 7 1003 87 10000 2.6 280 18:20 12.12.2020
4916 Clouds 7 1003 87 10000 2.6 280 17:41 12.12.2020
4917 Clouds 8 1001 87 10000 6.2 290 16:45 12.12.2020
4918 Clouds 8 1001 87 10000 5.1 300 15:58 12.12.2020
4919 Clouds 8 1000 87 10000 5.7 280 15:40 12.12.2020
4920 Clouds 8 1000 87 10000 5.1 290 14:54 12.12.2020
4921 Clouds 8 1000 87 10000 5.7 280 14:35 12.12.2020
4922 Clouds 8 999 87 10000 6.2 280 13:46 12.12.2020
4923 Clouds 8 999 87 10000 6.2 280 13:26 12.12.2020
4924 Clouds 8 998 93 10000 5.1 280 12:37 12.12.2020
4925 Rain 8 998 100 10000 5.7 290 11:28 12.12.2020
4926 Rain 8 996 100 5000 5.1 280 10:46 12.12.2020
4927 Rain 8 995 93 7000 5.1 290 09:24 12.12.2020
4928 Drizzle 8 994 100 5000 5.1 300 08:41 12.12.2020
4929 Clouds 8 990 100 8000 1.5 280 01:56 12.12.2020
4930 Clouds 8 988 100 6000 1.5 230 23:31 11.12.2020
4931 Clouds 8 987 93 10000 1 200 21:32 11.12.2020
4932 Clouds 9 986 93 10000 1 160 19:46 11.12.2020
4933 Clouds 9 985 93 10000 1 200 17:30 11.12.2020
4934 Clouds 10 983 87 10000 2.1 210 14:38 11.12.2020
4935 Clouds 10 983 93 10000 1.5 0 13:46 11.12.2020
4936 Clouds 9 983 93 10000 1.5 0 12:28 11.12.2020
4937 Clouds 9 983 93 10000 1.5 0 11:55 11.12.2020
4938 Rain 9 983 100 10000 1 0 11:36 11.12.2020
4939 Rain 8 983 100 3500 2.6 180 10:40 11.12.2020
4940 Clouds 8 983 93 10000 2.6 140 07:51 11.12.2020
4941 Clouds 8 984 100 10000 3.1 150 05:36 11.12.2020
4942 Clouds 8 985 100 10000 3.6 150 04:47 11.12.2020
4943 Rain 7 988 93 3200 3.1 140 00:54 11.12.2020
4944 Rain 7 990 93 10000 3.6 140 23:28 10.12.2020
4945 Clouds 7 992 93 6000 3.1 150 21:37 10.12.2020
4946 Clouds 7 992 87 10000 3.6 150 20:51 10.12.2020
4947 Clouds 7 992 93 10000 3.6 140 20:29 10.12.2020
4948 Clouds 7 993 87 10000 4.1 140 19:31 10.12.2020
4949 Clouds 7 994 87 10000 4.6 140 18:49 10.12.2020
4950 Clouds 7 995 87 10000 3.6 140 17:35 10.12.2020
4951 Clouds 7 996 87 10000 2.6 140 15:59 10.12.2020
4952 Clouds 7 997 87 10000 2.6 150 15:22 10.12.2020
4953 Clouds 8 998 87 10000 3.1 150 14:46 10.12.2020
4954 Clouds 8 999 81 10000 2.6 160 13:51 10.12.2020
4955 Clouds 8 998 75 10000 4.1 150 12:23 10.12.2020
4956 Clouds 7 999 81 10000 3.6 140 10:54 10.12.2020
4957 Clouds 7 998 81 10000 3.1 140 08:27 10.12.2020
4958 Clouds 6 998 81 10000 3.1 130 07:28 10.12.2020
4959 Clouds 6 998 81 10000 3.1 130 05:51 10.12.2020
4960 Clouds 6 998 81 10000 1.5 0 02:40 10.12.2020
4961 Clouds 5 999 86 10000 2.6 110 01:33 10.12.2020
4962 Clouds 5 999 86 10000 2.6 130 23:44 09.12.2020
4963 Clouds 5 1001 80 10000 2.6 150 20:39 09.12.2020
4964 Clouds 5 1001 86 10000 2.1 150 19:46 09.12.2020
4965 Clouds 5 1002 86 10000 1 0 18:36 09.12.2020
4966 Clouds 5 1002 86 10000 1.5 0 17:29 09.12.2020
4967 Clouds 5 1003 86 10000 1.5 0 16:40 09.12.2020
4968 Clouds 6 1003 86 10000 1.5 0 16:20 09.12.2020
4969 Clouds 6 1004 87 10000 1 0 14:51 09.12.2020
4970 Clouds 6 1004 81 10000 1 0 14:26 09.12.2020
4971 Clouds 6 1005 81 10000 2.1 220 13:36 09.12.2020
4972 Clouds 6 1005 87 10000 2.6 220 13:18 09.12.2020
4973 Clouds 6 1006 87 10000 3.1 250 12:24 09.12.2020
4974 Clouds 6 1006 93 10000 2.6 230 11:34 09.12.2020
4975 Clouds 6 1006 93 10000 2.1 280 09:51 09.12.2020
4976 Clouds 6 1005 93 9000 2.6 280 08:35 09.12.2020
4977 Clouds 6 1005 93 10000 2.6 280 06:38 09.12.2020
4978 Clouds 6 1005 93 10000 3.1 300 05:27 09.12.2020
4979 Clouds 7 1004 100 10000 4.6 280 02:40 09.12.2020
4980 Clouds 7 1003 93 10000 4.6 280 00:34 09.12.2020
4981 Clouds 7 1003 93 9000 4.1 280 23:33 08.12.2020
4982 Clouds 7 1002 93 10000 4.6 280 21:54 08.12.2020
4983 Rain 7 1001 93 10000 4.6 250 20:23 08.12.2020
4984 Clouds 7 1001 93 10000 3.6 240 19:29 08.12.2020
4985 Clouds 7 999 92 10000 0.45 85 18:34 08.12.2020
4986 Clouds 6 1000 93 8000 3.6 200 16:28 08.12.2020
4987 Rain 6 1000 93 4900 3.6 200 14:46 08.12.2020
4988 Rain 5 1000 93 9000 3.1 190 13:44 08.12.2020
4989 Rain 5 1000 93 9000 3.1 180 12:37 08.12.2020
4990 Clouds 4 1000 93 4900 3.1 180 11:52 08.12.2020
4991 Rain 4 1000 100 7000 2.6 180 10:52 08.12.2020
4992 Rain 4 1000 100 10000 3.6 210 10:31 08.12.2020
4993 Rain 4 999 100 10000 3.1 200 09:34 08.12.2020
4994 Rain 3 998 100 10000 2.6 180 07:34 08.12.2020
4995 Clouds 2 998 93 10000 2.6 180 04:22 08.12.2020
4996 Clouds 1 998 100 7000 2.1 190 01:38 08.12.2020
4997 Clouds 1 998 100 6000 1.5 0 00:44 08.12.2020
4998 Mist 1 997 85 1900 1.5 150 22:50 07.12.2020
4999 Mist 1 998 85 2200 1.5 140 22:18 07.12.2020
5000 Fog 1 998 85 450 1.5 170 20:45 07.12.2020
5001 Mist 2 997 93 2600 1.5 200 18:48 07.12.2020
5002 Mist 3 997 93 5000 1 210 17:31 07.12.2020
5003 Clouds 4 997 93 7000 1 230 16:56 07.12.2020
5004 Clouds 5 997 86 8000 1.5 280 15:57 07.12.2020
5005 Clouds 5 997 86 10000 1.5 240 15:23 07.12.2020
5006 Clouds 5 998 86 10000 0.5 0 14:24 07.12.2020
5007 Mist 5 998 100 4600 1 0 13:33 07.12.2020
5008 Mist 4 998 100 4000 1 0 11:45 07.12.2020
5009 Fog 4 998 93 750 1.5 270 11:20 07.12.2020
5010 Mist 3 998 100 2100 1.5 240 09:57 07.12.2020
5011 Mist 3 999 100 4200 0.5 290 08:29 07.12.2020
5012 Mist 3 999 100 4900 0.34 6 06:44 07.12.2020
5013 Clouds 4 1000 100 6000 0.5 150 04:58 07.12.2020
5014 Clouds 4 1000 100 6000 0.5 150 04:58 07.12.2020
5015 Mist 4 1001 100 2500 0.5 0 01:57 07.12.2020
5016 Mist 4 1001 100 2300 1.5 80 00:29 07.12.2020
5017 Clouds 5 1002 100 3500 0.5 0 22:28 06.12.2020
5018 Mist 5 1002 100 5000 0.5 0 21:22 06.12.2020
5019 Mist 5 1002 100 5000 0.5 0 20:34 06.12.2020
5020 Clouds 5 1002 100 6000 0.5 0 19:56 06.12.2020
5021 Mist 5 1002 100 5000 0.5 0 18:40 06.12.2020
5022 Clouds 5 1002 93 7000 0.5 0 16:56 06.12.2020
5023 Clouds 5 1002 93 10000 0.5 0 15:21 06.12.2020
5024 Clouds 5 1002 100 9000 0.5 0 13:56 06.12.2020
5025 Clouds 4 1002 100 6000 1.5 0 12:52 06.12.2020
5026 Clouds 4 1002 100 5000 0.5 0 12:18 06.12.2020
5027 Mist 3 1002 100 2700 1 240 11:34 06.12.2020
5028 Mist 2 1002 100 4100 0.5 0 10:51 06.12.2020
5029 Mist 2 1002 100 2400 0.5 120 09:59 06.12.2020
5030 Rain 2 1002 100 2900 1 220 08:30 06.12.2020
5031 Rain 2 1002 100 3800 1 0 06:47 06.12.2020
5032 Clouds 1 1001 100 10000 1 140 01:47 06.12.2020
5033 Clouds 1 1001 84 10000 0.5 0 00:41 06.12.2020
5034 Clouds 1 1001 85 10000 0.5 0 00:23 06.12.2020
5035 Clouds 2 1000 93 10000 1 0 22:46 05.12.2020
5036 Clouds 2 1000 93 10000 1 0 22:20 05.12.2020
5037 Clouds 3 1000 93 10000 1.5 280 21:48 05.12.2020
5038 Clouds 3 1000 93 10000 1 0 21:25 05.12.2020
5039 Clouds 3 999 93 10000 2.6 40 19:21 05.12.2020
5040 Clouds 4 998 93 10000 1 340 18:40 05.12.2020
5041 Clouds 4 997 93 10000 3.6 30 17:29 05.12.2020
5042 Clouds 5 996 86 10000 3.1 40 16:30 05.12.2020
5043 Clouds 6 996 86 10000 4.6 50 15:47 05.12.2020
5044 Clouds 6 995 87 10000 4.1 30 14:26 05.12.2020
5045 Clouds 5 994 86 10000 3.6 80 12:20 05.12.2020
5046 Clouds 5 993 86 10000 3.1 40 11:40 05.12.2020
5047 Clouds 4 992 93 10000 3.6 50 10:31 05.12.2020
5048 Rain 3 988 93 10000 4.1 80 07:48 05.12.2020
5049 Rain 3 986 86 10000 3.6 80 06:28 05.12.2020
5050 Clouds 3 982 93 10000 3.1 60 03:44 05.12.2020
5051 Rain 4 977 93 10000 1 0 23:50 04.12.2020
5052 Clouds 4 975 100 10000 1.5 170 22:24 04.12.2020
5053 Rain 4 974 100 10000 1.5 220 20:19 04.12.2020
5054 Clouds 3 974 100 10000 1.5 270 18:52 04.12.2020
5055 Clouds 3 973 93 10000 2.1 240 18:18 04.12.2020
5056 Clouds 3 973 100 10000 2.6 270 17:24 04.12.2020
5057 Rain 2 973 100 10000 4.1 300 15:35 04.12.2020
5058 Rain 3 974 86 10000 4.1 300 13:39 04.12.2020
5059 Rain 3 974 86 10000 4.1 300 13:20 04.12.2020
5060 Rain 3 974 86 10000 4.6 300 12:47 04.12.2020
5061 Rain 3 974 86 10000 4.6 300 12:47 04.12.2020
5062 Clouds 3 975 86 10000 4.6 330 10:38 04.12.2020
5063 Clouds 3 975 86 10000 5.7 310 09:37 04.12.2020
5064 Clouds 3 975 93 10000 4.6 310 06:41 04.12.2020
5065 Clouds 3 975 93 10000 4.1 330 05:20 04.12.2020
5066 Rain 2 976 100 10000 4.6 310 01:54 04.12.2020
5067 Rain 3 977 93 10000 3.1 320 22:51 03.12.2020
5068 Rain 3 977 93 10000 3.6 350 21:56 03.12.2020
5069 Rain 3 978 93 10000 3.6 350 20:47 03.12.2020
5070 Rain 3 979 93 8000 4.1 20 19:26 03.12.2020
5071 Rain 3 979 93 10000 3.1 40 18:48 03.12.2020
5072 Rain 4 980 93 10000 1 50 17:21 03.12.2020
5073 Rain 4 981 93 10000 2.1 60 16:45 03.12.2020
5074 Rain 5 982 93 10000 1.5 70 15:34 03.12.2020
5075 Rain 5 983 93 10000 1.5 0 14:50 03.12.2020
5076 Clouds 5 984 93 10000 1 0 14:19 03.12.2020
5077 Clouds 4 986 93 10000 1 0 12:54 03.12.2020
5078 Clouds 4 987 93 10000 1.5 0 12:24 03.12.2020
5079 Rain 4 990 93 10000 1.5 0 10:55 03.12.2020
5080 Rain 4 992 93 10000 2.6 180 08:49 03.12.2020
5081 Rain 5 999 86 10000 3.6 200 04:21 03.12.2020
5082 Clouds 5 1002 93 10000 3.6 190 02:20 03.12.2020
5083 Clouds 5 1002 93 10000 3.6 190 02:20 03.12.2020
5084 Clouds 5 1006 86 10000 3.1 180 00:32 03.12.2020
5085 Clouds 5 1008 86 10000 2.6 200 22:47 02.12.2020
5086 Clouds 5 1009 86 10000 3.1 220 21:55 02.12.2020
5087 Clouds 5 1010 86 10000 3.6 220 20:51 02.12.2020
5088 Clouds 5 1011 86 10000 2.6 210 20:33 02.12.2020
5089 Clouds 5 1011 86 2000 3.6 270 19:54 02.12.2020
5090 Clouds 6 1012 75 10000 3.6 260 17:51 02.12.2020
5091 Clouds 6 1012 75 10000 3.6 260 17:33 02.12.2020
5092 Clouds 7 1014 75 10000 3.6 280 16:49 02.12.2020
5093 Clouds 8 1015 87 10000 3.6 270 14:33 02.12.2020
5094 Clouds 8 1017 100 2500 2.6 190 11:34 02.12.2020
5095 Drizzle 7 1018 100 2500 2.1 220 10:28 02.12.2020
5096 Rain 7 1019 93 7000 2.6 200 08:24 02.12.2020
5097 Clouds 5 1025 93 10000 1 0 00:50 02.12.2020
5098 Clouds 5 1025 82 10000 0.39 202 22:21 01.12.2020
5099 Clouds 5 1027 86 10000 0.5 0 19:57 01.12.2020
5100 Clouds 5 1027 86 10000 0.5 0 19:33 01.12.2020
5101 Clear 6 1027 86 10000 0.5 200 17:27 01.12.2020
5102 Clear 6 1027 86 10000 1 240 15:24 01.12.2020
5103 Clouds 6 1028 80 10000 0.5 0 13:37 01.12.2020
5104 Clouds 4 1028 100 10000 1.16 334 11:43 01.12.2020
5105 Clouds 2 1028 70 10000 1 130 10:55 01.12.2020
5106 Clouds 1 1028 100 10000 2.1 110 10:32 01.12.2020
5107 Clouds 0 1027 100 10000 0.5 0 08:18 01.12.2020
5108 Clouds 1 1027 74 10000 1 260 06:46 01.12.2020
5109 Clear 4 1025 80 10000 3.1 330 01:44 01.12.2020
5110 Clouds 4 1024 80 10000 3.1 330 00:52 01.12.2020
5111 Clouds 5 1024 80 10000 3.1 330 23:21 30.11.2020
5112 Clouds 5 1023 75 10000 4.1 330 22:42 30.11.2020
5113 Clouds 5 1023 75 10000 4.1 330 22:22 30.11.2020
5114 Clouds 6 1021 75 10000 6.2 310 20:47 30.11.2020
5115 Clouds 8 1021 75 10000 7.7 320 19:41 30.11.2020
5116 Clouds 8 1019 87 10000 10.3 310 18:22 30.11.2020
5117 Clouds 9 1019 93 10000 9.3 280 17:46 30.11.2020
5118 Rain 10 1019 93 10000 6.7 290 16:53 30.11.2020
5119 Clouds 10 1019 100 2500 7.2 260 15:45 30.11.2020
5120 Rain 9 1020 93 6000 5.1 250 13:55 30.11.2020
5121 Drizzle 9 1020 93 3700 5.1 240 13:22 30.11.2020
5122 Rain 9 1021 93 8000 4.1 230 12:26 30.11.2020
5123 Rain 9 1022 93 9000 4.1 230 11:46 30.11.2020
5124 Clouds 9 1022 100 6000 2.6 220 10:25 30.11.2020
5125 Rain 9 1023 93 5000 2.1 190 09:33 30.11.2020
5126 Fog 9 1026 100 550 1 0 01:29 30.11.2020
5127 Mist 8 1026 100 1700 1.5 0 23:28 29.11.2020
5128 Mist 8 1027 100 2200 0.5 0 21:45 29.11.2020
5129 Mist 8 1027 100 2200 0.5 0 21:26 29.11.2020
5130 Mist 8 1027 100 2200 0.5 0 21:26 29.11.2020
5131 Mist 8 1026 100 3700 1 0 19:19 29.11.2020
5132 Mist 8 1026 100 4300 1 0 17:34 29.11.2020
5133 Clouds 8 1026 93 6000 1 0 14:46 29.11.2020
5134 Mist 8 1026 100 2300 0.5 0 12:45 29.11.2020
5135 Mist 8 1026 100 1900 1 0 11:37 29.11.2020
5136 Mist 7 1025 100 2800 0.5 0 08:54 29.11.2020
5137 Mist 7 1025 100 3500 0.5 0 08:34 29.11.2020
5138 Mist 8 1024 100 4300 0.5 260 02:31 29.11.2020
5139 Mist 8 1023 100 2000 0.5 0 22:59 28.11.2020
5140 Mist 8 1023 100 2800 1.36 67 22:26 28.11.2020
5141 Clouds 9 1021 93 6000 1 0 19:59 28.11.2020
5142 Mist 8 1021 100 5000 1.5 0 19:28 28.11.2020
5143 Clouds 8 1021 93 6000 0.5 0 18:57 28.11.2020
5144 Clouds 8 1021 93 7000 1.5 70 18:20 28.11.2020
5145 Clouds 8 1020 93 7000 1 0 16:57 28.11.2020
5146 Clouds 8 1019 93 6000 3.1 80 14:58 28.11.2020
5147 Drizzle 8 1019 93 3000 1 0 13:47 28.11.2020
5148 Rain 8 1018 93 8000 2.6 90 11:27 28.11.2020
5149 Rain 7 1018 87 10000 1 0 09:25 28.11.2020
5150 Clouds 3 1016 79 10000 2.1 60 03:39 28.11.2020
5151 Clouds 2 1017 86 10000 2.6 80 01:52 28.11.2020
5152 Clouds 2 1017 86 10000 2.6 80 23:21 27.11.2020
5153 Clouds 2 1017 79 10000 2.1 90 22:24 27.11.2020
5154 Clouds 4 1018 86 10000 1.5 110 20:39 27.11.2020
5155 Clouds 4 1018 93 10000 1 0 19:34 27.11.2020
5156 Clouds 4 1018 100 10000 2.1 100 18:57 27.11.2020
5157 Clouds 6 1018 81 10000 0.92 57 16:27 27.11.2020
5158 Clouds 7 1019 81 10000 0.5 0 14:23 27.11.2020
5159 Clouds 7 1020 81 10000 0.5 0 13:18 27.11.2020
5160 Clouds 7 1020 87 10000 0.5 0 12:46 27.11.2020
5161 Clouds 5 1020 100 10000 0.5 0 10:53 27.11.2020
5162 Mist 5 1020 100 4000 0.95 121 10:31 27.11.2020
5163 Clouds 5 1020 100 7000 0.5 0 09:27 27.11.2020
5164 Clouds 6 1020 90 10000 1.22 183 22:59 26.11.2020
5165 Clouds 6 1020 89 10000 1.35 181 22:22 26.11.2020
5166 Clouds 6 1021 93 7000 1 0 21:39 26.11.2020
5167 Clouds 6 1021 93 8000 1 170 20:43 26.11.2020
5168 Clouds 8 1021 87 10000 0.5 0 18:36 26.11.2020
5169 Clouds 8 1020 81 10000 0.5 0 17:20 26.11.2020
5170 Clouds 8 1021 87 10000 1.5 0 13:44 26.11.2020
5171 Clouds 7 1021 87 10000 1.5 0 12:56 26.11.2020
5172 Clouds 7 1021 93 10000 1.5 0 12:29 26.11.2020
5173 Clouds 6 1021 93 10000 0.5 0 10:40 26.11.2020
5174 Clouds 5 1021 100 10000 0.5 0 10:18 26.11.2020
5175 Clouds 5 1021 93 10000 1 0 09:34 26.11.2020
5176 Clouds 5 1020 100 10000 1.5 0 08:44 26.11.2020
5177 Clouds 5 1020 100 10000 2.1 190 07:49 26.11.2020
5178 Clouds 4 1019 93 10000 2.1 190 02:18 26.11.2020
5179 Clouds 5 1017 93 10000 1.5 160 21:54 25.11.2020
5180 Clouds 6 1016 93 10000 1.5 180 20:32 25.11.2020
5181 Clouds 6 1015 93 10000 1.5 180 18:59 25.11.2020
5182 Clouds 7 1014 81 10000 2.1 250 17:28 25.11.2020
5183 Clouds 9 1013 87 10000 2.1 230 15:43 25.11.2020
5184 Clouds 9 1012 87 10000 1.5 260 14:57 25.11.2020
5185 Clouds 8 1012 100 10000 1.5 230 13:45 25.11.2020
5186 Clouds 8 1012 100 10000 1.5 250 12:47 25.11.2020
5187 Rain 7 1011 93 10000 1 210 11:22 25.11.2020
5188 Rain 7 1010 93 10000 3.1 330 09:20 25.11.2020
5189 Rain 7 1009 93 10000 2.6 320 08:50 25.11.2020
5190 Clouds 8 1008 93 3500 2.6 300 07:20 25.11.2020
5191 Rain 10 1006 93 5000 5.7 260 03:49 25.11.2020
5192 Rain 11 1006 87 10000 4.1 180 01:34 25.11.2020
5193 Clouds 11 1006 81 10000 4.1 180 23:59 24.11.2020
5194 Clouds 11 1006 81 10000 3.6 170 23:34 24.11.2020
5195 Clouds 11 1007 81 10000 4.1 180 22:38 24.11.2020
5196 Clouds 11 1007 81 10000 4.6 180 21:31 24.11.2020
5197 Clouds 11 1007 81 10000 4.6 180 20:51 24.11.2020
5198 Clouds 11 1007 81 10000 4.1 170 19:47 24.11.2020
5199 Clouds 11 1008 76 10000 3.6 180 17:31 24.11.2020
5200 Clouds 11 1009 76 10000 3.6 180 16:56 24.11.2020
5201 Clouds 11 1009 76 10000 3.6 180 16:36 24.11.2020
5202 Clouds 11 1009 76 10000 3.6 180 15:55 24.11.2020
5203 Clouds 11 1010 76 10000 4.1 190 15:19 24.11.2020
5204 Clouds 11 1010 81 10000 3.1 170 14:43 24.11.2020
5205 Clouds 11 1012 81 10000 3.1 170 12:58 24.11.2020
5206 Clouds 11 1012 87 10000 2.6 160 12:31 24.11.2020
5207 Clouds 11 1013 87 10000 2.6 170 11:58 24.11.2020
5208 Clouds 11 1014 87 10000 3.6 180 10:49 24.11.2020
5209 Clouds 11 1014 87 10000 2.6 190 10:25 24.11.2020
5210 Clouds 11 1014 81 10000 4.1 180 09:36 24.11.2020
5211 Clouds 11 1014 87 10000 3.6 180 08:27 24.11.2020
5212 Clouds 11 1015 93 10000 4.1 190 04:49 24.11.2020
5213 Clouds 10 1018 87 10000 5.1 190 23:32 23.11.2020
5214 Clouds 10 1019 81 10000 4.1 190 21:46 23.11.2020
5215 Clouds 10 1019 81 10000 4.1 190 21:20 23.11.2020
5216 Clouds 10 1019 87 10000 3.6 180 20:28 23.11.2020
5217 Clouds 10 1020 87 10000 3.6 180 19:36 23.11.2020
5218 Clouds 9 1020 87 10000 4.1 180 17:28 23.11.2020
5219 Clouds 9 1020 87 10000 4.1 180 16:54 23.11.2020
5220 Clouds 8 1022 81 10000 4.1 190 14:49 23.11.2020
5221 Clouds 8 1023 81 10000 3.6 190 13:54 23.11.2020
5222 Clouds 6 1025 87 10000 3.1 190 12:39 23.11.2020
5223 Clouds 5 1025 93 10000 2.6 190 11:51 23.11.2020
5224 Clouds 5 1025 93 10000 2.6 170 11:30 23.11.2020
5225 Clouds 2 1025 100 10000 1.5 0 09:46 23.11.2020
5226 Clouds 2 1025 100 10000 2.1 180 08:51 23.11.2020
5227 Clouds 2 1025 100 10000 2.1 170 07:40 23.11.2020
5228 Clouds 4 1026 93 10000 2.6 170 02:39 23.11.2020
5229 Clouds 5 1026 93 10000 2.1 180 23:43 22.11.2020
5230 Clouds 5 1026 86 10000 1.5 0 22:19 22.11.2020
5231 Rain 5 1026 86 10000 2.1 200 21:24 22.11.2020
5232 Clouds 5 1025 80 10000 2.1 200 19:59 22.11.2020
5233 Clouds 6 1025 75 10000 6.2 270 18:57 22.11.2020
5234 Clouds 7 1025 75 10000 4.1 250 17:54 22.11.2020
5235 Rain 8 1025 66 10000 4.6 240 15:58 22.11.2020
5236 Clouds 9 1025 66 10000 6.2 250 14:54 22.11.2020
5237 Clouds 8 1026 75 10000 4.1 230 12:50 22.11.2020
5238 Clouds 8 1026 81 10000 1.5 0 12:18 22.11.2020
5239 Clouds 7 1026 87 10000 2.6 220 11:35 22.11.2020
5240 Clouds 6 1025 86 10000 4.1 230 10:45 22.11.2020
5241 Clouds 6 1025 86 10000 2.6 200 09:42 22.11.2020
5242 Clouds 9 1022 81 10000 4.6 240 01:50 22.11.2020
5243 Clouds 9 1022 93 10000 3.6 220 23:54 21.11.2020
5244 Rain 9 1022 100 10000 3.1 200 22:31 21.11.2020
5245 Clouds 9 1022 93 10000 2.1 190 21:30 21.11.2020
5246 Clouds 9 1022 93 10000 2.6 230 20:49 21.11.2020
5247 Clouds 9 1022 93 10000 3.6 250 19:57 21.11.2020
5248 Clouds 10 1021 93 10000 2.6 250 19:37 21.11.2020
5249 Clouds 10 1021 93 10000 2.6 250 18:31 21.11.2020
5250 Clouds 10 1021 93 10000 4.1 260 17:28 21.11.2020
5251 Clouds 10 1020 100 3000 4.6 250 16:40 21.11.2020
5252 Rain 11 1020 100 9000 4.6 220 15:22 21.11.2020
5253 Rain 11 1020 100 9000 4.6 220 15:22 21.11.2020
5254 Rain 11 1020 93 3900 5.7 220 14:43 21.11.2020
5255 Rain 11 1020 93 3900 5.7 220 14:21 21.11.2020
5256 Rain 11 1021 81 10000 7.7 230 12:29 21.11.2020
5257 Clouds 12 1021 81 10000 7.7 230 11:58 21.11.2020
5258 Clouds 12 1021 76 10000 5.1 210 10:41 21.11.2020
5259 Clouds 11 1021 81 10000 3.6 210 09:59 21.11.2020
5260 Clouds 11 1021 76 10000 5.1 210 08:51 21.11.2020
5261 Clouds 11 1021 76 10000 5.7 230 06:34 21.11.2020
5262 Clouds 11 1022 87 10000 2.6 200 04:33 21.11.2020
5263 Clouds 10 1023 93 10000 4.1 210 00:45 21.11.2020
5264 Clouds 10 1023 87 10000 5.1 210 23:44 20.11.2020
5265 Clouds 10 1024 87 10000 4.6 200 22:25 20.11.2020
5266 Clouds 10 1024 87 10000 4.1 220 21:38 20.11.2020
5267 Clouds 10 1024 87 10000 4.1 220 21:20 20.11.2020
5268 Clouds 11 1025 93 10000 4.1 190 19:44 20.11.2020
5269 Clouds 11 1025 93 10000 4.1 210 18:36 20.11.2020
5270 Clouds 11 1025 93 10000 3.6 200 17:47 20.11.2020
5271 Clouds 10 1025 100 10000 3.6 200 17:23 20.11.2020
5272 Clouds 10 1025 93 10000 3.6 190 16:38 20.11.2020
5273 Rain 10 1025 93 10000 4.1 190 15:56 20.11.2020
5274 Clouds 9 1026 93 10000 3.6 170 14:49 20.11.2020
5275 Rain 9 1028 93 10000 3.1 180 13:43 20.11.2020
5276 Rain 8 1028 93 10000 2.6 180 13:18 20.11.2020
5277 Rain 8 1029 87 10000 3.1 180 12:31 20.11.2020
5278 Rain 8 1029 87 10000 3.6 180 11:39 20.11.2020
5279 Rain 7 1029 87 10000 3.1 170 10:37 20.11.2020
5280 Clouds 5 1030 86 10000 2.1 170 08:36 20.11.2020
5281 Clouds 5 1030 86 10000 2.1 170 07:58 20.11.2020
5282 Clouds 3 1032 86 10000 2.6 180 05:20 20.11.2020
5283 Clouds 3 1032 86 10000 2.6 170 03:42 20.11.2020
5284 Clouds 5 1034 86 10000 2.1 210 22:33 19.11.2020
5285 Clouds 5 1034 86 10000 1.5 210 21:54 19.11.2020
5286 Clouds 5 1033 80 10000 1.5 210 20:59 19.11.2020
5287 Clouds 4 1032 86 10000 1 170 20:21 19.11.2020
5288 Clouds 4 1032 62 10000 1 210 19:28 19.11.2020
5289 Clouds 4 1032 64 10000 1 210 18:55 19.11.2020
5290 Clouds 4 1032 64 10000 1 210 18:55 19.11.2020
5291 Clouds 6 1032 60 10000 2.6 280 17:35 19.11.2020
5292 Clouds 7 1031 61 10000 4.1 290 16:39 19.11.2020
5293 Clouds 8 1029 59 10000 4.1 340 15:31 19.11.2020
5294 Clouds 8 1029 65 10000 4.1 290 13:58 19.11.2020
5295 Clouds 8 1029 65 10000 4.6 280 13:38 19.11.2020
5296 Clouds 8 1028 65 10000 3.1 320 12:55 19.11.2020
5297 Clouds 7 1027 70 10000 3.1 300 12:34 19.11.2020
5298 Clouds 7 1025 75 10000 2.6 340 11:41 19.11.2020
5299 Clouds 7 1025 75 10000 2.6 340 11:22 19.11.2020
5300 Clouds 6 1024 87 10000 3.1 330 10:44 19.11.2020
5301 Clouds 6 1023 81 10000 4.1 360 09:48 19.11.2020
5302 Clouds 6 1021 81 10000 6.2 30 09:28 19.11.2020
5303 Clouds 7 1018 93 10000 3.1 300 08:37 19.11.2020
5304 Rain 8 1016 87 10000 4.6 300 07:35 19.11.2020
5305 Clouds 8 1010 87 10000 7.2 230 01:48 19.11.2020
5306 Rain 9 1009 70 10000 8.2 230 00:32 19.11.2020
5307 Clouds 9 1010 70 10000 5.1 210 23:31 18.11.2020
5308 Clouds 8 1010 75 10000 5.7 220 22:59 18.11.2020
5309 Clouds 8 1010 75 10000 5.7 220 22:29 18.11.2020
5310 Clouds 8 1010 75 10000 5.7 220 22:29 18.11.2020
5311 Clouds 8 1010 75 10000 5.7 220 21:43 18.11.2020
5312 Clouds 8 1010 75 10000 5.7 220 21:43 18.11.2020
5313 Clouds 8 1010 75 10000 5.7 220 21:25 18.11.2020
5314 Clouds 8 1010 70 10000 6.2 230 20:35 18.11.2020
5315 Clouds 8 1009 70 10000 7.2 220 19:42 18.11.2020
5316 Clouds 8 1009 70 10000 7.2 220 19:21 18.11.2020
5317 Clouds 8 1009 70 10000 7.2 230 18:40 18.11.2020
5318 Clouds 9 1008 76 10000 8.7 250 17:44 18.11.2020
5319 Clouds 10 1008 93 3400 4.1 250 16:27 18.11.2020
5320 Rain 10 1007 93 5000 5.1 270 15:58 18.11.2020
5321 Rain 13 1005 87 5000 6.2 190 14:41 18.11.2020
5322 Rain 14 1006 87 10000 5.1 190 13:47 18.11.2020
5323 Clouds 14 1007 82 10000 5.1 190 13:21 18.11.2020
5324 Clouds 14 1007 82 10000 4.6 180 12:42 18.11.2020
5325 Rain 13 1008 87 10000 4.6 170 11:42 18.11.2020
5326 Clouds 13 1009 87 10000 4.6 180 10:54 18.11.2020
5327 Clouds 13 1009 87 10000 4.6 180 10:54 18.11.2020
5328 Clouds 13 1009 82 10000 6.7 180 10:27 18.11.2020
5329 Clouds 12 1010 81 10000 4.6 0 08:23 18.11.2020
5330 Clouds 12 1012 81 10000 3.6 180 06:40 18.11.2020
5331 Clouds 12 1015 76 10000 4.6 200 02:51 18.11.2020
5332 Clouds 13 1016 71 10000 6.2 210 00:18 18.11.2020
5333 Clouds 13 1016 76 10000 5.1 220 23:21 17.11.2020
5334 Clouds 13 1016 82 10000 5.1 210 22:29 17.11.2020
5335 Clouds 13 1016 82 10000 5.1 210 22:29 17.11.2020
5336 Clouds 14 1017 87 10000 5.1 200 21:58 17.11.2020
5337 Clouds 14 1016 87 10000 3.6 200 21:39 17.11.2020
5338 Clouds 14 1016 82 10000 4.6 200 20:55 17.11.2020
5339 Clouds 14 1016 82 10000 4.6 200 20:27 17.11.2020
5340 Clouds 14 1016 87 10000 5.1 200 19:59 17.11.2020
5341 Clouds 15 1016 87 10000 4.1 200 18:35 17.11.2020
5342 Clouds 15 1016 82 10000 4.6 210 17:44 17.11.2020
5343 Clouds 15 1015 87 10000 4.6 220 16:55 17.11.2020
5344 Clouds 15 1015 87 10000 4.1 220 16:20 17.11.2020
5345 Clouds 15 1015 87 10000 4.6 210 15:42 17.11.2020
5346 Clouds 15 1015 87 10000 4.6 210 15:23 17.11.2020
5347 Clouds 15 1015 82 10000 4.6 210 14:56 17.11.2020
5348 Clouds 15 1015 82 10000 5.7 210 14:28 17.11.2020
5349 Clouds 14 1014 87 10000 5.1 210 13:36 17.11.2020
5350 Clouds 14 1015 87 10000 4.6 210 12:48 17.11.2020
5351 Clouds 14 1015 87 10000 5.1 210 12:24 17.11.2020
5352 Clouds 14 1014 87 10000 4.6 210 11:42 17.11.2020
5353 Clouds 13 1013 87 10000 5.7 200 10:46 17.11.2020
5354 Clouds 13 1013 87 10000 5.7 200 10:23 17.11.2020
5355 Clouds 12 1013 93 10000 5.7 210 09:49 17.11.2020
5356 Clouds 12 1013 93 10000 6.7 210 09:24 17.11.2020
5357 Clouds 12 1013 87 10000 3.6 190 08:22 17.11.2020
5358 Clouds 12 1012 87 10000 4.6 200 07:43 17.11.2020
5359 Clouds 13 1012 93 10000 6.7 220 05:18 17.11.2020
5360 Clouds 13 1012 87 10000 4.6 210 03:29 17.11.2020
5361 Clouds 13 1011 87 10000 5.7 210 02:30 17.11.2020
5362 Clouds 13 1011 87 10000 4.1 210 00:57 17.11.2020
5363 Clouds 12 1010 100 10000 3.6 200 23:57 16.11.2020
5364 Clouds 12 1010 100 10000 3.6 200 23:37 16.11.2020
5365 Clouds 12 1010 93 10000 3.6 190 23:19 16.11.2020
5366 Rain 11 1010 100 6000 3.6 190 22:26 16.11.2020
5367 Rain 11 1010 100 6000 3.6 190 22:26 16.11.2020
5368 Rain 11 1009 93 10000 4.1 190 21:58 16.11.2020
5369 Rain 11 1009 93 10000 3.6 180 21:39 16.11.2020
5370 Rain 11 1009 93 10000 3.6 180 21:20 16.11.2020
5371 Clouds 11 1009 100 10000 3.6 180 20:26 16.11.2020
5372 Clouds 10 1009 93 10000 3.6 190 19:55 16.11.2020
5373 Rain 10 1010 93 7000 3.6 180 19:29 16.11.2020
5374 Rain 10 1010 93 10000 3.6 180 18:51 16.11.2020
5375 Rain 10 1010 87 10000 3.6 190 18:19 16.11.2020
5376 Clouds 10 1010 87 10000 3.1 190 17:36 16.11.2020
5377 Clouds 10 1010 81 10000 2.6 190 17:18 16.11.2020
5378 Clouds 11 1010 71 10000 2.6 200 16:49 16.11.2020
5379 Clouds 11 1010 71 10000 2.6 200 16:24 16.11.2020
5380 Clouds 11 1010 71 10000 4.1 220 15:44 16.11.2020
5381 Clouds 11 1010 71 10000 4.1 220 15:26 16.11.2020
5382 Clouds 11 1010 71 10000 5.1 230 14:47 16.11.2020
5383 Clouds 11 1010 71 10000 6.2 230 13:44 16.11.2020
5384 Clouds 10 1010 71 10000 5.7 220 12:51 16.11.2020
5385 Clouds 10 1010 81 10000 4.1 220 12:28 16.11.2020
5386 Clouds 9 1009 76 10000 5.7 230 11:39 16.11.2020
5387 Clouds 9 1009 76 10000 5.7 230 11:21 16.11.2020
5388 Clouds 9 1008 76 10000 6.2 240 10:44 16.11.2020
5389 Clouds 9 1008 76 10000 6.2 240 10:25 16.11.2020
5390 Clouds 9 1007 76 10000 8.2 260 09:46 16.11.2020
5391 Clouds 9 1007 76 10000 8.2 260 09:23 16.11.2020
5392 Clouds 9 1006 81 10000 8.7 260 08:41 16.11.2020
5393 Clouds 9 1005 87 10000 9.8 260 07:45 16.11.2020
5394 Clouds 10 1004 87 10000 9.3 260 06:50 16.11.2020
5395 Clouds 10 1003 87 10000 9.3 260 06:24 16.11.2020
5396 Clouds 11 1000 87 10000 8.2 260 04:43 16.11.2020
5397 Clouds 10 998 93 10000 6.2 240 02:30 16.11.2020
5398 Clouds 10 996 87 10000 4.6 230 01:44 16.11.2020
5399 Clouds 10 994 81 10000 7.7 250 23:58 15.11.2020
5400 Rain 10 994 87 10000 7.7 260 23:26 15.11.2020
5401 Clouds 10 993 87 8000 8.2 260 22:50 15.11.2020
5402 Rain 10 992 87 10000 8.7 250 22:22 15.11.2020
5403 Rain 9 990 100 2900 4.6 210 21:45 15.11.2020
5404 Rain 8 990 100 2900 4.6 210 21:24 15.11.2020
5405 Rain 8 989 93 7000 4.6 190 20:44 15.11.2020
5406 Rain 7 989 93 7000 4.6 190 20:21 15.11.2020
5407 Rain 7 989 93 7000 4.6 200 19:48 15.11.2020
5408 Rain 7 988 87 8000 5.1 190 19:22 15.11.2020
5409 Rain 7 988 81 10000 4.1 190 18:57 15.11.2020
5410 Rain 8 988 75 10000 5.7 190 18:39 15.11.2020
5411 Rain 8 988 75 10000 5.7 190 18:19 15.11.2020
5412 Clouds 8 988 75 10000 4.6 190 17:45 15.11.2020
5413 Clouds 9 988 75 10000 4.6 190 17:24 15.11.2020
5414 Clouds 9 987 70 10000 5.7 200 16:46 15.11.2020
5415 Clouds 10 987 70 10000 5.7 200 16:21 15.11.2020
5416 Clouds 10 987 66 10000 5.1 210 15:50 15.11.2020
5417 Clouds 10 987 66 10000 6.2 210 15:28 15.11.2020
5418 Clouds 10 988 66 10000 6.2 210 14:58 15.11.2020
5419 Clouds 10 987 66 10000 5.7 210 14:31 15.11.2020
5420 Clouds 10 988 66 10000 6.2 220 13:56 15.11.2020
5421 Clouds 10 988 70 10000 5.7 210 13:36 15.11.2020
5422 Clouds 10 987 71 10000 5.7 210 12:51 15.11.2020
5423 Clouds 10 987 71 10000 6.7 210 12:23 15.11.2020
5424 Clouds 10 987 81 10000 5.1 200 11:46 15.11.2020
5425 Rain 10 987 81 10000 5.1 200 11:20 15.11.2020
5426 Clouds 9 986 81 10000 5.7 210 10:54 15.11.2020
5427 Rain 10 986 87 2600 4.6 180 10:32 15.11.2020
5428 Rain 11 986 87 10000 3.6 170 09:58 15.11.2020
5429 Rain 11 986 87 3600 3.1 160 09:40 15.11.2020
5430 Clouds 11 987 87 10000 4.1 150 09:18 15.11.2020
5431 Clouds 11 987 87 10000 4.1 150 08:46 15.11.2020
5432 Clouds 11 988 81 10000 2.6 150 07:47 15.11.2020
5433 Clouds 11 990 81 10000 3.6 160 06:50 15.11.2020
5434 Clouds 11 992 81 10000 3.1 160 04:57 15.11.2020
5435 Clouds 11 995 81 10000 3.1 180 02:31 15.11.2020
5436 Clouds 11 996 81 10000 3.6 180 00:42 15.11.2020
5437 Clouds 11 996 81 10000 3.6 180 00:24 15.11.2020
5438 Clouds 11 996 81 10000 4.1 190 23:30 14.11.2020
5439 Clouds 11 995 81 10000 4.6 190 22:46 14.11.2020
5440 Clouds 11 995 81 10000 4.6 190 22:27 14.11.2020
5441 Clouds 11 995 81 7000 4.6 200 21:40 14.11.2020
5442 Rain 11 995 81 7000 4.6 200 21:21 14.11.2020
5443 Clouds 12 995 81 8000 5.7 200 20:48 14.11.2020
5444 Clouds 12 995 82 9000 4.6 200 20:26 14.11.2020
5445 Clear 13 994 87 10000 5.7 190 19:46 14.11.2020
5446 Rain 13 994 87 10000 5.7 190 19:27 14.11.2020
5447 Clouds 14 994 87 10000 5.1 170 18:43 14.11.2020
5448 Rain 14 994 87 10000 5.1 170 18:23 14.11.2020
5449 Clouds 14 995 87 10000 4.6 160 17:47 14.11.2020
5450 Clouds 14 995 87 10000 4.6 160 17:47 14.11.2020
5451 Rain 14 995 87 10000 4.6 160 17:29 14.11.2020
5452 Clouds 14 995 87 10000 3.6 0 16:53 14.11.2020
5453 Rain 14 996 82 10000 3.6 170 16:34 14.11.2020
5454 Rain 15 997 82 10000 4.1 170 15:58 14.11.2020
5455 Clouds 15 997 82 10000 4.6 170 15:33 14.11.2020
5456 Clouds 15 998 87 10000 3.1 180 14:59 14.11.2020
5457 Clouds 15 999 82 10000 3.6 170 14:31 14.11.2020
5458 Clouds 15 999 87 10000 5.1 180 13:59 14.11.2020
5459 Clouds 15 999 87 10000 5.1 180 13:59 14.11.2020
5460 Clouds 14 999 87 10000 4.1 160 13:39 14.11.2020
5461 Clouds 14 999 87 10000 4.1 160 13:21 14.11.2020
5462 Clouds 13 1001 87 10000 3.6 160 12:41 14.11.2020
5463 Clouds 13 1001 87 10000 3.6 160 12:23 14.11.2020
5464 Clouds 12 1001 93 10000 2.1 160 11:40 14.11.2020
5465 Clouds 11 1001 93 10000 2.1 160 11:21 14.11.2020
5466 Clouds 10 1003 93 10000 3.1 0 10:40 14.11.2020
5467 Clouds 10 1003 93 10000 3.1 0 10:22 14.11.2020
5468 Clouds 10 1004 93 10000 3.1 150 09:45 14.11.2020
5469 Clouds 9 1004 93 10000 3.1 150 09:27 14.11.2020
5470 Clouds 9 1004 87 10000 1.5 0 08:44 14.11.2020
5471 Clouds 9 1004 87 10000 1.5 0 08:23 14.11.2020
5472 Rain 8 1006 93 10000 2.1 140 07:42 14.11.2020
5473 Rain 8 1006 93 10000 2.1 140 07:20 14.11.2020
5474 Rain 8 1007 93 10000 2.1 0 06:28 14.11.2020
5475 Rain 8 1007 81 10000 2.6 0 05:18 14.11.2020
5476 Rain 8 1009 87 10000 1.5 0 03:21 14.11.2020
5477 Clouds 8 1010 81 10000 3.1 180 00:28 14.11.2020
5478 Clouds 8 1010 81 10000 2.1 170 23:38 13.11.2020
5479 Clouds 8 1010 81 10000 2.6 180 22:59 13.11.2020
5480 Clouds 8 1010 81 10000 2.6 180 22:41 13.11.2020
5481 Clouds 8 1010 81 10000 2.6 180 22:21 13.11.2020
5482 Clouds 8 1010 81 10000 2.6 190 21:49 13.11.2020
5483 Clouds 8 1010 76 10000 2.6 180 21:27 13.11.2020
5484 Clouds 8 1010 81 10000 2.6 190 20:51 13.11.2020
5485 Clouds 8 1010 81 10000 2.1 170 20:32 13.11.2020
5486 Clouds 8 1010 81 10000 3.6 200 19:56 13.11.2020
5487 Clouds 8 1009 81 10000 3.1 190 19:37 13.11.2020
5488 Clouds 8 1009 81 10000 3.1 190 19:19 13.11.2020
5489 Clouds 8 1009 87 10000 2.6 200 18:44 13.11.2020
5490 Clouds 9 1009 81 10000 2.6 190 17:47 13.11.2020
5491 Clouds 9 1009 76 10000 3.6 210 17:23 13.11.2020
5492 Clouds 9 1009 76 10000 3.6 210 16:57 13.11.2020
5493 Clouds 9 1009 76 10000 4.1 220 16:39 13.11.2020
5494 Clouds 10 1009 76 10000 4.1 220 16:20 13.11.2020
5495 Clouds 10 1008 71 10000 5.7 220 15:39 13.11.2020
5496 Clouds 10 1008 71 10000 5.7 220 15:39 13.11.2020
5497 Clouds 10 1008 76 10000 4.1 220 15:21 13.11.2020
5498 Clouds 10 1008 76 10000 5.7 240 14:38 13.11.2020
5499 Clouds 10 1008 76 10000 4.6 200 14:18 13.11.2020
5500 Clouds 10 1008 76 10000 4.1 210 13:32 13.11.2020
5501 Clouds 10 1008 76 10000 4.1 210 12:59 13.11.2020
5502 Clouds 10 1007 81 10000 4.1 210 12:40 13.11.2020
5503 Clouds 10 1007 81 10000 4.1 210 12:22 13.11.2020
5504 Clouds 9 1007 81 10000 3.6 210 11:46 13.11.2020
5505 Clouds 8 1007 87 10000 3.6 200 11:22 13.11.2020
5506 Clouds 8 1007 87 10000 3.6 200 10:51 13.11.2020
5507 Clouds 7 1007 87 10000 3.1 200 10:33 13.11.2020
5508 Clouds 7 1006 93 10000 2.6 190 09:52 13.11.2020
5509 Clouds 6 1006 93 10000 2.1 180 09:31 13.11.2020
5510 Clouds 7 1005 93 10000 1.5 0 08:53 13.11.2020
5511 Rain 7 1005 93 10000 5.1 230 08:27 13.11.2020
5512 Rain 8 1005 87 8000 9.3 250 07:50 13.11.2020
5513 Rain 9 1003 93 7000 6.7 250 07:27 13.11.2020
5514 Rain 10 1002 87 9000 5.1 180 06:55 13.11.2020
5515 Rain 11 1002 87 10000 4.1 170 06:36 13.11.2020
5516 Clouds 11 1003 81 10000 4.1 170 05:41 13.11.2020
5517 Rain 11 1006 81 10000 3.6 170 03:42 13.11.2020
5518 Clouds 11 1007 81 10000 3.6 170 01:42 13.11.2020
5519 Clouds 11 1008 81 10000 4.1 180 00:36 13.11.2020
5520 Clouds 11 1008 81 10000 3.6 170 23:50 12.11.2020
5521 Clouds 11 1008 81 10000 3.6 170 23:21 12.11.2020
5522 Clouds 11 1008 81 10000 3.1 170 22:55 12.11.2020
5523 Clouds 11 1009 76 10000 3.1 160 22:37 12.11.2020
5524 Clouds 11 1009 76 10000 3.6 170 21:58 12.11.2020
5525 Clouds 11 1009 76 10000 3.1 180 21:40 12.11.2020
5526 Clouds 11 1009 76 10000 3.1 180 21:21 12.11.2020
5527 Clouds 10 1010 87 10000 1.5 0 20:41 12.11.2020
5528 Clouds 10 1010 87 10000 1.5 0 20:23 12.11.2020
5529 Clouds 10 1010 87 10000 1.5 0 19:53 12.11.2020
5530 Clouds 10 1011 87 5000 4.6 190 19:34 12.11.2020
5531 Clouds 11 1011 76 10000 2.6 180 18:58 12.11.2020
5532 Clouds 11 1010 81 10000 3.1 180 18:39 12.11.2020
5533 Clouds 11 1010 81 10000 3.6 180 18:19 12.11.2020
5534 Clouds 11 1010 81 10000 3.1 180 17:40 12.11.2020
5535 Clouds 11 1010 81 10000 3.1 180 17:22 12.11.2020
5536 Clouds 11 1010 71 10000 4.1 200 16:45 12.11.2020
5537 Clouds 11 1010 71 10000 4.1 200 16:23 12.11.2020
5538 Clouds 12 1011 71 10000 4.6 210 15:47 12.11.2020
5539 Clouds 12 1011 71 10000 4.6 210 15:28 12.11.2020
5540 Clouds 12 1011 66 10000 5.7 210 14:47 12.11.2020
5541 Clouds 11 1011 76 10000 5.7 210 14:28 12.11.2020
5542 Clouds 12 1011 71 10000 4.6 210 13:58 12.11.2020
5543 Clouds 11 1011 81 10000 4.1 210 13:40 12.11.2020
5544 Clouds 11 1012 76 10000 4.1 210 13:19 12.11.2020
5545 Clouds 10 1012 81 10000 3.6 210 12:44 12.11.2020
5546 Clouds 10 1012 81 10000 3.6 210 12:24 12.11.2020
5547 Clouds 10 1011 81 10000 2.6 200 11:53 12.11.2020
5548 Clouds 10 1011 81 10000 2.1 200 11:30 12.11.2020
5549 Clouds 9 1011 81 10000 2.1 200 10:49 12.11.2020
5550 Clouds 9 1011 87 10000 2.1 190 10:29 12.11.2020
5551 Clouds 9 1010 81 10000 4.6 240 09:50 12.11.2020
5552 Clouds 9 1010 81 10000 6.2 250 09:25 12.11.2020
5553 Clouds 9 1009 87 10000 7.7 250 08:58 12.11.2020
5554 Clouds 9 1008 81 10000 7.2 250 08:40 12.11.2020
5555 Clouds 9 1008 81 10000 7.2 250 08:20 12.11.2020
5556 Clouds 9 1008 81 10000 7.2 250 07:53 12.11.2020
5557 Rain 9 1007 81 10000 5.7 250 07:25 12.11.2020
5558 Clouds 9 1007 87 10000 6.2 260 06:51 12.11.2020
5559 Clouds 9 1005 93 10000 4.6 240 05:45 12.11.2020
5560 Clouds 10 1003 81 10000 4.1 200 03:43 12.11.2020
5561 Clouds 10 1003 87 10000 4.1 200 03:18 12.11.2020
5562 Rain 12 1001 87 10000 5.7 180 00:25 12.11.2020
5563 Clouds 13 1001 87 10000 4.6 140 23:40 11.11.2020
5564 Rain 12 1001 87 10000 4.6 140 23:22 11.11.2020
5565 Rain 13 1002 87 10000 4.6 140 22:43 11.11.2020
5566 Rain 13 1003 87 10000 4.6 140 22:21 11.11.2020
5567 Rain 12 1003 87 10000 4.6 140 21:56 11.11.2020
5568 Rain 12 1003 81 10000 5.1 0 21:38 11.11.2020
5569 Rain 13 1003 81 10000 5.1 0 21:18 11.11.2020
5570 Clouds 13 1005 81 10000 4.6 0 20:42 11.11.2020
5571 Clouds 13 1005 81 10000 4.6 0 20:21 11.11.2020
5572 Clouds 12 1005 81 10000 5.1 130 19:54 11.11.2020
5573 Clouds 12 1006 81 10000 4.1 140 19:36 11.11.2020
5574 Clouds 12 1006 81 10000 4.1 140 19:18 11.11.2020
5575 Clouds 12 1008 81 10000 4.1 150 18:41 11.11.2020
5576 Clouds 12 1008 81 10000 4.1 140 18:19 11.11.2020
5577 Clouds 13 1009 76 10000 4.1 160 17:37 11.11.2020
5578 Clouds 13 1009 76 10000 3.6 160 17:19 11.11.2020
5579 Clouds 13 1010 76 10000 4.1 160 16:38 11.11.2020
5580 Clouds 13 1010 76 10000 4.1 160 16:20 11.11.2020
5581 Clouds 13 1011 76 10000 4.1 170 15:41 11.11.2020
5582 Clouds 13 1011 76 10000 4.1 170 15:22 11.11.2020
5583 Rain 13 1012 82 10000 4.1 180 14:43 11.11.2020
5584 Clouds 13 1012 82 10000 4.1 180 14:23 11.11.2020
5585 Clouds 13 1012 82 10000 3.6 170 13:49 11.11.2020
5586 Clouds 13 1013 81 10000 5.1 170 13:24 11.11.2020
5587 Clouds 12 1014 81 10000 4.1 160 12:21 11.11.2020
5588 Clouds 12 1014 87 10000 3.6 170 11:51 11.11.2020
5589 Clouds 12 1015 87 10000 3.6 170 11:33 11.11.2020
5590 Clouds 11 1015 81 10000 3.1 160 10:46 11.11.2020
5591 Clouds 11 1015 81 10000 3.1 160 10:28 11.11.2020
5592 Clouds 10 1016 87 10000 3.6 160 09:59 11.11.2020
5593 Clouds 10 1016 87 10000 2.6 0 09:39 11.11.2020
5594 Clouds 10 1016 87 10000 2.6 0 09:21 11.11.2020
5595 Clouds 10 1017 87 10000 3.1 160 08:43 11.11.2020
5596 Clouds 10 1017 87 10000 3.1 160 08:24 11.11.2020
5597 Clouds 10 1017 87 10000 2.6 150 07:44 11.11.2020
5598 Clouds 10 1018 87 10000 2.6 160 06:32 11.11.2020
5599 Clouds 10 1018 93 10000 2.1 160 05:44 11.11.2020
5600 Clouds 10 1021 93 10000 1.5 0 01:47 11.11.2020
5601 Clouds 9 1021 93 10000 1.5 0 00:57 11.11.2020
5602 Clouds 9 1021 93 10000 1.5 0 00:24 11.11.2020
5603 Clouds 9 1022 93 10000 1.5 0 23:38 10.11.2020
5604 Clouds 10 1022 87 10000 2.1 180 23:20 10.11.2020
5605 Clouds 10 1022 87 10000 2.1 190 22:45 10.11.2020
5606 Clouds 10 1022 87 10000 2.1 190 22:26 10.11.2020
5607 Clouds 10 1022 87 10000 2.1 180 21:41 10.11.2020
5608 Clouds 10 1022 87 10000 2.1 180 21:23 10.11.2020
5609 Clouds 11 1022 87 10000 2.6 190 20:56 10.11.2020
5610 Clouds 11 1022 81 10000 2.1 190 20:38 10.11.2020
5611 Clouds 11 1022 87 10000 2.6 190 20:19 10.11.2020
5612 Clouds 12 1021 87 10000 2.1 190 19:44 10.11.2020
5613 Clouds 12 1021 87 10000 2.1 190 19:24 10.11.2020
5614 Clouds 12 1021 81 10000 2.1 190 18:55 10.11.2020
5615 Clouds 12 1021 87 10000 2.1 190 18:36 10.11.2020
5616 Clouds 12 1021 87 10000 1.5 0 18:18 10.11.2020
5617 Clouds 13 1021 87 9000 2.6 230 17:41 10.11.2020
5618 Clouds 13 1021 87 9000 2.6 230 17:41 10.11.2020
5619 Clouds 13 1021 87 9000 2.6 230 17:22 10.11.2020
5620 Clouds 13 1021 76 10000 1.5 0 16:41 10.11.2020
5621 Clouds 13 1021 76 10000 1.5 0 16:22 10.11.2020
5622 Clouds 14 1021 76 10000 2.6 190 15:54 10.11.2020
5623 Clouds 14 1021 71 10000 2.1 210 15:36 10.11.2020
5624 Clouds 13 1021 82 10000 3.6 220 15:18 10.11.2020
5625 Clouds 13 1021 87 10000 2.6 200 14:39 10.11.2020
5626 Clouds 13 1021 87 10000 2.6 190 14:18 10.11.2020
5627 Clouds 13 1021 87 10000 2.1 170 13:38 10.11.2020
5628 Clouds 13 1021 87 10000 2.6 170 13:20 10.11.2020
5629 Clouds 13 1021 87 10000 2.1 160 12:46 10.11.2020
5630 Clouds 13 1021 87 10000 2.1 160 12:25 10.11.2020
5631 Clouds 13 1021 93 10000 2.1 0 11:43 10.11.2020
5632 Clouds 13 1021 93 10000 2.1 0 11:22 10.11.2020
5633 Clouds 12 1021 93 10000 2.1 150 10:57 10.11.2020
5634 Clouds 12 1021 93 10000 2.1 140 10:38 10.11.2020
5635 Clouds 12 1021 93 10000 2.1 140 10:20 10.11.2020
5636 Clouds 12 1021 93 10000 1 0 09:45 10.11.2020
5637 Clouds 12 1021 93 10000 1 0 09:24 10.11.2020
5638 Clouds 11 1021 87 10000 1 0 08:53 10.11.2020
5639 Clouds 11 1020 87 10000 1.5 0 08:27 10.11.2020
5640 Clouds 11 1020 87 10000 2.1 0 07:44 10.11.2020
5641 Clouds 11 1020 87 10000 2.1 0 07:24 10.11.2020
5642 Clouds 12 1020 93 10000 1.5 0 06:40 10.11.2020
5643 Clouds 12 1020 93 10000 1.5 0 05:43 10.11.2020
5644 Clouds 12 1020 87 10000 1.5 0 04:59 10.11.2020
5645 Clouds 13 1019 93 10000 1.5 0 02:36 10.11.2020
5646 Clouds 13 1019 93 10000 1.5 0 01:30 10.11.2020
5647 Clouds 13 1019 93 7000 1.5 0 23:57 09.11.2020
5648 Rain 13 1019 93 10000 1.5 0 23:36 09.11.2020
5649 Clouds 13 1019 93 10000 1.5 0 22:48 09.11.2020
5650 Clouds 13 1019 93 10000 1 0 22:25 09.11.2020
5651 Clouds 13 1019 93 10000 2.1 0 21:56 09.11.2020
5652 Clouds 13 1018 93 8000 1 0 21:37 09.11.2020
5653 Clouds 13 1018 93 10000 1 0 21:18 09.11.2020
5654 Clouds 13 1018 93 6000 1.5 0 20:37 09.11.2020
5655 Clouds 13 1019 93 10000 1.5 70 20:19 09.11.2020
5656 Clouds 13 1019 93 10000 1.5 0 19:41 09.11.2020
5657 Clouds 13 1019 93 10000 1.5 0 19:22 09.11.2020
5658 Clouds 13 1018 93 10000 1 0 18:42 09.11.2020
5659 Clouds 13 1018 93 10000 1 0 18:20 09.11.2020
5660 Clouds 13 1018 82 10000 1.5 0 17:52 09.11.2020
5661 Clouds 13 1018 82 10000 1.5 0 17:31 09.11.2020
5662 Clouds 14 1018 87 10000 2.1 120 16:46 09.11.2020
5663 Clouds 14 1018 87 10000 2.1 120 16:28 09.11.2020
5664 Clouds 14 1018 87 10000 1.5 0 15:56 09.11.2020
5665 Clouds 14 1018 87 10000 2.6 0 15:38 09.11.2020
5666 Clouds 14 1018 87 10000 2.6 0 15:20 09.11.2020
5667 Clouds 14 1018 87 10000 2.6 210 14:41 09.11.2020
5668 Clouds 14 1018 87 10000 2.6 210 14:23 09.11.2020
5669 Clouds 14 1018 87 10000 0.5 0 13:43 09.11.2020
5670 Clouds 14 1018 87 10000 0.5 0 13:20 09.11.2020
5671 Clouds 14 1018 93 10000 0.5 0 12:47 09.11.2020
5672 Clouds 13 1018 93 10000 0.5 0 12:21 09.11.2020
5673 Clouds 13 1018 93 10000 0.5 0 11:43 09.11.2020
5674 Clouds 13 1018 93 10000 0.5 0 11:25 09.11.2020
5675 Rain 12 1018 100 10000 0.5 0 10:59 09.11.2020
5676 Rain 12 1018 93 10000 2.6 60 10:41 09.11.2020
5677 Clouds 12 1018 93 10000 2.6 60 10:22 09.11.2020
5678 Clouds 11 1018 100 10000 1 0 09:40 09.11.2020
5679 Clouds 11 1018 100 10000 1 0 09:22 09.11.2020
5680 Clouds 11 1017 100 10000 1 0 08:37 09.11.2020
5681 Clouds 11 1017 93 10000 0.5 0 08:18 09.11.2020
5682 Clouds 11 1017 100 8000 1 0 07:38 09.11.2020
5683 Clouds 11 1017 100 8000 1 0 07:18 09.11.2020
5684 Mist 11 1017 100 4500 1 0 05:54 09.11.2020
5685 Mist 11 1017 100 1500 0.5 0 02:57 09.11.2020
5686 Mist 11 1018 100 4400 1 0 01:41 09.11.2020
5687 Mist 11 1018 100 3800 1 0 00:56 09.11.2020
5688 Mist 11 1017 100 4000 1 0 23:50 08.11.2020
5689 Rain 11 1017 100 4400 1 0 23:28 08.11.2020
5690 Mist 11 1017 100 5000 1 0 22:43 08.11.2020
5691 Mist 11 1017 100 5000 1 0 22:22 08.11.2020
5692 Mist 12 1017 100 2700 1 0 21:48 08.11.2020
5693 Mist 12 1017 100 1200 1 0 21:24 08.11.2020
5694 Fog 12 1017 100 800 1 0 20:57 08.11.2020
5695 Mist 12 1017 100 1100 0.5 0 20:38 08.11.2020
5696 Mist 12 1017 100 1100 0.5 0 20:20 08.11.2020
5697 Rain 12 1017 93 900 1 230 19:45 08.11.2020
5698 Fog 12 1017 93 900 1 230 19:45 08.11.2020
5699 Rain 12 1017 93 900 1 230 19:23 08.11.2020
5700 Clouds 12 1017 93 1400 2.1 260 18:58 08.11.2020
5701 Rain 12 1017 93 1500 0.5 0 18:39 08.11.2020
5702 Rain 12 1017 93 1500 0.5 0 18:20 08.11.2020
5703 Rain 12 1017 93 7000 0.5 0 17:42 08.11.2020
5704 Rain 13 1017 93 7000 0.5 0 17:21 08.11.2020
5705 Clouds 13 1017 87 10000 0.5 0 16:59 08.11.2020
5706 Rain 13 1017 87 10000 0.5 30 16:38 08.11.2020
5707 Clouds 13 1017 87 10000 0.5 30 16:20 08.11.2020
5708 Clouds 13 1017 82 10000 1.5 30 15:46 08.11.2020
5709 Clouds 13 1017 82 10000 2.1 30 15:27 08.11.2020
5710 Clouds 13 1017 87 10000 0.5 0 14:43 08.11.2020
5711 Clouds 13 1017 87 10000 0.5 0 14:24 08.11.2020
5712 Clouds 13 1017 87 10000 0.5 240 13:56 08.11.2020
5713 Clouds 13 1017 87 10000 1 310 13:26 08.11.2020
5714 Clouds 12 1018 87 10000 1 340 12:57 08.11.2020
5715 Clouds 12 1018 87 10000 1.5 280 12:39 08.11.2020
5716 Clouds 12 1018 87 10000 1.5 280 12:19 08.11.2020
5717 Clouds 12 1018 87 10000 0.5 0 11:55 08.11.2020
5718 Clouds 12 1018 87 10000 0.5 0 11:36 08.11.2020
5719 Clouds 11 1018 87 10000 0.5 0 11:18 08.11.2020
5720 Clouds 11 1017 93 10000 1.5 50 10:41 08.11.2020
5721 Clouds 11 1017 93 9000 0.5 0 10:18 08.11.2020
5722 Clouds 11 1017 93 10000 1 0 09:41 08.11.2020
5723 Clouds 10 1017 93 10000 1 0 09:19 08.11.2020
5724 Clouds 10 1017 93 9000 1 20 08:45 08.11.2020
5725 Clouds 10 1017 93 9000 1 20 08:22 08.11.2020
5726 Clouds 10 1017 93 9000 1.5 40 07:53 08.11.2020
5727 Clouds 10 1017 93 10000 2.1 30 07:31 08.11.2020
5728 Clouds 10 1017 93 10000 1 0 06:27 08.11.2020
5729 Clouds 10 1017 93 10000 1 0 05:54 08.11.2020
5730 Clouds 10 1017 93 10000 2.1 80 04:50 08.11.2020
5731 Clouds 9 1018 87 9000 1 0 02:20 08.11.2020
5732 Clouds 9 1018 87 7000 1.5 80 01:19 08.11.2020
5733 Clouds 9 1018 87 7000 1.5 80 01:19 08.11.2020
5734 Clouds 9 1018 87 7000 1.5 80 01:19 08.11.2020
5735 Clouds 9 1019 87 7000 0.5 0 00:30 08.11.2020
5736 Clouds 10 1019 87 6000 1.5 230 23:50 07.11.2020
5737 Clouds 10 1018 93 8000 0.5 0 23:31 07.11.2020
5738 Clouds 10 1018 93 8000 0.5 0 23:31 07.11.2020
5739 Clouds 10 1018 93 8000 0.5 0 23:31 07.11.2020
5740 Clouds 10 1019 87 10000 1 0 22:48 07.11.2020
5741 Clouds 10 1019 87 10000 1 0 22:28 07.11.2020
5742 Clouds 10 1019 93 9000 1 0 21:58 07.11.2020
5743 Clouds 10 1019 93 8000 2.1 70 21:39 07.11.2020
5744 Clouds 9 1019 93 8000 2.1 70 21:19 07.11.2020
5745 Clouds 10 1019 87 8000 2.6 50 20:45 07.11.2020
5746 Clouds 10 1019 87 8000 2.6 50 20:26 07.11.2020
5747 Clouds 10 1020 87 10000 1.5 0 19:45 07.11.2020
5748 Clouds 10 1020 87 10000 1.5 0 19:27 07.11.2020
5749 Clouds 10 1019 87 10000 1.5 70 18:43 07.11.2020
5750 Clouds 10 1019 87 10000 1.5 70 18:43 07.11.2020
5751 Clouds 10 1019 87 10000 1.5 70 18:24 07.11.2020
5752 Clouds 10 1019 71 10000 0.5 0 17:47 07.11.2020
5753 Clouds 11 1019 71 10000 0.5 0 17:28 07.11.2020
5754 Clouds 12 1019 71 10000 0.5 0 16:46 07.11.2020
5755 Clear 12 1019 71 10000 0.5 0 16:25 07.11.2020
5756 Clear 13 1019 66 10000 1 30 15:57 07.11.2020
5757 Clear 13 1019 66 10000 1 0 15:39 07.11.2020
5758 Clear 13 1019 66 10000 1 0 15:19 07.11.2020
5759 Clear 13 1019 71 10000 1.5 0 14:41 07.11.2020
5760 Clear 13 1019 71 10000 1.5 0 14:41 07.11.2020
5761 Clear 13 1019 71 10000 1.5 0 14:41 07.11.2020
5762 Clear 12 1019 71 10000 1.5 0 14:21 07.11.2020
5763 Clear 12 1019 76 10000 1.5 0 13:46 07.11.2020
5764 Clouds 12 1020 71 10000 1 0 13:25 07.11.2020
5765 Clouds 10 1020 76 10000 1 0 12:40 07.11.2020
5766 Clouds 10 1021 81 10000 1.5 0 12:18 07.11.2020
5767 Clouds 10 1021 81 10000 1.5 0 12:18 07.11.2020
5768 Clouds 10 1020 87 10000 1 0 11:39 07.11.2020
5769 Clear 8 1020 87 10000 1 0 11:21 07.11.2020
5770 Clear 7 1020 93 9000 0.5 0 10:45 07.11.2020
5771 Clouds 7 1020 93 9000 0.5 0 10:24 07.11.2020
5772 Clouds 6 1020 86 7000 2.1 40 09:49 07.11.2020
5773 Clouds 5 1020 87 10000 1 0 09:25 07.11.2020
5774 Clouds 5 1021 93 10000 1 0 08:51 07.11.2020
5775 Clouds 4 1020 93 10000 1 0 08:33 07.11.2020
5776 Clouds 4 1019 85 10000 1.45 86 07:49 07.11.2020
5777 Clouds 4 1020 93 8000 1 0 06:58 07.11.2020
5778 Clouds 5 1020 93 9000 2.1 70 06:37 07.11.2020
5779 Clear 6 1021 87 10000 1.5 0 04:32 07.11.2020
5780 Clear 6 1021 87 10000 1 0 02:53 07.11.2020
5781 Clouds 7 1022 75 10000 1.5 0 01:28 07.11.2020
5782 Clouds 7 1022 75 10000 1.5 0 01:28 07.11.2020
5783 Clouds 7 1022 81 10000 1 0 00:39 07.11.2020
5784 Clouds 7 1023 75 10000 1.5 0 23:45 06.11.2020
5785 Clouds 8 1023 81 10000 2.1 100 23:19 06.11.2020
5786 Clouds 8 1023 87 10000 2.6 100 22:40 06.11.2020
5787 Clouds 8 1023 87 10000 2.6 100 22:40 06.11.2020
5788 Clouds 8 1023 87 10000 2.6 100 22:18 06.11.2020
5789 Clouds 8 1024 81 10000 2.6 90 21:43 06.11.2020
5790 Clouds 8 1024 81 10000 2.6 90 21:21 06.11.2020
5791 Clouds 8 1024 81 10000 2.6 0 20:48 06.11.2020
5792 Clouds 8 1024 81 10000 2.1 100 20:20 06.11.2020
5793 Clouds 8 1025 81 10000 3.1 90 19:47 06.11.2020
5794 Clouds 8 1025 81 10000 2.1 80 19:29 06.11.2020
5795 Clouds 8 1026 70 10000 1 0 18:58 06.11.2020
5796 Clouds 9 1026 66 10000 1 0 18:40 06.11.2020
5797 Clouds 9 1026 66 10000 1 0 18:19 06.11.2020
5798 Clouds 10 1026 66 10000 1.5 0 17:47 06.11.2020
5799 Clouds 10 1026 66 10000 1.5 0 17:25 06.11.2020
5800 Clouds 10 1027 62 10000 2.1 110 16:45 06.11.2020
5801 Clouds 11 1027 62 10000 2.1 110 16:22 06.11.2020
5802 Clouds 11 1028 71 10000 2.1 0 15:47 06.11.2020
5803 Clouds 11 1028 71 10000 2.1 0 15:26 06.11.2020
5804 Clouds 11 1028 66 10000 2.1 0 14:50 06.11.2020
5805 Clear 11 1029 62 10000 2.1 0 14:23 06.11.2020
5806 Clear 11 1030 62 10000 2.1 120 13:44 06.11.2020
5807 Clouds 11 1030 62 10000 2.1 120 13:21 06.11.2020
5808 Clouds 11 1031 81 10000 1 0 12:43 06.11.2020
5809 Clouds 10 1031 81 10000 1 0 12:23 06.11.2020
5810 Clouds 9 1032 87 10000 1 0 11:40 06.11.2020
5811 Clouds 8 1032 87 10000 1 0 11:21 06.11.2020
5812 Mist 8 1032 100 5000 1 80 10:37 06.11.2020
5813 Mist 7 1032 93 5000 0.5 0 10:18 06.11.2020
5814 Mist 7 1032 93 5000 1.5 130 09:44 06.11.2020
5815 Clouds 7 1032 93 6000 1 0 09:21 06.11.2020
5816 Clouds 7 1032 93 6000 1 0 09:21 06.11.2020
5817 Clouds 7 1032 93 6000 1 0 08:48 06.11.2020
5818 Clouds 7 1032 93 6000 1.5 0 08:28 06.11.2020
5819 Mist 7 1032 100 5000 1.5 0 07:46 06.11.2020
5820 Clouds 8 1032 100 6000 1.5 0 07:21 06.11.2020
5821 Clouds 8 1032 100 6000 1.5 0 06:48 06.11.2020
5822 Mist 8 1033 100 3600 1 0 05:40 06.11.2020
5823 Mist 9 1034 100 3900 1 0 02:53 06.11.2020
5824 Fog 9 1035 100 450 0.5 0 00:35 06.11.2020
5825 Fog 9 1035 100 450 0.5 0 23:57 05.11.2020
5826 Fog 9 1035 100 250 0.5 0 23:26 05.11.2020
5827 Fog 9 1035 100 250 0.5 0 23:26 05.11.2020
5828 Fog 9 1035 100 250 0.5 0 22:48 05.11.2020
5829 Fog 9 1035 100 250 0.5 0 22:26 05.11.2020
5830 Fog 9 1036 100 350 1 0 21:57 05.11.2020
5831 Fog 9 1036 100 450 0.5 0 21:38 05.11.2020
5832 Fog 9 1036 100 450 0.5 0 21:19 05.11.2020
5833 Fog 9 1036 100 550 0.5 0 20:44 05.11.2020
5834 Fog 9 1036 100 550 0.5 0 20:24 05.11.2020
5835 Mist 9 1036 100 1000 0.32 47 19:45 05.11.2020
5836 Clouds 9 1035 85 10000 0.64 346 19:27 05.11.2020
5837 Clouds 9 1035 84 10000 0.38 241 18:58 05.11.2020
5838 Clouds 9 1035 83 10000 0.64 346 18:39 05.11.2020
5839 Clouds 9 1035 82 10000 0.64 244 18:21 05.11.2020
5840 Clouds 9 1035 81 10000 0.64 244 17:45 05.11.2020
5841 Clouds 9 1035 80 10000 0.9 231 17:25 05.11.2020
5842 Clouds 9 1037 93 10000 2.1 290 16:49 05.11.2020
5843 Clouds 10 1037 87 10000 2.6 300 16:28 05.11.2020
5844 Clouds 10 1038 81 8000 1.5 280 15:53 05.11.2020
5845 Clouds 10 1038 81 10000 1.5 240 15:27 05.11.2020
5846 Clouds 10 1038 81 10000 1.5 0 14:57 05.11.2020
5847 Clouds 10 1038 81 10000 1.5 210 14:39 05.11.2020
5848 Clouds 10 1038 81 10000 1.5 0 14:20 05.11.2020
5849 Clouds 10 1038 81 10000 1.5 0 13:40 05.11.2020
5850 Clouds 9 1039 87 10000 2.1 180 12:56 05.11.2020
5851 Clouds 9 1039 87 10000 2.1 180 12:56 05.11.2020
5852 Clouds 9 1039 87 10000 1.5 0 12:38 05.11.2020
5853 Clouds 9 1039 81 10000 1.5 220 12:19 05.11.2020
5854 Clouds 8 1038 87 10000 1.5 230 11:41 05.11.2020
5855 Clouds 9 1038 87 10000 1.5 230 11:22 05.11.2020
5856 Clouds 8 1038 87 10000 1 250 10:48 05.11.2020
5857 Clouds 7 1038 87 10000 1 220 10:26 05.11.2020
5858 Clouds 6 1038 93 10000 1.5 0 09:49 05.11.2020
5859 Clouds 6 1038 93 10000 1.5 0 09:24 05.11.2020
5860 Clouds 6 1038 93 10000 1 0 08:49 05.11.2020
5861 Clouds 6 1038 93 10000 1.5 220 08:31 05.11.2020
5862 Clouds 6 1038 100 10000 1.5 0 07:55 05.11.2020
5863 Clouds 6 1038 93 10000 1.5 0 07:27 05.11.2020
5864 Clouds 5 1038 100 10000 1.5 200 06:43 05.11.2020
5865 Clouds 5 1038 100 10000 1.5 220 05:59 05.11.2020
5866 Fog 5 1039 100 300 1 150 02:42 05.11.2020
5867 Clouds 5 1039 100 7000 1 0 00:35 05.11.2020
5868 Clouds 6 1039 100 10000 1.5 180 23:51 04.11.2020
5869 Clouds 6 1039 100 10000 1.5 180 23:27 04.11.2020
5870 Clouds 5 1038 100 9000 1.5 150 22:57 04.11.2020
5871 Clouds 5 1038 100 10000 0.5 0 22:37 04.11.2020
5872 Clouds 5 1038 100 10000 0.5 0 22:19 04.11.2020
5873 Clouds 5 1038 100 10000 1.5 160 21:43 04.11.2020
5874 Clouds 5 1038 100 10000 1.5 160 21:25 04.11.2020
5875 Clouds 5 1037 100 10000 0.5 250 20:46 04.11.2020
5876 Clouds 5 1037 100 10000 0.5 250 20:28 04.11.2020
5877 Clear 6 1037 93 10000 0.5 0 19:55 04.11.2020
5878 Clear 6 1036 87 10000 0.5 0 19:37 04.11.2020
5879 Clouds 7 1036 87 10000 1.5 270 19:19 04.11.2020
5880 Clouds 7 1035 81 10000 1.5 0 18:39 04.11.2020
5881 Clouds 7 1035 81 10000 1.5 0 18:21 04.11.2020
5882 Clouds 8 1035 76 10000 2.1 300 17:46 04.11.2020
5883 Clouds 9 1035 76 10000 2.1 300 17:25 04.11.2020
5884 Clouds 10 1035 81 10000 1 340 16:45 04.11.2020
5885 Clouds 10 1035 81 10000 1 340 16:25 04.11.2020
5886 Clouds 10 1034 81 10000 1.5 350 15:55 04.11.2020
5887 Clouds 10 1034 81 10000 2.1 10 15:37 04.11.2020
5888 Clouds 10 1034 81 10000 2.1 10 15:18 04.11.2020
5889 Clouds 10 1034 87 10000 2.6 300 14:42 04.11.2020
5890 Clouds 10 1034 87 10000 2.6 300 14:24 04.11.2020
5891 Haze 9 1034 87 2800 2.1 280 13:50 04.11.2020
5892 Haze 9 1034 87 2800 2.1 280 13:50 04.11.2020
5893 Rain 9 1034 87 10000 2.1 270 13:21 04.11.2020
5894 Clear 8 1033 93 10000 1.5 0 12:56 04.11.2020
5895 Clouds 8 1033 100 10000 1 0 12:38 04.11.2020
5896 Clouds 8 1033 100 10000 1 0 12:20 04.11.2020
5897 Clouds 6 1033 93 10000 1.5 0 11:44 04.11.2020
5898 Clear 5 1033 93 10000 1.5 0 11:21 04.11.2020
5899 Clouds 5 1032 100 10000 1 0 10:48 04.11.2020
5900 Clear 4 1032 100 10000 1.5 0 10:23 04.11.2020
5901 Clouds 3 1032 100 9000 1 0 09:54 04.11.2020
5902 Clouds 2 1031 100 10000 1.5 0 09:26 04.11.2020
5903 Clouds 2 1030 100 10000 1 0 08:47 04.11.2020
5904 Clouds 2 1030 100 10000 1 0 08:22 04.11.2020
5905 Clouds 2 1030 100 10000 1.5 0 07:56 04.11.2020
5906 Clear 2 1029 93 10000 1.5 160 07:30 04.11.2020
5907 Clear 2 1029 93 10000 1.5 0 06:56 04.11.2020
5908 Mist 2 1029 100 1200 1.5 150 06:37 04.11.2020
5909 Clear 2 1027 100 10000 2.1 180 04:18 04.11.2020
5910 Clear 3 1026 100 10000 1.5 200 02:28 04.11.2020
5911 Clouds 4 1025 100 10000 2.1 190 00:57 04.11.2020
5912 Clouds 4 1024 100 10000 1.5 190 23:48 03.11.2020
5913 Clouds 4 1023 93 10000 1 220 23:24 03.11.2020
5914 Clouds 5 1023 93 10000 3.1 230 22:42 03.11.2020
5915 Clouds 5 1023 93 10000 3.1 230 22:21 03.11.2020
5916 Clouds 5 1022 93 10000 2.1 220 21:59 03.11.2020
5917 Clouds 5 1022 100 10000 2.1 190 21:40 03.11.2020
5918 Clouds 6 1022 100 10000 2.1 190 21:21 03.11.2020
5919 Clouds 6 1021 93 9000 2.6 240 20:45 03.11.2020
5920 Clouds 6 1021 93 9000 2.6 240 20:26 03.11.2020
5921 Clouds 6 1020 93 10000 1.5 0 19:44 03.11.2020
5922 Clouds 6 1020 93 10000 2.1 210 19:23 03.11.2020
5923 Clouds 6 1020 93 10000 2.1 210 18:47 03.11.2020
5924 Rain 6 1019 93 10000 1.5 0 18:24 03.11.2020
5925 Clouds 6 1019 93 4000 4.1 290 17:59 03.11.2020
5926 Clouds 7 1018 87 10000 3.6 230 17:41 03.11.2020
5927 Rain 7 1018 87 10000 3.6 230 17:23 03.11.2020
5928 Clouds 7 1017 87 10000 3.1 260 16:45 03.11.2020
5929 Rain 7 1017 87 10000 3.1 260 16:24 03.11.2020
5930 Clouds 7 1016 93 10000 1.5 0 15:46 03.11.2020
5931 Rain 7 1016 93 10000 1.5 0 15:25 03.11.2020
5932 Clouds 7 1016 93 10000 2.1 220 14:52 03.11.2020
5933 Clouds 7 1016 93 10000 2.6 260 14:33 03.11.2020
5934 Clouds 7 1016 93 10000 2.6 260 14:33 03.11.2020
5935 Clouds 7 1015 87 10000 5.7 250 13:47 03.11.2020
5936 Rain 7 1015 87 10000 5.7 250 13:23 03.11.2020
5937 Clouds 7 1014 87 10000 6.2 250 12:59 03.11.2020
5938 Rain 7 1014 87 4900 4.1 220 12:38 03.11.2020
5939 Clouds 7 1013 87 10000 3.1 210 12:19 03.11.2020
5940 Rain 7 1013 81 10000 3.6 210 11:42 03.11.2020
5941 Clouds 7 1013 81 10000 3.6 210 11:20 03.11.2020
5942 Clouds 6 1013 87 10000 3.6 200 10:40 03.11.2020
5943 Clouds 6 1013 87 10000 3.6 200 10:21 03.11.2020
5944 Clouds 6 1012 86 10000 2.6 190 09:52 03.11.2020
5945 Clouds 5 1012 86 10000 2.1 190 09:33 03.11.2020
5946 Clouds 6 1012 81 10000 2.6 190 08:56 03.11.2020
5947 Clouds 6 1012 81 10000 3.6 210 08:35 03.11.2020
5948 Clouds 6 1012 81 10000 3.1 190 07:54 03.11.2020
5949 Clouds 6 1012 81 10000 2.1 190 07:35 03.11.2020
5950 Clouds 6 1012 81 10000 2.6 180 06:51 03.11.2020
5951 Rain 6 1013 81 10000 3.1 200 05:49 03.11.2020
5952 Clear 5 1013 80 10000 2.6 180 03:20 03.11.2020
5953 Clouds 7 1011 81 10000 3.6 210 00:42 03.11.2020
5954 Clouds 7 1011 81 10000 4.6 220 23:54 02.11.2020
5955 Clouds 7 1010 81 10000 4.6 230 23:36 02.11.2020
5956 Clouds 8 1010 70 10000 9.3 250 22:55 02.11.2020
5957 Clouds 8 1009 75 10000 10.3 240 22:36 02.11.2020
5958 Clouds 8 1009 75 10000 8.2 250 21:59 02.11.2020
5959 Clouds 8 1008 87 10000 8.7 250 21:38 02.11.2020
5960 Rain 8 1008 87 10000 8.7 250 21:19 02.11.2020
5961 Clouds 8 1005 81 10000 8.2 230 20:40 02.11.2020
5962 Rain 8 1005 81 10000 8.2 230 20:20 02.11.2020
5963 Rain 10 1004 76 10000 4.6 210 19:48 02.11.2020
5964 Rain 10 1004 76 10000 4.6 210 19:48 02.11.2020
5965 Clouds 10 1004 76 10000 4.6 210 19:27 02.11.2020
5966 Clouds 10 1003 76 10000 4.1 210 18:56 02.11.2020
5967 Clouds 10 1003 76 10000 7.7 230 18:38 02.11.2020
5968 Rain 10 1003 76 10000 7.7 230 18:19 02.11.2020
5969 Rain 11 1001 76 10000 8.2 230 17:42 02.11.2020
5970 Rain 11 1001 76 10000 8.2 230 17:24 02.11.2020
5971 Clouds 11 1000 71 10000 9.3 230 16:49 02.11.2020
5972 Clouds 11 1000 71 10000 9.3 230 16:31 02.11.2020
5973 Clouds 12 1000 71 10000 7.7 230 15:57 02.11.2020
5974 Clouds 12 999 76 10000 7.7 230 15:38 02.11.2020
5975 Clouds 12 999 76 10000 7.7 230 15:38 02.11.2020
5976 Rain 12 999 76 10000 7.7 230 15:19 02.11.2020
5977 Rain 12 999 81 10000 5.7 210 15:19 02.11.2020
5978 Clouds 11 999 81 10000 5.1 210 14:43 02.11.2020
5979 Rain 11 999 81 10000 5.1 210 14:19 02.11.2020
5980 Clouds 11 999 76 10000 5.1 220 13:48 02.11.2020
5981 Rain 11 999 76 10000 5.1 220 13:22 02.11.2020
5982 Clouds 11 999 81 10000 4.1 210 12:50 02.11.2020
5983 Clouds 11 998 81 10000 5.7 220 12:27 02.11.2020
5984 Clouds 11 997 81 10000 4.6 220 11:46 02.11.2020
5985 Clouds 10 997 81 10000 4.6 220 11:20 02.11.2020
5986 Clouds 10 997 87 10000 3.6 220 10:48 02.11.2020
5987 Clouds 10 996 87 10000 4.6 240 10:25 02.11.2020
5988 Clouds 9 995 93 10000 5.7 250 09:55 02.11.2020
5989 Clouds 9 995 93 10000 4.6 250 09:29 02.11.2020
5990 Clouds 9 994 93 10000 5.1 260 08:57 02.11.2020
5991 Rain 9 993 100 10000 5.1 270 08:36 02.11.2020
5992 Clouds 10 992 93 5000 5.1 290 08:18 02.11.2020
5993 Clouds 10 991 100 2400 6.2 290 07:39 02.11.2020
5994 Rain 12 988 77 3200 8.7 230 06:45 02.11.2020
5995 Rain 15 987 72 10000 7.2 210 05:19 02.11.2020
5996 Clouds 17 987 82 10000 8.2 210 01:27 02.11.2020
5997 Clouds 17 987 82 10000 8.2 210 01:27 02.11.2020
5998 Clouds 17 987 82 10000 8.2 210 01:27 02.11.2020
5999 Clouds 17 987 82 10000 8.2 210 01:27 02.11.2020
6000 Clouds 17 987 82 10000 7.7 200 00:37 02.11.2020
6001 Rain 17 987 82 10000 7.2 200 23:57 01.11.2020
6002 Rain 17 987 82 10000 8.2 210 23:38 01.11.2020
6003 Rain 17 987 82 10000 8.2 210 23:19 01.11.2020
6004 Rain 17 988 82 10000 7.7 200 22:41 01.11.2020
6005 Rain 17 988 82 10000 7.7 200 22:21 01.11.2020
6006 Rain 17 988 87 10000 6.2 200 21:43 01.11.2020
6007 Rain 17 988 87 10000 6.2 200 21:23 01.11.2020
6008 Rain 16 988 87 10000 6.2 200 20:47 01.11.2020
6009 Clouds 15 988 93 10000 6.2 190 20:26 01.11.2020
6010 Rain 14 989 93 10000 6.2 180 19:48 01.11.2020
6011 Rain 14 989 100 8000 5.1 170 19:29 01.11.2020
6012 Rain 14 991 93 10000 5.1 190 18:58 01.11.2020
6013 Rain 12 991 93 10000 5.1 170 18:38 01.11.2020
6014 Rain 13 991 93 10000 5.1 170 18:19 01.11.2020
6015 Clouds 12 993 93 10000 3.6 170 17:45 01.11.2020
6016 Rain 12 993 93 10000 3.6 170 17:27 01.11.2020
6017 Clouds 11 995 87 4100 3.1 180 16:45 01.11.2020
6018 Clouds 11 995 87 4100 3.1 180 16:26 01.11.2020
6019 Rain 12 996 71 9000 3.1 180 15:57 01.11.2020
6020 Rain 12 996 71 10000 3.6 200 15:38 01.11.2020
6021 Rain 12 996 71 10000 3.6 200 15:38 01.11.2020
6022 Clouds 12 996 71 10000 3.6 200 15:18 01.11.2020
6023 Clouds 12 997 71 10000 4.6 220 14:45 01.11.2020
6024 Clouds 12 997 71 10000 4.6 220 14:22 01.11.2020
6025 Clouds 12 997 71 10000 4.6 220 13:56 01.11.2020
6026 Clouds 13 996 71 10000 6.2 220 13:37 01.11.2020
6027 Rain 13 996 71 10000 6.2 220 13:19 01.11.2020
6028 Clouds 13 996 71 10000 6.7 230 12:38 01.11.2020
6029 Clouds 13 996 67 10000 8.7 240 12:18 01.11.2020
6030 Clouds 13 996 67 10000 8.7 240 11:47 01.11.2020
6031 Rain 13 995 87 10000 4.6 210 11:18 01.11.2020
6032 Clouds 13 995 93 10000 3.6 200 10:42 01.11.2020
6033 Clouds 13 995 93 10000 3.6 200 10:42 01.11.2020
6034 Clouds 13 995 93 10000 3.6 200 10:24 01.11.2020
6035 Clouds 12 994 87 10000 5.7 190 09:49 01.11.2020
6036 Clouds 12 994 93 10000 5.1 190 09:19 01.11.2020
6037 Clouds 11 994 87 10000 5.1 180 08:38 01.11.2020
6038 Clouds 11 995 81 10000 5.1 180 07:51 01.11.2020
6039 Clouds 11 996 81 10000 4.6 170 06:48 01.11.2020
6040 Clouds 10 1004 76 10000 4.1 180 02:22 01.11.2020
6041 Rain 10 1004 76 10000 3.6 190 01:31 01.11.2020
6042 Clouds 10 1006 76 10000 4.1 200 23:51 31.10.2020
6043 Rain 10 1006 76 10000 4.1 200 23:23 31.10.2020
6044 Clouds 10 1006 81 10000 3.6 200 22:44 31.10.2020
6045 Rain 10 1006 81 10000 3.6 200 22:23 31.10.2020
6046 Clouds 10 1006 81 10000 2.6 180 21:46 31.10.2020
6047 Clouds 10 1006 76 10000 3.1 210 21:21 31.10.2020
6048 Clouds 10 1005 81 10000 3.1 200 20:41 31.10.2020
6049 Clouds 10 1005 81 10000 3.1 200 20:20 31.10.2020
6050 Clouds 10 1005 76 10000 4.6 220 19:44 31.10.2020
6051 Clouds 10 1005 76 10000 4.6 220 19:24 31.10.2020
6052 Clouds 10 1004 87 10000 3.6 220 18:59 31.10.2020
6053 Clouds 11 1004 71 10000 7.2 220 18:40 31.10.2020
6054 Clouds 11 1003 71 10000 4.6 220 17:47 31.10.2020
6055 Clouds 11 1003 71 10000 8.2 240 17:26 31.10.2020
6056 Clouds 12 1003 66 10000 8.2 250 16:56 31.10.2020
6057 Clouds 12 1002 71 10000 8.2 240 16:34 31.10.2020
6058 Clouds 13 1001 66 10000 10.3 230 15:55 31.10.2020
6059 Clouds 13 1001 66 10000 7.7 230 15:26 31.10.2020
6060 Clouds 13 1000 71 10000 8.2 240 14:55 31.10.2020
6061 Clouds 13 1000 71 10000 7.7 230 14:32 31.10.2020
6062 Clouds 13 999 87 10000 8.2 220 13:55 31.10.2020
6063 Clouds 14 997 87 10000 5.7 180 13:37 31.10.2020
6064 Clouds 15 997 87 10000 5.7 170 13:18 31.10.2020
6065 Rain 15 998 87 10000 6.2 170 12:25 31.10.2020
6066 Clouds 14 1000 93 1800 5.1 0 11:42 31.10.2020
6067 Rain 14 1000 93 1800 5.1 0 11:23 31.10.2020
6068 Rain 15 1000 87 10000 5.7 160 10:49 31.10.2020
6069 Clouds 15 1001 82 10000 6.2 160 10:30 31.10.2020
6070 Clouds 15 1003 82 10000 4.6 170 09:40 31.10.2020
6071 Clouds 14 1003 82 10000 4.6 170 09:20 31.10.2020
6072 Clouds 14 1004 82 10000 3.6 160 08:27 31.10.2020
6073 Clouds 14 1006 82 10000 6.2 170 07:45 31.10.2020
6074 Clouds 14 1006 82 10000 6.2 170 07:25 31.10.2020
6075 Clouds 15 1007 87 10000 4.1 170 06:37 31.10.2020
6076 Clouds 13 1010 100 10000 3.1 160 03:49 31.10.2020
6077 Clouds 13 1012 93 10000 2.6 0 02:48 31.10.2020
6078 Clouds 11 1014 87 10000 1.5 0 00:55 31.10.2020
6079 Clouds 9 1015 93 10000 1 0 23:58 30.10.2020
6080 Clouds 9 1016 100 10000 1 0 23:38 30.10.2020
6081 Clouds 8 1016 100 10000 1 0 23:20 30.10.2020
6082 Clouds 8 1016 100 10000 1.5 0 22:39 30.10.2020
6083 Clouds 9 1016 100 10000 1.5 0 22:20 30.10.2020
6084 Clouds 9 1016 100 10000 1.5 0 21:49 30.10.2020
6085 Clouds 9 1017 100 10000 1 0 21:27 30.10.2020
6086 Clouds 9 1017 100 10000 1.5 0 20:46 30.10.2020
6087 Clouds 10 1017 93 10000 1 0 20:27 30.10.2020
6088 Clouds 10 1017 93 10000 1 140 19:59 30.10.2020
6089 Clouds 10 1017 93 10000 1 210 19:39 30.10.2020
6090 Clouds 11 1017 93 10000 1 210 19:18 30.10.2020
6091 Clouds 11 1016 87 10000 2.1 240 18:41 30.10.2020
6092 Clouds 11 1016 87 10000 2.1 240 18:22 30.10.2020
6093 Clouds 12 1015 81 10000 2.6 270 17:46 30.10.2020
6094 Clouds 12 1015 81 10000 2.1 290 17:21 30.10.2020
6095 Clouds 12 1015 81 10000 2.1 290 16:50 30.10.2020
6096 Clouds 12 1015 87 10000 3.6 280 16:25 30.10.2020
6097 Clouds 12 1014 93 10000 4.6 280 15:44 30.10.2020
6098 Clouds 12 1014 93 10000 4.6 280 15:26 30.10.2020
6099 Clouds 12 1013 93 10000 4.6 270 14:58 30.10.2020
6100 Clouds 12 1013 87 10000 4.1 260 14:39 30.10.2020
6101 Clouds 13 1013 87 10000 4.1 260 14:21 30.10.2020
6102 Clouds 13 1012 100 10000 3.6 270 13:42 30.10.2020
6103 Drizzle 12 1012 100 4900 4.1 270 13:20 30.10.2020
6104 Drizzle 12 1012 100 4900 4.1 270 12:46 30.10.2020
6105 Clouds 13 1012 100 10000 5.7 280 12:22 30.10.2020
6106 Clouds 13 1011 93 10000 6.7 290 11:55 30.10.2020
6107 Clouds 14 1009 87 10000 3.1 220 11:21 30.10.2020
6108 Clouds 15 1009 87 10000 3.1 220 10:50 30.10.2020
6109 Clouds 15 1009 87 10000 5.1 220 10:25 30.10.2020
6110 Clouds 15 1008 87 10000 4.1 210 09:48 30.10.2020
6111 Clouds 14 1008 93 10000 4.1 210 09:25 30.10.2020
6112 Clouds 14 1008 93 10000 4.1 210 08:59 30.10.2020
6113 Clouds 14 1007 93 10000 4.1 210 08:31 30.10.2020
6114 Clouds 14 1007 93 10000 4.6 210 07:52 30.10.2020
6115 Clouds 14 1007 93 10000 5.1 210 07:33 30.10.2020
6116 Clouds 14 1007 93 10000 5.7 210 06:49 30.10.2020
6117 Clouds 14 1006 93 10000 6.2 210 05:39 30.10.2020
6118 Clouds 14 1006 93 10000 5.1 210 02:41 30.10.2020
6119 Rain 14 1005 87 10000 6.2 210 00:47 30.10.2020
6120 Clouds 14 1005 87 4900 5.7 200 23:57 29.10.2020
6121 Clouds 14 1005 87 10000 5.7 200 23:39 29.10.2020
6122 Clouds 14 1005 87 10000 5.7 200 23:21 29.10.2020
6123 Clouds 14 1005 87 10000 6.7 210 22:43 29.10.2020
6124 Clouds 14 1005 87 10000 6.7 210 22:24 29.10.2020
6125 Clouds 14 1005 87 10000 5.1 210 21:40 29.10.2020
6126 Clouds 14 1005 87 10000 5.1 210 21:40 29.10.2020
6127 Rain 14 1005 87 10000 5.1 210 21:20 29.10.2020
6128 Clouds 14 1005 87 10000 3.1 190 20:42 29.10.2020
6129 Clouds 14 1005 87 10000 3.1 190 20:20 29.10.2020
6130 Clouds 14 1005 87 10000 4.6 200 19:43 29.10.2020
6131 Clouds 14 1005 87 10000 4.6 200 19:22 29.10.2020
6132 Clouds 14 1005 87 10000 5.1 210 18:56 29.10.2020
6133 Clouds 14 1004 87 10000 6.2 220 18:37 29.10.2020
6134 Clouds 14 1005 87 10000 5.7 220 18:18 29.10.2020
6135 Clouds 14 1004 87 10000 5.7 210 17:41 29.10.2020
6136 Rain 13 1004 93 10000 4.1 210 17:21 29.10.2020
6137 Rain 13 1005 93 10000 4.6 220 16:46 29.10.2020
6138 Rain 13 1004 87 10000 4.6 220 16:20 29.10.2020
6139 Rain 13 1004 87 10000 4.6 220 15:56 29.10.2020
6140 Rain 13 1004 93 10000 5.1 210 15:38 29.10.2020
6141 Rain 13 1004 93 10000 5.1 200 15:19 29.10.2020
6142 Rain 12 1004 100 10000 5.1 190 14:45 29.10.2020
6143 Rain 12 1004 100 10000 5.1 190 14:23 29.10.2020
6144 Rain 12 1004 100 10000 5.1 190 14:23 29.10.2020
6145 Rain 12 1004 100 10000 5.1 190 14:23 29.10.2020
6146 Rain 12 1004 93 9000 4.6 190 13:47 29.10.2020
6147 Rain 12 1004 93 6000 5.1 190 13:28 29.10.2020
6148 Rain 11 1005 93 10000 4.6 180 12:44 29.10.2020
6149 Rain 10 1006 93 10000 3.6 0 12:20 29.10.2020
6150 Rain 10 1006 93 10000 3.6 0 11:58 29.10.2020
6151 Rain 10 1006 93 9000 3.1 160 11:39 29.10.2020
6152 Rain 10 1006 93 9000 3.1 160 11:20 29.10.2020
6153 Rain 9 1007 87 10000 3.1 180 10:37 29.10.2020
6154 Rain 9 1007 87 10000 3.1 180 10:37 29.10.2020
6155 Rain 9 1007 87 10000 3.1 180 10:19 29.10.2020
6156 Rain 9 1007 93 10000 2.6 160 09:50 29.10.2020
6157 Rain 8 1007 93 10000 1.5 0 09:26 29.10.2020
6158 Rain 8 1008 87 10000 2.1 180 08:46 29.10.2020
6159 Rain 7 1008 93 10000 2.1 180 08:24 29.10.2020
6160 Rain 7 1007 87 10000 2.1 180 07:51 29.10.2020
6161 Rain 7 1007 87 10000 2.1 190 07:21 29.10.2020
6162 Rain 7 1007 87 10000 2.1 180 06:47 29.10.2020
6163 Clouds 6 1006 93 10000 2.1 170 04:50 29.10.2020
6164 Clouds 7 1003 74 10000 0.89 309 02:29 29.10.2020
6165 Clouds 7 1002 73 10000 0.89 358 00:45 29.10.2020
6166 Rain 7 1002 72 10000 0.89 291 00:22 29.10.2020
6167 Clouds 8 1001 72 10000 0.89 256 23:42 28.10.2020
6168 Rain 7 1000 72 10000 1.79 275 23:20 28.10.2020
6169 Clouds 7 1001 87 10000 2.6 200 22:43 28.10.2020
6170 Rain 7 1001 87 10000 2.6 200 22:25 28.10.2020
6171 Clouds 7 1000 81 10000 3.6 210 21:45 28.10.2020
6172 Clouds 7 1000 81 10000 3.6 210 21:26 28.10.2020
6173 Clouds 7 1000 87 10000 3.6 210 20:58 28.10.2020
6174 Clouds 8 999 87 10000 2.1 190 20:40 28.10.2020
6175 Rain 8 999 81 10000 3.1 210 20:18 28.10.2020
6176 Clouds 8 998 87 10000 2.6 210 19:42 28.10.2020
6177 Rain 8 998 87 10000 2.6 210 19:24 28.10.2020
6178 Clouds 8 997 87 10000 4.1 200 18:43 28.10.2020
6179 Rain 9 997 87 10000 4.1 200 18:20 28.10.2020
6180 Clouds 9 997 76 10000 4.1 210 17:43 28.10.2020
6181 Rain 9 997 76 10000 4.1 210 17:21 28.10.2020
6182 Clouds 10 997 81 10000 4.6 210 16:47 28.10.2020
6183 Rain 10 997 76 10000 3.1 210 16:29 28.10.2020
6184 Clouds 10 997 81 10000 3.6 200 15:45 28.10.2020
6185 Rain 10 997 81 10000 3.6 200 15:20 28.10.2020
6186 Clouds 10 995 70 10000 1.34 201 14:50 28.10.2020
6187 Rain 10 995 68 10000 1.79 273 14:32 28.10.2020
6188 Clouds 10 995 69 10000 1.34 329 13:59 28.10.2020
6189 Clouds 11 995 66 10000 1.79 285 12:38 28.10.2020
6190 Rain 10 995 67 10000 2.24 324 12:20 28.10.2020
6191 Rain 10 995 71 10000 1.34 289 11:43 28.10.2020
6192 Clouds 9 996 81 10000 3.1 200 11:22 28.10.2020
6193 Clouds 8 996 81 10000 4.1 190 10:54 28.10.2020
6194 Clouds 8 996 81 10000 4.1 190 10:34 28.10.2020
6195 Clouds 8 996 87 10000 3.6 190 09:56 28.10.2020
6196 Clouds 7 996 87 10000 3.6 190 09:38 28.10.2020
6197 Clouds 7 996 87 10000 3.6 190 09:20 28.10.2020
6198 Clouds 7 995 81 10000 3.6 180 08:45 28.10.2020
6199 Clouds 7 995 87 10000 2.6 190 08:24 28.10.2020
6200 Clouds 7 995 87 10000 3.6 190 07:47 28.10.2020
6201 Clouds 7 995 87 10000 3.1 180 07:29 28.10.2020
6202 Clouds 7 995 87 10000 3.1 180 06:40 28.10.2020
6203 Clouds 8 995 81 10000 3.6 190 05:49 28.10.2020
6204 Clouds 7 994 87 10000 3.6 200 04:52 28.10.2020
6205 Rain 7 994 87 10000 4.1 200 04:25 28.10.2020
6206 Rain 8 994 87 10000 3.6 200 02:25 28.10.2020
6207 Clouds 7 995 81 10000 4.1 200 01:26 28.10.2020
6208 Clear 7 994 87 10000 1.5 0 23:52 27.10.2020
6209 Clouds 6 994 87 10000 2.1 180 23:23 27.10.2020
6210 Clouds 7 994 93 10000 3.1 180 22:55 27.10.2020
6211 Clouds 7 994 87 10000 3.1 190 22:37 27.10.2020
6212 Clouds 7 993 75 10000 3.1 200 22:18 27.10.2020
6213 Clouds 8 993 75 10000 3.1 200 21:54 27.10.2020
6214 Clouds 8 993 81 10000 3.6 190 21:36 27.10.2020
6215 Clouds 8 992 87 10000 3.1 200 21:18 27.10.2020
6216 Clouds 8 992 87 10000 3.1 200 20:39 27.10.2020
6217 Clouds 8 992 87 10000 3.1 200 20:20 27.10.2020
6218 Clouds 9 991 87 10000 3.6 210 19:39 27.10.2020
6219 Rain 9 991 87 10000 3.6 210 19:20 27.10.2020
6220 Clouds 9 991 87 10000 3.6 210 18:58 27.10.2020
6221 Clouds 9 991 87 10000 3.6 210 18:58 27.10.2020
6222 Clouds 9 991 87 10000 3.6 230 18:39 27.10.2020
6223 Clouds 9 990 81 10000 4.6 230 18:18 27.10.2020
6224 Clouds 10 990 81 10000 5.7 250 17:42 27.10.2020
6225 Rain 10 990 81 10000 5.7 250 17:21 27.10.2020
6226 Rain 10 990 81 10000 5.7 250 17:21 27.10.2020
6227 Clouds 10 990 87 10000 5.7 260 17:21 27.10.2020
6228 Clouds 10 990 87 10000 5.7 260 17:21 27.10.2020
6229 Rain 10 990 81 10000 5.7 250 17:21 27.10.2020
6230 Clouds 10 989 93 7000 7.7 270 16:48 27.10.2020
6231 Rain 10 989 93 7000 7.7 270 16:25 27.10.2020
6232 Rain 10 988 87 10000 3.6 180 15:48 27.10.2020
6233 Rain 11 988 87 10000 3.6 180 15:30 27.10.2020
6234 Clouds 11 988 93 10000 4.1 180 14:55 27.10.2020
6235 Clouds 11 989 93 10000 4.1 180 14:37 27.10.2020
6236 Rain 11 989 93 10000 3.1 170 14:19 27.10.2020
6237 Clouds 10 990 93 8000 3.6 160 13:33 27.10.2020
6238 Rain 10 991 93 4900 2.6 0 12:58 27.10.2020
6239 Rain 10 991 87 10000 4.1 170 12:38 27.10.2020
6240 Rain 10 992 93 10000 3.6 0 12:20 27.10.2020
6241 Drizzle 9 992 93 5000 3.6 160 11:42 27.10.2020
6242 Drizzle 9 992 93 5000 3.6 160 11:22 27.10.2020
6243 Rain 9 993 93 10000 2.6 150 10:46 27.10.2020
6244 Clouds 8 993 93 10000 2.6 150 10:24 27.10.2020
6245 Clouds 8 995 93 10000 2.1 0 09:44 27.10.2020
6246 Rain 7 995 93 10000 2.1 0 09:23 27.10.2020
6247 Rain 7 995 93 10000 1.5 0 08:36 27.10.2020
6248 Rain 7 995 93 10000 2.1 180 08:18 27.10.2020
6249 Clouds 7 996 93 10000 2.6 180 07:42 27.10.2020
6250 Clouds 7 996 93 10000 2.6 180 07:42 27.10.2020
6251 Clouds 7 996 93 10000 2.6 180 07:24 27.10.2020
6252 Clouds 7 996 87 10000 3.1 190 06:22 27.10.2020
6253 Clouds 6 996 93 10000 2.6 180 05:51 27.10.2020
6254 Clouds 6 997 93 10000 3.1 190 05:32 27.10.2020
6255 Clouds 6 997 93 10000 1.5 170 04:44 27.10.2020
6256 Rain 7 997 93 10000 2.6 190 02:29 27.10.2020
6257 Clouds 8 998 93 10000 3.1 210 00:51 27.10.2020
6258 Clouds 8 998 93 10000 4.6 230 23:41 26.10.2020
6259 Clouds 9 998 93 10000 4.6 230 23:19 26.10.2020
6260 Clouds 9 997 93 10000 4.6 220 22:46 26.10.2020
6261 Clouds 8 997 93 10000 4.6 230 22:21 26.10.2020
6262 Clouds 8 997 93 10000 4.6 230 21:43 26.10.2020
6263 Rain 8 997 93 10000 4.6 230 21:20 26.10.2020
6264 Clouds 9 997 87 6000 3.6 240 20:57 26.10.2020
6265 Clouds 9 996 87 10000 4.6 240 20:38 26.10.2020
6266 Rain 9 996 87 10000 8.7 250 20:18 26.10.2020
6267 Clouds 9 996 87 10000 8.7 250 19:46 26.10.2020
6268 Clouds 9 996 81 10000 6.7 250 19:22 26.10.2020
6269 Rain 10 995 81 10000 6.7 260 18:44 26.10.2020
6270 Rain 10 995 81 10000 6.7 260 18:23 26.10.2020
6271 Clouds 10 995 81 10000 7.2 260 17:55 26.10.2020
6272 Rain 10 995 76 10000 8.2 270 17:37 26.10.2020
6273 Rain 10 995 76 8000 6.7 260 17:19 26.10.2020
6274 Clouds 11 995 76 10000 9.3 260 16:40 26.10.2020
6275 Rain 11 995 76 10000 9.3 260 16:21 26.10.2020
6276 Clouds 11 994 71 10000 9.3 260 15:41 26.10.2020
6277 Rain 11 994 71 10000 9.3 260 15:20 26.10.2020
6278 Rain 11 994 76 9000 9.3 260 14:52 26.10.2020
6279 Rain 11 994 76 9000 9.3 260 14:30 26.10.2020
6280 Clouds 11 993 87 10000 6.2 270 13:43 26.10.2020
6281 Rain 11 993 87 10000 6.2 270 13:24 26.10.2020
6282 Rain 10 993 93 10000 6.7 260 12:49 26.10.2020
6283 Rain 10 993 93 5000 6.7 260 12:27 26.10.2020
6284 Rain 10 992 93 10000 5.7 240 11:57 26.10.2020
6285 Rain 10 992 93 9000 4.6 220 11:37 26.10.2020
6286 Rain 10 992 93 10000 3.6 210 11:19 26.10.2020
6287 Rain 9 991 100 9000 4.1 200 10:44 26.10.2020
6288 Rain 9 991 100 9000 4.1 200 10:25 26.10.2020
6289 Rain 8 991 93 4000 4.1 200 09:48 26.10.2020
6290 Clouds 8 991 93 10000 3.1 180 09:26 26.10.2020
6291 Rain 8 991 93 10000 4.1 190 08:46 26.10.2020
6292 Clouds 7 990 93 10000 3.6 190 07:58 26.10.2020
6293 Clouds 7 990 93 10000 3.6 180 07:38 26.10.2020
6294 Rain 7 990 87 10000 3.1 180 06:49 26.10.2020
6295 Clouds 6 990 93 10000 3.6 180 04:47 26.10.2020
6296 Clouds 6 991 93 10000 2.6 180 04:18 26.10.2020
6297 Clouds 7 991 87 10000 3.1 180 02:27 26.10.2020
6298 Clouds 7 991 93 10000 2.6 170 01:29 26.10.2020
6299 Clear 7 992 87 10000 2.6 180 00:33 26.10.2020
6300 Clear 7 992 87 10000 3.1 190 23:42 25.10.2020
6301 Clear 7 992 87 10000 3.1 190 23:21 25.10.2020
6302 Clear 7 992 87 10000 2.6 180 22:41 25.10.2020
6303 Clear 7 992 87 10000 2.6 180 22:23 25.10.2020
6304 Clear 7 992 87 10000 2.1 0 21:45 25.10.2020
6305 Clear 7 992 87 10000 2.1 0 21:26 25.10.2020
6306 Clear 7 992 87 10000 2.6 180 20:56 25.10.2020
6307 Clear 8 992 81 10000 3.1 190 20:38 25.10.2020
6308 Clear 8 992 81 10000 3.1 190 20:19 25.10.2020
6309 Clouds 8 992 87 10000 2.6 180 19:48 25.10.2020
6310 Rain 8 992 81 10000 2.1 170 19:24 25.10.2020
6311 Clouds 9 992 81 10000 3.1 180 18:55 25.10.2020
6312 Clouds 9 992 87 10000 2.1 180 18:37 25.10.2020
6313 Clouds 9 992 76 10000 3.1 200 18:18 25.10.2020
6314 Clear 10 991 76 10000 3.6 200 17:39 25.10.2020
6315 Rain 10 991 76 10000 3.6 200 17:21 25.10.2020
6316 Clouds 11 991 66 10000 4.1 210 16:58 25.10.2020
6317 Clouds 11 991 71 10000 4.1 210 16:38 25.10.2020
6318 Clouds 11 991 71 10000 4.1 210 16:18 25.10.2020
6319 Rain 11 991 76 10000 3.6 200 15:45 25.10.2020
6320 Clouds 11 991 76 10000 3.6 200 15:25 25.10.2020
6321 Clouds 11 992 81 10000 3.6 180 14:43 25.10.2020
6322 Clouds 11 992 81 10000 3.6 180 14:24 25.10.2020
6323 Clouds 11 992 71 10000 4.6 190 13:43 25.10.2020
6324 Clouds 11 992 71 10000 4.6 190 13:20 25.10.2020
6325 Clouds 11 992 71 10000 4.6 190 12:47 25.10.2020
6326 Clouds 11 992 71 10000 5.7 200 12:26 25.10.2020
6327 Clouds 10 992 76 10000 4.1 200 11:54 25.10.2020
6328 Clouds 10 991 76 10000 4.6 200 11:36 25.10.2020
6329 Clouds 10 991 81 10000 3.6 190 11:18 25.10.2020
6330 Clouds 10 991 81 10000 4.1 180 10:43 25.10.2020
6331 Rain 9 991 81 10000 4.1 180 10:21 25.10.2020
6332 Clouds 8 991 81 10000 3.1 180 09:43 25.10.2020
6333 Rain 8 991 81 10000 3.1 180 09:19 25.10.2020
6334 Clouds 8 990 93 10000 3.6 180 08:44 25.10.2020
6335 Clouds 8 990 93 10000 3.6 180 08:25 25.10.2020
6336 Clouds 8 990 93 10000 4.1 190 07:48 25.10.2020
6337 Clear 8 991 93 10000 4.1 180 07:25 25.10.2020
6338 Rain 7 991 87 10000 4.1 180 06:46 25.10.2020
6339 Clear 7 991 87 10000 3.1 170 05:43 25.10.2020
6340 Clear 7 991 87 10000 3.1 180 04:52 25.10.2020
6341 Clear 8 991 87 10000 2.6 180 02:56 25.10.2020
6342 Clouds 8 991 93 10000 2.1 180 01:20 25.10.2020
6343 Clouds 8 991 93 10000 2.1 190 00:40 25.10.2020
6344 Rain 8 991 93 10000 2.6 200 00:18 25.10.2020
6345 Clouds 8 991 100 10000 2.1 190 23:43 24.10.2020
6346 Rain 8 991 100 10000 2.1 190 23:22 24.10.2020
6347 Clouds 9 990 93 10000 2.1 210 22:42 24.10.2020
6348 Rain 9 990 93 10000 2.1 210 22:23 24.10.2020
6349 Clouds 9 991 100 10000 1.5 0 21:56 24.10.2020
6350 Clouds 9 991 100 10000 1 0 21:38 24.10.2020
6351 Rain 9 991 100 10000 1 0 21:19 24.10.2020
6352 Clouds 9 990 93 4900 4.1 300 20:45 24.10.2020
6353 Rain 9 990 93 4900 4.1 300 20:21 24.10.2020
6354 Rain 9 990 100 4400 2.6 280 19:45 24.10.2020
6355 Rain 10 990 100 4400 2.6 280 19:25 24.10.2020
6356 Rain 10 990 93 10000 2.6 220 18:55 24.10.2020
6357 Rain 11 990 93 3000 5.7 230 18:31 24.10.2020
6358 Rain 11 991 93 9000 3.6 190 17:55 24.10.2020
6359 Rain 12 991 87 10000 3.6 200 17:27 24.10.2020
6360 Rain 12 992 93 10000 3.6 210 16:58 24.10.2020
6361 Rain 12 992 100 10000 1 0 16:40 24.10.2020
6362 Clouds 12 993 87 3200 3.1 190 15:59 24.10.2020
6363 Rain 13 994 87 10000 3.1 180 15:38 24.10.2020
6364 Rain 13 994 87 10000 3.6 200 15:19 24.10.2020
6365 Rain 13 995 87 10000 3.6 190 14:40 24.10.2020
6366 Rain 13 995 87 10000 3.6 190 14:22 24.10.2020
6367 Clouds 13 995 93 10000 4.6 190 13:44 24.10.2020
6368 Clouds 13 995 93 10000 4.6 190 13:20 24.10.2020
6369 Clouds 12 995 87 2900 4.6 170 12:41 24.10.2020
6370 Rain 12 995 87 2900 4.6 170 12:20 24.10.2020
6371 Clouds 12 996 81 10000 4.6 180 11:50 24.10.2020
6372 Rain 12 996 81 10000 5.1 180 11:23 24.10.2020
6373 Clouds 11 997 87 10000 4.6 180 10:47 24.10.2020
6374 Clouds 11 997 87 10000 4.6 180 10:27 24.10.2020
6375 Clouds 10 998 87 10000 5.1 180 09:46 24.10.2020
6376 Clouds 10 998 87 10000 5.1 180 09:26 24.10.2020
6377 Clouds 10 998 81 10000 4.6 180 08:57 24.10.2020
6378 Clouds 9 998 81 10000 4.6 180 08:19 24.10.2020
6379 Clouds 9 999 81 10000 3.6 170 07:51 24.10.2020
6380 Clouds 9 1000 81 10000 4.1 0 07:20 24.10.2020
6381 Clouds 9 1000 81 10000 4.6 180 06:50 24.10.2020
6382 Clouds 9 1002 81 10000 4.1 180 05:43 24.10.2020
6383 Clouds 7 1005 81 10000 2.6 180 02:20 24.10.2020
6384 Clouds 7 1006 87 10000 2.1 180 00:55 24.10.2020
6385 Clouds 7 1006 87 10000 2.1 180 00:37 24.10.2020
6386 Clouds 7 1006 87 10000 2.6 190 00:19 24.10.2020
6387 Clouds 8 1006 87 10000 2.6 180 23:40 23.10.2020
6388 Clouds 8 1006 87 10000 2.6 180 23:22 23.10.2020
6389 Clouds 7 1007 87 10000 1.5 0 22:42 23.10.2020
6390 Clouds 8 1007 87 10000 1.5 0 22:21 23.10.2020
6391 Clouds 8 1007 87 10000 2.1 180 21:53 23.10.2020
6392 Clouds 8 1006 81 10000 2.1 200 21:30 23.10.2020
6393 Clouds 7 1006 87 10000 2.1 180 20:59 23.10.2020
6394 Clouds 8 1006 87 10000 2.1 210 20:38 23.10.2020
6395 Clouds 8 1006 87 10000 2.1 210 20:19 23.10.2020
6396 Clouds 9 1006 70 10000 2.1 230 19:44 23.10.2020
6397 Clouds 9 1006 70 10000 2.1 230 19:26 23.10.2020
6398 Clouds 10 1005 66 10000 5.1 270 18:47 23.10.2020
6399 Clouds 11 1005 66 10000 4.6 260 18:29 23.10.2020
6400 Clouds 11 1005 71 10000 6.7 250 17:45 23.10.2020
6401 Clouds 11 1005 71 10000 6.7 250 17:22 23.10.2020
6402 Clouds 11 1004 76 10000 5.1 250 16:50 23.10.2020
6403 Clouds 11 1004 87 10000 5.1 260 16:31 23.10.2020
6404 Clouds 11 1004 93 10000 5.1 250 15:56 23.10.2020
6405 Clouds 11 1003 87 9000 5.1 220 15:38 23.10.2020
6406 Clouds 11 1003 87 9000 5.1 220 15:19 23.10.2020
6407 Rain 11 1003 87 10000 3.6 190 14:45 23.10.2020
6408 Clouds 11 1003 87 10000 3.6 190 14:27 23.10.2020
6409 Clouds 9 1003 93 10000 2.1 170 13:41 23.10.2020
6410 Rain 9 1003 93 10000 2.1 170 13:23 23.10.2020
6411 Rain 9 1004 93 9000 2.6 180 12:48 23.10.2020
6412 Rain 9 1004 93 8000 2.6 180 12:29 23.10.2020
6413 Rain 9 1004 100 10000 2.6 180 11:49 23.10.2020
6414 Rain 8 1004 93 10000 2.1 190 11:25 23.10.2020
6415 Rain 8 1004 93 10000 2.1 180 10:50 23.10.2020
6416 Rain 8 1004 87 10000 3.1 180 10:26 23.10.2020
6417 Rain 8 1004 93 10000 2.1 170 09:50 23.10.2020
6418 Clouds 7 1004 93 10000 2.1 160 09:27 23.10.2020
6419 Clouds 7 1004 93 10000 2.1 160 09:27 23.10.2020
6420 Clouds 7 1005 93 10000 2.1 180 08:56 23.10.2020
6421 Clouds 7 1005 87 10000 1.5 0 08:37 23.10.2020
6422 Clouds 7 1005 81 10000 1 0 07:47 23.10.2020
6423 Clouds 7 1005 81 10000 1.5 0 07:26 23.10.2020
6424 Clouds 7 1006 81 10000 1.5 0 06:40 23.10.2020
6425 Clouds 6 1006 81 10000 1.5 0 05:58 23.10.2020
6426 Clouds 6 1008 75 10000 2.1 160 02:54 23.10.2020
6427 Clouds 7 1008 75 10000 2.1 180 02:25 23.10.2020
6428 Clouds 8 1008 70 10000 2.1 180 00:48 23.10.2020
6429 Clouds 8 1009 75 10000 2.6 190 23:54 22.10.2020
6430 Clouds 8 1009 81 10000 2.6 210 23:31 22.10.2020
6431 Clouds 8 1008 87 10000 2.1 210 22:54 22.10.2020
6432 Clouds 9 1008 87 10000 2.1 220 22:36 22.10.2020
6433 Clouds 9 1008 87 10000 2.1 210 22:18 22.10.2020
6434 Clouds 9 1008 81 10000 1.5 0 21:42 22.10.2020
6435 Clouds 9 1008 81 10000 1.5 0 21:23 22.10.2020
6436 Clouds 9 1008 81 10000 2.1 220 20:56 22.10.2020
6437 Clouds 10 1008 81 10000 2.6 220 20:37 22.10.2020
6438 Clouds 10 1008 81 10000 2.6 220 20:18 22.10.2020
6439 Clouds 10 1008 87 10000 3.6 220 19:40 22.10.2020
6440 Clouds 10 1008 87 10000 3.6 220 19:40 22.10.2020
6441 Clouds 10 1008 81 10000 3.6 230 19:18 22.10.2020
6442 Clouds 10 1007 81 10000 4.1 240 18:42 22.10.2020
6443 Clouds 10 1007 81 10000 4.1 240 18:20 22.10.2020
6444 Clouds 10 1007 87 10000 4.1 230 17:45 22.10.2020
6445 Clouds 10 1007 87 10000 4.1 230 17:22 22.10.2020
6446 Clouds 10 1007 87 9000 5.7 250 16:47 22.10.2020
6447 Clouds 10 1007 87 9000 5.7 250 16:47 22.10.2020
6448 Clouds 11 1006 76 10000 5.1 240 16:26 22.10.2020
6449 Clouds 11 1006 71 10000 6.7 260 15:57 22.10.2020
6450 Rain 11 1006 76 10000 5.1 250 15:38 22.10.2020
6451 Clouds 11 1006 76 10000 5.1 250 15:19 22.10.2020
6452 Clouds 12 1006 76 10000 6.7 260 14:45 22.10.2020
6453 Clouds 11 1006 76 10000 6.7 260 14:24 22.10.2020
6454 Clouds 11 1005 81 10000 5.7 240 13:45 22.10.2020
6455 Clouds 11 1005 81 10000 5.7 240 13:23 22.10.2020
6456 Clouds 10 1005 81 10000 5.1 220 12:47 22.10.2020
6457 Rain 10 1005 81 10000 5.1 220 12:23 22.10.2020
6458 Clouds 10 1004 81 10000 5.1 220 11:48 22.10.2020
6459 Clouds 10 1004 81 10000 5.1 220 11:20 22.10.2020
6460 Clouds 10 1004 81 10000 4.1 210 10:49 22.10.2020
6461 Clouds 10 1004 81 10000 4.6 210 10:49 22.10.2020
6462 Clouds 10 1004 81 10000 4.1 210 10:27 22.10.2020
6463 Clouds 9 1002 81 10000 5.1 220 09:46 22.10.2020
6464 Clouds 9 1002 81 10000 5.1 220 09:25 22.10.2020
6465 Clouds 9 1002 81 10000 4.1 220 08:47 22.10.2020
6466 Clouds 9 1002 81 10000 3.6 220 08:27 22.10.2020
6467 Clouds 9 1002 81 10000 4.1 210 07:48 22.10.2020
6468 Clouds 10 1002 81 10000 3.6 220 07:29 22.10.2020
6469 Clouds 10 1001 93 10000 2.6 220 06:46 22.10.2020
6470 Clouds 10 1001 93 10000 2.6 220 06:24 22.10.2020
6471 Clouds 10 1001 87 10000 3.1 250 05:39 22.10.2020
6472 Clouds 10 1000 87 10000 3.6 240 03:26 22.10.2020
6473 Clouds 11 999 93 10000 4.6 240 01:34 22.10.2020
6474 Clouds 11 999 93 10000 4.6 240 01:34 22.10.2020
6475 Clouds 11 999 93 10000 4.6 240 01:34 22.10.2020
6476 Clouds 11 999 93 10000 2.6 200 00:24 22.10.2020
6477 Clouds 12 998 93 10000 3.1 200 23:44 21.10.2020
6478 Clouds 11 998 93 10000 3.1 200 23:19 21.10.2020
6479 Clouds 11 998 93 10000 2.1 200 22:39 21.10.2020
6480 Clouds 12 997 87 10000 2.6 190 22:19 21.10.2020
6481 Clouds 12 998 93 10000 2.1 200 22:19 21.10.2020
6482 Clouds 12 997 87 10000 2.6 190 22:19 21.10.2020
6483 Clouds 12 997 93 10000 2.6 200 21:46 21.10.2020
6484 Clouds 12 997 93 10000 2.6 200 21:20 21.10.2020
6485 Clouds 12 997 87 10000 2.1 200 20:57 21.10.2020
6486 Clouds 12 996 87 10000 2.1 210 20:39 21.10.2020
6487 Clouds 12 996 93 10000 1.5 0 20:18 21.10.2020
6488 Clouds 13 995 93 10000 2.1 250 19:40 21.10.2020
6489 Clouds 13 995 93 10000 2.1 250 19:22 21.10.2020
6490 Clouds 13 995 93 10000 2.6 250 18:49 21.10.2020
6491 Clouds 13 995 93 10000 2.1 260 18:27 21.10.2020
6492 Clouds 13 994 100 10000 2.6 260 17:50 21.10.2020
6493 Rain 13 994 100 2100 2.6 280 17:22 21.10.2020
6494 Clouds 13 993 100 2000 4.1 300 16:58 21.10.2020
6495 Clouds 13 993 100 2000 4.1 300 16:37 21.10.2020
6496 Rain 14 993 93 10000 2.1 210 16:18 21.10.2020
6497 Clouds 14 993 100 10000 2.6 240 15:44 21.10.2020
6498 Rain 15 993 93 1900 3.6 240 15:21 21.10.2020
6499 Rain 15 992 93 10000 2.6 210 14:48 21.10.2020
6500 Clouds 15 992 93 10000 2.1 200 14:28 21.10.2020
6501 Clouds 15 992 93 10000 1.5 0 13:48 21.10.2020
6502 Clouds 15 993 93 10000 1 0 13:29 21.10.2020
6503 Clouds 15 993 93 10000 1 0 12:57 21.10.2020
6504 Clouds 15 993 93 10000 1 0 12:37 21.10.2020
6505 Rain 15 993 93 10000 1 0 12:19 21.10.2020
6506 Clouds 14 993 93 10000 1.5 0 11:41 21.10.2020
6507 Rain 14 993 93 10000 1.5 0 11:20 21.10.2020
6508 Clouds 14 994 93 10000 1.5 0 10:46 21.10.2020
6509 Rain 14 994 93 10000 1.5 0 10:25 21.10.2020
6510 Clouds 14 993 93 10000 1.5 0 09:54 21.10.2020
6511 Clouds 14 993 93 10000 1.5 0 09:33 21.10.2020
6512 Clouds 14 993 93 10000 1.5 0 08:56 21.10.2020
6513 Clouds 14 993 93 10000 1.5 0 08:38 21.10.2020
6514 Clouds 14 994 93 10000 1.5 0 08:19 21.10.2020
6515 Rain 14 994 93 10000 1.5 0 07:37 21.10.2020
6516 Rain 14 994 93 10000 2.1 180 06:55 21.10.2020
6517 Rain 14 994 93 10000 1.5 0 06:29 21.10.2020
6518 Rain 14 995 93 10000 2.1 170 04:47 21.10.2020
6519 Clouds 14 996 87 10000 1.5 0 00:52 21.10.2020
6520 Clouds 14 996 87 10000 2.1 170 23:49 20.10.2020
6521 Clouds 14 996 82 10000 3.1 170 22:54 20.10.2020
6522 Clear 15 996 77 10000 4.1 180 22:28 20.10.2020
6523 Clear 15 996 77 10000 3.6 180 21:50 20.10.2020
6524 Clouds 15 996 77 10000 3.1 170 21:20 20.10.2020
6525 Clear 15 996 72 10000 3.6 180 20:45 20.10.2020
6526 Clouds 15 996 77 10000 2.6 160 20:26 20.10.2020
6527 Clouds 15 996 77 10000 1.5 0 19:59 20.10.2020
6528 Clouds 15 996 77 10000 1.5 0 19:41 20.10.2020
6529 Clouds 15 996 77 10000 2.1 170 19:21 20.10.2020
6530 Clouds 16 996 72 10000 4.1 180 18:47 20.10.2020
6531 Clouds 16 996 67 10000 4.1 180 18:29 20.10.2020
6532 Clouds 16 996 72 10000 4.1 180 17:47 20.10.2020
6533 Clouds 17 996 63 10000 4.1 180 17:29 20.10.2020
6534 Clouds 17 996 67 10000 3.6 170 16:48 20.10.2020
6535 Rain 17 996 63 10000 4.1 180 16:28 20.10.2020
6536 Clouds 17 996 67 10000 4.1 180 15:56 20.10.2020
6537 Clouds 17 996 67 10000 4.1 180 15:38 20.10.2020
6538 Clouds 17 996 67 10000 4.1 180 15:19 20.10.2020
6539 Clouds 17 996 63 10000 4.6 180 14:41 20.10.2020
6540 Clouds 17 996 67 10000 4.6 190 14:22 20.10.2020
6541 Clouds 17 996 67 10000 4.1 180 13:44 20.10.2020
6542 Clouds 17 997 77 10000 3.6 170 13:23 20.10.2020
6543 Clouds 17 997 77 10000 3.1 160 12:58 20.10.2020
6544 Clouds 16 997 77 10000 3.1 160 12:40 20.10.2020
6545 Clouds 16 996 82 10000 3.6 170 12:21 20.10.2020
6546 Clouds 15 996 82 10000 2.6 160 11:40 20.10.2020
6547 Clouds 15 996 87 10000 3.1 160 11:20 20.10.2020
6548 Clouds 13 996 87 10000 2.6 160 10:31 20.10.2020
6549 Clouds 13 996 87 10000 3.1 160 09:51 20.10.2020
6550 Clouds 13 996 87 10000 3.1 170 09:22 20.10.2020
6551 Clouds 12 996 93 10000 3.1 0 08:58 20.10.2020
6552 Clouds 12 996 93 10000 3.1 170 08:36 20.10.2020
6553 Clouds 12 996 93 10000 3.6 170 07:52 20.10.2020
6554 Clouds 12 996 87 10000 3.6 170 07:26 20.10.2020
6555 Clouds 11 997 87 10000 3.6 160 06:30 20.10.2020
6556 Clouds 11 997 87 10000 4.1 150 05:43 20.10.2020
6557 Rain 11 999 76 10000 4.1 140 03:55 20.10.2020
6558 Clouds 11 1001 76 10000 3.6 160 02:18 20.10.2020
6559 Clouds 11 1002 71 10000 4.1 0 00:58 20.10.2020
6560 Clouds 11 1002 71 10000 4.1 0 00:39 20.10.2020
6561 Clouds 11 1003 71 10000 3.1 0 00:19 20.10.2020
6562 Clouds 11 1003 71 10000 3.1 140 23:40 19.10.2020
6563 Clouds 11 1004 71 10000 3.6 150 23:19 19.10.2020
6564 Clouds 11 1004 66 10000 3.1 150 22:43 19.10.2020
6565 Rain 11 1005 66 10000 3.6 160 22:21 19.10.2020
6566 Rain 11 1005 66 10000 3.1 150 21:43 19.10.2020
6567 Rain 12 1006 71 10000 3.1 160 21:21 19.10.2020
6568 Rain 12 1006 66 10000 3.6 170 20:46 19.10.2020
6569 Rain 12 1006 66 10000 2.6 160 20:27 19.10.2020
6570 Rain 13 1006 71 10000 3.6 160 19:48 19.10.2020
6571 Rain 13 1007 66 10000 3.1 150 19:22 19.10.2020
6572 Clouds 13 1007 71 10000 2.6 0 18:54 19.10.2020
6573 Clouds 13 1007 71 10000 2.6 0 18:54 19.10.2020
6574 Clouds 13 1008 71 10000 2.1 0 18:35 19.10.2020
6575 Clouds 13 1008 71 10000 2.1 0 17:58 19.10.2020
6576 Clouds 13 1008 71 10000 2.1 0 17:40 19.10.2020
6577 Clouds 13 1009 71 10000 2.6 170 17:21 19.10.2020
6578 Clouds 13 1009 76 10000 2.6 160 16:43 19.10.2020
6579 Clouds 13 1010 76 10000 3.1 0 16:22 19.10.2020
6580 Clouds 13 1009 68 10000 1.34 313 15:41 19.10.2020
6581 Clouds 13 1009 69 10000 2.24 292 15:23 19.10.2020
6582 Clouds 12 1009 69 10000 1.79 315 14:51 19.10.2020
6583 Clouds 12 1010 69 10000 0.89 328 14:24 19.10.2020
6584 Clouds 12 1011 71 10000 1.79 325 13:52 19.10.2020
6585 Clouds 12 1011 71 10000 1.79 329 13:31 19.10.2020
6586 Clouds 12 1012 71 10000 1.79 259 12:50 19.10.2020
6587 Clouds 11 1012 71 10000 2.68 314 12:32 19.10.2020
6588 Clouds 10 1015 93 7000 2.1 0 11:51 19.10.2020
6589 Clouds 10 1015 93 7000 2.1 0 11:25 19.10.2020
6590 Clouds 10 1015 93 7000 2.1 0 10:56 19.10.2020
6591 Clouds 10 1015 93 8000 1.5 0 10:37 19.10.2020
6592 Clouds 9 1015 93 7000 1 0 10:19 19.10.2020
6593 Clouds 9 1015 87 8000 2.1 150 09:42 19.10.2020
6594 Clouds 9 1015 87 8000 2.1 150 09:19 19.10.2020
6595 Clouds 9 1015 87 8000 1.5 0 08:48 19.10.2020
6596 Clouds 9 1016 87 10000 1 0 08:22 19.10.2020
6597 Clouds 9 1016 87 10000 1.5 0 07:37 19.10.2020
6598 Clouds 9 1017 93 10000 2.1 160 07:18 19.10.2020
6599 Clouds 8 1018 87 10000 1.5 0 06:18 19.10.2020
6600 Clouds 9 1019 87 10000 1 0 03:47 19.10.2020
6601 Clouds 9 1019 87 10000 1.5 0 01:59 19.10.2020
6602 Clouds 10 1020 87 10000 1 0 00:44 19.10.2020
6603 Clouds 10 1020 81 10000 1.5 0 23:59 18.10.2020
6604 Clouds 10 1021 81 9000 1.5 0 23:41 18.10.2020
6605 Clouds 10 1021 81 9000 1.5 0 23:21 18.10.2020
6606 Clouds 10 1021 87 9000 1.5 0 22:45 18.10.2020
6607 Clouds 10 1021 87 9000 1.5 0 22:20 18.10.2020
6608 Clouds 10 1021 93 9000 0.5 0 21:50 18.10.2020
6609 Clouds 10 1021 93 9000 0.5 0 21:29 18.10.2020
6610 Clouds 10 1022 93 7000 1 140 20:47 18.10.2020
6611 Clouds 10 1022 93 10000 1 140 20:25 18.10.2020
6612 Clouds 10 1022 87 10000 1 0 19:56 18.10.2020
6613 Clouds 10 1021 87 10000 0.5 0 19:38 18.10.2020
6614 Clouds 11 1021 87 10000 0.5 0 19:19 18.10.2020
6615 Clouds 11 1022 81 10000 1.5 0 18:46 18.10.2020
6616 Clouds 11 1022 81 10000 1.5 0 18:24 18.10.2020
6617 Clouds 11 1022 81 10000 1.5 0 17:41 18.10.2020
6618 Clouds 11 1022 81 10000 1.5 0 17:22 18.10.2020
6619 Clouds 11 1023 81 10000 2.6 210 16:43 18.10.2020
6620 Clouds 11 1023 81 10000 2.6 210 16:24 18.10.2020
6621 Clouds 11 1023 81 10000 2.1 200 15:43 18.10.2020
6622 Clouds 11 1023 81 10000 2.1 200 15:22 18.10.2020
6623 Clouds 11 1023 87 10000 2.1 190 14:58 18.10.2020
6624 Clouds 11 1024 87 10000 1.5 0 14:37 18.10.2020
6625 Clouds 11 1024 87 10000 1.5 0 14:18 18.10.2020
6626 Clouds 10 1024 87 10000 1 0 13:41 18.10.2020
6627 Clouds 10 1024 87 10000 1 0 13:23 18.10.2020
6628 Clouds 10 1025 93 10000 1 0 12:43 18.10.2020
6629 Clouds 10 1025 93 10000 1 0 12:24 18.10.2020
6630 Clouds 9 1025 93 10000 1 0 11:47 18.10.2020
6631 Clouds 9 1025 93 10000 1 0 11:29 18.10.2020
6632 Clouds 9 1025 87 10000 1 0 10:59 18.10.2020
6633 Clouds 9 1024 93 10000 0.5 0 10:39 18.10.2020
6634 Clouds 9 1024 93 10000 0.5 0 10:18 18.10.2020
6635 Clouds 9 1024 93 10000 0.5 0 09:44 18.10.2020
6636 Clouds 9 1024 93 10000 0.5 0 09:20 18.10.2020
6637 Clouds 8 1024 93 10000 1 0 08:52 18.10.2020
6638 Clouds 8 1024 93 10000 1.5 80 08:25 18.10.2020
6639 Clouds 8 1024 93 10000 1.5 0 07:48 18.10.2020
6640 Clouds 8 1024 93 10000 2.6 40 05:56 18.10.2020
6641 Clouds 9 1024 93 10000 1 60 03:40 18.10.2020
6642 Clouds 9 1024 93 10000 1 340 02:51 18.10.2020
6643 Clouds 10 1024 93 10000 0.5 0 01:25 18.10.2020
6644 Clouds 10 1024 93 10000 0.5 0 00:36 18.10.2020
6645 Clouds 10 1024 100 10000 1.15 35 23:59 17.10.2020
6646 Clouds 10 1024 93 10000 0.5 0 23:40 17.10.2020
6647 Clouds 10 1024 93 10000 0.5 0 23:21 17.10.2020
6648 Clouds 10 1024 93 10000 0.5 0 23:21 17.10.2020
6649 Clouds 10 1024 100 10000 0.5 0 22:55 17.10.2020
6650 Clouds 10 1024 100 10000 0.5 0 22:22 17.10.2020
6651 Clouds 10 1023 100 10000 1 140 21:59 17.10.2020
6652 Clouds 10 1023 93 10000 1 0 21:40 17.10.2020
6653 Clouds 10 1023 93 10000 1 0 21:20 17.10.2020
6654 Clouds 10 1023 93 10000 0.5 0 20:43 17.10.2020
6655 Clouds 10 1023 93 10000 0.5 0 20:19 17.10.2020
6656 Clouds 10 1023 87 10000 0.5 0 19:43 17.10.2020
6657 Clouds 10 1023 87 10000 0.5 0 19:21 17.10.2020
6658 Clouds 11 1023 87 10000 1.5 290 18:45 17.10.2020
6659 Clouds 11 1023 87 10000 1.5 290 18:25 17.10.2020
6660 Clouds 11 1023 87 10000 1.5 0 17:50 17.10.2020
6661 Clouds 11 1023 87 10000 1.5 0 17:50 17.10.2020
6662 Clouds 11 1023 87 10000 2.1 280 17:23 17.10.2020
6663 Clouds 11 1023 87 10000 1.5 260 16:51 17.10.2020
6664 Clouds 11 1023 93 10000 1 0 16:24 17.10.2020
6665 Clouds 10 1023 93 10000 2.1 290 15:59 17.10.2020
6666 Clouds 10 1023 93 10000 2.6 290 15:40 17.10.2020
6667 Clouds 10 1023 93 10000 2.6 290 15:21 17.10.2020
6668 Mist 10 1023 93 5000 2.1 290 14:54 17.10.2020
6669 Clouds 10 1023 93 8000 2.6 300 14:31 17.10.2020
6670 Clouds 9 1024 93 10000 2.6 310 13:59 17.10.2020
6671 Clouds 9 1024 93 10000 2.1 320 13:41 17.10.2020
6672 Clouds 9 1024 93 10000 2.1 320 13:20 17.10.2020
6673 Clouds 9 1024 81 10000 2.1 320 12:41 17.10.2020
6674 Clouds 9 1024 81 10000 2.1 320 12:20 17.10.2020
6675 Clouds 9 1024 87 10000 2.1 320 11:58 17.10.2020
6676 Clouds 9 1024 87 10000 1.5 340 11:29 17.10.2020
6677 Clouds 9 1024 93 10000 2.1 350 10:45 17.10.2020
6678 Clouds 9 1024 93 10000 2.1 350 10:26 17.10.2020
6679 Clouds 8 1024 93 10000 2.1 350 09:44 17.10.2020
6680 Clouds 8 1024 93 10000 2.1 350 09:26 17.10.2020
6681 Clouds 8 1024 93 10000 1.5 340 08:47 17.10.2020
6682 Clouds 8 1024 93 10000 2.6 360 08:20 17.10.2020
6683 Clouds 7 1024 93 10000 2.1 30 07:43 17.10.2020
6684 Clouds 7 1024 93 10000 1 30 06:44 17.10.2020
6685 Clouds 6 1025 93 10000 1.5 60 04:52 17.10.2020
6686 Clouds 9 1025 81 10000 2.1 70 02:29 17.10.2020
6687 Clouds 8 1026 87 10000 1.5 60 00:57 17.10.2020
6688 Clouds 10 1026 81 10000 2.6 60 00:34 17.10.2020
6689 Clouds 10 1026 81 10000 2.6 70 23:38 16.10.2020
6690 Clouds 10 1026 81 10000 2.6 70 23:20 16.10.2020
6691 Clouds 10 1026 81 10000 3.1 60 22:43 16.10.2020
6692 Clouds 10 1026 81 10000 3.1 60 22:23 16.10.2020
6693 Clouds 10 1026 81 10000 2.1 60 21:47 16.10.2020
6694 Clouds 10 1026 81 10000 2.6 60 21:26 16.10.2020
6695 Clouds 11 1026 81 10000 2.6 60 20:47 16.10.2020
6696 Clouds 11 1026 76 10000 2.1 50 20:26 16.10.2020
6697 Clouds 11 1026 76 10000 1.5 60 19:54 16.10.2020
6